<?xml version="1.0" encoding="UTF-8" standalone="no" ?>
<gpx xmlns="http://www.topografix.com/GPX/1/1" xmlns:xsi="http://www.w3.org/2001/XMLSchema-instance" xsi:schemaLocation="http://www.topografix.com/GPX/1/1 http://www.topografix.com/GPX/1/1/gpx.xsd" version="1.1" creator="VisuGPX - https://www.visugpx.com">
  <metadata>
    <name>Tracé 2024.06.16 09:14</name>
  </metadata>
  <wpt lat="46.62485" lon="6.25257">
    <ele>1007.6</ele>
    <name><![CDATA[Point de départ]]></name>
  </wpt>
  <wpt lat="46.62492" lon="6.25267">
    <ele>1007.2</ele>
    <name><![CDATA[Destination]]></name>
  </wpt>
  <trk>
    <name><![CDATA[Swisstopo Route]]></name>
    <extensions>
      <line xmlns="http://www.topografix.com/GPX/gpx_style/0/2">
        <color>0000FF</color>
        <width>4</width>
      </line>
    </extensions>
    <trkseg>
      <trkpt lat="46.62485" lon="6.25257">
        <ele>1011.6</ele>
        <time>2024-06-16T06:21:32Z</time>
      </trkpt>
      <trkpt lat="46.62486" lon="6.25259">
        <ele>1011.4</ele>
        <time>2024-06-16T06:21:41Z</time>
      </trkpt>
      <trkpt lat="46.62486" lon="6.25259">
        <ele>1011.4</ele>
        <time>2024-06-16T06:21:42Z</time>
      </trkpt>
      <trkpt lat="46.62486" lon="6.25259">
        <ele>1011.4</ele>
        <time>2024-06-16T06:21:43Z</time>
      </trkpt>
      <trkpt lat="46.62486" lon="6.25259">
        <ele>1011.4</ele>
        <time>2024-06-16T06:21:44Z</time>
      </trkpt>
      <trkpt lat="46.62486" lon="6.25259">
        <ele>1011.4</ele>
        <time>2024-06-16T06:21:45Z</time>
      </trkpt>
      <trkpt lat="46.62486" lon="6.25259">
        <ele>1011.4</ele>
        <time>2024-06-16T06:21:46Z</time>
      </trkpt>
      <trkpt lat="46.62486" lon="6.25259">
        <ele>1011.5</ele>
        <time>2024-06-16T06:21:47Z</time>
      </trkpt>
      <trkpt lat="46.62486" lon="6.25259">
        <ele>1011.6</ele>
        <time>2024-06-16T06:21:48Z</time>
      </trkpt>
      <trkpt lat="46.62486" lon="6.25259">
        <ele>1011.7</ele>
        <time>2024-06-16T06:21:49Z</time>
      </trkpt>
      <trkpt lat="46.62487" lon="6.25259">
        <ele>1011.7</ele>
        <time>2024-06-16T06:21:50Z</time>
      </trkpt>
      <trkpt lat="46.62487" lon="6.25259">
        <ele>1011.9</ele>
        <time>2024-06-16T06:21:51Z</time>
      </trkpt>
      <trkpt lat="46.62486" lon="6.25259">
        <ele>1011.7</ele>
        <time>2024-06-16T06:21:52Z</time>
      </trkpt>
      <trkpt lat="46.62486" lon="6.2526">
        <ele>1011.6</ele>
        <time>2024-06-16T06:21:53Z</time>
      </trkpt>
      <trkpt lat="46.62486" lon="6.25261">
        <ele>1011.4</ele>
        <time>2024-06-16T06:21:54Z</time>
      </trkpt>
      <trkpt lat="46.62487" lon="6.25262">
        <ele>1010.9</ele>
        <time>2024-06-16T06:21:55Z</time>
      </trkpt>
      <trkpt lat="46.62488" lon="6.25263">
        <ele>1010.5</ele>
        <time>2024-06-16T06:21:56Z</time>
      </trkpt>
      <trkpt lat="46.62489" lon="6.25264">
        <ele>1010.4</ele>
        <time>2024-06-16T06:21:57Z</time>
      </trkpt>
      <trkpt lat="46.6249" lon="6.25265">
        <ele>1010.6</ele>
        <time>2024-06-16T06:21:58Z</time>
      </trkpt>
      <trkpt lat="46.62491" lon="6.25267">
        <ele>1010.7</ele>
        <time>2024-06-16T06:21:59Z</time>
      </trkpt>
      <trkpt lat="46.62492" lon="6.25269">
        <ele>1010.8</ele>
        <time>2024-06-16T06:22:00Z</time>
      </trkpt>
      <trkpt lat="46.62494" lon="6.25272">
        <ele>1010.8</ele>
        <time>2024-06-16T06:22:01Z</time>
      </trkpt>
      <trkpt lat="46.62495" lon="6.25276">
        <ele>1010.8</ele>
        <time>2024-06-16T06:22:02Z</time>
      </trkpt>
      <trkpt lat="46.62497" lon="6.2528">
        <ele>1011</ele>
        <time>2024-06-16T06:22:03Z</time>
      </trkpt>
      <trkpt lat="46.625" lon="6.25283">
        <ele>1011.2</ele>
        <time>2024-06-16T06:22:04Z</time>
      </trkpt>
      <trkpt lat="46.62503" lon="6.25287">
        <ele>1011.8</ele>
        <time>2024-06-16T06:22:05Z</time>
      </trkpt>
      <trkpt lat="46.62506" lon="6.2529">
        <ele>1012.4</ele>
        <time>2024-06-16T06:22:06Z</time>
      </trkpt>
      <trkpt lat="46.62509" lon="6.25294">
        <ele>1012.8</ele>
        <time>2024-06-16T06:22:07Z</time>
      </trkpt>
      <trkpt lat="46.62513" lon="6.25297">
        <ele>1013.1</ele>
        <time>2024-06-16T06:22:08Z</time>
      </trkpt>
      <trkpt lat="46.62517" lon="6.253">
        <ele>1013.3</ele>
        <time>2024-06-16T06:22:09Z</time>
      </trkpt>
      <trkpt lat="46.62521" lon="6.25303">
        <ele>1013.3</ele>
        <time>2024-06-16T06:22:10Z</time>
      </trkpt>
      <trkpt lat="46.62526" lon="6.25306">
        <ele>1013.1</ele>
        <time>2024-06-16T06:22:11Z</time>
      </trkpt>
      <trkpt lat="46.62531" lon="6.25308">
        <ele>1013.1</ele>
        <time>2024-06-16T06:22:12Z</time>
      </trkpt>
      <trkpt lat="46.62537" lon="6.2531">
        <ele>1013.1</ele>
        <time>2024-06-16T06:22:13Z</time>
      </trkpt>
      <trkpt lat="46.62542" lon="6.25311">
        <ele>1013.1</ele>
        <time>2024-06-16T06:22:14Z</time>
      </trkpt>
      <trkpt lat="46.62548" lon="6.25313">
        <ele>1013</ele>
        <time>2024-06-16T06:22:15Z</time>
      </trkpt>
      <trkpt lat="46.62553" lon="6.25314">
        <ele>1012.9</ele>
        <time>2024-06-16T06:22:16Z</time>
      </trkpt>
      <trkpt lat="46.62559" lon="6.25316">
        <ele>1012.8</ele>
        <time>2024-06-16T06:22:17Z</time>
      </trkpt>
      <trkpt lat="46.62565" lon="6.25317">
        <ele>1012.6</ele>
        <time>2024-06-16T06:22:18Z</time>
      </trkpt>
      <trkpt lat="46.62571" lon="6.25319">
        <ele>1012.5</ele>
        <time>2024-06-16T06:22:19Z</time>
      </trkpt>
      <trkpt lat="46.62576" lon="6.2532">
        <ele>1012.5</ele>
        <time>2024-06-16T06:22:20Z</time>
      </trkpt>
      <trkpt lat="46.62582" lon="6.25322">
        <ele>1012.5</ele>
        <time>2024-06-16T06:22:21Z</time>
      </trkpt>
      <trkpt lat="46.62588" lon="6.25324">
        <ele>1012.5</ele>
        <time>2024-06-16T06:22:22Z</time>
      </trkpt>
      <trkpt lat="46.62593" lon="6.25327">
        <ele>1012.3</ele>
        <time>2024-06-16T06:22:23Z</time>
      </trkpt>
      <trkpt lat="46.62599" lon="6.25329">
        <ele>1012.3</ele>
        <time>2024-06-16T06:22:24Z</time>
      </trkpt>
      <trkpt lat="46.62604" lon="6.25332">
        <ele>1012.4</ele>
        <time>2024-06-16T06:22:25Z</time>
      </trkpt>
      <trkpt lat="46.6261" lon="6.25335">
        <ele>1012.4</ele>
        <time>2024-06-16T06:22:26Z</time>
      </trkpt>
      <trkpt lat="46.62615" lon="6.25339">
        <ele>1012.5</ele>
        <time>2024-06-16T06:22:27Z</time>
      </trkpt>
      <trkpt lat="46.6262" lon="6.25343">
        <ele>1012.5</ele>
        <time>2024-06-16T06:22:28Z</time>
      </trkpt>
      <trkpt lat="46.62625" lon="6.25347">
        <ele>1012.5</ele>
        <time>2024-06-16T06:22:29Z</time>
      </trkpt>
      <trkpt lat="46.6263" lon="6.25351">
        <ele>1012.7</ele>
        <time>2024-06-16T06:22:30Z</time>
      </trkpt>
      <trkpt lat="46.62635" lon="6.25355">
        <ele>1012.7</ele>
        <time>2024-06-16T06:22:31Z</time>
      </trkpt>
      <trkpt lat="46.6264" lon="6.2536">
        <ele>1012.8</ele>
        <time>2024-06-16T06:22:32Z</time>
      </trkpt>
      <trkpt lat="46.62644" lon="6.25364">
        <ele>1012.9</ele>
        <time>2024-06-16T06:22:33Z</time>
      </trkpt>
      <trkpt lat="46.62649" lon="6.25368">
        <ele>1013</ele>
        <time>2024-06-16T06:22:34Z</time>
      </trkpt>
      <trkpt lat="46.62654" lon="6.25372">
        <ele>1013.1</ele>
        <time>2024-06-16T06:22:35Z</time>
      </trkpt>
      <trkpt lat="46.62658" lon="6.25376">
        <ele>1013.2</ele>
        <time>2024-06-16T06:22:36Z</time>
      </trkpt>
      <trkpt lat="46.62663" lon="6.25379">
        <ele>1013.5</ele>
        <time>2024-06-16T06:22:37Z</time>
      </trkpt>
      <trkpt lat="46.62667" lon="6.25383">
        <ele>1013.6</ele>
        <time>2024-06-16T06:22:38Z</time>
      </trkpt>
      <trkpt lat="46.62672" lon="6.25387">
        <ele>1013.7</ele>
        <time>2024-06-16T06:22:39Z</time>
      </trkpt>
      <trkpt lat="46.62677" lon="6.2539">
        <ele>1013.8</ele>
        <time>2024-06-16T06:22:40Z</time>
      </trkpt>
      <trkpt lat="46.62681" lon="6.25394">
        <ele>1013.9</ele>
        <time>2024-06-16T06:22:41Z</time>
      </trkpt>
      <trkpt lat="46.62686" lon="6.25398">
        <ele>1014</ele>
        <time>2024-06-16T06:22:42Z</time>
      </trkpt>
      <trkpt lat="46.6269" lon="6.25402">
        <ele>1014.2</ele>
        <time>2024-06-16T06:22:43Z</time>
      </trkpt>
      <trkpt lat="46.62694" lon="6.25406">
        <ele>1014.4</ele>
        <time>2024-06-16T06:22:44Z</time>
      </trkpt>
      <trkpt lat="46.62698" lon="6.2541">
        <ele>1014.6</ele>
        <time>2024-06-16T06:22:45Z</time>
      </trkpt>
      <trkpt lat="46.62703" lon="6.25414">
        <ele>1014.7</ele>
        <time>2024-06-16T06:22:46Z</time>
      </trkpt>
      <trkpt lat="46.62707" lon="6.25418">
        <ele>1014.8</ele>
        <time>2024-06-16T06:22:47Z</time>
      </trkpt>
      <trkpt lat="46.62711" lon="6.25422">
        <ele>1014.9</ele>
        <time>2024-06-16T06:22:48Z</time>
      </trkpt>
      <trkpt lat="46.62715" lon="6.25426">
        <ele>1015.1</ele>
        <time>2024-06-16T06:22:49Z</time>
      </trkpt>
      <trkpt lat="46.62719" lon="6.2543">
        <ele>1015.2</ele>
        <time>2024-06-16T06:22:50Z</time>
      </trkpt>
      <trkpt lat="46.62724" lon="6.25433">
        <ele>1015.1</ele>
        <time>2024-06-16T06:22:51Z</time>
      </trkpt>
      <trkpt lat="46.62728" lon="6.25436">
        <ele>1015.1</ele>
        <time>2024-06-16T06:22:52Z</time>
      </trkpt>
      <trkpt lat="46.62733" lon="6.25439">
        <ele>1015.1</ele>
        <time>2024-06-16T06:22:53Z</time>
      </trkpt>
      <trkpt lat="46.62738" lon="6.25441">
        <ele>1015.1</ele>
        <time>2024-06-16T06:22:54Z</time>
      </trkpt>
      <trkpt lat="46.62742" lon="6.25444">
        <ele>1015.2</ele>
        <time>2024-06-16T06:22:55Z</time>
      </trkpt>
      <trkpt lat="46.62747" lon="6.25447">
        <ele>1015.3</ele>
        <time>2024-06-16T06:22:56Z</time>
      </trkpt>
      <trkpt lat="46.62752" lon="6.2545">
        <ele>1015.4</ele>
        <time>2024-06-16T06:22:57Z</time>
      </trkpt>
      <trkpt lat="46.62757" lon="6.25454">
        <ele>1015.4</ele>
        <time>2024-06-16T06:22:58Z</time>
      </trkpt>
      <trkpt lat="46.62761" lon="6.25458">
        <ele>1015.4</ele>
        <time>2024-06-16T06:22:59Z</time>
      </trkpt>
      <trkpt lat="46.62766" lon="6.25463">
        <ele>1015.6</ele>
        <time>2024-06-16T06:23:00Z</time>
      </trkpt>
      <trkpt lat="46.6277" lon="6.25468">
        <ele>1015.7</ele>
        <time>2024-06-16T06:23:01Z</time>
      </trkpt>
      <trkpt lat="46.62774" lon="6.25473">
        <ele>1015.7</ele>
        <time>2024-06-16T06:23:02Z</time>
      </trkpt>
      <trkpt lat="46.62778" lon="6.25479">
        <ele>1015.5</ele>
        <time>2024-06-16T06:23:03Z</time>
      </trkpt>
      <trkpt lat="46.62782" lon="6.25486">
        <ele>1015.4</ele>
        <time>2024-06-16T06:23:04Z</time>
      </trkpt>
      <trkpt lat="46.62785" lon="6.25493">
        <ele>1015.3</ele>
        <time>2024-06-16T06:23:05Z</time>
      </trkpt>
      <trkpt lat="46.62788" lon="6.255">
        <ele>1015.2</ele>
        <time>2024-06-16T06:23:06Z</time>
      </trkpt>
      <trkpt lat="46.62791" lon="6.25507">
        <ele>1015.1</ele>
        <time>2024-06-16T06:23:07Z</time>
      </trkpt>
      <trkpt lat="46.62794" lon="6.25514">
        <ele>1015</ele>
        <time>2024-06-16T06:23:08Z</time>
      </trkpt>
      <trkpt lat="46.62796" lon="6.25521">
        <ele>1014.9</ele>
        <time>2024-06-16T06:23:09Z</time>
      </trkpt>
      <trkpt lat="46.62799" lon="6.25527">
        <ele>1014.9</ele>
        <time>2024-06-16T06:23:10Z</time>
      </trkpt>
      <trkpt lat="46.62802" lon="6.25533">
        <ele>1014.9</ele>
        <time>2024-06-16T06:23:11Z</time>
      </trkpt>
      <trkpt lat="46.62805" lon="6.25539">
        <ele>1014.8</ele>
        <time>2024-06-16T06:23:12Z</time>
      </trkpt>
      <trkpt lat="46.62808" lon="6.25544">
        <ele>1014.8</ele>
        <time>2024-06-16T06:23:13Z</time>
      </trkpt>
      <trkpt lat="46.62811" lon="6.25549">
        <ele>1014.7</ele>
        <time>2024-06-16T06:23:14Z</time>
      </trkpt>
      <trkpt lat="46.62815" lon="6.25554">
        <ele>1014.8</ele>
        <time>2024-06-16T06:23:15Z</time>
      </trkpt>
      <trkpt lat="46.62819" lon="6.25558">
        <ele>1014.9</ele>
        <time>2024-06-16T06:23:16Z</time>
      </trkpt>
      <trkpt lat="46.62823" lon="6.25563">
        <ele>1015</ele>
        <time>2024-06-16T06:23:17Z</time>
      </trkpt>
      <trkpt lat="46.62826" lon="6.25568">
        <ele>1015</ele>
        <time>2024-06-16T06:23:18Z</time>
      </trkpt>
      <trkpt lat="46.6283" lon="6.25574">
        <ele>1014.8</ele>
        <time>2024-06-16T06:23:19Z</time>
      </trkpt>
      <trkpt lat="46.62834" lon="6.25579">
        <ele>1014.6</ele>
        <time>2024-06-16T06:23:20Z</time>
      </trkpt>
      <trkpt lat="46.62838" lon="6.25586">
        <ele>1014.4</ele>
        <time>2024-06-16T06:23:21Z</time>
      </trkpt>
      <trkpt lat="46.62841" lon="6.25592">
        <ele>1014.3</ele>
        <time>2024-06-16T06:23:22Z</time>
      </trkpt>
      <trkpt lat="46.62844" lon="6.25598">
        <ele>1014.1</ele>
        <time>2024-06-16T06:23:23Z</time>
      </trkpt>
      <trkpt lat="46.62848" lon="6.25604">
        <ele>1013.9</ele>
        <time>2024-06-16T06:23:24Z</time>
      </trkpt>
      <trkpt lat="46.62851" lon="6.2561">
        <ele>1013.7</ele>
        <time>2024-06-16T06:23:25Z</time>
      </trkpt>
      <trkpt lat="46.62854" lon="6.25616">
        <ele>1013.6</ele>
        <time>2024-06-16T06:23:26Z</time>
      </trkpt>
      <trkpt lat="46.62858" lon="6.25623">
        <ele>1013.6</ele>
        <time>2024-06-16T06:23:27Z</time>
      </trkpt>
      <trkpt lat="46.62861" lon="6.25629">
        <ele>1013.6</ele>
        <time>2024-06-16T06:23:28Z</time>
      </trkpt>
      <trkpt lat="46.62864" lon="6.25636">
        <ele>1013.7</ele>
        <time>2024-06-16T06:23:29Z</time>
      </trkpt>
      <trkpt lat="46.62867" lon="6.25642">
        <ele>1013.9</ele>
        <time>2024-06-16T06:23:30Z</time>
      </trkpt>
      <trkpt lat="46.6287" lon="6.25649">
        <ele>1014.1</ele>
        <time>2024-06-16T06:23:31Z</time>
      </trkpt>
      <trkpt lat="46.62874" lon="6.25655">
        <ele>1014.2</ele>
        <time>2024-06-16T06:23:32Z</time>
      </trkpt>
      <trkpt lat="46.62877" lon="6.25661">
        <ele>1014.5</ele>
        <time>2024-06-16T06:23:33Z</time>
      </trkpt>
      <trkpt lat="46.62881" lon="6.25668">
        <ele>1014.7</ele>
        <time>2024-06-16T06:23:34Z</time>
      </trkpt>
      <trkpt lat="46.62885" lon="6.25673">
        <ele>1014.8</ele>
        <time>2024-06-16T06:23:35Z</time>
      </trkpt>
      <trkpt lat="46.62889" lon="6.25679">
        <ele>1014.8</ele>
        <time>2024-06-16T06:23:36Z</time>
      </trkpt>
      <trkpt lat="46.62893" lon="6.25684">
        <ele>1014.8</ele>
        <time>2024-06-16T06:23:37Z</time>
      </trkpt>
      <trkpt lat="46.62897" lon="6.25689">
        <ele>1014.8</ele>
        <time>2024-06-16T06:23:38Z</time>
      </trkpt>
      <trkpt lat="46.62901" lon="6.25694">
        <ele>1014.8</ele>
        <time>2024-06-16T06:23:39Z</time>
      </trkpt>
      <trkpt lat="46.62905" lon="6.25699">
        <ele>1014.9</ele>
        <time>2024-06-16T06:23:40Z</time>
      </trkpt>
      <trkpt lat="46.62909" lon="6.25704">
        <ele>1015</ele>
        <time>2024-06-16T06:23:41Z</time>
      </trkpt>
      <trkpt lat="46.62913" lon="6.25709">
        <ele>1015.2</ele>
        <time>2024-06-16T06:23:42Z</time>
      </trkpt>
      <trkpt lat="46.62917" lon="6.25714">
        <ele>1015.5</ele>
        <time>2024-06-16T06:23:43Z</time>
      </trkpt>
      <trkpt lat="46.62921" lon="6.25719">
        <ele>1015.8</ele>
        <time>2024-06-16T06:23:44Z</time>
      </trkpt>
      <trkpt lat="46.62924" lon="6.25724">
        <ele>1016</ele>
        <time>2024-06-16T06:23:45Z</time>
      </trkpt>
      <trkpt lat="46.62928" lon="6.25729">
        <ele>1016.4</ele>
        <time>2024-06-16T06:23:46Z</time>
      </trkpt>
      <trkpt lat="46.62932" lon="6.25734">
        <ele>1016.8</ele>
        <time>2024-06-16T06:23:47Z</time>
      </trkpt>
      <trkpt lat="46.62935" lon="6.25739">
        <ele>1017</ele>
        <time>2024-06-16T06:23:48Z</time>
      </trkpt>
      <trkpt lat="46.62939" lon="6.25745">
        <ele>1017.2</ele>
        <time>2024-06-16T06:23:49Z</time>
      </trkpt>
      <trkpt lat="46.62942" lon="6.2575">
        <ele>1017.4</ele>
        <time>2024-06-16T06:23:50Z</time>
      </trkpt>
      <trkpt lat="46.62946" lon="6.25755">
        <ele>1017.5</ele>
        <time>2024-06-16T06:23:51Z</time>
      </trkpt>
      <trkpt lat="46.6295" lon="6.25761">
        <ele>1017.7</ele>
        <time>2024-06-16T06:23:52Z</time>
      </trkpt>
      <trkpt lat="46.62953" lon="6.25766">
        <ele>1017.8</ele>
        <time>2024-06-16T06:23:53Z</time>
      </trkpt>
      <trkpt lat="46.62956" lon="6.25772">
        <ele>1018</ele>
        <time>2024-06-16T06:23:54Z</time>
      </trkpt>
      <trkpt lat="46.6296" lon="6.25778">
        <ele>1018.1</ele>
        <time>2024-06-16T06:23:55Z</time>
      </trkpt>
      <trkpt lat="46.62963" lon="6.25783">
        <ele>1018.2</ele>
        <time>2024-06-16T06:23:56Z</time>
      </trkpt>
      <trkpt lat="46.62966" lon="6.25789">
        <ele>1018.2</ele>
        <time>2024-06-16T06:23:57Z</time>
      </trkpt>
      <trkpt lat="46.62969" lon="6.25795">
        <ele>1018.1</ele>
        <time>2024-06-16T06:23:58Z</time>
      </trkpt>
      <trkpt lat="46.62973" lon="6.258">
        <ele>1018.1</ele>
        <time>2024-06-16T06:23:59Z</time>
      </trkpt>
      <trkpt lat="46.62976" lon="6.25806">
        <ele>1017.9</ele>
        <time>2024-06-16T06:24:00Z</time>
      </trkpt>
      <trkpt lat="46.62979" lon="6.25811">
        <ele>1017.9</ele>
        <time>2024-06-16T06:24:01Z</time>
      </trkpt>
      <trkpt lat="46.62982" lon="6.25816">
        <ele>1018</ele>
        <time>2024-06-16T06:24:02Z</time>
      </trkpt>
      <trkpt lat="46.62985" lon="6.25823">
        <ele>1018.1</ele>
        <time>2024-06-16T06:24:03Z</time>
      </trkpt>
      <trkpt lat="46.62988" lon="6.25829">
        <ele>1018.1</ele>
        <time>2024-06-16T06:24:04Z</time>
      </trkpt>
      <trkpt lat="46.6299" lon="6.25836">
        <ele>1018.2</ele>
        <time>2024-06-16T06:24:05Z</time>
      </trkpt>
      <trkpt lat="46.62993" lon="6.25842">
        <ele>1018.3</ele>
        <time>2024-06-16T06:24:06Z</time>
      </trkpt>
      <trkpt lat="46.62996" lon="6.25849">
        <ele>1018.3</ele>
        <time>2024-06-16T06:24:07Z</time>
      </trkpt>
      <trkpt lat="46.62999" lon="6.25855">
        <ele>1018.3</ele>
        <time>2024-06-16T06:24:08Z</time>
      </trkpt>
      <trkpt lat="46.63002" lon="6.25861">
        <ele>1018.2</ele>
        <time>2024-06-16T06:24:09Z</time>
      </trkpt>
      <trkpt lat="46.63005" lon="6.25868">
        <ele>1018.1</ele>
        <time>2024-06-16T06:24:10Z</time>
      </trkpt>
      <trkpt lat="46.63008" lon="6.25874">
        <ele>1018.1</ele>
        <time>2024-06-16T06:24:11Z</time>
      </trkpt>
      <trkpt lat="46.63011" lon="6.2588">
        <ele>1018</ele>
        <time>2024-06-16T06:24:12Z</time>
      </trkpt>
      <trkpt lat="46.63014" lon="6.25886">
        <ele>1018</ele>
        <time>2024-06-16T06:24:13Z</time>
      </trkpt>
      <trkpt lat="46.63017" lon="6.25891">
        <ele>1017.7</ele>
        <time>2024-06-16T06:24:14Z</time>
      </trkpt>
      <trkpt lat="46.6302" lon="6.25897">
        <ele>1017.4</ele>
        <time>2024-06-16T06:24:15Z</time>
      </trkpt>
      <trkpt lat="46.63023" lon="6.25903">
        <ele>1017</ele>
        <time>2024-06-16T06:24:16Z</time>
      </trkpt>
      <trkpt lat="46.63026" lon="6.25908">
        <ele>1016.8</ele>
        <time>2024-06-16T06:24:17Z</time>
      </trkpt>
      <trkpt lat="46.63029" lon="6.25913">
        <ele>1016.6</ele>
        <time>2024-06-16T06:24:18Z</time>
      </trkpt>
      <trkpt lat="46.63032" lon="6.25918">
        <ele>1016.6</ele>
        <time>2024-06-16T06:24:19Z</time>
      </trkpt>
      <trkpt lat="46.63035" lon="6.25923">
        <ele>1016.6</ele>
        <time>2024-06-16T06:24:20Z</time>
      </trkpt>
      <trkpt lat="46.63038" lon="6.25928">
        <ele>1016.5</ele>
        <time>2024-06-16T06:24:21Z</time>
      </trkpt>
      <trkpt lat="46.63041" lon="6.25933">
        <ele>1016.5</ele>
        <time>2024-06-16T06:24:22Z</time>
      </trkpt>
      <trkpt lat="46.63043" lon="6.25938">
        <ele>1016.4</ele>
        <time>2024-06-16T06:24:23Z</time>
      </trkpt>
      <trkpt lat="46.63044" lon="6.25945">
        <ele>1016.1</ele>
        <time>2024-06-16T06:24:24Z</time>
      </trkpt>
      <trkpt lat="46.63044" lon="6.25952">
        <ele>1015.7</ele>
        <time>2024-06-16T06:24:25Z</time>
      </trkpt>
      <trkpt lat="46.63045" lon="6.2596">
        <ele>1015.3</ele>
        <time>2024-06-16T06:24:26Z</time>
      </trkpt>
      <trkpt lat="46.63045" lon="6.25969">
        <ele>1014.8</ele>
        <time>2024-06-16T06:24:27Z</time>
      </trkpt>
      <trkpt lat="46.63046" lon="6.25979">
        <ele>1014.3</ele>
        <time>2024-06-16T06:24:28Z</time>
      </trkpt>
      <trkpt lat="46.63047" lon="6.25989">
        <ele>1013.8</ele>
        <time>2024-06-16T06:24:29Z</time>
      </trkpt>
      <trkpt lat="46.63049" lon="6.25999">
        <ele>1013.3</ele>
        <time>2024-06-16T06:24:30Z</time>
      </trkpt>
      <trkpt lat="46.63051" lon="6.26009">
        <ele>1012.8</ele>
        <time>2024-06-16T06:24:31Z</time>
      </trkpt>
      <trkpt lat="46.63054" lon="6.26019">
        <ele>1012.3</ele>
        <time>2024-06-16T06:24:32Z</time>
      </trkpt>
      <trkpt lat="46.63057" lon="6.26028">
        <ele>1011.9</ele>
        <time>2024-06-16T06:24:33Z</time>
      </trkpt>
      <trkpt lat="46.63061" lon="6.26037">
        <ele>1011.5</ele>
        <time>2024-06-16T06:24:34Z</time>
      </trkpt>
      <trkpt lat="46.63065" lon="6.26046">
        <ele>1011.2</ele>
        <time>2024-06-16T06:24:35Z</time>
      </trkpt>
      <trkpt lat="46.63069" lon="6.26055">
        <ele>1010.9</ele>
        <time>2024-06-16T06:24:36Z</time>
      </trkpt>
      <trkpt lat="46.63072" lon="6.26063">
        <ele>1010.6</ele>
        <time>2024-06-16T06:24:37Z</time>
      </trkpt>
      <trkpt lat="46.63076" lon="6.26071">
        <ele>1010.3</ele>
        <time>2024-06-16T06:24:38Z</time>
      </trkpt>
      <trkpt lat="46.6308" lon="6.2608">
        <ele>1010.2</ele>
        <time>2024-06-16T06:24:39Z</time>
      </trkpt>
      <trkpt lat="46.63082" lon="6.26089">
        <ele>1010.2</ele>
        <time>2024-06-16T06:24:40Z</time>
      </trkpt>
      <trkpt lat="46.63084" lon="6.26097">
        <ele>1010.5</ele>
        <time>2024-06-16T06:24:41Z</time>
      </trkpt>
      <trkpt lat="46.63085" lon="6.26106">
        <ele>1010.8</ele>
        <time>2024-06-16T06:24:42Z</time>
      </trkpt>
      <trkpt lat="46.63085" lon="6.26114">
        <ele>1011.1</ele>
        <time>2024-06-16T06:24:43Z</time>
      </trkpt>
      <trkpt lat="46.63086" lon="6.26123">
        <ele>1011.2</ele>
        <time>2024-06-16T06:24:44Z</time>
      </trkpt>
      <trkpt lat="46.63086" lon="6.26131">
        <ele>1011.2</ele>
        <time>2024-06-16T06:24:45Z</time>
      </trkpt>
      <trkpt lat="46.63086" lon="6.26139">
        <ele>1011.2</ele>
        <time>2024-06-16T06:24:46Z</time>
      </trkpt>
      <trkpt lat="46.63086" lon="6.26147">
        <ele>1011.1</ele>
        <time>2024-06-16T06:24:47Z</time>
      </trkpt>
      <trkpt lat="46.63086" lon="6.26155">
        <ele>1011</ele>
        <time>2024-06-16T06:24:48Z</time>
      </trkpt>
      <trkpt lat="46.63086" lon="6.26163">
        <ele>1010.8</ele>
        <time>2024-06-16T06:24:49Z</time>
      </trkpt>
      <trkpt lat="46.63086" lon="6.26171">
        <ele>1010.6</ele>
        <time>2024-06-16T06:24:50Z</time>
      </trkpt>
      <trkpt lat="46.63087" lon="6.26178">
        <ele>1010.4</ele>
        <time>2024-06-16T06:24:51Z</time>
      </trkpt>
      <trkpt lat="46.63089" lon="6.26184">
        <ele>1010.3</ele>
        <time>2024-06-16T06:24:52Z</time>
      </trkpt>
      <trkpt lat="46.63092" lon="6.26189">
        <ele>1010.2</ele>
        <time>2024-06-16T06:24:53Z</time>
      </trkpt>
      <trkpt lat="46.63096" lon="6.26193">
        <ele>1010.1</ele>
        <time>2024-06-16T06:24:54Z</time>
      </trkpt>
      <trkpt lat="46.631" lon="6.26197">
        <ele>1010</ele>
        <time>2024-06-16T06:24:55Z</time>
      </trkpt>
      <trkpt lat="46.63104" lon="6.262">
        <ele>1010</ele>
        <time>2024-06-16T06:24:56Z</time>
      </trkpt>
      <trkpt lat="46.63109" lon="6.26202">
        <ele>1010</ele>
        <time>2024-06-16T06:24:57Z</time>
      </trkpt>
      <trkpt lat="46.63114" lon="6.26205">
        <ele>1010.1</ele>
        <time>2024-06-16T06:24:58Z</time>
      </trkpt>
      <trkpt lat="46.63119" lon="6.26207">
        <ele>1010.1</ele>
        <time>2024-06-16T06:24:59Z</time>
      </trkpt>
      <trkpt lat="46.63124" lon="6.26209">
        <ele>1010.2</ele>
        <time>2024-06-16T06:25:00Z</time>
      </trkpt>
      <trkpt lat="46.63129" lon="6.26211">
        <ele>1010.2</ele>
        <time>2024-06-16T06:25:01Z</time>
      </trkpt>
      <trkpt lat="46.63135" lon="6.26213">
        <ele>1010.5</ele>
        <time>2024-06-16T06:25:02Z</time>
      </trkpt>
      <trkpt lat="46.6314" lon="6.26215">
        <ele>1010.8</ele>
        <time>2024-06-16T06:25:03Z</time>
      </trkpt>
      <trkpt lat="46.63145" lon="6.26217">
        <ele>1010.9</ele>
        <time>2024-06-16T06:25:04Z</time>
      </trkpt>
      <trkpt lat="46.6315" lon="6.26219">
        <ele>1010.9</ele>
        <time>2024-06-16T06:25:05Z</time>
      </trkpt>
      <trkpt lat="46.63155" lon="6.26221">
        <ele>1011</ele>
        <time>2024-06-16T06:25:06Z</time>
      </trkpt>
      <trkpt lat="46.6316" lon="6.26223">
        <ele>1010.9</ele>
        <time>2024-06-16T06:25:07Z</time>
      </trkpt>
      <trkpt lat="46.63165" lon="6.26225">
        <ele>1010.9</ele>
        <time>2024-06-16T06:25:08Z</time>
      </trkpt>
      <trkpt lat="46.6317" lon="6.26227">
        <ele>1011</ele>
        <time>2024-06-16T06:25:09Z</time>
      </trkpt>
      <trkpt lat="46.63175" lon="6.26229">
        <ele>1011</ele>
        <time>2024-06-16T06:25:10Z</time>
      </trkpt>
      <trkpt lat="46.63179" lon="6.26231">
        <ele>1011</ele>
        <time>2024-06-16T06:25:11Z</time>
      </trkpt>
      <trkpt lat="46.63184" lon="6.26234">
        <ele>1011</ele>
        <time>2024-06-16T06:25:12Z</time>
      </trkpt>
      <trkpt lat="46.63189" lon="6.26236">
        <ele>1011.2</ele>
        <time>2024-06-16T06:25:13Z</time>
      </trkpt>
      <trkpt lat="46.63194" lon="6.26239">
        <ele>1011.3</ele>
        <time>2024-06-16T06:25:14Z</time>
      </trkpt>
      <trkpt lat="46.63198" lon="6.26243">
        <ele>1011.4</ele>
        <time>2024-06-16T06:25:15Z</time>
      </trkpt>
      <trkpt lat="46.63203" lon="6.26246">
        <ele>1011.5</ele>
        <time>2024-06-16T06:25:16Z</time>
      </trkpt>
      <trkpt lat="46.63207" lon="6.2625">
        <ele>1011.5</ele>
        <time>2024-06-16T06:25:17Z</time>
      </trkpt>
      <trkpt lat="46.63211" lon="6.26254">
        <ele>1011.6</ele>
        <time>2024-06-16T06:25:18Z</time>
      </trkpt>
      <trkpt lat="46.63216" lon="6.26259">
        <ele>1011.5</ele>
        <time>2024-06-16T06:25:19Z</time>
      </trkpt>
      <trkpt lat="46.6322" lon="6.26264">
        <ele>1011.6</ele>
        <time>2024-06-16T06:25:20Z</time>
      </trkpt>
      <trkpt lat="46.63224" lon="6.26268">
        <ele>1011.7</ele>
        <time>2024-06-16T06:25:21Z</time>
      </trkpt>
      <trkpt lat="46.63228" lon="6.26273">
        <ele>1011.7</ele>
        <time>2024-06-16T06:25:22Z</time>
      </trkpt>
      <trkpt lat="46.63232" lon="6.26278">
        <ele>1011.6</ele>
        <time>2024-06-16T06:25:23Z</time>
      </trkpt>
      <trkpt lat="46.63236" lon="6.26283">
        <ele>1011.7</ele>
        <time>2024-06-16T06:25:24Z</time>
      </trkpt>
      <trkpt lat="46.6324" lon="6.26288">
        <ele>1011.5</ele>
        <time>2024-06-16T06:25:25Z</time>
      </trkpt>
      <trkpt lat="46.63244" lon="6.26293">
        <ele>1011.5</ele>
        <time>2024-06-16T06:25:26Z</time>
      </trkpt>
      <trkpt lat="46.63247" lon="6.26298">
        <ele>1011.6</ele>
        <time>2024-06-16T06:25:27Z</time>
      </trkpt>
      <trkpt lat="46.63251" lon="6.26303">
        <ele>1011.8</ele>
        <time>2024-06-16T06:25:28Z</time>
      </trkpt>
      <trkpt lat="46.63255" lon="6.26308">
        <ele>1012</ele>
        <time>2024-06-16T06:25:29Z</time>
      </trkpt>
      <trkpt lat="46.63258" lon="6.26313">
        <ele>1012.4</ele>
        <time>2024-06-16T06:25:30Z</time>
      </trkpt>
      <trkpt lat="46.63262" lon="6.26319">
        <ele>1012.6</ele>
        <time>2024-06-16T06:25:31Z</time>
      </trkpt>
      <trkpt lat="46.63265" lon="6.26324">
        <ele>1012.9</ele>
        <time>2024-06-16T06:25:32Z</time>
      </trkpt>
      <trkpt lat="46.63269" lon="6.26329">
        <ele>1013.1</ele>
        <time>2024-06-16T06:25:33Z</time>
      </trkpt>
      <trkpt lat="46.63272" lon="6.26334">
        <ele>1013.3</ele>
        <time>2024-06-16T06:25:34Z</time>
      </trkpt>
      <trkpt lat="46.63276" lon="6.26339">
        <ele>1013.2</ele>
        <time>2024-06-16T06:25:35Z</time>
      </trkpt>
      <trkpt lat="46.6328" lon="6.26344">
        <ele>1013.1</ele>
        <time>2024-06-16T06:25:36Z</time>
      </trkpt>
      <trkpt lat="46.63283" lon="6.26349">
        <ele>1013.1</ele>
        <time>2024-06-16T06:25:37Z</time>
      </trkpt>
      <trkpt lat="46.63287" lon="6.26353">
        <ele>1013.1</ele>
        <time>2024-06-16T06:25:38Z</time>
      </trkpt>
      <trkpt lat="46.63291" lon="6.26358">
        <ele>1013.1</ele>
        <time>2024-06-16T06:25:39Z</time>
      </trkpt>
      <trkpt lat="46.63295" lon="6.26362">
        <ele>1013.2</ele>
        <time>2024-06-16T06:25:40Z</time>
      </trkpt>
      <trkpt lat="46.63298" lon="6.26367">
        <ele>1013.4</ele>
        <time>2024-06-16T06:25:41Z</time>
      </trkpt>
      <trkpt lat="46.63302" lon="6.26371">
        <ele>1013.6</ele>
        <time>2024-06-16T06:25:42Z</time>
      </trkpt>
      <trkpt lat="46.63306" lon="6.26376">
        <ele>1013.8</ele>
        <time>2024-06-16T06:25:43Z</time>
      </trkpt>
      <trkpt lat="46.63309" lon="6.26381">
        <ele>1013.9</ele>
        <time>2024-06-16T06:25:44Z</time>
      </trkpt>
      <trkpt lat="46.63313" lon="6.26386">
        <ele>1014.1</ele>
        <time>2024-06-16T06:25:45Z</time>
      </trkpt>
      <trkpt lat="46.63316" lon="6.26391">
        <ele>1014</ele>
        <time>2024-06-16T06:25:46Z</time>
      </trkpt>
      <trkpt lat="46.63319" lon="6.26396">
        <ele>1014.2</ele>
        <time>2024-06-16T06:25:47Z</time>
      </trkpt>
      <trkpt lat="46.63322" lon="6.26401">
        <ele>1014.6</ele>
        <time>2024-06-16T06:25:48Z</time>
      </trkpt>
      <trkpt lat="46.63326" lon="6.26406">
        <ele>1014.8</ele>
        <time>2024-06-16T06:25:49Z</time>
      </trkpt>
      <trkpt lat="46.63329" lon="6.26412">
        <ele>1014.5</ele>
        <time>2024-06-16T06:25:50Z</time>
      </trkpt>
      <trkpt lat="46.63332" lon="6.26418">
        <ele>1014.2</ele>
        <time>2024-06-16T06:25:51Z</time>
      </trkpt>
      <trkpt lat="46.63335" lon="6.26425">
        <ele>1013.8</ele>
        <time>2024-06-16T06:25:52Z</time>
      </trkpt>
      <trkpt lat="46.63339" lon="6.26431">
        <ele>1013.4</ele>
        <time>2024-06-16T06:25:53Z</time>
      </trkpt>
      <trkpt lat="46.63342" lon="6.26437">
        <ele>1013.1</ele>
        <time>2024-06-16T06:25:54Z</time>
      </trkpt>
      <trkpt lat="46.63345" lon="6.26443">
        <ele>1013</ele>
        <time>2024-06-16T06:25:55Z</time>
      </trkpt>
      <trkpt lat="46.63348" lon="6.26449">
        <ele>1012.9</ele>
        <time>2024-06-16T06:25:56Z</time>
      </trkpt>
      <trkpt lat="46.63351" lon="6.26455">
        <ele>1012.7</ele>
        <time>2024-06-16T06:25:57Z</time>
      </trkpt>
      <trkpt lat="46.63354" lon="6.26461">
        <ele>1012.7</ele>
        <time>2024-06-16T06:25:58Z</time>
      </trkpt>
      <trkpt lat="46.63357" lon="6.26467">
        <ele>1012.6</ele>
        <time>2024-06-16T06:25:59Z</time>
      </trkpt>
      <trkpt lat="46.6336" lon="6.26473">
        <ele>1012.5</ele>
        <time>2024-06-16T06:26:00Z</time>
      </trkpt>
      <trkpt lat="46.63363" lon="6.26479">
        <ele>1012.6</ele>
        <time>2024-06-16T06:26:01Z</time>
      </trkpt>
      <trkpt lat="46.63366" lon="6.26484">
        <ele>1012.8</ele>
        <time>2024-06-16T06:26:02Z</time>
      </trkpt>
      <trkpt lat="46.63369" lon="6.2649">
        <ele>1012.9</ele>
        <time>2024-06-16T06:26:03Z</time>
      </trkpt>
      <trkpt lat="46.63372" lon="6.26495">
        <ele>1013.2</ele>
        <time>2024-06-16T06:26:04Z</time>
      </trkpt>
      <trkpt lat="46.63375" lon="6.26501">
        <ele>1013.4</ele>
        <time>2024-06-16T06:26:05Z</time>
      </trkpt>
      <trkpt lat="46.63378" lon="6.26506">
        <ele>1013.8</ele>
        <time>2024-06-16T06:26:06Z</time>
      </trkpt>
      <trkpt lat="46.6338" lon="6.26511">
        <ele>1014.1</ele>
        <time>2024-06-16T06:26:07Z</time>
      </trkpt>
      <trkpt lat="46.63383" lon="6.26516">
        <ele>1014.2</ele>
        <time>2024-06-16T06:26:08Z</time>
      </trkpt>
      <trkpt lat="46.63387" lon="6.26521">
        <ele>1014.3</ele>
        <time>2024-06-16T06:26:09Z</time>
      </trkpt>
      <trkpt lat="46.6339" lon="6.26526">
        <ele>1014.3</ele>
        <time>2024-06-16T06:26:10Z</time>
      </trkpt>
      <trkpt lat="46.63394" lon="6.26531">
        <ele>1014.3</ele>
        <time>2024-06-16T06:26:11Z</time>
      </trkpt>
      <trkpt lat="46.63397" lon="6.26536">
        <ele>1014.2</ele>
        <time>2024-06-16T06:26:12Z</time>
      </trkpt>
      <trkpt lat="46.63401" lon="6.2654">
        <ele>1014.2</ele>
        <time>2024-06-16T06:26:13Z</time>
      </trkpt>
      <trkpt lat="46.63404" lon="6.26545">
        <ele>1014.2</ele>
        <time>2024-06-16T06:26:14Z</time>
      </trkpt>
      <trkpt lat="46.63408" lon="6.2655">
        <ele>1014.3</ele>
        <time>2024-06-16T06:26:15Z</time>
      </trkpt>
      <trkpt lat="46.63411" lon="6.26554">
        <ele>1014.5</ele>
        <time>2024-06-16T06:26:16Z</time>
      </trkpt>
      <trkpt lat="46.63415" lon="6.26559">
        <ele>1014.5</ele>
        <time>2024-06-16T06:26:17Z</time>
      </trkpt>
      <trkpt lat="46.63419" lon="6.26563">
        <ele>1014.5</ele>
        <time>2024-06-16T06:26:18Z</time>
      </trkpt>
      <trkpt lat="46.63422" lon="6.26567">
        <ele>1014.4</ele>
        <time>2024-06-16T06:26:19Z</time>
      </trkpt>
      <trkpt lat="46.63426" lon="6.26572">
        <ele>1014.4</ele>
        <time>2024-06-16T06:26:20Z</time>
      </trkpt>
      <trkpt lat="46.63429" lon="6.26575">
        <ele>1014.3</ele>
        <time>2024-06-16T06:26:21Z</time>
      </trkpt>
      <trkpt lat="46.63433" lon="6.2658">
        <ele>1014.5</ele>
        <time>2024-06-16T06:26:22Z</time>
      </trkpt>
      <trkpt lat="46.63436" lon="6.26585">
        <ele>1014.7</ele>
        <time>2024-06-16T06:26:23Z</time>
      </trkpt>
      <trkpt lat="46.6344" lon="6.2659">
        <ele>1014.8</ele>
        <time>2024-06-16T06:26:24Z</time>
      </trkpt>
      <trkpt lat="46.63443" lon="6.26596">
        <ele>1014.8</ele>
        <time>2024-06-16T06:26:25Z</time>
      </trkpt>
      <trkpt lat="46.63446" lon="6.26601">
        <ele>1015</ele>
        <time>2024-06-16T06:26:26Z</time>
      </trkpt>
      <trkpt lat="46.63448" lon="6.26607">
        <ele>1014.9</ele>
        <time>2024-06-16T06:26:27Z</time>
      </trkpt>
      <trkpt lat="46.63451" lon="6.26613">
        <ele>1015</ele>
        <time>2024-06-16T06:26:28Z</time>
      </trkpt>
      <trkpt lat="46.63453" lon="6.26619">
        <ele>1015.1</ele>
        <time>2024-06-16T06:26:29Z</time>
      </trkpt>
      <trkpt lat="46.63455" lon="6.26626">
        <ele>1015.2</ele>
        <time>2024-06-16T06:26:30Z</time>
      </trkpt>
      <trkpt lat="46.63457" lon="6.26633">
        <ele>1015.3</ele>
        <time>2024-06-16T06:26:31Z</time>
      </trkpt>
      <trkpt lat="46.63458" lon="6.26641">
        <ele>1015.5</ele>
        <time>2024-06-16T06:26:32Z</time>
      </trkpt>
      <trkpt lat="46.6346" lon="6.26648">
        <ele>1015.6</ele>
        <time>2024-06-16T06:26:33Z</time>
      </trkpt>
      <trkpt lat="46.63461" lon="6.26656">
        <ele>1015.7</ele>
        <time>2024-06-16T06:26:34Z</time>
      </trkpt>
      <trkpt lat="46.63462" lon="6.26663">
        <ele>1015.8</ele>
        <time>2024-06-16T06:26:35Z</time>
      </trkpt>
      <trkpt lat="46.63463" lon="6.26671">
        <ele>1015.8</ele>
        <time>2024-06-16T06:26:36Z</time>
      </trkpt>
      <trkpt lat="46.63464" lon="6.26678">
        <ele>1015.8</ele>
        <time>2024-06-16T06:26:37Z</time>
      </trkpt>
      <trkpt lat="46.63465" lon="6.26686">
        <ele>1015.9</ele>
        <time>2024-06-16T06:26:38Z</time>
      </trkpt>
      <trkpt lat="46.63466" lon="6.26693">
        <ele>1015.6</ele>
        <time>2024-06-16T06:26:39Z</time>
      </trkpt>
      <trkpt lat="46.63467" lon="6.267">
        <ele>1015.4</ele>
        <time>2024-06-16T06:26:40Z</time>
      </trkpt>
      <trkpt lat="46.63468" lon="6.26708">
        <ele>1015.1</ele>
        <time>2024-06-16T06:26:41Z</time>
      </trkpt>
      <trkpt lat="46.63469" lon="6.26716">
        <ele>1014.9</ele>
        <time>2024-06-16T06:26:42Z</time>
      </trkpt>
      <trkpt lat="46.6347" lon="6.26723">
        <ele>1014.4</ele>
        <time>2024-06-16T06:26:43Z</time>
      </trkpt>
      <trkpt lat="46.63471" lon="6.26731">
        <ele>1014.1</ele>
        <time>2024-06-16T06:26:44Z</time>
      </trkpt>
      <trkpt lat="46.63472" lon="6.26738">
        <ele>1013.8</ele>
        <time>2024-06-16T06:26:45Z</time>
      </trkpt>
      <trkpt lat="46.63473" lon="6.26746">
        <ele>1013.3</ele>
        <time>2024-06-16T06:26:46Z</time>
      </trkpt>
      <trkpt lat="46.63474" lon="6.26753">
        <ele>1012.9</ele>
        <time>2024-06-16T06:26:47Z</time>
      </trkpt>
      <trkpt lat="46.63476" lon="6.26761">
        <ele>1012.5</ele>
        <time>2024-06-16T06:26:48Z</time>
      </trkpt>
      <trkpt lat="46.63477" lon="6.26767">
        <ele>1012.2</ele>
        <time>2024-06-16T06:26:49Z</time>
      </trkpt>
      <trkpt lat="46.63479" lon="6.26773">
        <ele>1012</ele>
        <time>2024-06-16T06:26:50Z</time>
      </trkpt>
      <trkpt lat="46.63482" lon="6.26778">
        <ele>1011.7</ele>
        <time>2024-06-16T06:26:51Z</time>
      </trkpt>
      <trkpt lat="46.63485" lon="6.26783">
        <ele>1011.4</ele>
        <time>2024-06-16T06:26:52Z</time>
      </trkpt>
      <trkpt lat="46.63489" lon="6.26786">
        <ele>1011.1</ele>
        <time>2024-06-16T06:26:53Z</time>
      </trkpt>
      <trkpt lat="46.63493" lon="6.2679">
        <ele>1010.8</ele>
        <time>2024-06-16T06:26:54Z</time>
      </trkpt>
      <trkpt lat="46.63498" lon="6.26793">
        <ele>1010.6</ele>
        <time>2024-06-16T06:26:55Z</time>
      </trkpt>
      <trkpt lat="46.63502" lon="6.26795">
        <ele>1010.2</ele>
        <time>2024-06-16T06:26:56Z</time>
      </trkpt>
      <trkpt lat="46.63507" lon="6.26797">
        <ele>1009.8</ele>
        <time>2024-06-16T06:26:57Z</time>
      </trkpt>
      <trkpt lat="46.63512" lon="6.26798">
        <ele>1009.5</ele>
        <time>2024-06-16T06:26:58Z</time>
      </trkpt>
      <trkpt lat="46.63517" lon="6.268">
        <ele>1009.2</ele>
        <time>2024-06-16T06:26:59Z</time>
      </trkpt>
      <trkpt lat="46.63522" lon="6.26801">
        <ele>1009</ele>
        <time>2024-06-16T06:27:00Z</time>
      </trkpt>
      <trkpt lat="46.63526" lon="6.26802">
        <ele>1008.8</ele>
        <time>2024-06-16T06:27:01Z</time>
      </trkpt>
      <trkpt lat="46.6353" lon="6.26802">
        <ele>1008.6</ele>
        <time>2024-06-16T06:27:02Z</time>
      </trkpt>
      <trkpt lat="46.63532" lon="6.26803">
        <ele>1008.5</ele>
        <time>2024-06-16T06:27:03Z</time>
      </trkpt>
      <trkpt lat="46.63534" lon="6.26802">
        <ele>1008.5</ele>
        <time>2024-06-16T06:27:04Z</time>
      </trkpt>
      <trkpt lat="46.63535" lon="6.26802">
        <ele>1008.4</ele>
        <time>2024-06-16T06:27:05Z</time>
      </trkpt>
      <trkpt lat="46.63535" lon="6.26801">
        <ele>1008.6</ele>
        <time>2024-06-16T06:27:06Z</time>
      </trkpt>
      <trkpt lat="46.63535" lon="6.26801">
        <ele>1008.6</ele>
        <time>2024-06-16T06:27:07Z</time>
      </trkpt>
      <trkpt lat="46.63535" lon="6.26801">
        <ele>1008.3</ele>
        <time>2024-06-16T06:27:08Z</time>
      </trkpt>
      <trkpt lat="46.63535" lon="6.268">
        <ele>1008</ele>
        <time>2024-06-16T06:27:09Z</time>
      </trkpt>
      <trkpt lat="46.63535" lon="6.268">
        <ele>1007.6</ele>
        <time>2024-06-16T06:27:10Z</time>
      </trkpt>
      <trkpt lat="46.63534" lon="6.268">
        <ele>1007.2</ele>
        <time>2024-06-16T06:27:11Z</time>
      </trkpt>
      <trkpt lat="46.63534" lon="6.268">
        <ele>1006.9</ele>
        <time>2024-06-16T06:27:12Z</time>
      </trkpt>
      <trkpt lat="46.63534" lon="6.268">
        <ele>1006.6</ele>
        <time>2024-06-16T06:27:13Z</time>
      </trkpt>
      <trkpt lat="46.63533" lon="6.26799">
        <ele>1006.4</ele>
        <time>2024-06-16T06:27:14Z</time>
      </trkpt>
      <trkpt lat="46.63533" lon="6.26799">
        <ele>1006.2</ele>
        <time>2024-06-16T06:27:15Z</time>
      </trkpt>
      <trkpt lat="46.63532" lon="6.26799">
        <ele>1006</ele>
        <time>2024-06-16T06:27:16Z</time>
      </trkpt>
      <trkpt lat="46.63532" lon="6.268">
        <ele>1005.8</ele>
        <time>2024-06-16T06:27:17Z</time>
      </trkpt>
      <trkpt lat="46.63531" lon="6.268">
        <ele>1005.6</ele>
        <time>2024-06-16T06:27:18Z</time>
      </trkpt>
      <trkpt lat="46.63531" lon="6.268">
        <ele>1005.6</ele>
        <time>2024-06-16T06:27:19Z</time>
      </trkpt>
      <trkpt lat="46.63531" lon="6.268">
        <ele>1005.7</ele>
        <time>2024-06-16T06:27:20Z</time>
      </trkpt>
      <trkpt lat="46.6353" lon="6.268">
        <ele>1005.8</ele>
        <time>2024-06-16T06:27:21Z</time>
      </trkpt>
      <trkpt lat="46.6353" lon="6.268">
        <ele>1005.9</ele>
        <time>2024-06-16T06:27:22Z</time>
      </trkpt>
      <trkpt lat="46.6353" lon="6.268">
        <ele>1005.8</ele>
        <time>2024-06-16T06:27:23Z</time>
      </trkpt>
      <trkpt lat="46.6353" lon="6.26801">
        <ele>1005.8</ele>
        <time>2024-06-16T06:27:24Z</time>
      </trkpt>
      <trkpt lat="46.63529" lon="6.26801">
        <ele>1005.8</ele>
        <time>2024-06-16T06:27:25Z</time>
      </trkpt>
      <trkpt lat="46.63529" lon="6.26801">
        <ele>1005.9</ele>
        <time>2024-06-16T06:27:26Z</time>
      </trkpt>
      <trkpt lat="46.63529" lon="6.26801">
        <ele>1005.9</ele>
        <time>2024-06-16T06:27:27Z</time>
      </trkpt>
      <trkpt lat="46.63529" lon="6.26801">
        <ele>1006</ele>
        <time>2024-06-16T06:27:28Z</time>
      </trkpt>
      <trkpt lat="46.63529" lon="6.26801">
        <ele>1006.1</ele>
        <time>2024-06-16T06:27:29Z</time>
      </trkpt>
      <trkpt lat="46.63529" lon="6.26801">
        <ele>1006.3</ele>
        <time>2024-06-16T06:27:30Z</time>
      </trkpt>
      <trkpt lat="46.63529" lon="6.26801">
        <ele>1006.5</ele>
        <time>2024-06-16T06:27:31Z</time>
      </trkpt>
      <trkpt lat="46.63529" lon="6.26801">
        <ele>1006.7</ele>
        <time>2024-06-16T06:27:32Z</time>
      </trkpt>
      <trkpt lat="46.63529" lon="6.26801">
        <ele>1006.9</ele>
        <time>2024-06-16T06:27:33Z</time>
      </trkpt>
      <trkpt lat="46.63529" lon="6.26801">
        <ele>1007</ele>
        <time>2024-06-16T06:27:34Z</time>
      </trkpt>
      <trkpt lat="46.63529" lon="6.26801">
        <ele>1007.1</ele>
        <time>2024-06-16T06:27:35Z</time>
      </trkpt>
      <trkpt lat="46.6353" lon="6.26801">
        <ele>1007.4</ele>
        <time>2024-06-16T06:27:36Z</time>
      </trkpt>
      <trkpt lat="46.6353" lon="6.26801">
        <ele>1007.5</ele>
        <time>2024-06-16T06:27:37Z</time>
      </trkpt>
      <trkpt lat="46.63532" lon="6.26801">
        <ele>1007.8</ele>
        <time>2024-06-16T06:27:38Z</time>
      </trkpt>
      <trkpt lat="46.63533" lon="6.26802">
        <ele>1008</ele>
        <time>2024-06-16T06:27:39Z</time>
      </trkpt>
      <trkpt lat="46.63535" lon="6.26803">
        <ele>1008.1</ele>
        <time>2024-06-16T06:27:40Z</time>
      </trkpt>
      <trkpt lat="46.63537" lon="6.26804">
        <ele>1008.4</ele>
        <time>2024-06-16T06:27:41Z</time>
      </trkpt>
      <trkpt lat="46.63539" lon="6.26805">
        <ele>1008.6</ele>
        <time>2024-06-16T06:27:42Z</time>
      </trkpt>
      <trkpt lat="46.63542" lon="6.26807">
        <ele>1008.8</ele>
        <time>2024-06-16T06:27:43Z</time>
      </trkpt>
      <trkpt lat="46.63545" lon="6.26808">
        <ele>1009.1</ele>
        <time>2024-06-16T06:27:44Z</time>
      </trkpt>
      <trkpt lat="46.63548" lon="6.26811">
        <ele>1009.2</ele>
        <time>2024-06-16T06:27:45Z</time>
      </trkpt>
      <trkpt lat="46.63551" lon="6.26813">
        <ele>1009.2</ele>
        <time>2024-06-16T06:27:46Z</time>
      </trkpt>
      <trkpt lat="46.63554" lon="6.26813">
        <ele>1009.1</ele>
        <time>2024-06-16T06:27:47Z</time>
      </trkpt>
      <trkpt lat="46.63557" lon="6.26814">
        <ele>1008.9</ele>
        <time>2024-06-16T06:27:48Z</time>
      </trkpt>
      <trkpt lat="46.63559" lon="6.26814">
        <ele>1008.9</ele>
        <time>2024-06-16T06:27:49Z</time>
      </trkpt>
      <trkpt lat="46.63562" lon="6.26815">
        <ele>1009.1</ele>
        <time>2024-06-16T06:27:50Z</time>
      </trkpt>
      <trkpt lat="46.63565" lon="6.26818">
        <ele>1009.3</ele>
        <time>2024-06-16T06:27:51Z</time>
      </trkpt>
      <trkpt lat="46.63568" lon="6.2682">
        <ele>1009.8</ele>
        <time>2024-06-16T06:27:52Z</time>
      </trkpt>
      <trkpt lat="46.63571" lon="6.26823">
        <ele>1010.4</ele>
        <time>2024-06-16T06:27:53Z</time>
      </trkpt>
      <trkpt lat="46.63574" lon="6.26825">
        <ele>1011.1</ele>
        <time>2024-06-16T06:27:54Z</time>
      </trkpt>
      <trkpt lat="46.63577" lon="6.26828">
        <ele>1011.7</ele>
        <time>2024-06-16T06:27:55Z</time>
      </trkpt>
      <trkpt lat="46.63579" lon="6.2683">
        <ele>1012.3</ele>
        <time>2024-06-16T06:27:56Z</time>
      </trkpt>
      <trkpt lat="46.63581" lon="6.26832">
        <ele>1012.8</ele>
        <time>2024-06-16T06:27:57Z</time>
      </trkpt>
      <trkpt lat="46.63583" lon="6.26834">
        <ele>1013.3</ele>
        <time>2024-06-16T06:27:58Z</time>
      </trkpt>
      <trkpt lat="46.63585" lon="6.26837">
        <ele>1013.8</ele>
        <time>2024-06-16T06:27:59Z</time>
      </trkpt>
      <trkpt lat="46.63587" lon="6.26839">
        <ele>1014.2</ele>
        <time>2024-06-16T06:28:00Z</time>
      </trkpt>
      <trkpt lat="46.63589" lon="6.26842">
        <ele>1014.7</ele>
        <time>2024-06-16T06:28:01Z</time>
      </trkpt>
      <trkpt lat="46.63592" lon="6.26846">
        <ele>1015.1</ele>
        <time>2024-06-16T06:28:02Z</time>
      </trkpt>
      <trkpt lat="46.63594" lon="6.26849">
        <ele>1015.8</ele>
        <time>2024-06-16T06:28:03Z</time>
      </trkpt>
      <trkpt lat="46.63597" lon="6.26853">
        <ele>1016.5</ele>
        <time>2024-06-16T06:28:04Z</time>
      </trkpt>
      <trkpt lat="46.636" lon="6.26857">
        <ele>1017.1</ele>
        <time>2024-06-16T06:28:05Z</time>
      </trkpt>
      <trkpt lat="46.63603" lon="6.2686">
        <ele>1017.5</ele>
        <time>2024-06-16T06:28:06Z</time>
      </trkpt>
      <trkpt lat="46.63606" lon="6.26865">
        <ele>1018.1</ele>
        <time>2024-06-16T06:28:07Z</time>
      </trkpt>
      <trkpt lat="46.63609" lon="6.2687">
        <ele>1018.7</ele>
        <time>2024-06-16T06:28:08Z</time>
      </trkpt>
      <trkpt lat="46.63612" lon="6.26874">
        <ele>1019.3</ele>
        <time>2024-06-16T06:28:09Z</time>
      </trkpt>
      <trkpt lat="46.63615" lon="6.26879">
        <ele>1019.7</ele>
        <time>2024-06-16T06:28:10Z</time>
      </trkpt>
      <trkpt lat="46.63619" lon="6.26883">
        <ele>1020.2</ele>
        <time>2024-06-16T06:28:11Z</time>
      </trkpt>
      <trkpt lat="46.63622" lon="6.26886">
        <ele>1020.6</ele>
        <time>2024-06-16T06:28:12Z</time>
      </trkpt>
      <trkpt lat="46.63624" lon="6.2689">
        <ele>1020.9</ele>
        <time>2024-06-16T06:28:13Z</time>
      </trkpt>
      <trkpt lat="46.63627" lon="6.26893">
        <ele>1021.4</ele>
        <time>2024-06-16T06:28:14Z</time>
      </trkpt>
      <trkpt lat="46.6363" lon="6.26896">
        <ele>1021.6</ele>
        <time>2024-06-16T06:28:15Z</time>
      </trkpt>
      <trkpt lat="46.63632" lon="6.269">
        <ele>1021.8</ele>
        <time>2024-06-16T06:28:16Z</time>
      </trkpt>
      <trkpt lat="46.63634" lon="6.26903">
        <ele>1021.9</ele>
        <time>2024-06-16T06:28:17Z</time>
      </trkpt>
      <trkpt lat="46.63635" lon="6.26906">
        <ele>1022.1</ele>
        <time>2024-06-16T06:28:18Z</time>
      </trkpt>
      <trkpt lat="46.63637" lon="6.2691">
        <ele>1022.5</ele>
        <time>2024-06-16T06:28:19Z</time>
      </trkpt>
      <trkpt lat="46.6364" lon="6.26914">
        <ele>1022.5</ele>
        <time>2024-06-16T06:28:20Z</time>
      </trkpt>
      <trkpt lat="46.63642" lon="6.26919">
        <ele>1022.7</ele>
        <time>2024-06-16T06:28:21Z</time>
      </trkpt>
      <trkpt lat="46.63644" lon="6.26924">
        <ele>1022.8</ele>
        <time>2024-06-16T06:28:22Z</time>
      </trkpt>
      <trkpt lat="46.63646" lon="6.26929">
        <ele>1022.7</ele>
        <time>2024-06-16T06:28:23Z</time>
      </trkpt>
      <trkpt lat="46.63649" lon="6.26934">
        <ele>1022.7</ele>
        <time>2024-06-16T06:28:24Z</time>
      </trkpt>
      <trkpt lat="46.63651" lon="6.26941">
        <ele>1022.6</ele>
        <time>2024-06-16T06:28:25Z</time>
      </trkpt>
      <trkpt lat="46.63653" lon="6.26947">
        <ele>1022.6</ele>
        <time>2024-06-16T06:28:26Z</time>
      </trkpt>
      <trkpt lat="46.63655" lon="6.26953">
        <ele>1022.6</ele>
        <time>2024-06-16T06:28:27Z</time>
      </trkpt>
      <trkpt lat="46.63657" lon="6.26959">
        <ele>1022.6</ele>
        <time>2024-06-16T06:28:28Z</time>
      </trkpt>
      <trkpt lat="46.63659" lon="6.26965">
        <ele>1022.4</ele>
        <time>2024-06-16T06:28:29Z</time>
      </trkpt>
      <trkpt lat="46.63661" lon="6.26971">
        <ele>1022.4</ele>
        <time>2024-06-16T06:28:30Z</time>
      </trkpt>
      <trkpt lat="46.63663" lon="6.26975">
        <ele>1022.3</ele>
        <time>2024-06-16T06:28:31Z</time>
      </trkpt>
      <trkpt lat="46.63665" lon="6.26979">
        <ele>1022.4</ele>
        <time>2024-06-16T06:28:32Z</time>
      </trkpt>
      <trkpt lat="46.63667" lon="6.26983">
        <ele>1022.5</ele>
        <time>2024-06-16T06:28:33Z</time>
      </trkpt>
      <trkpt lat="46.63669" lon="6.26987">
        <ele>1022.7</ele>
        <time>2024-06-16T06:28:34Z</time>
      </trkpt>
      <trkpt lat="46.63671" lon="6.26991">
        <ele>1022.8</ele>
        <time>2024-06-16T06:28:35Z</time>
      </trkpt>
      <trkpt lat="46.63674" lon="6.26996">
        <ele>1022.8</ele>
        <time>2024-06-16T06:28:36Z</time>
      </trkpt>
      <trkpt lat="46.63676" lon="6.26999">
        <ele>1022.8</ele>
        <time>2024-06-16T06:28:37Z</time>
      </trkpt>
      <trkpt lat="46.63679" lon="6.27003">
        <ele>1022.9</ele>
        <time>2024-06-16T06:28:38Z</time>
      </trkpt>
      <trkpt lat="46.63681" lon="6.27006">
        <ele>1023</ele>
        <time>2024-06-16T06:28:39Z</time>
      </trkpt>
      <trkpt lat="46.63683" lon="6.27009">
        <ele>1023.1</ele>
        <time>2024-06-16T06:28:40Z</time>
      </trkpt>
      <trkpt lat="46.63685" lon="6.27012">
        <ele>1023.1</ele>
        <time>2024-06-16T06:28:41Z</time>
      </trkpt>
      <trkpt lat="46.63686" lon="6.27015">
        <ele>1023.2</ele>
        <time>2024-06-16T06:28:42Z</time>
      </trkpt>
      <trkpt lat="46.63688" lon="6.27017">
        <ele>1023.2</ele>
        <time>2024-06-16T06:28:43Z</time>
      </trkpt>
      <trkpt lat="46.63689" lon="6.2702">
        <ele>1023.4</ele>
        <time>2024-06-16T06:28:44Z</time>
      </trkpt>
      <trkpt lat="46.63691" lon="6.27022">
        <ele>1023.6</ele>
        <time>2024-06-16T06:28:45Z</time>
      </trkpt>
      <trkpt lat="46.63692" lon="6.27025">
        <ele>1023.5</ele>
        <time>2024-06-16T06:28:46Z</time>
      </trkpt>
      <trkpt lat="46.63694" lon="6.27028">
        <ele>1023.3</ele>
        <time>2024-06-16T06:28:47Z</time>
      </trkpt>
      <trkpt lat="46.63696" lon="6.27033">
        <ele>1023.1</ele>
        <time>2024-06-16T06:28:48Z</time>
      </trkpt>
      <trkpt lat="46.63698" lon="6.27038">
        <ele>1022.9</ele>
        <time>2024-06-16T06:28:49Z</time>
      </trkpt>
      <trkpt lat="46.63701" lon="6.27044">
        <ele>1022.7</ele>
        <time>2024-06-16T06:28:50Z</time>
      </trkpt>
      <trkpt lat="46.63704" lon="6.27051">
        <ele>1022.4</ele>
        <time>2024-06-16T06:28:51Z</time>
      </trkpt>
      <trkpt lat="46.63708" lon="6.27057">
        <ele>1022.2</ele>
        <time>2024-06-16T06:28:52Z</time>
      </trkpt>
      <trkpt lat="46.63711" lon="6.27063">
        <ele>1021.9</ele>
        <time>2024-06-16T06:28:53Z</time>
      </trkpt>
      <trkpt lat="46.63714" lon="6.27069">
        <ele>1021.6</ele>
        <time>2024-06-16T06:28:54Z</time>
      </trkpt>
      <trkpt lat="46.63717" lon="6.27075">
        <ele>1021.3</ele>
        <time>2024-06-16T06:28:55Z</time>
      </trkpt>
      <trkpt lat="46.6372" lon="6.2708">
        <ele>1020.9</ele>
        <time>2024-06-16T06:28:56Z</time>
      </trkpt>
      <trkpt lat="46.63723" lon="6.27084">
        <ele>1020.5</ele>
        <time>2024-06-16T06:28:57Z</time>
      </trkpt>
      <trkpt lat="46.63726" lon="6.27089">
        <ele>1020.1</ele>
        <time>2024-06-16T06:28:58Z</time>
      </trkpt>
      <trkpt lat="46.63728" lon="6.27093">
        <ele>1019.6</ele>
        <time>2024-06-16T06:28:59Z</time>
      </trkpt>
      <trkpt lat="46.6373" lon="6.27097">
        <ele>1019.1</ele>
        <time>2024-06-16T06:29:00Z</time>
      </trkpt>
      <trkpt lat="46.63732" lon="6.27102">
        <ele>1018.8</ele>
        <time>2024-06-16T06:29:01Z</time>
      </trkpt>
      <trkpt lat="46.63734" lon="6.27107">
        <ele>1018.5</ele>
        <time>2024-06-16T06:29:02Z</time>
      </trkpt>
      <trkpt lat="46.63736" lon="6.27113">
        <ele>1018.2</ele>
        <time>2024-06-16T06:29:03Z</time>
      </trkpt>
      <trkpt lat="46.63739" lon="6.27119">
        <ele>1017.9</ele>
        <time>2024-06-16T06:29:04Z</time>
      </trkpt>
      <trkpt lat="46.63741" lon="6.27124">
        <ele>1017.5</ele>
        <time>2024-06-16T06:29:05Z</time>
      </trkpt>
      <trkpt lat="46.63744" lon="6.2713">
        <ele>1017.2</ele>
        <time>2024-06-16T06:29:06Z</time>
      </trkpt>
      <trkpt lat="46.63747" lon="6.27136">
        <ele>1017</ele>
        <time>2024-06-16T06:29:07Z</time>
      </trkpt>
      <trkpt lat="46.63751" lon="6.27142">
        <ele>1016.9</ele>
        <time>2024-06-16T06:29:08Z</time>
      </trkpt>
      <trkpt lat="46.63755" lon="6.27147">
        <ele>1016.8</ele>
        <time>2024-06-16T06:29:09Z</time>
      </trkpt>
      <trkpt lat="46.63759" lon="6.27151">
        <ele>1016.8</ele>
        <time>2024-06-16T06:29:10Z</time>
      </trkpt>
      <trkpt lat="46.63763" lon="6.27155">
        <ele>1016.9</ele>
        <time>2024-06-16T06:29:11Z</time>
      </trkpt>
      <trkpt lat="46.63767" lon="6.27157">
        <ele>1016.8</ele>
        <time>2024-06-16T06:29:12Z</time>
      </trkpt>
      <trkpt lat="46.6377" lon="6.2716">
        <ele>1016.8</ele>
        <time>2024-06-16T06:29:13Z</time>
      </trkpt>
      <trkpt lat="46.63773" lon="6.27163">
        <ele>1016.9</ele>
        <time>2024-06-16T06:29:14Z</time>
      </trkpt>
      <trkpt lat="46.63776" lon="6.27166">
        <ele>1017</ele>
        <time>2024-06-16T06:29:15Z</time>
      </trkpt>
      <trkpt lat="46.63778" lon="6.27169">
        <ele>1017.1</ele>
        <time>2024-06-16T06:29:16Z</time>
      </trkpt>
      <trkpt lat="46.6378" lon="6.27171">
        <ele>1016.9</ele>
        <time>2024-06-16T06:29:17Z</time>
      </trkpt>
      <trkpt lat="46.63782" lon="6.27173">
        <ele>1016.8</ele>
        <time>2024-06-16T06:29:18Z</time>
      </trkpt>
      <trkpt lat="46.63784" lon="6.27175">
        <ele>1016.6</ele>
        <time>2024-06-16T06:29:19Z</time>
      </trkpt>
      <trkpt lat="46.63786" lon="6.27178">
        <ele>1016.5</ele>
        <time>2024-06-16T06:29:20Z</time>
      </trkpt>
      <trkpt lat="46.63788" lon="6.2718">
        <ele>1016.2</ele>
        <time>2024-06-16T06:29:21Z</time>
      </trkpt>
      <trkpt lat="46.6379" lon="6.27183">
        <ele>1016</ele>
        <time>2024-06-16T06:29:22Z</time>
      </trkpt>
      <trkpt lat="46.63792" lon="6.27186">
        <ele>1015.8</ele>
        <time>2024-06-16T06:29:23Z</time>
      </trkpt>
      <trkpt lat="46.63794" lon="6.27189">
        <ele>1015.7</ele>
        <time>2024-06-16T06:29:24Z</time>
      </trkpt>
      <trkpt lat="46.63796" lon="6.27192">
        <ele>1015.5</ele>
        <time>2024-06-16T06:29:25Z</time>
      </trkpt>
      <trkpt lat="46.63797" lon="6.27195">
        <ele>1015.3</ele>
        <time>2024-06-16T06:29:26Z</time>
      </trkpt>
      <trkpt lat="46.63799" lon="6.27199">
        <ele>1015.2</ele>
        <time>2024-06-16T06:29:27Z</time>
      </trkpt>
      <trkpt lat="46.63801" lon="6.27203">
        <ele>1015.1</ele>
        <time>2024-06-16T06:29:28Z</time>
      </trkpt>
      <trkpt lat="46.63802" lon="6.27207">
        <ele>1014.9</ele>
        <time>2024-06-16T06:29:29Z</time>
      </trkpt>
      <trkpt lat="46.63804" lon="6.27211">
        <ele>1014.8</ele>
        <time>2024-06-16T06:29:30Z</time>
      </trkpt>
      <trkpt lat="46.63806" lon="6.27216">
        <ele>1014.7</ele>
        <time>2024-06-16T06:29:31Z</time>
      </trkpt>
      <trkpt lat="46.63807" lon="6.2722">
        <ele>1014.5</ele>
        <time>2024-06-16T06:29:32Z</time>
      </trkpt>
      <trkpt lat="46.63809" lon="6.27225">
        <ele>1014.2</ele>
        <time>2024-06-16T06:29:33Z</time>
      </trkpt>
      <trkpt lat="46.63811" lon="6.2723">
        <ele>1013.9</ele>
        <time>2024-06-16T06:29:34Z</time>
      </trkpt>
      <trkpt lat="46.63813" lon="6.27235">
        <ele>1013.7</ele>
        <time>2024-06-16T06:29:35Z</time>
      </trkpt>
      <trkpt lat="46.63815" lon="6.27239">
        <ele>1013.6</ele>
        <time>2024-06-16T06:29:36Z</time>
      </trkpt>
      <trkpt lat="46.63816" lon="6.27245">
        <ele>1013.4</ele>
        <time>2024-06-16T06:29:37Z</time>
      </trkpt>
      <trkpt lat="46.63817" lon="6.2725">
        <ele>1013.2</ele>
        <time>2024-06-16T06:29:38Z</time>
      </trkpt>
      <trkpt lat="46.63819" lon="6.27255">
        <ele>1013</ele>
        <time>2024-06-16T06:29:39Z</time>
      </trkpt>
      <trkpt lat="46.6382" lon="6.2726">
        <ele>1012.7</ele>
        <time>2024-06-16T06:29:40Z</time>
      </trkpt>
      <trkpt lat="46.63821" lon="6.27265">
        <ele>1012.5</ele>
        <time>2024-06-16T06:29:41Z</time>
      </trkpt>
      <trkpt lat="46.63823" lon="6.2727">
        <ele>1012.2</ele>
        <time>2024-06-16T06:29:42Z</time>
      </trkpt>
      <trkpt lat="46.63824" lon="6.27275">
        <ele>1012</ele>
        <time>2024-06-16T06:29:43Z</time>
      </trkpt>
      <trkpt lat="46.63825" lon="6.27279">
        <ele>1011.8</ele>
        <time>2024-06-16T06:29:44Z</time>
      </trkpt>
      <trkpt lat="46.63827" lon="6.27284">
        <ele>1011.7</ele>
        <time>2024-06-16T06:29:45Z</time>
      </trkpt>
      <trkpt lat="46.63828" lon="6.27289">
        <ele>1011.6</ele>
        <time>2024-06-16T06:29:46Z</time>
      </trkpt>
      <trkpt lat="46.63829" lon="6.27294">
        <ele>1011.6</ele>
        <time>2024-06-16T06:29:47Z</time>
      </trkpt>
      <trkpt lat="46.6383" lon="6.27298">
        <ele>1011.6</ele>
        <time>2024-06-16T06:29:48Z</time>
      </trkpt>
      <trkpt lat="46.63832" lon="6.27303">
        <ele>1011.6</ele>
        <time>2024-06-16T06:29:49Z</time>
      </trkpt>
      <trkpt lat="46.63833" lon="6.27307">
        <ele>1011.6</ele>
        <time>2024-06-16T06:29:50Z</time>
      </trkpt>
      <trkpt lat="46.63834" lon="6.27311">
        <ele>1011.6</ele>
        <time>2024-06-16T06:29:51Z</time>
      </trkpt>
      <trkpt lat="46.63835" lon="6.27315">
        <ele>1011.6</ele>
        <time>2024-06-16T06:29:52Z</time>
      </trkpt>
      <trkpt lat="46.63836" lon="6.27318">
        <ele>1011.6</ele>
        <time>2024-06-16T06:29:53Z</time>
      </trkpt>
      <trkpt lat="46.63837" lon="6.2732">
        <ele>1011.5</ele>
        <time>2024-06-16T06:29:54Z</time>
      </trkpt>
      <trkpt lat="46.63837" lon="6.27321">
        <ele>1011.4</ele>
        <time>2024-06-16T06:29:55Z</time>
      </trkpt>
      <trkpt lat="46.63838" lon="6.27322">
        <ele>1011.3</ele>
        <time>2024-06-16T06:29:56Z</time>
      </trkpt>
      <trkpt lat="46.63838" lon="6.27322">
        <ele>1011.4</ele>
        <time>2024-06-16T06:29:57Z</time>
      </trkpt>
      <trkpt lat="46.63838" lon="6.27322">
        <ele>1011.3</ele>
        <time>2024-06-16T06:29:58Z</time>
      </trkpt>
      <trkpt lat="46.63837" lon="6.27322">
        <ele>1010.9</ele>
        <time>2024-06-16T06:29:59Z</time>
      </trkpt>
      <trkpt lat="46.63837" lon="6.27323">
        <ele>1010.4</ele>
        <time>2024-06-16T06:30:00Z</time>
      </trkpt>
      <trkpt lat="46.63837" lon="6.27323">
        <ele>1010</ele>
        <time>2024-06-16T06:30:01Z</time>
      </trkpt>
      <trkpt lat="46.63837" lon="6.27323">
        <ele>1009.5</ele>
        <time>2024-06-16T06:30:02Z</time>
      </trkpt>
      <trkpt lat="46.63836" lon="6.27323">
        <ele>1009.1</ele>
        <time>2024-06-16T06:30:03Z</time>
      </trkpt>
      <trkpt lat="46.63836" lon="6.27323">
        <ele>1008.6</ele>
        <time>2024-06-16T06:30:04Z</time>
      </trkpt>
      <trkpt lat="46.63836" lon="6.27323">
        <ele>1008.2</ele>
        <time>2024-06-16T06:30:05Z</time>
      </trkpt>
      <trkpt lat="46.63835" lon="6.27322">
        <ele>1007.8</ele>
        <time>2024-06-16T06:30:06Z</time>
      </trkpt>
      <trkpt lat="46.63834" lon="6.27321">
        <ele>1007.3</ele>
        <time>2024-06-16T06:30:07Z</time>
      </trkpt>
      <trkpt lat="46.63833" lon="6.2732">
        <ele>1006.9</ele>
        <time>2024-06-16T06:30:08Z</time>
      </trkpt>
      <trkpt lat="46.63833" lon="6.27319">
        <ele>1006.6</ele>
        <time>2024-06-16T06:30:09Z</time>
      </trkpt>
      <trkpt lat="46.63832" lon="6.27318">
        <ele>1006.4</ele>
        <time>2024-06-16T06:30:10Z</time>
      </trkpt>
      <trkpt lat="46.63831" lon="6.27317">
        <ele>1006.4</ele>
        <time>2024-06-16T06:30:11Z</time>
      </trkpt>
      <trkpt lat="46.6383" lon="6.27315">
        <ele>1006.4</ele>
        <time>2024-06-16T06:30:12Z</time>
      </trkpt>
      <trkpt lat="46.6383" lon="6.27313">
        <ele>1006.5</ele>
        <time>2024-06-16T06:30:13Z</time>
      </trkpt>
      <trkpt lat="46.63829" lon="6.27312">
        <ele>1006.7</ele>
        <time>2024-06-16T06:30:14Z</time>
      </trkpt>
      <trkpt lat="46.63829" lon="6.2731">
        <ele>1006.9</ele>
        <time>2024-06-16T06:30:15Z</time>
      </trkpt>
      <trkpt lat="46.63829" lon="6.27309">
        <ele>1007.1</ele>
        <time>2024-06-16T06:30:16Z</time>
      </trkpt>
      <trkpt lat="46.63829" lon="6.27308">
        <ele>1007.2</ele>
        <time>2024-06-16T06:30:17Z</time>
      </trkpt>
      <trkpt lat="46.63829" lon="6.27308">
        <ele>1007.3</ele>
        <time>2024-06-16T06:30:18Z</time>
      </trkpt>
      <trkpt lat="46.63829" lon="6.27307">
        <ele>1007.4</ele>
        <time>2024-06-16T06:30:19Z</time>
      </trkpt>
      <trkpt lat="46.63829" lon="6.27308">
        <ele>1007.6</ele>
        <time>2024-06-16T06:30:20Z</time>
      </trkpt>
      <trkpt lat="46.63829" lon="6.27308">
        <ele>1007.9</ele>
        <time>2024-06-16T06:30:21Z</time>
      </trkpt>
      <trkpt lat="46.63829" lon="6.27309">
        <ele>1008</ele>
        <time>2024-06-16T06:30:22Z</time>
      </trkpt>
      <trkpt lat="46.6383" lon="6.2731">
        <ele>1008</ele>
        <time>2024-06-16T06:30:23Z</time>
      </trkpt>
      <trkpt lat="46.63831" lon="6.27312">
        <ele>1008</ele>
        <time>2024-06-16T06:30:24Z</time>
      </trkpt>
      <trkpt lat="46.63831" lon="6.27314">
        <ele>1008.1</ele>
        <time>2024-06-16T06:30:25Z</time>
      </trkpt>
      <trkpt lat="46.63832" lon="6.27316">
        <ele>1008</ele>
        <time>2024-06-16T06:30:26Z</time>
      </trkpt>
      <trkpt lat="46.63832" lon="6.27318">
        <ele>1008.1</ele>
        <time>2024-06-16T06:30:27Z</time>
      </trkpt>
      <trkpt lat="46.63833" lon="6.2732">
        <ele>1008.1</ele>
        <time>2024-06-16T06:30:28Z</time>
      </trkpt>
      <trkpt lat="46.63833" lon="6.27322">
        <ele>1008.2</ele>
        <time>2024-06-16T06:30:29Z</time>
      </trkpt>
      <trkpt lat="46.63834" lon="6.27323">
        <ele>1008.4</ele>
        <time>2024-06-16T06:30:30Z</time>
      </trkpt>
      <trkpt lat="46.63834" lon="6.27325">
        <ele>1008.4</ele>
        <time>2024-06-16T06:30:31Z</time>
      </trkpt>
      <trkpt lat="46.63835" lon="6.27326">
        <ele>1008.5</ele>
        <time>2024-06-16T06:30:32Z</time>
      </trkpt>
      <trkpt lat="46.63835" lon="6.27328">
        <ele>1008.6</ele>
        <time>2024-06-16T06:30:33Z</time>
      </trkpt>
      <trkpt lat="46.63835" lon="6.27329">
        <ele>1008.6</ele>
        <time>2024-06-16T06:30:34Z</time>
      </trkpt>
      <trkpt lat="46.63835" lon="6.2733">
        <ele>1008.6</ele>
        <time>2024-06-16T06:30:35Z</time>
      </trkpt>
      <trkpt lat="46.63836" lon="6.2733">
        <ele>1008.7</ele>
        <time>2024-06-16T06:30:36Z</time>
      </trkpt>
      <trkpt lat="46.63836" lon="6.27329">
        <ele>1008.8</ele>
        <time>2024-06-16T06:30:37Z</time>
      </trkpt>
      <trkpt lat="46.63835" lon="6.27328">
        <ele>1008.8</ele>
        <time>2024-06-16T06:30:38Z</time>
      </trkpt>
      <trkpt lat="46.63835" lon="6.27326">
        <ele>1008.9</ele>
        <time>2024-06-16T06:30:39Z</time>
      </trkpt>
      <trkpt lat="46.63834" lon="6.27324">
        <ele>1008.9</ele>
        <time>2024-06-16T06:30:40Z</time>
      </trkpt>
      <trkpt lat="46.63834" lon="6.27322">
        <ele>1008.8</ele>
        <time>2024-06-16T06:30:41Z</time>
      </trkpt>
      <trkpt lat="46.63833" lon="6.27321">
        <ele>1008.8</ele>
        <time>2024-06-16T06:30:42Z</time>
      </trkpt>
      <trkpt lat="46.63833" lon="6.27319">
        <ele>1008.9</ele>
        <time>2024-06-16T06:30:43Z</time>
      </trkpt>
      <trkpt lat="46.63833" lon="6.27318">
        <ele>1008.9</ele>
        <time>2024-06-16T06:30:44Z</time>
      </trkpt>
      <trkpt lat="46.63832" lon="6.27318">
        <ele>1008.9</ele>
        <time>2024-06-16T06:30:45Z</time>
      </trkpt>
      <trkpt lat="46.63832" lon="6.27317">
        <ele>1008.9</ele>
        <time>2024-06-16T06:30:46Z</time>
      </trkpt>
      <trkpt lat="46.63832" lon="6.27316">
        <ele>1008.9</ele>
        <time>2024-06-16T06:30:47Z</time>
      </trkpt>
      <trkpt lat="46.63832" lon="6.27316">
        <ele>1008.9</ele>
        <time>2024-06-16T06:30:48Z</time>
      </trkpt>
      <trkpt lat="46.63832" lon="6.27316">
        <ele>1008.8</ele>
        <time>2024-06-16T06:30:49Z</time>
      </trkpt>
      <trkpt lat="46.63832" lon="6.27317">
        <ele>1008.6</ele>
        <time>2024-06-16T06:30:50Z</time>
      </trkpt>
      <trkpt lat="46.63832" lon="6.27318">
        <ele>1008.6</ele>
        <time>2024-06-16T06:30:51Z</time>
      </trkpt>
      <trkpt lat="46.63832" lon="6.27319">
        <ele>1008.5</ele>
        <time>2024-06-16T06:30:52Z</time>
      </trkpt>
      <trkpt lat="46.63833" lon="6.2732">
        <ele>1008.7</ele>
        <time>2024-06-16T06:30:53Z</time>
      </trkpt>
      <trkpt lat="46.63833" lon="6.27322">
        <ele>1008.8</ele>
        <time>2024-06-16T06:30:54Z</time>
      </trkpt>
      <trkpt lat="46.63834" lon="6.27323">
        <ele>1008.9</ele>
        <time>2024-06-16T06:30:55Z</time>
      </trkpt>
      <trkpt lat="46.63835" lon="6.27325">
        <ele>1009.1</ele>
        <time>2024-06-16T06:30:56Z</time>
      </trkpt>
      <trkpt lat="46.63835" lon="6.27325">
        <ele>1009.2</ele>
        <time>2024-06-16T06:30:57Z</time>
      </trkpt>
      <trkpt lat="46.63836" lon="6.27326">
        <ele>1009.6</ele>
        <time>2024-06-16T06:30:58Z</time>
      </trkpt>
      <trkpt lat="46.63836" lon="6.27327">
        <ele>1010</ele>
        <time>2024-06-16T06:30:59Z</time>
      </trkpt>
      <trkpt lat="46.63837" lon="6.27327">
        <ele>1010.4</ele>
        <time>2024-06-16T06:31:00Z</time>
      </trkpt>
      <trkpt lat="46.63837" lon="6.27328">
        <ele>1010.8</ele>
        <time>2024-06-16T06:31:01Z</time>
      </trkpt>
      <trkpt lat="46.63838" lon="6.27328">
        <ele>1011.1</ele>
        <time>2024-06-16T06:31:02Z</time>
      </trkpt>
      <trkpt lat="46.63838" lon="6.27328">
        <ele>1011.5</ele>
        <time>2024-06-16T06:31:03Z</time>
      </trkpt>
      <trkpt lat="46.63838" lon="6.27329">
        <ele>1011.9</ele>
        <time>2024-06-16T06:31:04Z</time>
      </trkpt>
      <trkpt lat="46.63839" lon="6.27331">
        <ele>1012.1</ele>
        <time>2024-06-16T06:31:05Z</time>
      </trkpt>
      <trkpt lat="46.63839" lon="6.27333">
        <ele>1012.4</ele>
        <time>2024-06-16T06:31:06Z</time>
      </trkpt>
      <trkpt lat="46.6384" lon="6.27335">
        <ele>1012.8</ele>
        <time>2024-06-16T06:31:07Z</time>
      </trkpt>
      <trkpt lat="46.63841" lon="6.27338">
        <ele>1012.9</ele>
        <time>2024-06-16T06:31:08Z</time>
      </trkpt>
      <trkpt lat="46.63843" lon="6.27342">
        <ele>1013</ele>
        <time>2024-06-16T06:31:09Z</time>
      </trkpt>
      <trkpt lat="46.63844" lon="6.27346">
        <ele>1013.1</ele>
        <time>2024-06-16T06:31:10Z</time>
      </trkpt>
      <trkpt lat="46.63845" lon="6.2735">
        <ele>1013.1</ele>
        <time>2024-06-16T06:31:11Z</time>
      </trkpt>
      <trkpt lat="46.63847" lon="6.27354">
        <ele>1013.1</ele>
        <time>2024-06-16T06:31:12Z</time>
      </trkpt>
      <trkpt lat="46.63848" lon="6.27359">
        <ele>1013.1</ele>
        <time>2024-06-16T06:31:13Z</time>
      </trkpt>
      <trkpt lat="46.6385" lon="6.27363">
        <ele>1013.1</ele>
        <time>2024-06-16T06:31:14Z</time>
      </trkpt>
      <trkpt lat="46.63851" lon="6.27367">
        <ele>1013.1</ele>
        <time>2024-06-16T06:31:15Z</time>
      </trkpt>
      <trkpt lat="46.63852" lon="6.27372">
        <ele>1013.3</ele>
        <time>2024-06-16T06:31:16Z</time>
      </trkpt>
      <trkpt lat="46.63854" lon="6.27376">
        <ele>1013.3</ele>
        <time>2024-06-16T06:31:17Z</time>
      </trkpt>
      <trkpt lat="46.63855" lon="6.2738">
        <ele>1013.5</ele>
        <time>2024-06-16T06:31:18Z</time>
      </trkpt>
      <trkpt lat="46.63856" lon="6.27383">
        <ele>1013.8</ele>
        <time>2024-06-16T06:31:19Z</time>
      </trkpt>
      <trkpt lat="46.63858" lon="6.27386">
        <ele>1014</ele>
        <time>2024-06-16T06:31:20Z</time>
      </trkpt>
      <trkpt lat="46.6386" lon="6.27388">
        <ele>1014.1</ele>
        <time>2024-06-16T06:31:21Z</time>
      </trkpt>
      <trkpt lat="46.63862" lon="6.2739">
        <ele>1014.4</ele>
        <time>2024-06-16T06:31:22Z</time>
      </trkpt>
      <trkpt lat="46.63863" lon="6.2739">
        <ele>1014.6</ele>
        <time>2024-06-16T06:31:23Z</time>
      </trkpt>
      <trkpt lat="46.63865" lon="6.2739">
        <ele>1014.7</ele>
        <time>2024-06-16T06:31:24Z</time>
      </trkpt>
      <trkpt lat="46.63867" lon="6.27389">
        <ele>1014.6</ele>
        <time>2024-06-16T06:31:25Z</time>
      </trkpt>
      <trkpt lat="46.63869" lon="6.27388">
        <ele>1014.7</ele>
        <time>2024-06-16T06:31:26Z</time>
      </trkpt>
      <trkpt lat="46.6387" lon="6.27386">
        <ele>1014.7</ele>
        <time>2024-06-16T06:31:27Z</time>
      </trkpt>
      <trkpt lat="46.63871" lon="6.27384">
        <ele>1014.7</ele>
        <time>2024-06-16T06:31:28Z</time>
      </trkpt>
      <trkpt lat="46.63873" lon="6.27381">
        <ele>1014.8</ele>
        <time>2024-06-16T06:31:29Z</time>
      </trkpt>
      <trkpt lat="46.63874" lon="6.27379">
        <ele>1015</ele>
        <time>2024-06-16T06:31:30Z</time>
      </trkpt>
      <trkpt lat="46.63875" lon="6.27376">
        <ele>1015.4</ele>
        <time>2024-06-16T06:31:31Z</time>
      </trkpt>
      <trkpt lat="46.63875" lon="6.27374">
        <ele>1015.9</ele>
        <time>2024-06-16T06:31:32Z</time>
      </trkpt>
      <trkpt lat="46.63875" lon="6.27372">
        <ele>1016.5</ele>
        <time>2024-06-16T06:31:33Z</time>
      </trkpt>
      <trkpt lat="46.63876" lon="6.2737">
        <ele>1017.1</ele>
        <time>2024-06-16T06:31:34Z</time>
      </trkpt>
      <trkpt lat="46.63876" lon="6.27368">
        <ele>1017.8</ele>
        <time>2024-06-16T06:31:35Z</time>
      </trkpt>
      <trkpt lat="46.63876" lon="6.27366">
        <ele>1018.5</ele>
        <time>2024-06-16T06:31:36Z</time>
      </trkpt>
      <trkpt lat="46.63875" lon="6.27364">
        <ele>1019.1</ele>
        <time>2024-06-16T06:31:37Z</time>
      </trkpt>
      <trkpt lat="46.63875" lon="6.27363">
        <ele>1019.6</ele>
        <time>2024-06-16T06:31:38Z</time>
      </trkpt>
      <trkpt lat="46.63875" lon="6.27362">
        <ele>1020.2</ele>
        <time>2024-06-16T06:31:39Z</time>
      </trkpt>
      <trkpt lat="46.63875" lon="6.2736">
        <ele>1021.1</ele>
        <time>2024-06-16T06:31:40Z</time>
      </trkpt>
      <trkpt lat="46.63875" lon="6.27359">
        <ele>1021.9</ele>
        <time>2024-06-16T06:31:41Z</time>
      </trkpt>
      <trkpt lat="46.63874" lon="6.27357">
        <ele>1022.5</ele>
        <time>2024-06-16T06:31:42Z</time>
      </trkpt>
      <trkpt lat="46.63874" lon="6.27355">
        <ele>1023.2</ele>
        <time>2024-06-16T06:31:43Z</time>
      </trkpt>
      <trkpt lat="46.63873" lon="6.27353">
        <ele>1023.8</ele>
        <time>2024-06-16T06:31:44Z</time>
      </trkpt>
      <trkpt lat="46.63873" lon="6.27352">
        <ele>1024.4</ele>
        <time>2024-06-16T06:31:45Z</time>
      </trkpt>
      <trkpt lat="46.63873" lon="6.27349">
        <ele>1025</ele>
        <time>2024-06-16T06:31:46Z</time>
      </trkpt>
      <trkpt lat="46.63872" lon="6.27347">
        <ele>1025.5</ele>
        <time>2024-06-16T06:31:47Z</time>
      </trkpt>
      <trkpt lat="46.63872" lon="6.27345">
        <ele>1025.8</ele>
        <time>2024-06-16T06:31:48Z</time>
      </trkpt>
      <trkpt lat="46.63872" lon="6.27343">
        <ele>1026.1</ele>
        <time>2024-06-16T06:31:49Z</time>
      </trkpt>
      <trkpt lat="46.63872" lon="6.27341">
        <ele>1026.4</ele>
        <time>2024-06-16T06:31:50Z</time>
      </trkpt>
      <trkpt lat="46.63872" lon="6.27339">
        <ele>1026.8</ele>
        <time>2024-06-16T06:31:51Z</time>
      </trkpt>
      <trkpt lat="46.63871" lon="6.27337">
        <ele>1027.3</ele>
        <time>2024-06-16T06:31:52Z</time>
      </trkpt>
      <trkpt lat="46.63871" lon="6.27335">
        <ele>1027.7</ele>
        <time>2024-06-16T06:31:53Z</time>
      </trkpt>
      <trkpt lat="46.63871" lon="6.27332">
        <ele>1028</ele>
        <time>2024-06-16T06:31:54Z</time>
      </trkpt>
      <trkpt lat="46.63871" lon="6.2733">
        <ele>1028.2</ele>
        <time>2024-06-16T06:31:55Z</time>
      </trkpt>
      <trkpt lat="46.63872" lon="6.27328">
        <ele>1028.4</ele>
        <time>2024-06-16T06:31:56Z</time>
      </trkpt>
      <trkpt lat="46.63872" lon="6.27326">
        <ele>1028.5</ele>
        <time>2024-06-16T06:31:57Z</time>
      </trkpt>
      <trkpt lat="46.63872" lon="6.27323">
        <ele>1028.5</ele>
        <time>2024-06-16T06:31:58Z</time>
      </trkpt>
      <trkpt lat="46.63872" lon="6.27321">
        <ele>1028.4</ele>
        <time>2024-06-16T06:31:59Z</time>
      </trkpt>
      <trkpt lat="46.63872" lon="6.27318">
        <ele>1028.4</ele>
        <time>2024-06-16T06:32:00Z</time>
      </trkpt>
      <trkpt lat="46.63872" lon="6.27316">
        <ele>1028.4</ele>
        <time>2024-06-16T06:32:01Z</time>
      </trkpt>
      <trkpt lat="46.63872" lon="6.27314">
        <ele>1028.5</ele>
        <time>2024-06-16T06:32:02Z</time>
      </trkpt>
      <trkpt lat="46.63871" lon="6.27311">
        <ele>1028.6</ele>
        <time>2024-06-16T06:32:03Z</time>
      </trkpt>
      <trkpt lat="46.63871" lon="6.27309">
        <ele>1028.7</ele>
        <time>2024-06-16T06:32:04Z</time>
      </trkpt>
      <trkpt lat="46.63871" lon="6.27307">
        <ele>1028.8</ele>
        <time>2024-06-16T06:32:05Z</time>
      </trkpt>
      <trkpt lat="46.6387" lon="6.27305">
        <ele>1028.9</ele>
        <time>2024-06-16T06:32:06Z</time>
      </trkpt>
      <trkpt lat="46.6387" lon="6.27303">
        <ele>1029.2</ele>
        <time>2024-06-16T06:32:07Z</time>
      </trkpt>
      <trkpt lat="46.6387" lon="6.27301">
        <ele>1029.3</ele>
        <time>2024-06-16T06:32:08Z</time>
      </trkpt>
      <trkpt lat="46.63869" lon="6.27299">
        <ele>1029.4</ele>
        <time>2024-06-16T06:32:09Z</time>
      </trkpt>
      <trkpt lat="46.63869" lon="6.27297">
        <ele>1029.5</ele>
        <time>2024-06-16T06:32:10Z</time>
      </trkpt>
      <trkpt lat="46.63869" lon="6.27296">
        <ele>1029.6</ele>
        <time>2024-06-16T06:32:11Z</time>
      </trkpt>
      <trkpt lat="46.63869" lon="6.27294">
        <ele>1029.8</ele>
        <time>2024-06-16T06:32:12Z</time>
      </trkpt>
      <trkpt lat="46.63868" lon="6.27292">
        <ele>1030</ele>
        <time>2024-06-16T06:32:13Z</time>
      </trkpt>
      <trkpt lat="46.63868" lon="6.2729">
        <ele>1030.3</ele>
        <time>2024-06-16T06:32:14Z</time>
      </trkpt>
      <trkpt lat="46.63868" lon="6.27287">
        <ele>1030.5</ele>
        <time>2024-06-16T06:32:15Z</time>
      </trkpt>
      <trkpt lat="46.63868" lon="6.27285">
        <ele>1030.6</ele>
        <time>2024-06-16T06:32:16Z</time>
      </trkpt>
      <trkpt lat="46.63868" lon="6.27283">
        <ele>1030.6</ele>
        <time>2024-06-16T06:32:17Z</time>
      </trkpt>
      <trkpt lat="46.63867" lon="6.2728">
        <ele>1030.7</ele>
        <time>2024-06-16T06:32:18Z</time>
      </trkpt>
      <trkpt lat="46.63867" lon="6.27278">
        <ele>1030.8</ele>
        <time>2024-06-16T06:32:19Z</time>
      </trkpt>
      <trkpt lat="46.63867" lon="6.27275">
        <ele>1030.8</ele>
        <time>2024-06-16T06:32:20Z</time>
      </trkpt>
      <trkpt lat="46.63867" lon="6.27273">
        <ele>1030.8</ele>
        <time>2024-06-16T06:32:21Z</time>
      </trkpt>
      <trkpt lat="46.63866" lon="6.27271">
        <ele>1031</ele>
        <time>2024-06-16T06:32:22Z</time>
      </trkpt>
      <trkpt lat="46.63866" lon="6.27268">
        <ele>1031</ele>
        <time>2024-06-16T06:32:23Z</time>
      </trkpt>
      <trkpt lat="46.63866" lon="6.27266">
        <ele>1031.1</ele>
        <time>2024-06-16T06:32:24Z</time>
      </trkpt>
      <trkpt lat="46.63865" lon="6.27264">
        <ele>1031.4</ele>
        <time>2024-06-16T06:32:25Z</time>
      </trkpt>
      <trkpt lat="46.63865" lon="6.27262">
        <ele>1031.5</ele>
        <time>2024-06-16T06:32:26Z</time>
      </trkpt>
      <trkpt lat="46.63865" lon="6.27259">
        <ele>1031.7</ele>
        <time>2024-06-16T06:32:27Z</time>
      </trkpt>
      <trkpt lat="46.63864" lon="6.27256">
        <ele>1031.8</ele>
        <time>2024-06-16T06:32:28Z</time>
      </trkpt>
      <trkpt lat="46.63864" lon="6.27253">
        <ele>1031.9</ele>
        <time>2024-06-16T06:32:29Z</time>
      </trkpt>
      <trkpt lat="46.63863" lon="6.2725">
        <ele>1032.1</ele>
        <time>2024-06-16T06:32:30Z</time>
      </trkpt>
      <trkpt lat="46.63863" lon="6.27247">
        <ele>1032.2</ele>
        <time>2024-06-16T06:32:31Z</time>
      </trkpt>
      <trkpt lat="46.63863" lon="6.27243">
        <ele>1032.3</ele>
        <time>2024-06-16T06:32:32Z</time>
      </trkpt>
      <trkpt lat="46.63862" lon="6.2724">
        <ele>1032.2</ele>
        <time>2024-06-16T06:32:33Z</time>
      </trkpt>
      <trkpt lat="46.63862" lon="6.27238">
        <ele>1032.2</ele>
        <time>2024-06-16T06:32:34Z</time>
      </trkpt>
      <trkpt lat="46.63862" lon="6.27235">
        <ele>1032.4</ele>
        <time>2024-06-16T06:32:35Z</time>
      </trkpt>
      <trkpt lat="46.63861" lon="6.27233">
        <ele>1032.7</ele>
        <time>2024-06-16T06:32:36Z</time>
      </trkpt>
      <trkpt lat="46.63861" lon="6.27231">
        <ele>1032.9</ele>
        <time>2024-06-16T06:32:37Z</time>
      </trkpt>
      <trkpt lat="46.6386" lon="6.27228">
        <ele>1033</ele>
        <time>2024-06-16T06:32:38Z</time>
      </trkpt>
      <trkpt lat="46.6386" lon="6.27225">
        <ele>1033.1</ele>
        <time>2024-06-16T06:32:39Z</time>
      </trkpt>
      <trkpt lat="46.63859" lon="6.27223">
        <ele>1033.2</ele>
        <time>2024-06-16T06:32:40Z</time>
      </trkpt>
      <trkpt lat="46.63859" lon="6.27221">
        <ele>1033.4</ele>
        <time>2024-06-16T06:32:41Z</time>
      </trkpt>
      <trkpt lat="46.63859" lon="6.27219">
        <ele>1033.8</ele>
        <time>2024-06-16T06:32:42Z</time>
      </trkpt>
      <trkpt lat="46.63858" lon="6.27217">
        <ele>1034.2</ele>
        <time>2024-06-16T06:32:43Z</time>
      </trkpt>
      <trkpt lat="46.63858" lon="6.27215">
        <ele>1034.4</ele>
        <time>2024-06-16T06:32:44Z</time>
      </trkpt>
      <trkpt lat="46.63857" lon="6.27213">
        <ele>1034.6</ele>
        <time>2024-06-16T06:32:45Z</time>
      </trkpt>
      <trkpt lat="46.63857" lon="6.27211">
        <ele>1034.7</ele>
        <time>2024-06-16T06:32:46Z</time>
      </trkpt>
      <trkpt lat="46.63857" lon="6.27208">
        <ele>1034.8</ele>
        <time>2024-06-16T06:32:47Z</time>
      </trkpt>
      <trkpt lat="46.63856" lon="6.27206">
        <ele>1035</ele>
        <time>2024-06-16T06:32:48Z</time>
      </trkpt>
      <trkpt lat="46.63856" lon="6.27204">
        <ele>1035.3</ele>
        <time>2024-06-16T06:32:49Z</time>
      </trkpt>
      <trkpt lat="46.63855" lon="6.27202">
        <ele>1035.6</ele>
        <time>2024-06-16T06:32:50Z</time>
      </trkpt>
      <trkpt lat="46.63855" lon="6.272">
        <ele>1035.8</ele>
        <time>2024-06-16T06:32:51Z</time>
      </trkpt>
      <trkpt lat="46.63854" lon="6.27198">
        <ele>1036.1</ele>
        <time>2024-06-16T06:32:52Z</time>
      </trkpt>
      <trkpt lat="46.63853" lon="6.27196">
        <ele>1036.3</ele>
        <time>2024-06-16T06:32:53Z</time>
      </trkpt>
      <trkpt lat="46.63853" lon="6.27195">
        <ele>1036.6</ele>
        <time>2024-06-16T06:32:54Z</time>
      </trkpt>
      <trkpt lat="46.63852" lon="6.27193">
        <ele>1036.8</ele>
        <time>2024-06-16T06:32:55Z</time>
      </trkpt>
      <trkpt lat="46.63852" lon="6.27191">
        <ele>1036.9</ele>
        <time>2024-06-16T06:32:56Z</time>
      </trkpt>
      <trkpt lat="46.63851" lon="6.27188">
        <ele>1036.9</ele>
        <time>2024-06-16T06:32:57Z</time>
      </trkpt>
      <trkpt lat="46.63851" lon="6.27186">
        <ele>1036.6</ele>
        <time>2024-06-16T06:32:58Z</time>
      </trkpt>
      <trkpt lat="46.6385" lon="6.27184">
        <ele>1036.6</ele>
        <time>2024-06-16T06:32:59Z</time>
      </trkpt>
      <trkpt lat="46.6385" lon="6.27182">
        <ele>1036.7</ele>
        <time>2024-06-16T06:33:00Z</time>
      </trkpt>
      <trkpt lat="46.63849" lon="6.2718">
        <ele>1036.7</ele>
        <time>2024-06-16T06:33:01Z</time>
      </trkpt>
      <trkpt lat="46.63849" lon="6.27177">
        <ele>1036.6</ele>
        <time>2024-06-16T06:33:02Z</time>
      </trkpt>
      <trkpt lat="46.63848" lon="6.27175">
        <ele>1036.5</ele>
        <time>2024-06-16T06:33:03Z</time>
      </trkpt>
      <trkpt lat="46.63848" lon="6.27173">
        <ele>1036.3</ele>
        <time>2024-06-16T06:33:04Z</time>
      </trkpt>
      <trkpt lat="46.63847" lon="6.2717">
        <ele>1036.1</ele>
        <time>2024-06-16T06:33:05Z</time>
      </trkpt>
      <trkpt lat="46.63847" lon="6.27168">
        <ele>1036.2</ele>
        <time>2024-06-16T06:33:06Z</time>
      </trkpt>
      <trkpt lat="46.63846" lon="6.27167">
        <ele>1036.3</ele>
        <time>2024-06-16T06:33:07Z</time>
      </trkpt>
      <trkpt lat="46.63846" lon="6.27165">
        <ele>1036.4</ele>
        <time>2024-06-16T06:33:08Z</time>
      </trkpt>
      <trkpt lat="46.63845" lon="6.27163">
        <ele>1036.3</ele>
        <time>2024-06-16T06:33:09Z</time>
      </trkpt>
      <trkpt lat="46.63844" lon="6.27161">
        <ele>1036.3</ele>
        <time>2024-06-16T06:33:10Z</time>
      </trkpt>
      <trkpt lat="46.63844" lon="6.27159">
        <ele>1036.3</ele>
        <time>2024-06-16T06:33:11Z</time>
      </trkpt>
      <trkpt lat="46.63843" lon="6.27158">
        <ele>1036.5</ele>
        <time>2024-06-16T06:33:12Z</time>
      </trkpt>
      <trkpt lat="46.63842" lon="6.27155">
        <ele>1036.6</ele>
        <time>2024-06-16T06:33:13Z</time>
      </trkpt>
      <trkpt lat="46.63842" lon="6.27153">
        <ele>1036.8</ele>
        <time>2024-06-16T06:33:14Z</time>
      </trkpt>
      <trkpt lat="46.63841" lon="6.27151">
        <ele>1037.1</ele>
        <time>2024-06-16T06:33:15Z</time>
      </trkpt>
      <trkpt lat="46.63841" lon="6.27149">
        <ele>1037.2</ele>
        <time>2024-06-16T06:33:16Z</time>
      </trkpt>
      <trkpt lat="46.6384" lon="6.27148">
        <ele>1037.5</ele>
        <time>2024-06-16T06:33:17Z</time>
      </trkpt>
      <trkpt lat="46.63839" lon="6.27147">
        <ele>1038</ele>
        <time>2024-06-16T06:33:18Z</time>
      </trkpt>
      <trkpt lat="46.63838" lon="6.27146">
        <ele>1038.5</ele>
        <time>2024-06-16T06:33:19Z</time>
      </trkpt>
      <trkpt lat="46.63837" lon="6.27144">
        <ele>1038.9</ele>
        <time>2024-06-16T06:33:20Z</time>
      </trkpt>
      <trkpt lat="46.63837" lon="6.27142">
        <ele>1039.2</ele>
        <time>2024-06-16T06:33:21Z</time>
      </trkpt>
      <trkpt lat="46.63837" lon="6.2714">
        <ele>1039.3</ele>
        <time>2024-06-16T06:33:22Z</time>
      </trkpt>
      <trkpt lat="46.63836" lon="6.27138">
        <ele>1039.4</ele>
        <time>2024-06-16T06:33:23Z</time>
      </trkpt>
      <trkpt lat="46.63835" lon="6.27136">
        <ele>1039.7</ele>
        <time>2024-06-16T06:33:24Z</time>
      </trkpt>
      <trkpt lat="46.63835" lon="6.27134">
        <ele>1039.9</ele>
        <time>2024-06-16T06:33:25Z</time>
      </trkpt>
      <trkpt lat="46.63834" lon="6.27133">
        <ele>1040</ele>
        <time>2024-06-16T06:33:26Z</time>
      </trkpt>
      <trkpt lat="46.63833" lon="6.27132">
        <ele>1040.1</ele>
        <time>2024-06-16T06:33:27Z</time>
      </trkpt>
      <trkpt lat="46.63832" lon="6.2713">
        <ele>1040.2</ele>
        <time>2024-06-16T06:33:28Z</time>
      </trkpt>
      <trkpt lat="46.63832" lon="6.27128">
        <ele>1040.3</ele>
        <time>2024-06-16T06:33:29Z</time>
      </trkpt>
      <trkpt lat="46.63831" lon="6.27126">
        <ele>1040.3</ele>
        <time>2024-06-16T06:33:30Z</time>
      </trkpt>
      <trkpt lat="46.6383" lon="6.27125">
        <ele>1040.4</ele>
        <time>2024-06-16T06:33:31Z</time>
      </trkpt>
      <trkpt lat="46.63829" lon="6.27123">
        <ele>1040.5</ele>
        <time>2024-06-16T06:33:32Z</time>
      </trkpt>
      <trkpt lat="46.63828" lon="6.27122">
        <ele>1040.5</ele>
        <time>2024-06-16T06:33:33Z</time>
      </trkpt>
      <trkpt lat="46.63827" lon="6.2712">
        <ele>1040.5</ele>
        <time>2024-06-16T06:33:34Z</time>
      </trkpt>
      <trkpt lat="46.63826" lon="6.27119">
        <ele>1040.5</ele>
        <time>2024-06-16T06:33:35Z</time>
      </trkpt>
      <trkpt lat="46.63825" lon="6.27117">
        <ele>1040.6</ele>
        <time>2024-06-16T06:33:36Z</time>
      </trkpt>
      <trkpt lat="46.63825" lon="6.27115">
        <ele>1040.7</ele>
        <time>2024-06-16T06:33:37Z</time>
      </trkpt>
      <trkpt lat="46.63824" lon="6.27113">
        <ele>1040.8</ele>
        <time>2024-06-16T06:33:38Z</time>
      </trkpt>
      <trkpt lat="46.63823" lon="6.27112">
        <ele>1040.7</ele>
        <time>2024-06-16T06:33:39Z</time>
      </trkpt>
      <trkpt lat="46.63822" lon="6.2711">
        <ele>1040.7</ele>
        <time>2024-06-16T06:33:40Z</time>
      </trkpt>
      <trkpt lat="46.63821" lon="6.27108">
        <ele>1040.7</ele>
        <time>2024-06-16T06:33:41Z</time>
      </trkpt>
      <trkpt lat="46.6382" lon="6.27107">
        <ele>1040.7</ele>
        <time>2024-06-16T06:33:42Z</time>
      </trkpt>
      <trkpt lat="46.63819" lon="6.27105">
        <ele>1040.7</ele>
        <time>2024-06-16T06:33:43Z</time>
      </trkpt>
      <trkpt lat="46.63818" lon="6.27103">
        <ele>1040.7</ele>
        <time>2024-06-16T06:33:44Z</time>
      </trkpt>
      <trkpt lat="46.63816" lon="6.27102">
        <ele>1040.9</ele>
        <time>2024-06-16T06:33:45Z</time>
      </trkpt>
      <trkpt lat="46.63815" lon="6.27101">
        <ele>1041.2</ele>
        <time>2024-06-16T06:33:46Z</time>
      </trkpt>
      <trkpt lat="46.63814" lon="6.27099">
        <ele>1041.5</ele>
        <time>2024-06-16T06:33:47Z</time>
      </trkpt>
      <trkpt lat="46.63813" lon="6.27097">
        <ele>1041.7</ele>
        <time>2024-06-16T06:33:48Z</time>
      </trkpt>
      <trkpt lat="46.63812" lon="6.27095">
        <ele>1042</ele>
        <time>2024-06-16T06:33:49Z</time>
      </trkpt>
      <trkpt lat="46.63811" lon="6.27092">
        <ele>1042.3</ele>
        <time>2024-06-16T06:33:50Z</time>
      </trkpt>
      <trkpt lat="46.63811" lon="6.27089">
        <ele>1042.7</ele>
        <time>2024-06-16T06:33:51Z</time>
      </trkpt>
      <trkpt lat="46.63811" lon="6.27087">
        <ele>1043</ele>
        <time>2024-06-16T06:33:52Z</time>
      </trkpt>
      <trkpt lat="46.63811" lon="6.27085">
        <ele>1043.4</ele>
        <time>2024-06-16T06:33:53Z</time>
      </trkpt>
      <trkpt lat="46.63812" lon="6.27083">
        <ele>1043.7</ele>
        <time>2024-06-16T06:33:54Z</time>
      </trkpt>
      <trkpt lat="46.63813" lon="6.27082">
        <ele>1043.9</ele>
        <time>2024-06-16T06:33:55Z</time>
      </trkpt>
      <trkpt lat="46.63813" lon="6.27081">
        <ele>1044.1</ele>
        <time>2024-06-16T06:33:56Z</time>
      </trkpt>
      <trkpt lat="46.63814" lon="6.27081">
        <ele>1044.5</ele>
        <time>2024-06-16T06:33:57Z</time>
      </trkpt>
      <trkpt lat="46.63815" lon="6.2708">
        <ele>1044.7</ele>
        <time>2024-06-16T06:33:58Z</time>
      </trkpt>
      <trkpt lat="46.63817" lon="6.2708">
        <ele>1044.9</ele>
        <time>2024-06-16T06:33:59Z</time>
      </trkpt>
      <trkpt lat="46.63818" lon="6.2708">
        <ele>1045.2</ele>
        <time>2024-06-16T06:34:00Z</time>
      </trkpt>
      <trkpt lat="46.6382" lon="6.2708">
        <ele>1045.5</ele>
        <time>2024-06-16T06:34:01Z</time>
      </trkpt>
      <trkpt lat="46.63821" lon="6.2708">
        <ele>1045.8</ele>
        <time>2024-06-16T06:34:02Z</time>
      </trkpt>
      <trkpt lat="46.63823" lon="6.2708">
        <ele>1046.2</ele>
        <time>2024-06-16T06:34:03Z</time>
      </trkpt>
      <trkpt lat="46.63824" lon="6.27081">
        <ele>1046.6</ele>
        <time>2024-06-16T06:34:04Z</time>
      </trkpt>
      <trkpt lat="46.63826" lon="6.27082">
        <ele>1046.8</ele>
        <time>2024-06-16T06:34:05Z</time>
      </trkpt>
      <trkpt lat="46.63828" lon="6.27082">
        <ele>1047</ele>
        <time>2024-06-16T06:34:07Z</time>
      </trkpt>
      <trkpt lat="46.63829" lon="6.27083">
        <ele>1047.2</ele>
        <time>2024-06-16T06:34:08Z</time>
      </trkpt>
      <trkpt lat="46.63831" lon="6.27085">
        <ele>1047.4</ele>
        <time>2024-06-16T06:34:09Z</time>
      </trkpt>
      <trkpt lat="46.63832" lon="6.27086">
        <ele>1047.6</ele>
        <time>2024-06-16T06:34:10Z</time>
      </trkpt>
      <trkpt lat="46.63834" lon="6.27087">
        <ele>1047.9</ele>
        <time>2024-06-16T06:34:11Z</time>
      </trkpt>
      <trkpt lat="46.63835" lon="6.27089">
        <ele>1048.1</ele>
        <time>2024-06-16T06:34:12Z</time>
      </trkpt>
      <trkpt lat="46.63836" lon="6.27091">
        <ele>1048.3</ele>
        <time>2024-06-16T06:34:13Z</time>
      </trkpt>
      <trkpt lat="46.63838" lon="6.27092">
        <ele>1048.4</ele>
        <time>2024-06-16T06:34:14Z</time>
      </trkpt>
      <trkpt lat="46.63839" lon="6.27094">
        <ele>1048.9</ele>
        <time>2024-06-16T06:34:15Z</time>
      </trkpt>
      <trkpt lat="46.6384" lon="6.27095">
        <ele>1049.3</ele>
        <time>2024-06-16T06:34:16Z</time>
      </trkpt>
      <trkpt lat="46.6384" lon="6.27097">
        <ele>1049.9</ele>
        <time>2024-06-16T06:34:17Z</time>
      </trkpt>
      <trkpt lat="46.63841" lon="6.27099">
        <ele>1050.5</ele>
        <time>2024-06-16T06:34:18Z</time>
      </trkpt>
      <trkpt lat="46.63842" lon="6.271">
        <ele>1051.1</ele>
        <time>2024-06-16T06:34:19Z</time>
      </trkpt>
      <trkpt lat="46.63843" lon="6.27102">
        <ele>1051.3</ele>
        <time>2024-06-16T06:34:20Z</time>
      </trkpt>
      <trkpt lat="46.63843" lon="6.27103">
        <ele>1051.6</ele>
        <time>2024-06-16T06:34:21Z</time>
      </trkpt>
      <trkpt lat="46.63844" lon="6.27105">
        <ele>1051.7</ele>
        <time>2024-06-16T06:34:22Z</time>
      </trkpt>
      <trkpt lat="46.63845" lon="6.27106">
        <ele>1051.8</ele>
        <time>2024-06-16T06:34:22Z</time>
      </trkpt>
      <trkpt lat="46.63845" lon="6.27108">
        <ele>1051.9</ele>
        <time>2024-06-16T06:34:23Z</time>
      </trkpt>
      <trkpt lat="46.63846" lon="6.27109">
        <ele>1051.8</ele>
        <time>2024-06-16T06:34:24Z</time>
      </trkpt>
      <trkpt lat="46.63847" lon="6.2711">
        <ele>1051.9</ele>
        <time>2024-06-16T06:34:25Z</time>
      </trkpt>
      <trkpt lat="46.63848" lon="6.27112">
        <ele>1052</ele>
        <time>2024-06-16T06:34:26Z</time>
      </trkpt>
      <trkpt lat="46.63849" lon="6.27113">
        <ele>1052.1</ele>
        <time>2024-06-16T06:34:27Z</time>
      </trkpt>
      <trkpt lat="46.6385" lon="6.27115">
        <ele>1052.3</ele>
        <time>2024-06-16T06:34:28Z</time>
      </trkpt>
      <trkpt lat="46.63851" lon="6.27116">
        <ele>1052.4</ele>
        <time>2024-06-16T06:34:29Z</time>
      </trkpt>
      <trkpt lat="46.63852" lon="6.27117">
        <ele>1052.4</ele>
        <time>2024-06-16T06:34:30Z</time>
      </trkpt>
      <trkpt lat="46.63853" lon="6.27119">
        <ele>1052.4</ele>
        <time>2024-06-16T06:34:31Z</time>
      </trkpt>
      <trkpt lat="46.63854" lon="6.2712">
        <ele>1052.8</ele>
        <time>2024-06-16T06:34:32Z</time>
      </trkpt>
      <trkpt lat="46.63855" lon="6.27121">
        <ele>1053.3</ele>
        <time>2024-06-16T06:34:33Z</time>
      </trkpt>
      <trkpt lat="46.63856" lon="6.27123">
        <ele>1053.8</ele>
        <time>2024-06-16T06:34:34Z</time>
      </trkpt>
      <trkpt lat="46.63857" lon="6.27125">
        <ele>1053.9</ele>
        <time>2024-06-16T06:34:35Z</time>
      </trkpt>
      <trkpt lat="46.63858" lon="6.27126">
        <ele>1054.1</ele>
        <time>2024-06-16T06:34:36Z</time>
      </trkpt>
      <trkpt lat="46.63859" lon="6.27128">
        <ele>1054</ele>
        <time>2024-06-16T06:34:37Z</time>
      </trkpt>
      <trkpt lat="46.6386" lon="6.2713">
        <ele>1054</ele>
        <time>2024-06-16T06:34:38Z</time>
      </trkpt>
      <trkpt lat="46.63861" lon="6.27132">
        <ele>1053.9</ele>
        <time>2024-06-16T06:34:39Z</time>
      </trkpt>
      <trkpt lat="46.63862" lon="6.27134">
        <ele>1053.8</ele>
        <time>2024-06-16T06:34:40Z</time>
      </trkpt>
      <trkpt lat="46.63863" lon="6.27135">
        <ele>1053.8</ele>
        <time>2024-06-16T06:34:41Z</time>
      </trkpt>
      <trkpt lat="46.63864" lon="6.27137">
        <ele>1053.6</ele>
        <time>2024-06-16T06:34:42Z</time>
      </trkpt>
      <trkpt lat="46.63866" lon="6.27139">
        <ele>1053.5</ele>
        <time>2024-06-16T06:34:43Z</time>
      </trkpt>
      <trkpt lat="46.63867" lon="6.27141">
        <ele>1053.3</ele>
        <time>2024-06-16T06:34:44Z</time>
      </trkpt>
      <trkpt lat="46.63868" lon="6.27142">
        <ele>1053.4</ele>
        <time>2024-06-16T06:34:45Z</time>
      </trkpt>
      <trkpt lat="46.63869" lon="6.27143">
        <ele>1053.4</ele>
        <time>2024-06-16T06:34:46Z</time>
      </trkpt>
      <trkpt lat="46.6387" lon="6.27145">
        <ele>1053.5</ele>
        <time>2024-06-16T06:34:47Z</time>
      </trkpt>
      <trkpt lat="46.63871" lon="6.27147">
        <ele>1053.6</ele>
        <time>2024-06-16T06:34:48Z</time>
      </trkpt>
      <trkpt lat="46.63872" lon="6.27148">
        <ele>1053.6</ele>
        <time>2024-06-16T06:34:49Z</time>
      </trkpt>
      <trkpt lat="46.63874" lon="6.2715">
        <ele>1053.5</ele>
        <time>2024-06-16T06:34:50Z</time>
      </trkpt>
      <trkpt lat="46.63875" lon="6.27152">
        <ele>1053.3</ele>
        <time>2024-06-16T06:34:51Z</time>
      </trkpt>
      <trkpt lat="46.63876" lon="6.27154">
        <ele>1053.1</ele>
        <time>2024-06-16T06:34:52Z</time>
      </trkpt>
      <trkpt lat="46.63877" lon="6.27156">
        <ele>1053</ele>
        <time>2024-06-16T06:34:53Z</time>
      </trkpt>
      <trkpt lat="46.63879" lon="6.27157">
        <ele>1052.9</ele>
        <time>2024-06-16T06:34:54Z</time>
      </trkpt>
      <trkpt lat="46.6388" lon="6.27159">
        <ele>1053</ele>
        <time>2024-06-16T06:34:55Z</time>
      </trkpt>
      <trkpt lat="46.63881" lon="6.27161">
        <ele>1053.3</ele>
        <time>2024-06-16T06:34:56Z</time>
      </trkpt>
      <trkpt lat="46.63882" lon="6.27163">
        <ele>1053.7</ele>
        <time>2024-06-16T06:34:57Z</time>
      </trkpt>
      <trkpt lat="46.63883" lon="6.27165">
        <ele>1053.7</ele>
        <time>2024-06-16T06:34:58Z</time>
      </trkpt>
      <trkpt lat="46.63885" lon="6.27167">
        <ele>1053.8</ele>
        <time>2024-06-16T06:34:59Z</time>
      </trkpt>
      <trkpt lat="46.63886" lon="6.27168">
        <ele>1053.9</ele>
        <time>2024-06-16T06:35:00Z</time>
      </trkpt>
      <trkpt lat="46.63887" lon="6.2717">
        <ele>1054</ele>
        <time>2024-06-16T06:35:01Z</time>
      </trkpt>
      <trkpt lat="46.63888" lon="6.27172">
        <ele>1054.1</ele>
        <time>2024-06-16T06:35:02Z</time>
      </trkpt>
      <trkpt lat="46.63889" lon="6.27174">
        <ele>1054.1</ele>
        <time>2024-06-16T06:35:03Z</time>
      </trkpt>
      <trkpt lat="46.6389" lon="6.27176">
        <ele>1054.1</ele>
        <time>2024-06-16T06:35:04Z</time>
      </trkpt>
      <trkpt lat="46.63891" lon="6.27178">
        <ele>1054.2</ele>
        <time>2024-06-16T06:35:05Z</time>
      </trkpt>
      <trkpt lat="46.63892" lon="6.2718">
        <ele>1054.3</ele>
        <time>2024-06-16T06:35:06Z</time>
      </trkpt>
      <trkpt lat="46.63893" lon="6.27182">
        <ele>1054.3</ele>
        <time>2024-06-16T06:35:07Z</time>
      </trkpt>
      <trkpt lat="46.63894" lon="6.27184">
        <ele>1054.3</ele>
        <time>2024-06-16T06:35:08Z</time>
      </trkpt>
      <trkpt lat="46.63895" lon="6.27186">
        <ele>1054.6</ele>
        <time>2024-06-16T06:35:09Z</time>
      </trkpt>
      <trkpt lat="46.63895" lon="6.27188">
        <ele>1054.8</ele>
        <time>2024-06-16T06:35:10Z</time>
      </trkpt>
      <trkpt lat="46.63896" lon="6.2719">
        <ele>1055</ele>
        <time>2024-06-16T06:35:11Z</time>
      </trkpt>
      <trkpt lat="46.63896" lon="6.27193">
        <ele>1055.2</ele>
        <time>2024-06-16T06:35:12Z</time>
      </trkpt>
      <trkpt lat="46.63897" lon="6.27195">
        <ele>1055.5</ele>
        <time>2024-06-16T06:35:13Z</time>
      </trkpt>
      <trkpt lat="46.63897" lon="6.27197">
        <ele>1055.8</ele>
        <time>2024-06-16T06:35:14Z</time>
      </trkpt>
      <trkpt lat="46.63898" lon="6.27199">
        <ele>1056</ele>
        <time>2024-06-16T06:35:15Z</time>
      </trkpt>
      <trkpt lat="46.63899" lon="6.27201">
        <ele>1056.1</ele>
        <time>2024-06-16T06:35:16Z</time>
      </trkpt>
      <trkpt lat="46.63899" lon="6.27203">
        <ele>1056.3</ele>
        <time>2024-06-16T06:35:17Z</time>
      </trkpt>
      <trkpt lat="46.639" lon="6.27205">
        <ele>1056.4</ele>
        <time>2024-06-16T06:35:18Z</time>
      </trkpt>
      <trkpt lat="46.63901" lon="6.27207">
        <ele>1056.5</ele>
        <time>2024-06-16T06:35:19Z</time>
      </trkpt>
      <trkpt lat="46.63902" lon="6.27209">
        <ele>1056.4</ele>
        <time>2024-06-16T06:35:20Z</time>
      </trkpt>
      <trkpt lat="46.63903" lon="6.27212">
        <ele>1056.4</ele>
        <time>2024-06-16T06:35:21Z</time>
      </trkpt>
      <trkpt lat="46.63904" lon="6.27214">
        <ele>1056.3</ele>
        <time>2024-06-16T06:35:22Z</time>
      </trkpt>
      <trkpt lat="46.63905" lon="6.27216">
        <ele>1056.2</ele>
        <time>2024-06-16T06:35:23Z</time>
      </trkpt>
      <trkpt lat="46.63905" lon="6.27218">
        <ele>1056.1</ele>
        <time>2024-06-16T06:35:24Z</time>
      </trkpt>
      <trkpt lat="46.63906" lon="6.2722">
        <ele>1056.1</ele>
        <time>2024-06-16T06:35:25Z</time>
      </trkpt>
      <trkpt lat="46.63907" lon="6.27222">
        <ele>1056.1</ele>
        <time>2024-06-16T06:35:26Z</time>
      </trkpt>
      <trkpt lat="46.63908" lon="6.27224">
        <ele>1056</ele>
        <time>2024-06-16T06:35:27Z</time>
      </trkpt>
      <trkpt lat="46.63909" lon="6.27226">
        <ele>1055.7</ele>
        <time>2024-06-16T06:35:28Z</time>
      </trkpt>
      <trkpt lat="46.6391" lon="6.27228">
        <ele>1055.5</ele>
        <time>2024-06-16T06:35:29Z</time>
      </trkpt>
      <trkpt lat="46.6391" lon="6.2723">
        <ele>1055.4</ele>
        <time>2024-06-16T06:35:30Z</time>
      </trkpt>
      <trkpt lat="46.63911" lon="6.27231">
        <ele>1055.3</ele>
        <time>2024-06-16T06:35:31Z</time>
      </trkpt>
      <trkpt lat="46.63912" lon="6.27233">
        <ele>1055.3</ele>
        <time>2024-06-16T06:35:32Z</time>
      </trkpt>
      <trkpt lat="46.63912" lon="6.27235">
        <ele>1055.1</ele>
        <time>2024-06-16T06:35:33Z</time>
      </trkpt>
      <trkpt lat="46.63913" lon="6.27238">
        <ele>1054.9</ele>
        <time>2024-06-16T06:35:34Z</time>
      </trkpt>
      <trkpt lat="46.63914" lon="6.2724">
        <ele>1054.7</ele>
        <time>2024-06-16T06:35:35Z</time>
      </trkpt>
      <trkpt lat="46.63914" lon="6.27242">
        <ele>1054.8</ele>
        <time>2024-06-16T06:35:36Z</time>
      </trkpt>
      <trkpt lat="46.63915" lon="6.27244">
        <ele>1055.1</ele>
        <time>2024-06-16T06:35:37Z</time>
      </trkpt>
      <trkpt lat="46.63916" lon="6.27245">
        <ele>1055.3</ele>
        <time>2024-06-16T06:35:38Z</time>
      </trkpt>
      <trkpt lat="46.63917" lon="6.27246">
        <ele>1055.4</ele>
        <time>2024-06-16T06:35:39Z</time>
      </trkpt>
      <trkpt lat="46.63917" lon="6.27247">
        <ele>1055.5</ele>
        <time>2024-06-16T06:35:40Z</time>
      </trkpt>
      <trkpt lat="46.63918" lon="6.27247">
        <ele>1055.5</ele>
        <time>2024-06-16T06:35:41Z</time>
      </trkpt>
      <trkpt lat="46.63918" lon="6.27246">
        <ele>1055.4</ele>
        <time>2024-06-16T06:35:42Z</time>
      </trkpt>
      <trkpt lat="46.63918" lon="6.27246">
        <ele>1055.3</ele>
        <time>2024-06-16T06:35:43Z</time>
      </trkpt>
      <trkpt lat="46.63917" lon="6.27245">
        <ele>1055.2</ele>
        <time>2024-06-16T06:35:44Z</time>
      </trkpt>
      <trkpt lat="46.63917" lon="6.27245">
        <ele>1055.3</ele>
        <time>2024-06-16T06:35:45Z</time>
      </trkpt>
      <trkpt lat="46.63917" lon="6.27245">
        <ele>1055.3</ele>
        <time>2024-06-16T06:35:46Z</time>
      </trkpt>
      <trkpt lat="46.63916" lon="6.27244">
        <ele>1055.3</ele>
        <time>2024-06-16T06:35:47Z</time>
      </trkpt>
      <trkpt lat="46.63916" lon="6.27244">
        <ele>1055.4</ele>
        <time>2024-06-16T06:35:48Z</time>
      </trkpt>
      <trkpt lat="46.63915" lon="6.27243">
        <ele>1055.7</ele>
        <time>2024-06-16T06:35:49Z</time>
      </trkpt>
      <trkpt lat="46.63914" lon="6.27243">
        <ele>1056</ele>
        <time>2024-06-16T06:35:50Z</time>
      </trkpt>
      <trkpt lat="46.63914" lon="6.27242">
        <ele>1056.5</ele>
        <time>2024-06-16T06:35:51Z</time>
      </trkpt>
      <trkpt lat="46.63913" lon="6.27241">
        <ele>1056.8</ele>
        <time>2024-06-16T06:35:52Z</time>
      </trkpt>
      <trkpt lat="46.63913" lon="6.2724">
        <ele>1057.3</ele>
        <time>2024-06-16T06:35:53Z</time>
      </trkpt>
      <trkpt lat="46.63913" lon="6.27239">
        <ele>1057.7</ele>
        <time>2024-06-16T06:35:54Z</time>
      </trkpt>
      <trkpt lat="46.63912" lon="6.27238">
        <ele>1058.4</ele>
        <time>2024-06-16T06:35:55Z</time>
      </trkpt>
      <trkpt lat="46.63912" lon="6.27237">
        <ele>1058.9</ele>
        <time>2024-06-16T06:35:56Z</time>
      </trkpt>
      <trkpt lat="46.63912" lon="6.27235">
        <ele>1059.4</ele>
        <time>2024-06-16T06:35:57Z</time>
      </trkpt>
      <trkpt lat="46.63911" lon="6.27233">
        <ele>1059.8</ele>
        <time>2024-06-16T06:35:58Z</time>
      </trkpt>
      <trkpt lat="46.63911" lon="6.27232">
        <ele>1060.2</ele>
        <time>2024-06-16T06:35:59Z</time>
      </trkpt>
      <trkpt lat="46.63911" lon="6.2723">
        <ele>1060.4</ele>
        <time>2024-06-16T06:36:00Z</time>
      </trkpt>
      <trkpt lat="46.6391" lon="6.27228">
        <ele>1060.7</ele>
        <time>2024-06-16T06:36:01Z</time>
      </trkpt>
      <trkpt lat="46.6391" lon="6.27226">
        <ele>1060.9</ele>
        <time>2024-06-16T06:36:02Z</time>
      </trkpt>
      <trkpt lat="46.6391" lon="6.27224">
        <ele>1061</ele>
        <time>2024-06-16T06:36:03Z</time>
      </trkpt>
      <trkpt lat="46.63909" lon="6.27222">
        <ele>1061.1</ele>
        <time>2024-06-16T06:36:04Z</time>
      </trkpt>
      <trkpt lat="46.63909" lon="6.27219">
        <ele>1061.2</ele>
        <time>2024-06-16T06:36:05Z</time>
      </trkpt>
      <trkpt lat="46.63909" lon="6.27217">
        <ele>1061.2</ele>
        <time>2024-06-16T06:36:06Z</time>
      </trkpt>
      <trkpt lat="46.63908" lon="6.27215">
        <ele>1061.4</ele>
        <time>2024-06-16T06:36:07Z</time>
      </trkpt>
      <trkpt lat="46.63908" lon="6.27213">
        <ele>1061.4</ele>
        <time>2024-06-16T06:36:08Z</time>
      </trkpt>
      <trkpt lat="46.63908" lon="6.27211">
        <ele>1061.6</ele>
        <time>2024-06-16T06:36:09Z</time>
      </trkpt>
      <trkpt lat="46.63908" lon="6.27209">
        <ele>1061.7</ele>
        <time>2024-06-16T06:36:10Z</time>
      </trkpt>
      <trkpt lat="46.63908" lon="6.27207">
        <ele>1061.7</ele>
        <time>2024-06-16T06:36:11Z</time>
      </trkpt>
      <trkpt lat="46.63908" lon="6.27204">
        <ele>1061.8</ele>
        <time>2024-06-16T06:36:13Z</time>
      </trkpt>
      <trkpt lat="46.63908" lon="6.27201">
        <ele>1061.8</ele>
        <time>2024-06-16T06:36:14Z</time>
      </trkpt>
      <trkpt lat="46.63908" lon="6.27198">
        <ele>1061.8</ele>
        <time>2024-06-16T06:36:15Z</time>
      </trkpt>
      <trkpt lat="46.63908" lon="6.27196">
        <ele>1061.9</ele>
        <time>2024-06-16T06:36:16Z</time>
      </trkpt>
      <trkpt lat="46.63908" lon="6.27193">
        <ele>1061.9</ele>
        <time>2024-06-16T06:36:17Z</time>
      </trkpt>
      <trkpt lat="46.63907" lon="6.27191">
        <ele>1062</ele>
        <time>2024-06-16T06:36:18Z</time>
      </trkpt>
      <trkpt lat="46.63907" lon="6.27189">
        <ele>1062.1</ele>
        <time>2024-06-16T06:36:19Z</time>
      </trkpt>
      <trkpt lat="46.63907" lon="6.27186">
        <ele>1062.2</ele>
        <time>2024-06-16T06:36:20Z</time>
      </trkpt>
      <trkpt lat="46.63907" lon="6.27183">
        <ele>1062.2</ele>
        <time>2024-06-16T06:36:21Z</time>
      </trkpt>
      <trkpt lat="46.63907" lon="6.2718">
        <ele>1062.3</ele>
        <time>2024-06-16T06:36:22Z</time>
      </trkpt>
      <trkpt lat="46.63907" lon="6.27178">
        <ele>1062.5</ele>
        <time>2024-06-16T06:36:23Z</time>
      </trkpt>
      <trkpt lat="46.63907" lon="6.27175">
        <ele>1062.7</ele>
        <time>2024-06-16T06:36:24Z</time>
      </trkpt>
      <trkpt lat="46.63906" lon="6.27173">
        <ele>1062.8</ele>
        <time>2024-06-16T06:36:25Z</time>
      </trkpt>
      <trkpt lat="46.63906" lon="6.2717">
        <ele>1062.9</ele>
        <time>2024-06-16T06:36:26Z</time>
      </trkpt>
      <trkpt lat="46.63906" lon="6.27168">
        <ele>1062.8</ele>
        <time>2024-06-16T06:36:27Z</time>
      </trkpt>
      <trkpt lat="46.63906" lon="6.27165">
        <ele>1062.7</ele>
        <time>2024-06-16T06:36:28Z</time>
      </trkpt>
      <trkpt lat="46.63906" lon="6.27163">
        <ele>1062.7</ele>
        <time>2024-06-16T06:36:29Z</time>
      </trkpt>
      <trkpt lat="46.63906" lon="6.27161">
        <ele>1062.4</ele>
        <time>2024-06-16T06:36:30Z</time>
      </trkpt>
      <trkpt lat="46.63907" lon="6.27158">
        <ele>1061.9</ele>
        <time>2024-06-16T06:36:31Z</time>
      </trkpt>
      <trkpt lat="46.63908" lon="6.27155">
        <ele>1061.3</ele>
        <time>2024-06-16T06:36:32Z</time>
      </trkpt>
      <trkpt lat="46.63909" lon="6.27153">
        <ele>1060.9</ele>
        <time>2024-06-16T06:36:32Z</time>
      </trkpt>
      <trkpt lat="46.63911" lon="6.27149">
        <ele>1060.7</ele>
        <time>2024-06-16T06:36:33Z</time>
      </trkpt>
      <trkpt lat="46.63912" lon="6.27146">
        <ele>1060.6</ele>
        <time>2024-06-16T06:36:34Z</time>
      </trkpt>
      <trkpt lat="46.63915" lon="6.27143">
        <ele>1060.5</ele>
        <time>2024-06-16T06:36:35Z</time>
      </trkpt>
      <trkpt lat="46.63917" lon="6.27141">
        <ele>1060.4</ele>
        <time>2024-06-16T06:36:36Z</time>
      </trkpt>
      <trkpt lat="46.6392" lon="6.2714">
        <ele>1060.2</ele>
        <time>2024-06-16T06:36:37Z</time>
      </trkpt>
      <trkpt lat="46.63923" lon="6.27139">
        <ele>1059.9</ele>
        <time>2024-06-16T06:36:38Z</time>
      </trkpt>
      <trkpt lat="46.63927" lon="6.27139">
        <ele>1059.7</ele>
        <time>2024-06-16T06:36:39Z</time>
      </trkpt>
      <trkpt lat="46.63931" lon="6.27139">
        <ele>1059.5</ele>
        <time>2024-06-16T06:36:40Z</time>
      </trkpt>
      <trkpt lat="46.63936" lon="6.2714">
        <ele>1058.9</ele>
        <time>2024-06-16T06:36:41Z</time>
      </trkpt>
      <trkpt lat="46.6394" lon="6.27141">
        <ele>1058.5</ele>
        <time>2024-06-16T06:36:42Z</time>
      </trkpt>
      <trkpt lat="46.63945" lon="6.27142">
        <ele>1058.2</ele>
        <time>2024-06-16T06:36:43Z</time>
      </trkpt>
      <trkpt lat="46.63951" lon="6.27143">
        <ele>1057.8</ele>
        <time>2024-06-16T06:36:44Z</time>
      </trkpt>
      <trkpt lat="46.63956" lon="6.27143">
        <ele>1057.4</ele>
        <time>2024-06-16T06:36:45Z</time>
      </trkpt>
      <trkpt lat="46.63961" lon="6.27142">
        <ele>1057.1</ele>
        <time>2024-06-16T06:36:46Z</time>
      </trkpt>
      <trkpt lat="46.63966" lon="6.27141">
        <ele>1056.9</ele>
        <time>2024-06-16T06:36:47Z</time>
      </trkpt>
      <trkpt lat="46.63971" lon="6.27139">
        <ele>1056.8</ele>
        <time>2024-06-16T06:36:48Z</time>
      </trkpt>
      <trkpt lat="46.63975" lon="6.27138">
        <ele>1056.8</ele>
        <time>2024-06-16T06:36:49Z</time>
      </trkpt>
      <trkpt lat="46.63979" lon="6.27136">
        <ele>1057.1</ele>
        <time>2024-06-16T06:36:50Z</time>
      </trkpt>
      <trkpt lat="46.63982" lon="6.27136">
        <ele>1057.3</ele>
        <time>2024-06-16T06:36:51Z</time>
      </trkpt>
      <trkpt lat="46.63986" lon="6.27136">
        <ele>1057.3</ele>
        <time>2024-06-16T06:36:52Z</time>
      </trkpt>
      <trkpt lat="46.63989" lon="6.27138">
        <ele>1057.2</ele>
        <time>2024-06-16T06:36:53Z</time>
      </trkpt>
      <trkpt lat="46.63992" lon="6.27141">
        <ele>1057.2</ele>
        <time>2024-06-16T06:36:54Z</time>
      </trkpt>
      <trkpt lat="46.63994" lon="6.27144">
        <ele>1057.1</ele>
        <time>2024-06-16T06:36:55Z</time>
      </trkpt>
      <trkpt lat="46.63997" lon="6.27149">
        <ele>1056.9</ele>
        <time>2024-06-16T06:36:56Z</time>
      </trkpt>
      <trkpt lat="46.64" lon="6.27155">
        <ele>1056.7</ele>
        <time>2024-06-16T06:36:57Z</time>
      </trkpt>
      <trkpt lat="46.64004" lon="6.27161">
        <ele>1056.5</ele>
        <time>2024-06-16T06:36:58Z</time>
      </trkpt>
      <trkpt lat="46.64007" lon="6.27167">
        <ele>1056.5</ele>
        <time>2024-06-16T06:36:59Z</time>
      </trkpt>
      <trkpt lat="46.6401" lon="6.27174">
        <ele>1056.4</ele>
        <time>2024-06-16T06:37:00Z</time>
      </trkpt>
      <trkpt lat="46.64014" lon="6.27181">
        <ele>1056.3</ele>
        <time>2024-06-16T06:37:01Z</time>
      </trkpt>
      <trkpt lat="46.64017" lon="6.27189">
        <ele>1056.3</ele>
        <time>2024-06-16T06:37:02Z</time>
      </trkpt>
      <trkpt lat="46.64021" lon="6.27196">
        <ele>1056.2</ele>
        <time>2024-06-16T06:37:03Z</time>
      </trkpt>
      <trkpt lat="46.64025" lon="6.27204">
        <ele>1056.1</ele>
        <time>2024-06-16T06:37:04Z</time>
      </trkpt>
      <trkpt lat="46.64029" lon="6.27211">
        <ele>1055.8</ele>
        <time>2024-06-16T06:37:05Z</time>
      </trkpt>
      <trkpt lat="46.64034" lon="6.27219">
        <ele>1055.4</ele>
        <time>2024-06-16T06:37:06Z</time>
      </trkpt>
      <trkpt lat="46.64038" lon="6.27227">
        <ele>1054.8</ele>
        <time>2024-06-16T06:37:07Z</time>
      </trkpt>
      <trkpt lat="46.64043" lon="6.27235">
        <ele>1054.4</ele>
        <time>2024-06-16T06:37:08Z</time>
      </trkpt>
      <trkpt lat="46.64048" lon="6.27244">
        <ele>1053.8</ele>
        <time>2024-06-16T06:37:09Z</time>
      </trkpt>
      <trkpt lat="46.64053" lon="6.27252">
        <ele>1053.4</ele>
        <time>2024-06-16T06:37:10Z</time>
      </trkpt>
      <trkpt lat="46.64057" lon="6.2726">
        <ele>1053.1</ele>
        <time>2024-06-16T06:37:11Z</time>
      </trkpt>
      <trkpt lat="46.64062" lon="6.27269">
        <ele>1053</ele>
        <time>2024-06-16T06:37:12Z</time>
      </trkpt>
      <trkpt lat="46.64067" lon="6.27276">
        <ele>1052.7</ele>
        <time>2024-06-16T06:37:13Z</time>
      </trkpt>
      <trkpt lat="46.64071" lon="6.27284">
        <ele>1052.6</ele>
        <time>2024-06-16T06:37:14Z</time>
      </trkpt>
      <trkpt lat="46.64075" lon="6.27292">
        <ele>1052.4</ele>
        <time>2024-06-16T06:37:15Z</time>
      </trkpt>
      <trkpt lat="46.64079" lon="6.27299">
        <ele>1052.3</ele>
        <time>2024-06-16T06:37:16Z</time>
      </trkpt>
      <trkpt lat="46.64082" lon="6.27306">
        <ele>1052.3</ele>
        <time>2024-06-16T06:37:17Z</time>
      </trkpt>
      <trkpt lat="46.64085" lon="6.27312">
        <ele>1052.4</ele>
        <time>2024-06-16T06:37:18Z</time>
      </trkpt>
      <trkpt lat="46.64088" lon="6.27319">
        <ele>1052.5</ele>
        <time>2024-06-16T06:37:19Z</time>
      </trkpt>
      <trkpt lat="46.64091" lon="6.27325">
        <ele>1052.6</ele>
        <time>2024-06-16T06:37:20Z</time>
      </trkpt>
      <trkpt lat="46.64094" lon="6.27331">
        <ele>1052.7</ele>
        <time>2024-06-16T06:37:21Z</time>
      </trkpt>
      <trkpt lat="46.64096" lon="6.27336">
        <ele>1052.8</ele>
        <time>2024-06-16T06:37:22Z</time>
      </trkpt>
      <trkpt lat="46.64099" lon="6.27342">
        <ele>1053</ele>
        <time>2024-06-16T06:37:23Z</time>
      </trkpt>
      <trkpt lat="46.64101" lon="6.27347">
        <ele>1053.1</ele>
        <time>2024-06-16T06:37:24Z</time>
      </trkpt>
      <trkpt lat="46.64103" lon="6.27352">
        <ele>1053.3</ele>
        <time>2024-06-16T06:37:25Z</time>
      </trkpt>
      <trkpt lat="46.64105" lon="6.27358">
        <ele>1053.3</ele>
        <time>2024-06-16T06:37:26Z</time>
      </trkpt>
      <trkpt lat="46.64107" lon="6.27363">
        <ele>1053.4</ele>
        <time>2024-06-16T06:37:27Z</time>
      </trkpt>
      <trkpt lat="46.64109" lon="6.27369">
        <ele>1053.4</ele>
        <time>2024-06-16T06:37:28Z</time>
      </trkpt>
      <trkpt lat="46.64111" lon="6.27374">
        <ele>1053.4</ele>
        <time>2024-06-16T06:37:29Z</time>
      </trkpt>
      <trkpt lat="46.64114" lon="6.2738">
        <ele>1053.4</ele>
        <time>2024-06-16T06:37:30Z</time>
      </trkpt>
      <trkpt lat="46.64116" lon="6.27386">
        <ele>1053.4</ele>
        <time>2024-06-16T06:37:31Z</time>
      </trkpt>
      <trkpt lat="46.64118" lon="6.27392">
        <ele>1053.3</ele>
        <time>2024-06-16T06:37:32Z</time>
      </trkpt>
      <trkpt lat="46.64121" lon="6.27398">
        <ele>1053.2</ele>
        <time>2024-06-16T06:37:33Z</time>
      </trkpt>
      <trkpt lat="46.64124" lon="6.27405">
        <ele>1053</ele>
        <time>2024-06-16T06:37:34Z</time>
      </trkpt>
      <trkpt lat="46.64127" lon="6.27412">
        <ele>1052.7</ele>
        <time>2024-06-16T06:37:35Z</time>
      </trkpt>
      <trkpt lat="46.64131" lon="6.27419">
        <ele>1052.4</ele>
        <time>2024-06-16T06:37:36Z</time>
      </trkpt>
      <trkpt lat="46.64135" lon="6.27426">
        <ele>1052.1</ele>
        <time>2024-06-16T06:37:37Z</time>
      </trkpt>
      <trkpt lat="46.64138" lon="6.27434">
        <ele>1051.6</ele>
        <time>2024-06-16T06:37:38Z</time>
      </trkpt>
      <trkpt lat="46.64143" lon="6.27441">
        <ele>1051.3</ele>
        <time>2024-06-16T06:37:39Z</time>
      </trkpt>
      <trkpt lat="46.64147" lon="6.27449">
        <ele>1050.9</ele>
        <time>2024-06-16T06:37:40Z</time>
      </trkpt>
      <trkpt lat="46.64151" lon="6.27457">
        <ele>1050.5</ele>
        <time>2024-06-16T06:37:41Z</time>
      </trkpt>
      <trkpt lat="46.64156" lon="6.27465">
        <ele>1050.1</ele>
        <time>2024-06-16T06:37:42Z</time>
      </trkpt>
      <trkpt lat="46.6416" lon="6.27473">
        <ele>1049.8</ele>
        <time>2024-06-16T06:37:43Z</time>
      </trkpt>
      <trkpt lat="46.64164" lon="6.27481">
        <ele>1049.5</ele>
        <time>2024-06-16T06:37:44Z</time>
      </trkpt>
      <trkpt lat="46.64169" lon="6.27489">
        <ele>1049.2</ele>
        <time>2024-06-16T06:37:45Z</time>
      </trkpt>
      <trkpt lat="46.64173" lon="6.27497">
        <ele>1049</ele>
        <time>2024-06-16T06:37:46Z</time>
      </trkpt>
      <trkpt lat="46.64177" lon="6.27504">
        <ele>1048.9</ele>
        <time>2024-06-16T06:37:47Z</time>
      </trkpt>
      <trkpt lat="46.6418" lon="6.27512">
        <ele>1048.8</ele>
        <time>2024-06-16T06:37:48Z</time>
      </trkpt>
      <trkpt lat="46.64184" lon="6.27519">
        <ele>1048.8</ele>
        <time>2024-06-16T06:37:49Z</time>
      </trkpt>
      <trkpt lat="46.64187" lon="6.27526">
        <ele>1048.8</ele>
        <time>2024-06-16T06:37:50Z</time>
      </trkpt>
      <trkpt lat="46.64191" lon="6.27533">
        <ele>1048.8</ele>
        <time>2024-06-16T06:37:51Z</time>
      </trkpt>
      <trkpt lat="46.64194" lon="6.27539">
        <ele>1048.8</ele>
        <time>2024-06-16T06:37:52Z</time>
      </trkpt>
      <trkpt lat="46.64197" lon="6.27546">
        <ele>1048.7</ele>
        <time>2024-06-16T06:37:53Z</time>
      </trkpt>
      <trkpt lat="46.642" lon="6.27552">
        <ele>1048.7</ele>
        <time>2024-06-16T06:37:54Z</time>
      </trkpt>
      <trkpt lat="46.64203" lon="6.27558">
        <ele>1048.8</ele>
        <time>2024-06-16T06:37:55Z</time>
      </trkpt>
      <trkpt lat="46.64206" lon="6.27564">
        <ele>1049</ele>
        <time>2024-06-16T06:37:56Z</time>
      </trkpt>
      <trkpt lat="46.64209" lon="6.2757">
        <ele>1049.4</ele>
        <time>2024-06-16T06:37:57Z</time>
      </trkpt>
      <trkpt lat="46.64212" lon="6.27575">
        <ele>1049.8</ele>
        <time>2024-06-16T06:37:58Z</time>
      </trkpt>
      <trkpt lat="46.64214" lon="6.2758">
        <ele>1050.4</ele>
        <time>2024-06-16T06:37:59Z</time>
      </trkpt>
      <trkpt lat="46.64216" lon="6.27584">
        <ele>1050.9</ele>
        <time>2024-06-16T06:38:00Z</time>
      </trkpt>
      <trkpt lat="46.64218" lon="6.27588">
        <ele>1051.4</ele>
        <time>2024-06-16T06:38:01Z</time>
      </trkpt>
      <trkpt lat="46.6422" lon="6.27592">
        <ele>1051.9</ele>
        <time>2024-06-16T06:38:02Z</time>
      </trkpt>
      <trkpt lat="46.64222" lon="6.27595">
        <ele>1052.3</ele>
        <time>2024-06-16T06:38:03Z</time>
      </trkpt>
      <trkpt lat="46.64224" lon="6.27599">
        <ele>1052.7</ele>
        <time>2024-06-16T06:38:04Z</time>
      </trkpt>
      <trkpt lat="46.64226" lon="6.27602">
        <ele>1053.1</ele>
        <time>2024-06-16T06:38:05Z</time>
      </trkpt>
      <trkpt lat="46.64228" lon="6.27606">
        <ele>1053.3</ele>
        <time>2024-06-16T06:38:06Z</time>
      </trkpt>
      <trkpt lat="46.6423" lon="6.27609">
        <ele>1053.6</ele>
        <time>2024-06-16T06:38:07Z</time>
      </trkpt>
      <trkpt lat="46.64231" lon="6.27613">
        <ele>1053.8</ele>
        <time>2024-06-16T06:38:08Z</time>
      </trkpt>
      <trkpt lat="46.64233" lon="6.27617">
        <ele>1053.9</ele>
        <time>2024-06-16T06:38:09Z</time>
      </trkpt>
      <trkpt lat="46.64235" lon="6.2762">
        <ele>1054</ele>
        <time>2024-06-16T06:38:10Z</time>
      </trkpt>
      <trkpt lat="46.64237" lon="6.27624">
        <ele>1053.9</ele>
        <time>2024-06-16T06:38:11Z</time>
      </trkpt>
      <trkpt lat="46.64239" lon="6.27628">
        <ele>1053.9</ele>
        <time>2024-06-16T06:38:12Z</time>
      </trkpt>
      <trkpt lat="46.64241" lon="6.27632">
        <ele>1053.8</ele>
        <time>2024-06-16T06:38:13Z</time>
      </trkpt>
      <trkpt lat="46.64243" lon="6.27637">
        <ele>1053.6</ele>
        <time>2024-06-16T06:38:14Z</time>
      </trkpt>
      <trkpt lat="46.64246" lon="6.27641">
        <ele>1053.4</ele>
        <time>2024-06-16T06:38:15Z</time>
      </trkpt>
      <trkpt lat="46.64249" lon="6.27646">
        <ele>1053.3</ele>
        <time>2024-06-16T06:38:16Z</time>
      </trkpt>
      <trkpt lat="46.64252" lon="6.2765">
        <ele>1053.2</ele>
        <time>2024-06-16T06:38:17Z</time>
      </trkpt>
      <trkpt lat="46.64256" lon="6.27655">
        <ele>1053</ele>
        <time>2024-06-16T06:38:19Z</time>
      </trkpt>
      <trkpt lat="46.6426" lon="6.27659">
        <ele>1052.8</ele>
        <time>2024-06-16T06:38:20Z</time>
      </trkpt>
      <trkpt lat="46.64264" lon="6.27664">
        <ele>1052.7</ele>
        <time>2024-06-16T06:38:21Z</time>
      </trkpt>
      <trkpt lat="46.64268" lon="6.27668">
        <ele>1052.5</ele>
        <time>2024-06-16T06:38:22Z</time>
      </trkpt>
      <trkpt lat="46.64273" lon="6.27673">
        <ele>1052.3</ele>
        <time>2024-06-16T06:38:23Z</time>
      </trkpt>
      <trkpt lat="46.64277" lon="6.27678">
        <ele>1052.1</ele>
        <time>2024-06-16T06:38:24Z</time>
      </trkpt>
      <trkpt lat="46.64282" lon="6.27682">
        <ele>1051.9</ele>
        <time>2024-06-16T06:38:25Z</time>
      </trkpt>
      <trkpt lat="46.64287" lon="6.27687">
        <ele>1051.7</ele>
        <time>2024-06-16T06:38:26Z</time>
      </trkpt>
      <trkpt lat="46.64291" lon="6.27691">
        <ele>1051.3</ele>
        <time>2024-06-16T06:38:27Z</time>
      </trkpt>
      <trkpt lat="46.64296" lon="6.27696">
        <ele>1050.9</ele>
        <time>2024-06-16T06:38:28Z</time>
      </trkpt>
      <trkpt lat="46.64302" lon="6.27701">
        <ele>1050.5</ele>
        <time>2024-06-16T06:38:29Z</time>
      </trkpt>
      <trkpt lat="46.64307" lon="6.27706">
        <ele>1050.2</ele>
        <time>2024-06-16T06:38:30Z</time>
      </trkpt>
      <trkpt lat="46.64312" lon="6.27712">
        <ele>1049.8</ele>
        <time>2024-06-16T06:38:31Z</time>
      </trkpt>
      <trkpt lat="46.64318" lon="6.27717">
        <ele>1049.4</ele>
        <time>2024-06-16T06:38:32Z</time>
      </trkpt>
      <trkpt lat="46.64324" lon="6.27722">
        <ele>1048.9</ele>
        <time>2024-06-16T06:38:33Z</time>
      </trkpt>
      <trkpt lat="46.6433" lon="6.27727">
        <ele>1048.6</ele>
        <time>2024-06-16T06:38:34Z</time>
      </trkpt>
      <trkpt lat="46.64336" lon="6.27733">
        <ele>1048.3</ele>
        <time>2024-06-16T06:38:35Z</time>
      </trkpt>
      <trkpt lat="46.64343" lon="6.27738">
        <ele>1048</ele>
        <time>2024-06-16T06:38:36Z</time>
      </trkpt>
      <trkpt lat="46.64349" lon="6.27743">
        <ele>1047.7</ele>
        <time>2024-06-16T06:38:37Z</time>
      </trkpt>
      <trkpt lat="46.64355" lon="6.27748">
        <ele>1047.4</ele>
        <time>2024-06-16T06:38:37Z</time>
      </trkpt>
      <trkpt lat="46.64362" lon="6.27753">
        <ele>1047</ele>
        <time>2024-06-16T06:38:38Z</time>
      </trkpt>
      <trkpt lat="46.64368" lon="6.27757">
        <ele>1046.6</ele>
        <time>2024-06-16T06:38:39Z</time>
      </trkpt>
      <trkpt lat="46.64375" lon="6.27762">
        <ele>1046</ele>
        <time>2024-06-16T06:38:40Z</time>
      </trkpt>
      <trkpt lat="46.64382" lon="6.27766">
        <ele>1045.6</ele>
        <time>2024-06-16T06:38:41Z</time>
      </trkpt>
      <trkpt lat="46.64389" lon="6.27771">
        <ele>1045.1</ele>
        <time>2024-06-16T06:38:42Z</time>
      </trkpt>
      <trkpt lat="46.64396" lon="6.27776">
        <ele>1044.7</ele>
        <time>2024-06-16T06:38:43Z</time>
      </trkpt>
      <trkpt lat="46.64403" lon="6.2778">
        <ele>1044.3</ele>
        <time>2024-06-16T06:38:44Z</time>
      </trkpt>
      <trkpt lat="46.6441" lon="6.27784">
        <ele>1043.9</ele>
        <time>2024-06-16T06:38:45Z</time>
      </trkpt>
      <trkpt lat="46.64417" lon="6.27788">
        <ele>1043.6</ele>
        <time>2024-06-16T06:38:46Z</time>
      </trkpt>
      <trkpt lat="46.64424" lon="6.27792">
        <ele>1043.3</ele>
        <time>2024-06-16T06:38:47Z</time>
      </trkpt>
      <trkpt lat="46.64431" lon="6.27795">
        <ele>1043.1</ele>
        <time>2024-06-16T06:38:48Z</time>
      </trkpt>
      <trkpt lat="46.64438" lon="6.27799">
        <ele>1042.9</ele>
        <time>2024-06-16T06:38:49Z</time>
      </trkpt>
      <trkpt lat="46.64444" lon="6.27802">
        <ele>1042.8</ele>
        <time>2024-06-16T06:38:50Z</time>
      </trkpt>
      <trkpt lat="46.64451" lon="6.27806">
        <ele>1042.6</ele>
        <time>2024-06-16T06:38:51Z</time>
      </trkpt>
      <trkpt lat="46.64457" lon="6.27809">
        <ele>1042.5</ele>
        <time>2024-06-16T06:38:52Z</time>
      </trkpt>
      <trkpt lat="46.64463" lon="6.27813">
        <ele>1042.3</ele>
        <time>2024-06-16T06:38:53Z</time>
      </trkpt>
      <trkpt lat="46.64468" lon="6.27817">
        <ele>1042.2</ele>
        <time>2024-06-16T06:38:54Z</time>
      </trkpt>
      <trkpt lat="46.64474" lon="6.27821">
        <ele>1042.2</ele>
        <time>2024-06-16T06:38:55Z</time>
      </trkpt>
      <trkpt lat="46.64479" lon="6.27825">
        <ele>1042</ele>
        <time>2024-06-16T06:38:56Z</time>
      </trkpt>
      <trkpt lat="46.64483" lon="6.2783">
        <ele>1041.9</ele>
        <time>2024-06-16T06:38:57Z</time>
      </trkpt>
      <trkpt lat="46.64488" lon="6.27836">
        <ele>1041.8</ele>
        <time>2024-06-16T06:38:58Z</time>
      </trkpt>
      <trkpt lat="46.64492" lon="6.27841">
        <ele>1041.7</ele>
        <time>2024-06-16T06:38:59Z</time>
      </trkpt>
      <trkpt lat="46.64496" lon="6.27847">
        <ele>1041.6</ele>
        <time>2024-06-16T06:39:00Z</time>
      </trkpt>
      <trkpt lat="46.645" lon="6.27853">
        <ele>1041.4</ele>
        <time>2024-06-16T06:39:01Z</time>
      </trkpt>
      <trkpt lat="46.64504" lon="6.27858">
        <ele>1041.3</ele>
        <time>2024-06-16T06:39:02Z</time>
      </trkpt>
      <trkpt lat="46.64508" lon="6.27864">
        <ele>1041.1</ele>
        <time>2024-06-16T06:39:03Z</time>
      </trkpt>
      <trkpt lat="46.64512" lon="6.2787">
        <ele>1040.9</ele>
        <time>2024-06-16T06:39:04Z</time>
      </trkpt>
      <trkpt lat="46.64515" lon="6.27875">
        <ele>1040.8</ele>
        <time>2024-06-16T06:39:05Z</time>
      </trkpt>
      <trkpt lat="46.64519" lon="6.2788">
        <ele>1040.7</ele>
        <time>2024-06-16T06:39:06Z</time>
      </trkpt>
      <trkpt lat="46.64522" lon="6.27885">
        <ele>1040.8</ele>
        <time>2024-06-16T06:39:07Z</time>
      </trkpt>
      <trkpt lat="46.64525" lon="6.27889">
        <ele>1041</ele>
        <time>2024-06-16T06:39:08Z</time>
      </trkpt>
      <trkpt lat="46.64529" lon="6.27894">
        <ele>1041</ele>
        <time>2024-06-16T06:39:09Z</time>
      </trkpt>
      <trkpt lat="46.64532" lon="6.27898">
        <ele>1040.9</ele>
        <time>2024-06-16T06:39:10Z</time>
      </trkpt>
      <trkpt lat="46.64536" lon="6.27901">
        <ele>1040.9</ele>
        <time>2024-06-16T06:39:11Z</time>
      </trkpt>
      <trkpt lat="46.64539" lon="6.27905">
        <ele>1041.1</ele>
        <time>2024-06-16T06:39:12Z</time>
      </trkpt>
      <trkpt lat="46.64543" lon="6.27908">
        <ele>1041.6</ele>
        <time>2024-06-16T06:39:13Z</time>
      </trkpt>
      <trkpt lat="46.64547" lon="6.27911">
        <ele>1042</ele>
        <time>2024-06-16T06:39:14Z</time>
      </trkpt>
      <trkpt lat="46.64551" lon="6.27915">
        <ele>1042.4</ele>
        <time>2024-06-16T06:39:15Z</time>
      </trkpt>
      <trkpt lat="46.64555" lon="6.27918">
        <ele>1042.7</ele>
        <time>2024-06-16T06:39:16Z</time>
      </trkpt>
      <trkpt lat="46.64559" lon="6.27921">
        <ele>1042.9</ele>
        <time>2024-06-16T06:39:17Z</time>
      </trkpt>
      <trkpt lat="46.64563" lon="6.27923">
        <ele>1043</ele>
        <time>2024-06-16T06:39:18Z</time>
      </trkpt>
      <trkpt lat="46.64568" lon="6.27926">
        <ele>1043.3</ele>
        <time>2024-06-16T06:39:19Z</time>
      </trkpt>
      <trkpt lat="46.64572" lon="6.27928">
        <ele>1043.4</ele>
        <time>2024-06-16T06:39:20Z</time>
      </trkpt>
      <trkpt lat="46.64576" lon="6.27931">
        <ele>1043.4</ele>
        <time>2024-06-16T06:39:21Z</time>
      </trkpt>
      <trkpt lat="46.64581" lon="6.27933">
        <ele>1043.5</ele>
        <time>2024-06-16T06:39:22Z</time>
      </trkpt>
      <trkpt lat="46.64585" lon="6.27935">
        <ele>1043.6</ele>
        <time>2024-06-16T06:39:23Z</time>
      </trkpt>
      <trkpt lat="46.64588" lon="6.27936">
        <ele>1043.6</ele>
        <time>2024-06-16T06:39:24Z</time>
      </trkpt>
      <trkpt lat="46.64592" lon="6.27938">
        <ele>1043.8</ele>
        <time>2024-06-16T06:39:25Z</time>
      </trkpt>
      <trkpt lat="46.64596" lon="6.27939">
        <ele>1044</ele>
        <time>2024-06-16T06:39:26Z</time>
      </trkpt>
      <trkpt lat="46.64599" lon="6.27942">
        <ele>1044.1</ele>
        <time>2024-06-16T06:39:27Z</time>
      </trkpt>
      <trkpt lat="46.64603" lon="6.27944">
        <ele>1044.2</ele>
        <time>2024-06-16T06:39:28Z</time>
      </trkpt>
      <trkpt lat="46.64606" lon="6.27948">
        <ele>1044.3</ele>
        <time>2024-06-16T06:39:29Z</time>
      </trkpt>
      <trkpt lat="46.64609" lon="6.27951">
        <ele>1044.2</ele>
        <time>2024-06-16T06:39:30Z</time>
      </trkpt>
      <trkpt lat="46.64612" lon="6.27955">
        <ele>1044.2</ele>
        <time>2024-06-16T06:39:31Z</time>
      </trkpt>
      <trkpt lat="46.64615" lon="6.2796">
        <ele>1044.1</ele>
        <time>2024-06-16T06:39:32Z</time>
      </trkpt>
      <trkpt lat="46.64618" lon="6.27964">
        <ele>1044</ele>
        <time>2024-06-16T06:39:33Z</time>
      </trkpt>
      <trkpt lat="46.64621" lon="6.27969">
        <ele>1043.8</ele>
        <time>2024-06-16T06:39:34Z</time>
      </trkpt>
      <trkpt lat="46.64624" lon="6.27974">
        <ele>1043.5</ele>
        <time>2024-06-16T06:39:35Z</time>
      </trkpt>
      <trkpt lat="46.64628" lon="6.27979">
        <ele>1043.3</ele>
        <time>2024-06-16T06:39:36Z</time>
      </trkpt>
      <trkpt lat="46.64631" lon="6.27984">
        <ele>1043.1</ele>
        <time>2024-06-16T06:39:37Z</time>
      </trkpt>
      <trkpt lat="46.64634" lon="6.2799">
        <ele>1042.8</ele>
        <time>2024-06-16T06:39:38Z</time>
      </trkpt>
      <trkpt lat="46.64638" lon="6.27995">
        <ele>1042.6</ele>
        <time>2024-06-16T06:39:39Z</time>
      </trkpt>
      <trkpt lat="46.64641" lon="6.28001">
        <ele>1042.4</ele>
        <time>2024-06-16T06:39:40Z</time>
      </trkpt>
      <trkpt lat="46.64644" lon="6.28007">
        <ele>1042.2</ele>
        <time>2024-06-16T06:39:41Z</time>
      </trkpt>
      <trkpt lat="46.64646" lon="6.28012">
        <ele>1042.2</ele>
        <time>2024-06-16T06:39:42Z</time>
      </trkpt>
      <trkpt lat="46.64649" lon="6.28018">
        <ele>1042.3</ele>
        <time>2024-06-16T06:39:43Z</time>
      </trkpt>
      <trkpt lat="46.64652" lon="6.28024">
        <ele>1042.3</ele>
        <time>2024-06-16T06:39:44Z</time>
      </trkpt>
      <trkpt lat="46.64655" lon="6.28029">
        <ele>1042.3</ele>
        <time>2024-06-16T06:39:45Z</time>
      </trkpt>
      <trkpt lat="46.64658" lon="6.28035">
        <ele>1042.4</ele>
        <time>2024-06-16T06:39:46Z</time>
      </trkpt>
      <trkpt lat="46.64661" lon="6.2804">
        <ele>1042.4</ele>
        <time>2024-06-16T06:39:47Z</time>
      </trkpt>
      <trkpt lat="46.64664" lon="6.28045">
        <ele>1042.5</ele>
        <time>2024-06-16T06:39:48Z</time>
      </trkpt>
      <trkpt lat="46.64667" lon="6.2805">
        <ele>1042.4</ele>
        <time>2024-06-16T06:39:49Z</time>
      </trkpt>
      <trkpt lat="46.6467" lon="6.28055">
        <ele>1042.4</ele>
        <time>2024-06-16T06:39:50Z</time>
      </trkpt>
      <trkpt lat="46.64672" lon="6.28058">
        <ele>1042.3</ele>
        <time>2024-06-16T06:39:51Z</time>
      </trkpt>
      <trkpt lat="46.64674" lon="6.28061">
        <ele>1042.1</ele>
        <time>2024-06-16T06:39:52Z</time>
      </trkpt>
      <trkpt lat="46.64675" lon="6.28063">
        <ele>1042</ele>
        <time>2024-06-16T06:39:53Z</time>
      </trkpt>
      <trkpt lat="46.64675" lon="6.28064">
        <ele>1041.8</ele>
        <time>2024-06-16T06:39:54Z</time>
      </trkpt>
      <trkpt lat="46.64676" lon="6.28064">
        <ele>1041.7</ele>
        <time>2024-06-16T06:39:55Z</time>
      </trkpt>
      <trkpt lat="46.64676" lon="6.28064">
        <ele>1041.6</ele>
        <time>2024-06-16T06:39:56Z</time>
      </trkpt>
      <trkpt lat="46.64676" lon="6.28064">
        <ele>1041.4</ele>
        <time>2024-06-16T06:39:57Z</time>
      </trkpt>
      <trkpt lat="46.64675" lon="6.28064">
        <ele>1041.1</ele>
        <time>2024-06-16T06:39:58Z</time>
      </trkpt>
      <trkpt lat="46.64675" lon="6.28064">
        <ele>1040.8</ele>
        <time>2024-06-16T06:39:59Z</time>
      </trkpt>
      <trkpt lat="46.64675" lon="6.28063">
        <ele>1040.4</ele>
        <time>2024-06-16T06:40:00Z</time>
      </trkpt>
      <trkpt lat="46.64675" lon="6.28063">
        <ele>1040</ele>
        <time>2024-06-16T06:40:01Z</time>
      </trkpt>
      <trkpt lat="46.64674" lon="6.28063">
        <ele>1039.7</ele>
        <time>2024-06-16T06:40:02Z</time>
      </trkpt>
      <trkpt lat="46.64674" lon="6.28062">
        <ele>1039.4</ele>
        <time>2024-06-16T06:40:03Z</time>
      </trkpt>
      <trkpt lat="46.64674" lon="6.28062">
        <ele>1039</ele>
        <time>2024-06-16T06:40:04Z</time>
      </trkpt>
      <trkpt lat="46.64674" lon="6.28062">
        <ele>1038.7</ele>
        <time>2024-06-16T06:40:05Z</time>
      </trkpt>
      <trkpt lat="46.64673" lon="6.28062">
        <ele>1038.5</ele>
        <time>2024-06-16T06:40:06Z</time>
      </trkpt>
      <trkpt lat="46.64673" lon="6.28061">
        <ele>1038.3</ele>
        <time>2024-06-16T06:40:07Z</time>
      </trkpt>
      <trkpt lat="46.64673" lon="6.28061">
        <ele>1038.2</ele>
        <time>2024-06-16T06:40:08Z</time>
      </trkpt>
      <trkpt lat="46.64673" lon="6.28061">
        <ele>1038.2</ele>
        <time>2024-06-16T06:40:09Z</time>
      </trkpt>
      <trkpt lat="46.64673" lon="6.2806">
        <ele>1038.1</ele>
        <time>2024-06-16T06:40:10Z</time>
      </trkpt>
      <trkpt lat="46.64673" lon="6.28061">
        <ele>1037.7</ele>
        <time>2024-06-16T06:40:11Z</time>
      </trkpt>
      <trkpt lat="46.64672" lon="6.28061">
        <ele>1037.4</ele>
        <time>2024-06-16T06:40:12Z</time>
      </trkpt>
      <trkpt lat="46.64672" lon="6.28061">
        <ele>1037.2</ele>
        <time>2024-06-16T06:40:13Z</time>
      </trkpt>
      <trkpt lat="46.64672" lon="6.2806">
        <ele>1037</ele>
        <time>2024-06-16T06:40:14Z</time>
      </trkpt>
      <trkpt lat="46.64672" lon="6.2806">
        <ele>1036.8</ele>
        <time>2024-06-16T06:40:15Z</time>
      </trkpt>
      <trkpt lat="46.64672" lon="6.2806">
        <ele>1036.6</ele>
        <time>2024-06-16T06:40:16Z</time>
      </trkpt>
      <trkpt lat="46.64673" lon="6.2806">
        <ele>1036.5</ele>
        <time>2024-06-16T06:40:17Z</time>
      </trkpt>
      <trkpt lat="46.64673" lon="6.28061">
        <ele>1036.6</ele>
        <time>2024-06-16T06:40:18Z</time>
      </trkpt>
      <trkpt lat="46.64674" lon="6.28062">
        <ele>1036.8</ele>
        <time>2024-06-16T06:40:19Z</time>
      </trkpt>
      <trkpt lat="46.64675" lon="6.28064">
        <ele>1037</ele>
        <time>2024-06-16T06:40:20Z</time>
      </trkpt>
      <trkpt lat="46.64676" lon="6.28066">
        <ele>1037.2</ele>
        <time>2024-06-16T06:40:21Z</time>
      </trkpt>
      <trkpt lat="46.64676" lon="6.28069">
        <ele>1037.4</ele>
        <time>2024-06-16T06:40:22Z</time>
      </trkpt>
      <trkpt lat="46.64676" lon="6.28072">
        <ele>1037.5</ele>
        <time>2024-06-16T06:40:23Z</time>
      </trkpt>
      <trkpt lat="46.64676" lon="6.28076">
        <ele>1037.7</ele>
        <time>2024-06-16T06:40:24Z</time>
      </trkpt>
      <trkpt lat="46.64675" lon="6.2808">
        <ele>1038.1</ele>
        <time>2024-06-16T06:40:25Z</time>
      </trkpt>
      <trkpt lat="46.64674" lon="6.28084">
        <ele>1038.4</ele>
        <time>2024-06-16T06:40:26Z</time>
      </trkpt>
      <trkpt lat="46.64673" lon="6.28088">
        <ele>1038.8</ele>
        <time>2024-06-16T06:40:27Z</time>
      </trkpt>
      <trkpt lat="46.64671" lon="6.28092">
        <ele>1039.2</ele>
        <time>2024-06-16T06:40:28Z</time>
      </trkpt>
      <trkpt lat="46.64669" lon="6.28096">
        <ele>1039.6</ele>
        <time>2024-06-16T06:40:29Z</time>
      </trkpt>
      <trkpt lat="46.64667" lon="6.28099">
        <ele>1040</ele>
        <time>2024-06-16T06:40:30Z</time>
      </trkpt>
      <trkpt lat="46.64664" lon="6.28102">
        <ele>1040.4</ele>
        <time>2024-06-16T06:40:31Z</time>
      </trkpt>
      <trkpt lat="46.64662" lon="6.28105">
        <ele>1040.9</ele>
        <time>2024-06-16T06:40:32Z</time>
      </trkpt>
      <trkpt lat="46.6466" lon="6.28109">
        <ele>1041.3</ele>
        <time>2024-06-16T06:40:33Z</time>
      </trkpt>
      <trkpt lat="46.64659" lon="6.28113">
        <ele>1042</ele>
        <time>2024-06-16T06:40:34Z</time>
      </trkpt>
      <trkpt lat="46.64657" lon="6.28117">
        <ele>1042.7</ele>
        <time>2024-06-16T06:40:35Z</time>
      </trkpt>
      <trkpt lat="46.64656" lon="6.28121">
        <ele>1043.4</ele>
        <time>2024-06-16T06:40:36Z</time>
      </trkpt>
      <trkpt lat="46.64656" lon="6.28124">
        <ele>1044.3</ele>
        <time>2024-06-16T06:40:37Z</time>
      </trkpt>
      <trkpt lat="46.64655" lon="6.28128">
        <ele>1045.3</ele>
        <time>2024-06-16T06:40:38Z</time>
      </trkpt>
      <trkpt lat="46.64655" lon="6.28133">
        <ele>1046</ele>
        <time>2024-06-16T06:40:39Z</time>
      </trkpt>
      <trkpt lat="46.64655" lon="6.28137">
        <ele>1046.5</ele>
        <time>2024-06-16T06:40:40Z</time>
      </trkpt>
      <trkpt lat="46.64656" lon="6.28142">
        <ele>1046.9</ele>
        <time>2024-06-16T06:40:41Z</time>
      </trkpt>
      <trkpt lat="46.64657" lon="6.28147">
        <ele>1047.2</ele>
        <time>2024-06-16T06:40:42Z</time>
      </trkpt>
      <trkpt lat="46.64658" lon="6.28152">
        <ele>1047.4</ele>
        <time>2024-06-16T06:40:43Z</time>
      </trkpt>
      <trkpt lat="46.64659" lon="6.28156">
        <ele>1047.6</ele>
        <time>2024-06-16T06:40:44Z</time>
      </trkpt>
      <trkpt lat="46.6466" lon="6.2816">
        <ele>1047.8</ele>
        <time>2024-06-16T06:40:45Z</time>
      </trkpt>
      <trkpt lat="46.64662" lon="6.28164">
        <ele>1048.1</ele>
        <time>2024-06-16T06:40:46Z</time>
      </trkpt>
      <trkpt lat="46.64663" lon="6.28167">
        <ele>1048.3</ele>
        <time>2024-06-16T06:40:47Z</time>
      </trkpt>
      <trkpt lat="46.64665" lon="6.2817">
        <ele>1048.8</ele>
        <time>2024-06-16T06:40:48Z</time>
      </trkpt>
      <trkpt lat="46.64666" lon="6.28174">
        <ele>1049.3</ele>
        <time>2024-06-16T06:40:49Z</time>
      </trkpt>
      <trkpt lat="46.64667" lon="6.28177">
        <ele>1049.8</ele>
        <time>2024-06-16T06:40:50Z</time>
      </trkpt>
      <trkpt lat="46.64669" lon="6.28179">
        <ele>1050.4</ele>
        <time>2024-06-16T06:40:51Z</time>
      </trkpt>
      <trkpt lat="46.6467" lon="6.28182">
        <ele>1051</ele>
        <time>2024-06-16T06:40:52Z</time>
      </trkpt>
      <trkpt lat="46.64671" lon="6.28185">
        <ele>1051.3</ele>
        <time>2024-06-16T06:40:53Z</time>
      </trkpt>
      <trkpt lat="46.64673" lon="6.28188">
        <ele>1051.6</ele>
        <time>2024-06-16T06:40:54Z</time>
      </trkpt>
      <trkpt lat="46.64674" lon="6.28192">
        <ele>1051.8</ele>
        <time>2024-06-16T06:40:55Z</time>
      </trkpt>
      <trkpt lat="46.64675" lon="6.28197">
        <ele>1051.8</ele>
        <time>2024-06-16T06:40:56Z</time>
      </trkpt>
      <trkpt lat="46.64677" lon="6.28201">
        <ele>1051.9</ele>
        <time>2024-06-16T06:40:57Z</time>
      </trkpt>
      <trkpt lat="46.64678" lon="6.28205">
        <ele>1051.9</ele>
        <time>2024-06-16T06:40:58Z</time>
      </trkpt>
      <trkpt lat="46.64679" lon="6.28209">
        <ele>1051.8</ele>
        <time>2024-06-16T06:40:59Z</time>
      </trkpt>
      <trkpt lat="46.6468" lon="6.28213">
        <ele>1051.7</ele>
        <time>2024-06-16T06:41:00Z</time>
      </trkpt>
      <trkpt lat="46.64681" lon="6.28216">
        <ele>1051.8</ele>
        <time>2024-06-16T06:41:01Z</time>
      </trkpt>
      <trkpt lat="46.64682" lon="6.2822">
        <ele>1051.8</ele>
        <time>2024-06-16T06:41:02Z</time>
      </trkpt>
      <trkpt lat="46.64683" lon="6.28224">
        <ele>1051.8</ele>
        <time>2024-06-16T06:41:03Z</time>
      </trkpt>
      <trkpt lat="46.64684" lon="6.28227">
        <ele>1051.9</ele>
        <time>2024-06-16T06:41:04Z</time>
      </trkpt>
      <trkpt lat="46.64685" lon="6.28231">
        <ele>1052</ele>
        <time>2024-06-16T06:41:05Z</time>
      </trkpt>
      <trkpt lat="46.64686" lon="6.28234">
        <ele>1052.1</ele>
        <time>2024-06-16T06:41:06Z</time>
      </trkpt>
      <trkpt lat="46.64687" lon="6.28237">
        <ele>1052.2</ele>
        <time>2024-06-16T06:41:07Z</time>
      </trkpt>
      <trkpt lat="46.64688" lon="6.28241">
        <ele>1052.4</ele>
        <time>2024-06-16T06:41:08Z</time>
      </trkpt>
      <trkpt lat="46.6469" lon="6.28244">
        <ele>1052.6</ele>
        <time>2024-06-16T06:41:09Z</time>
      </trkpt>
      <trkpt lat="46.64691" lon="6.28248">
        <ele>1052.7</ele>
        <time>2024-06-16T06:41:10Z</time>
      </trkpt>
      <trkpt lat="46.64692" lon="6.28252">
        <ele>1052.9</ele>
        <time>2024-06-16T06:41:11Z</time>
      </trkpt>
      <trkpt lat="46.64694" lon="6.28255">
        <ele>1053.1</ele>
        <time>2024-06-16T06:41:12Z</time>
      </trkpt>
      <trkpt lat="46.64695" lon="6.28259">
        <ele>1053.2</ele>
        <time>2024-06-16T06:41:13Z</time>
      </trkpt>
      <trkpt lat="46.64696" lon="6.28263">
        <ele>1053.4</ele>
        <time>2024-06-16T06:41:14Z</time>
      </trkpt>
      <trkpt lat="46.64698" lon="6.28267">
        <ele>1053.5</ele>
        <time>2024-06-16T06:41:15Z</time>
      </trkpt>
      <trkpt lat="46.64699" lon="6.2827">
        <ele>1053.5</ele>
        <time>2024-06-16T06:41:16Z</time>
      </trkpt>
      <trkpt lat="46.64701" lon="6.28274">
        <ele>1053.8</ele>
        <time>2024-06-16T06:41:17Z</time>
      </trkpt>
      <trkpt lat="46.64703" lon="6.28278">
        <ele>1054.2</ele>
        <time>2024-06-16T06:41:18Z</time>
      </trkpt>
      <trkpt lat="46.64704" lon="6.28281">
        <ele>1054.6</ele>
        <time>2024-06-16T06:41:19Z</time>
      </trkpt>
      <trkpt lat="46.64706" lon="6.28286">
        <ele>1054.8</ele>
        <time>2024-06-16T06:41:20Z</time>
      </trkpt>
      <trkpt lat="46.64708" lon="6.2829">
        <ele>1054.9</ele>
        <time>2024-06-16T06:41:21Z</time>
      </trkpt>
      <trkpt lat="46.6471" lon="6.28295">
        <ele>1054.9</ele>
        <time>2024-06-16T06:41:22Z</time>
      </trkpt>
      <trkpt lat="46.64712" lon="6.28299">
        <ele>1054.9</ele>
        <time>2024-06-16T06:41:23Z</time>
      </trkpt>
      <trkpt lat="46.64714" lon="6.28304">
        <ele>1054.8</ele>
        <time>2024-06-16T06:41:24Z</time>
      </trkpt>
      <trkpt lat="46.64715" lon="6.28308">
        <ele>1054.8</ele>
        <time>2024-06-16T06:41:25Z</time>
      </trkpt>
      <trkpt lat="46.64717" lon="6.28312">
        <ele>1054.7</ele>
        <time>2024-06-16T06:41:26Z</time>
      </trkpt>
      <trkpt lat="46.64719" lon="6.28316">
        <ele>1054.6</ele>
        <time>2024-06-16T06:41:27Z</time>
      </trkpt>
      <trkpt lat="46.64721" lon="6.2832">
        <ele>1054.4</ele>
        <time>2024-06-16T06:41:28Z</time>
      </trkpt>
      <trkpt lat="46.64723" lon="6.28325">
        <ele>1054.4</ele>
        <time>2024-06-16T06:41:29Z</time>
      </trkpt>
      <trkpt lat="46.64725" lon="6.28329">
        <ele>1054.3</ele>
        <time>2024-06-16T06:41:30Z</time>
      </trkpt>
      <trkpt lat="46.64727" lon="6.28333">
        <ele>1054.2</ele>
        <time>2024-06-16T06:41:31Z</time>
      </trkpt>
      <trkpt lat="46.64728" lon="6.28337">
        <ele>1054.1</ele>
        <time>2024-06-16T06:41:32Z</time>
      </trkpt>
      <trkpt lat="46.6473" lon="6.28341">
        <ele>1053.9</ele>
        <time>2024-06-16T06:41:33Z</time>
      </trkpt>
      <trkpt lat="46.64732" lon="6.28346">
        <ele>1053.7</ele>
        <time>2024-06-16T06:41:34Z</time>
      </trkpt>
      <trkpt lat="46.64733" lon="6.2835">
        <ele>1053.6</ele>
        <time>2024-06-16T06:41:35Z</time>
      </trkpt>
      <trkpt lat="46.64734" lon="6.28354">
        <ele>1053.5</ele>
        <time>2024-06-16T06:41:36Z</time>
      </trkpt>
      <trkpt lat="46.64735" lon="6.28358">
        <ele>1053.4</ele>
        <time>2024-06-16T06:41:37Z</time>
      </trkpt>
      <trkpt lat="46.64735" lon="6.28362">
        <ele>1053.2</ele>
        <time>2024-06-16T06:41:38Z</time>
      </trkpt>
      <trkpt lat="46.64734" lon="6.28366">
        <ele>1053</ele>
        <time>2024-06-16T06:41:39Z</time>
      </trkpt>
      <trkpt lat="46.64734" lon="6.2837">
        <ele>1052.8</ele>
        <time>2024-06-16T06:41:40Z</time>
      </trkpt>
      <trkpt lat="46.64733" lon="6.28373">
        <ele>1052.7</ele>
        <time>2024-06-16T06:41:41Z</time>
      </trkpt>
      <trkpt lat="46.64732" lon="6.28377">
        <ele>1052.6</ele>
        <time>2024-06-16T06:41:42Z</time>
      </trkpt>
      <trkpt lat="46.64731" lon="6.28381">
        <ele>1052.6</ele>
        <time>2024-06-16T06:41:43Z</time>
      </trkpt>
      <trkpt lat="46.6473" lon="6.28384">
        <ele>1052.6</ele>
        <time>2024-06-16T06:41:44Z</time>
      </trkpt>
      <trkpt lat="46.64729" lon="6.28388">
        <ele>1052.6</ele>
        <time>2024-06-16T06:41:45Z</time>
      </trkpt>
      <trkpt lat="46.64728" lon="6.28392">
        <ele>1052.8</ele>
        <time>2024-06-16T06:41:46Z</time>
      </trkpt>
      <trkpt lat="46.64727" lon="6.28395">
        <ele>1052.9</ele>
        <time>2024-06-16T06:41:47Z</time>
      </trkpt>
      <trkpt lat="46.64726" lon="6.28398">
        <ele>1053</ele>
        <time>2024-06-16T06:41:48Z</time>
      </trkpt>
      <trkpt lat="46.64725" lon="6.28401">
        <ele>1052.9</ele>
        <time>2024-06-16T06:41:49Z</time>
      </trkpt>
      <trkpt lat="46.64723" lon="6.28404">
        <ele>1052.9</ele>
        <time>2024-06-16T06:41:50Z</time>
      </trkpt>
      <trkpt lat="46.64721" lon="6.28407">
        <ele>1052.9</ele>
        <time>2024-06-16T06:41:51Z</time>
      </trkpt>
      <trkpt lat="46.6472" lon="6.28409">
        <ele>1052.9</ele>
        <time>2024-06-16T06:41:52Z</time>
      </trkpt>
      <trkpt lat="46.64718" lon="6.28411">
        <ele>1053.1</ele>
        <time>2024-06-16T06:41:53Z</time>
      </trkpt>
      <trkpt lat="46.64716" lon="6.28412">
        <ele>1053.2</ele>
        <time>2024-06-16T06:41:54Z</time>
      </trkpt>
      <trkpt lat="46.64715" lon="6.28413">
        <ele>1053.3</ele>
        <time>2024-06-16T06:41:55Z</time>
      </trkpt>
      <trkpt lat="46.64713" lon="6.28414">
        <ele>1053.4</ele>
        <time>2024-06-16T06:41:56Z</time>
      </trkpt>
      <trkpt lat="46.64712" lon="6.28414">
        <ele>1053.5</ele>
        <time>2024-06-16T06:41:57Z</time>
      </trkpt>
      <trkpt lat="46.6471" lon="6.28414">
        <ele>1053.6</ele>
        <time>2024-06-16T06:41:58Z</time>
      </trkpt>
      <trkpt lat="46.64709" lon="6.28413">
        <ele>1053.7</ele>
        <time>2024-06-16T06:41:59Z</time>
      </trkpt>
      <trkpt lat="46.64707" lon="6.28412">
        <ele>1054</ele>
        <time>2024-06-16T06:42:00Z</time>
      </trkpt>
      <trkpt lat="46.64706" lon="6.2841">
        <ele>1054.4</ele>
        <time>2024-06-16T06:42:01Z</time>
      </trkpt>
      <trkpt lat="46.64705" lon="6.28408">
        <ele>1054.7</ele>
        <time>2024-06-16T06:42:02Z</time>
      </trkpt>
      <trkpt lat="46.64704" lon="6.28406">
        <ele>1054.9</ele>
        <time>2024-06-16T06:42:03Z</time>
      </trkpt>
      <trkpt lat="46.64702" lon="6.28404">
        <ele>1055.2</ele>
        <time>2024-06-16T06:42:04Z</time>
      </trkpt>
      <trkpt lat="46.64701" lon="6.28401">
        <ele>1055.5</ele>
        <time>2024-06-16T06:42:05Z</time>
      </trkpt>
      <trkpt lat="46.647" lon="6.28399">
        <ele>1055.6</ele>
        <time>2024-06-16T06:42:06Z</time>
      </trkpt>
      <trkpt lat="46.64699" lon="6.28396">
        <ele>1055.8</ele>
        <time>2024-06-16T06:42:07Z</time>
      </trkpt>
      <trkpt lat="46.64697" lon="6.28394">
        <ele>1056.2</ele>
        <time>2024-06-16T06:42:08Z</time>
      </trkpt>
      <trkpt lat="46.64696" lon="6.28391">
        <ele>1056.6</ele>
        <time>2024-06-16T06:42:09Z</time>
      </trkpt>
      <trkpt lat="46.64695" lon="6.28389">
        <ele>1057</ele>
        <time>2024-06-16T06:42:10Z</time>
      </trkpt>
      <trkpt lat="46.64693" lon="6.28386">
        <ele>1057.3</ele>
        <time>2024-06-16T06:42:11Z</time>
      </trkpt>
      <trkpt lat="46.64692" lon="6.28384">
        <ele>1057.6</ele>
        <time>2024-06-16T06:42:12Z</time>
      </trkpt>
      <trkpt lat="46.6469" lon="6.28381">
        <ele>1057.9</ele>
        <time>2024-06-16T06:42:13Z</time>
      </trkpt>
      <trkpt lat="46.64689" lon="6.28379">
        <ele>1058.2</ele>
        <time>2024-06-16T06:42:14Z</time>
      </trkpt>
      <trkpt lat="46.64687" lon="6.28377">
        <ele>1058.3</ele>
        <time>2024-06-16T06:42:15Z</time>
      </trkpt>
      <trkpt lat="46.64686" lon="6.28374">
        <ele>1058.5</ele>
        <time>2024-06-16T06:42:16Z</time>
      </trkpt>
      <trkpt lat="46.64684" lon="6.28372">
        <ele>1058.7</ele>
        <time>2024-06-16T06:42:17Z</time>
      </trkpt>
      <trkpt lat="46.64683" lon="6.28369">
        <ele>1058.9</ele>
        <time>2024-06-16T06:42:18Z</time>
      </trkpt>
      <trkpt lat="46.64681" lon="6.28367">
        <ele>1059</ele>
        <time>2024-06-16T06:42:19Z</time>
      </trkpt>
      <trkpt lat="46.6468" lon="6.28364">
        <ele>1059.1</ele>
        <time>2024-06-16T06:42:20Z</time>
      </trkpt>
      <trkpt lat="46.64678" lon="6.28362">
        <ele>1059.2</ele>
        <time>2024-06-16T06:42:21Z</time>
      </trkpt>
      <trkpt lat="46.64677" lon="6.28359">
        <ele>1059.2</ele>
        <time>2024-06-16T06:42:22Z</time>
      </trkpt>
      <trkpt lat="46.64675" lon="6.28357">
        <ele>1059.2</ele>
        <time>2024-06-16T06:42:23Z</time>
      </trkpt>
      <trkpt lat="46.64674" lon="6.28355">
        <ele>1059.3</ele>
        <time>2024-06-16T06:42:24Z</time>
      </trkpt>
      <trkpt lat="46.64672" lon="6.28352">
        <ele>1059.5</ele>
        <time>2024-06-16T06:42:25Z</time>
      </trkpt>
      <trkpt lat="46.6467" lon="6.2835">
        <ele>1059.6</ele>
        <time>2024-06-16T06:42:26Z</time>
      </trkpt>
      <trkpt lat="46.64669" lon="6.28348">
        <ele>1059.8</ele>
        <time>2024-06-16T06:42:27Z</time>
      </trkpt>
      <trkpt lat="46.64667" lon="6.28346">
        <ele>1060.1</ele>
        <time>2024-06-16T06:42:28Z</time>
      </trkpt>
      <trkpt lat="46.64666" lon="6.28343">
        <ele>1060.3</ele>
        <time>2024-06-16T06:42:29Z</time>
      </trkpt>
      <trkpt lat="46.64664" lon="6.28341">
        <ele>1060.4</ele>
        <time>2024-06-16T06:42:30Z</time>
      </trkpt>
      <trkpt lat="46.64662" lon="6.28339">
        <ele>1060.7</ele>
        <time>2024-06-16T06:42:31Z</time>
      </trkpt>
      <trkpt lat="46.64661" lon="6.28337">
        <ele>1061.1</ele>
        <time>2024-06-16T06:42:32Z</time>
      </trkpt>
      <trkpt lat="46.64659" lon="6.28335">
        <ele>1061.5</ele>
        <time>2024-06-16T06:42:33Z</time>
      </trkpt>
      <trkpt lat="46.64657" lon="6.28333">
        <ele>1061.8</ele>
        <time>2024-06-16T06:42:34Z</time>
      </trkpt>
      <trkpt lat="46.64655" lon="6.28331">
        <ele>1062.1</ele>
        <time>2024-06-16T06:42:35Z</time>
      </trkpt>
      <trkpt lat="46.64654" lon="6.28328">
        <ele>1062.3</ele>
        <time>2024-06-16T06:42:36Z</time>
      </trkpt>
      <trkpt lat="46.64652" lon="6.28326">
        <ele>1062.5</ele>
        <time>2024-06-16T06:42:37Z</time>
      </trkpt>
      <trkpt lat="46.6465" lon="6.28323">
        <ele>1062.8</ele>
        <time>2024-06-16T06:42:38Z</time>
      </trkpt>
      <trkpt lat="46.64649" lon="6.28321">
        <ele>1063</ele>
        <time>2024-06-16T06:42:39Z</time>
      </trkpt>
      <trkpt lat="46.64647" lon="6.28319">
        <ele>1063.1</ele>
        <time>2024-06-16T06:42:40Z</time>
      </trkpt>
      <trkpt lat="46.64646" lon="6.28316">
        <ele>1063.2</ele>
        <time>2024-06-16T06:42:41Z</time>
      </trkpt>
      <trkpt lat="46.64644" lon="6.28314">
        <ele>1063.3</ele>
        <time>2024-06-16T06:42:42Z</time>
      </trkpt>
      <trkpt lat="46.64643" lon="6.28311">
        <ele>1063.3</ele>
        <time>2024-06-16T06:42:43Z</time>
      </trkpt>
      <trkpt lat="46.64641" lon="6.28309">
        <ele>1063.3</ele>
        <time>2024-06-16T06:42:44Z</time>
      </trkpt>
      <trkpt lat="46.64639" lon="6.28307">
        <ele>1063.3</ele>
        <time>2024-06-16T06:42:45Z</time>
      </trkpt>
      <trkpt lat="46.64638" lon="6.28304">
        <ele>1063.3</ele>
        <time>2024-06-16T06:42:46Z</time>
      </trkpt>
      <trkpt lat="46.64636" lon="6.28302">
        <ele>1063.3</ele>
        <time>2024-06-16T06:42:47Z</time>
      </trkpt>
      <trkpt lat="46.64634" lon="6.28299">
        <ele>1063.3</ele>
        <time>2024-06-16T06:42:48Z</time>
      </trkpt>
      <trkpt lat="46.64632" lon="6.28297">
        <ele>1063.3</ele>
        <time>2024-06-16T06:42:49Z</time>
      </trkpt>
      <trkpt lat="46.64631" lon="6.28295">
        <ele>1063.4</ele>
        <time>2024-06-16T06:42:50Z</time>
      </trkpt>
      <trkpt lat="46.64629" lon="6.28292">
        <ele>1063.4</ele>
        <time>2024-06-16T06:42:51Z</time>
      </trkpt>
      <trkpt lat="46.64627" lon="6.2829">
        <ele>1063.5</ele>
        <time>2024-06-16T06:42:52Z</time>
      </trkpt>
      <trkpt lat="46.64625" lon="6.28287">
        <ele>1063.6</ele>
        <time>2024-06-16T06:42:53Z</time>
      </trkpt>
      <trkpt lat="46.64623" lon="6.28285">
        <ele>1063.5</ele>
        <time>2024-06-16T06:42:54Z</time>
      </trkpt>
      <trkpt lat="46.64622" lon="6.28283">
        <ele>1063.4</ele>
        <time>2024-06-16T06:42:55Z</time>
      </trkpt>
      <trkpt lat="46.6462" lon="6.28281">
        <ele>1063.4</ele>
        <time>2024-06-16T06:42:56Z</time>
      </trkpt>
      <trkpt lat="46.64618" lon="6.28279">
        <ele>1063.3</ele>
        <time>2024-06-16T06:42:57Z</time>
      </trkpt>
      <trkpt lat="46.64616" lon="6.28277">
        <ele>1063.3</ele>
        <time>2024-06-16T06:42:58Z</time>
      </trkpt>
      <trkpt lat="46.64614" lon="6.28275">
        <ele>1063.3</ele>
        <time>2024-06-16T06:42:59Z</time>
      </trkpt>
      <trkpt lat="46.64612" lon="6.28273">
        <ele>1063.2</ele>
        <time>2024-06-16T06:43:00Z</time>
      </trkpt>
      <trkpt lat="46.6461" lon="6.28271">
        <ele>1063.3</ele>
        <time>2024-06-16T06:43:01Z</time>
      </trkpt>
      <trkpt lat="46.64608" lon="6.28269">
        <ele>1063.3</ele>
        <time>2024-06-16T06:43:02Z</time>
      </trkpt>
      <trkpt lat="46.64606" lon="6.28267">
        <ele>1063.5</ele>
        <time>2024-06-16T06:43:03Z</time>
      </trkpt>
      <trkpt lat="46.64604" lon="6.28266">
        <ele>1063.8</ele>
        <time>2024-06-16T06:43:04Z</time>
      </trkpt>
      <trkpt lat="46.64601" lon="6.28264">
        <ele>1064</ele>
        <time>2024-06-16T06:43:05Z</time>
      </trkpt>
      <trkpt lat="46.64599" lon="6.28263">
        <ele>1064.1</ele>
        <time>2024-06-16T06:43:06Z</time>
      </trkpt>
      <trkpt lat="46.64597" lon="6.28261">
        <ele>1064.2</ele>
        <time>2024-06-16T06:43:07Z</time>
      </trkpt>
      <trkpt lat="46.64595" lon="6.2826">
        <ele>1064.4</ele>
        <time>2024-06-16T06:43:08Z</time>
      </trkpt>
      <trkpt lat="46.64593" lon="6.28258">
        <ele>1064.8</ele>
        <time>2024-06-16T06:43:09Z</time>
      </trkpt>
      <trkpt lat="46.64591" lon="6.28257">
        <ele>1065.1</ele>
        <time>2024-06-16T06:43:10Z</time>
      </trkpt>
      <trkpt lat="46.6459" lon="6.28255">
        <ele>1065.5</ele>
        <time>2024-06-16T06:43:11Z</time>
      </trkpt>
      <trkpt lat="46.64588" lon="6.28254">
        <ele>1065.8</ele>
        <time>2024-06-16T06:43:12Z</time>
      </trkpt>
      <trkpt lat="46.64586" lon="6.28252">
        <ele>1066</ele>
        <time>2024-06-16T06:43:13Z</time>
      </trkpt>
      <trkpt lat="46.64585" lon="6.2825">
        <ele>1066.1</ele>
        <time>2024-06-16T06:43:14Z</time>
      </trkpt>
      <trkpt lat="46.64583" lon="6.28249">
        <ele>1066.2</ele>
        <time>2024-06-16T06:43:15Z</time>
      </trkpt>
      <trkpt lat="46.64581" lon="6.28247">
        <ele>1066.3</ele>
        <time>2024-06-16T06:43:16Z</time>
      </trkpt>
      <trkpt lat="46.64579" lon="6.28245">
        <ele>1066.4</ele>
        <time>2024-06-16T06:43:17Z</time>
      </trkpt>
      <trkpt lat="46.64578" lon="6.28243">
        <ele>1066.6</ele>
        <time>2024-06-16T06:43:18Z</time>
      </trkpt>
      <trkpt lat="46.64576" lon="6.28241">
        <ele>1066.8</ele>
        <time>2024-06-16T06:43:19Z</time>
      </trkpt>
      <trkpt lat="46.64574" lon="6.28239">
        <ele>1067.1</ele>
        <time>2024-06-16T06:43:20Z</time>
      </trkpt>
      <trkpt lat="46.64572" lon="6.28237">
        <ele>1067.4</ele>
        <time>2024-06-16T06:43:21Z</time>
      </trkpt>
      <trkpt lat="46.64571" lon="6.28235">
        <ele>1067.8</ele>
        <time>2024-06-16T06:43:22Z</time>
      </trkpt>
      <trkpt lat="46.64569" lon="6.28233">
        <ele>1068.3</ele>
        <time>2024-06-16T06:43:23Z</time>
      </trkpt>
      <trkpt lat="46.64567" lon="6.28231">
        <ele>1068.7</ele>
        <time>2024-06-16T06:43:24Z</time>
      </trkpt>
      <trkpt lat="46.64565" lon="6.28229">
        <ele>1069</ele>
        <time>2024-06-16T06:43:25Z</time>
      </trkpt>
      <trkpt lat="46.64564" lon="6.28227">
        <ele>1069.2</ele>
        <time>2024-06-16T06:43:26Z</time>
      </trkpt>
      <trkpt lat="46.64562" lon="6.28224">
        <ele>1069.4</ele>
        <time>2024-06-16T06:43:27Z</time>
      </trkpt>
      <trkpt lat="46.6456" lon="6.28221">
        <ele>1069.4</ele>
        <time>2024-06-16T06:43:28Z</time>
      </trkpt>
      <trkpt lat="46.64557" lon="6.28219">
        <ele>1069.4</ele>
        <time>2024-06-16T06:43:29Z</time>
      </trkpt>
      <trkpt lat="46.64555" lon="6.28216">
        <ele>1069.1</ele>
        <time>2024-06-16T06:43:30Z</time>
      </trkpt>
      <trkpt lat="46.64553" lon="6.28213">
        <ele>1068.8</ele>
        <time>2024-06-16T06:43:31Z</time>
      </trkpt>
      <trkpt lat="46.64551" lon="6.28211">
        <ele>1068.6</ele>
        <time>2024-06-16T06:43:32Z</time>
      </trkpt>
      <trkpt lat="46.64549" lon="6.28208">
        <ele>1068.5</ele>
        <time>2024-06-16T06:43:33Z</time>
      </trkpt>
      <trkpt lat="46.64547" lon="6.28206">
        <ele>1068.4</ele>
        <time>2024-06-16T06:43:34Z</time>
      </trkpt>
      <trkpt lat="46.64545" lon="6.28204">
        <ele>1068.2</ele>
        <time>2024-06-16T06:43:35Z</time>
      </trkpt>
      <trkpt lat="46.64543" lon="6.28201">
        <ele>1068</ele>
        <time>2024-06-16T06:43:36Z</time>
      </trkpt>
      <trkpt lat="46.64541" lon="6.28199">
        <ele>1067.8</ele>
        <time>2024-06-16T06:43:37Z</time>
      </trkpt>
      <trkpt lat="46.64539" lon="6.28196">
        <ele>1067.6</ele>
        <time>2024-06-16T06:43:38Z</time>
      </trkpt>
      <trkpt lat="46.64537" lon="6.28194">
        <ele>1067.4</ele>
        <time>2024-06-16T06:43:39Z</time>
      </trkpt>
      <trkpt lat="46.64535" lon="6.28192">
        <ele>1067.4</ele>
        <time>2024-06-16T06:43:40Z</time>
      </trkpt>
      <trkpt lat="46.64533" lon="6.2819">
        <ele>1067.5</ele>
        <time>2024-06-16T06:43:41Z</time>
      </trkpt>
      <trkpt lat="46.64531" lon="6.28188">
        <ele>1067.6</ele>
        <time>2024-06-16T06:43:42Z</time>
      </trkpt>
      <trkpt lat="46.64529" lon="6.28186">
        <ele>1067.9</ele>
        <time>2024-06-16T06:43:43Z</time>
      </trkpt>
      <trkpt lat="46.64527" lon="6.28185">
        <ele>1068</ele>
        <time>2024-06-16T06:43:44Z</time>
      </trkpt>
      <trkpt lat="46.64526" lon="6.28183">
        <ele>1068.3</ele>
        <time>2024-06-16T06:43:45Z</time>
      </trkpt>
      <trkpt lat="46.64524" lon="6.28181">
        <ele>1068.5</ele>
        <time>2024-06-16T06:43:46Z</time>
      </trkpt>
      <trkpt lat="46.64522" lon="6.2818">
        <ele>1068.7</ele>
        <time>2024-06-16T06:43:47Z</time>
      </trkpt>
      <trkpt lat="46.6452" lon="6.28179">
        <ele>1068.8</ele>
        <time>2024-06-16T06:43:48Z</time>
      </trkpt>
      <trkpt lat="46.64518" lon="6.28179">
        <ele>1068.9</ele>
        <time>2024-06-16T06:43:49Z</time>
      </trkpt>
      <trkpt lat="46.64515" lon="6.2818">
        <ele>1069.1</ele>
        <time>2024-06-16T06:43:50Z</time>
      </trkpt>
      <trkpt lat="46.64513" lon="6.28182">
        <ele>1069.2</ele>
        <time>2024-06-16T06:43:51Z</time>
      </trkpt>
      <trkpt lat="46.6451" lon="6.28184">
        <ele>1069.4</ele>
        <time>2024-06-16T06:43:52Z</time>
      </trkpt>
      <trkpt lat="46.64508" lon="6.28186">
        <ele>1069.4</ele>
        <time>2024-06-16T06:43:53Z</time>
      </trkpt>
      <trkpt lat="46.64506" lon="6.28188">
        <ele>1069.4</ele>
        <time>2024-06-16T06:43:54Z</time>
      </trkpt>
      <trkpt lat="46.64503" lon="6.28191">
        <ele>1069.4</ele>
        <time>2024-06-16T06:43:55Z</time>
      </trkpt>
      <trkpt lat="46.64501" lon="6.28193">
        <ele>1069.5</ele>
        <time>2024-06-16T06:43:56Z</time>
      </trkpt>
      <trkpt lat="46.64499" lon="6.28196">
        <ele>1069.5</ele>
        <time>2024-06-16T06:43:57Z</time>
      </trkpt>
      <trkpt lat="46.64497" lon="6.28199">
        <ele>1069.5</ele>
        <time>2024-06-16T06:43:58Z</time>
      </trkpt>
      <trkpt lat="46.64495" lon="6.28201">
        <ele>1069.5</ele>
        <time>2024-06-16T06:43:59Z</time>
      </trkpt>
      <trkpt lat="46.64493" lon="6.28204">
        <ele>1069.6</ele>
        <time>2024-06-16T06:44:00Z</time>
      </trkpt>
      <trkpt lat="46.64491" lon="6.28206">
        <ele>1069.7</ele>
        <time>2024-06-16T06:44:01Z</time>
      </trkpt>
      <trkpt lat="46.64489" lon="6.28209">
        <ele>1069.7</ele>
        <time>2024-06-16T06:44:02Z</time>
      </trkpt>
      <trkpt lat="46.64487" lon="6.28211">
        <ele>1069.6</ele>
        <time>2024-06-16T06:44:03Z</time>
      </trkpt>
      <trkpt lat="46.64485" lon="6.28213">
        <ele>1069.7</ele>
        <time>2024-06-16T06:44:04Z</time>
      </trkpt>
      <trkpt lat="46.64483" lon="6.28215">
        <ele>1069.7</ele>
        <time>2024-06-16T06:44:05Z</time>
      </trkpt>
      <trkpt lat="46.64481" lon="6.28217">
        <ele>1069.8</ele>
        <time>2024-06-16T06:44:06Z</time>
      </trkpt>
      <trkpt lat="46.64478" lon="6.28218">
        <ele>1069.8</ele>
        <time>2024-06-16T06:44:07Z</time>
      </trkpt>
      <trkpt lat="46.64476" lon="6.28218">
        <ele>1069.9</ele>
        <time>2024-06-16T06:44:08Z</time>
      </trkpt>
      <trkpt lat="46.64474" lon="6.28217">
        <ele>1069.9</ele>
        <time>2024-06-16T06:44:09Z</time>
      </trkpt>
      <trkpt lat="46.64471" lon="6.28216">
        <ele>1069.9</ele>
        <time>2024-06-16T06:44:10Z</time>
      </trkpt>
      <trkpt lat="46.64468" lon="6.28215">
        <ele>1069.9</ele>
        <time>2024-06-16T06:44:11Z</time>
      </trkpt>
      <trkpt lat="46.64466" lon="6.28213">
        <ele>1069.8</ele>
        <time>2024-06-16T06:44:12Z</time>
      </trkpt>
      <trkpt lat="46.64463" lon="6.28211">
        <ele>1069.8</ele>
        <time>2024-06-16T06:44:13Z</time>
      </trkpt>
      <trkpt lat="46.6446" lon="6.28209">
        <ele>1069.7</ele>
        <time>2024-06-16T06:44:14Z</time>
      </trkpt>
      <trkpt lat="46.64457" lon="6.28207">
        <ele>1069.7</ele>
        <time>2024-06-16T06:44:15Z</time>
      </trkpt>
      <trkpt lat="46.64454" lon="6.28204">
        <ele>1069.6</ele>
        <time>2024-06-16T06:44:16Z</time>
      </trkpt>
      <trkpt lat="46.64451" lon="6.28202">
        <ele>1069.5</ele>
        <time>2024-06-16T06:44:17Z</time>
      </trkpt>
      <trkpt lat="46.64448" lon="6.28199">
        <ele>1069.4</ele>
        <time>2024-06-16T06:44:18Z</time>
      </trkpt>
      <trkpt lat="46.64445" lon="6.28196">
        <ele>1069.2</ele>
        <time>2024-06-16T06:44:19Z</time>
      </trkpt>
      <trkpt lat="46.64442" lon="6.28193">
        <ele>1068.9</ele>
        <time>2024-06-16T06:44:20Z</time>
      </trkpt>
      <trkpt lat="46.64439" lon="6.28189">
        <ele>1068.8</ele>
        <time>2024-06-16T06:44:21Z</time>
      </trkpt>
      <trkpt lat="46.64437" lon="6.28186">
        <ele>1068.7</ele>
        <time>2024-06-16T06:44:22Z</time>
      </trkpt>
      <trkpt lat="46.64434" lon="6.28182">
        <ele>1068.7</ele>
        <time>2024-06-16T06:44:23Z</time>
      </trkpt>
      <trkpt lat="46.64431" lon="6.28179">
        <ele>1068.7</ele>
        <time>2024-06-16T06:44:24Z</time>
      </trkpt>
      <trkpt lat="46.64429" lon="6.28176">
        <ele>1068.7</ele>
        <time>2024-06-16T06:44:25Z</time>
      </trkpt>
      <trkpt lat="46.64426" lon="6.28172">
        <ele>1068.7</ele>
        <time>2024-06-16T06:44:26Z</time>
      </trkpt>
      <trkpt lat="46.64424" lon="6.28168">
        <ele>1068.7</ele>
        <time>2024-06-16T06:44:27Z</time>
      </trkpt>
      <trkpt lat="46.64421" lon="6.28164">
        <ele>1068.5</ele>
        <time>2024-06-16T06:44:28Z</time>
      </trkpt>
      <trkpt lat="46.64418" lon="6.2816">
        <ele>1068.3</ele>
        <time>2024-06-16T06:44:29Z</time>
      </trkpt>
      <trkpt lat="46.64415" lon="6.28155">
        <ele>1067.9</ele>
        <time>2024-06-16T06:44:30Z</time>
      </trkpt>
      <trkpt lat="46.64412" lon="6.28151">
        <ele>1067.5</ele>
        <time>2024-06-16T06:44:31Z</time>
      </trkpt>
      <trkpt lat="46.64409" lon="6.28147">
        <ele>1066.8</ele>
        <time>2024-06-16T06:44:32Z</time>
      </trkpt>
      <trkpt lat="46.64406" lon="6.28144">
        <ele>1066.3</ele>
        <time>2024-06-16T06:44:33Z</time>
      </trkpt>
      <trkpt lat="46.64403" lon="6.2814">
        <ele>1066.2</ele>
        <time>2024-06-16T06:44:34Z</time>
      </trkpt>
      <trkpt lat="46.64401" lon="6.28136">
        <ele>1066.2</ele>
        <time>2024-06-16T06:44:35Z</time>
      </trkpt>
      <trkpt lat="46.64399" lon="6.28133">
        <ele>1066.2</ele>
        <time>2024-06-16T06:44:37Z</time>
      </trkpt>
      <trkpt lat="46.64397" lon="6.28129">
        <ele>1066.3</ele>
        <time>2024-06-16T06:44:38Z</time>
      </trkpt>
      <trkpt lat="46.64396" lon="6.28125">
        <ele>1066.6</ele>
        <time>2024-06-16T06:44:39Z</time>
      </trkpt>
      <trkpt lat="46.64395" lon="6.28122">
        <ele>1066.9</ele>
        <time>2024-06-16T06:44:40Z</time>
      </trkpt>
      <trkpt lat="46.64394" lon="6.28118">
        <ele>1067.2</ele>
        <time>2024-06-16T06:44:41Z</time>
      </trkpt>
      <trkpt lat="46.64393" lon="6.28115">
        <ele>1067.6</ele>
        <time>2024-06-16T06:44:42Z</time>
      </trkpt>
      <trkpt lat="46.64393" lon="6.28111">
        <ele>1067.8</ele>
        <time>2024-06-16T06:44:43Z</time>
      </trkpt>
      <trkpt lat="46.64394" lon="6.28107">
        <ele>1068.1</ele>
        <time>2024-06-16T06:44:44Z</time>
      </trkpt>
      <trkpt lat="46.64394" lon="6.28104">
        <ele>1068.6</ele>
        <time>2024-06-16T06:44:45Z</time>
      </trkpt>
      <trkpt lat="46.64395" lon="6.28102">
        <ele>1069</ele>
        <time>2024-06-16T06:44:46Z</time>
      </trkpt>
      <trkpt lat="46.64396" lon="6.28099">
        <ele>1069.5</ele>
        <time>2024-06-16T06:44:47Z</time>
      </trkpt>
      <trkpt lat="46.64397" lon="6.28098">
        <ele>1070.1</ele>
        <time>2024-06-16T06:44:48Z</time>
      </trkpt>
      <trkpt lat="46.64398" lon="6.28096">
        <ele>1070.6</ele>
        <time>2024-06-16T06:44:49Z</time>
      </trkpt>
      <trkpt lat="46.64399" lon="6.28094">
        <ele>1071.2</ele>
        <time>2024-06-16T06:44:50Z</time>
      </trkpt>
      <trkpt lat="46.644" lon="6.28092">
        <ele>1071.7</ele>
        <time>2024-06-16T06:44:51Z</time>
      </trkpt>
      <trkpt lat="46.64401" lon="6.2809">
        <ele>1072.1</ele>
        <time>2024-06-16T06:44:52Z</time>
      </trkpt>
      <trkpt lat="46.64402" lon="6.28089">
        <ele>1072.5</ele>
        <time>2024-06-16T06:44:52Z</time>
      </trkpt>
      <trkpt lat="46.64403" lon="6.28087">
        <ele>1072.9</ele>
        <time>2024-06-16T06:44:53Z</time>
      </trkpt>
      <trkpt lat="46.64404" lon="6.28085">
        <ele>1073.2</ele>
        <time>2024-06-16T06:44:54Z</time>
      </trkpt>
      <trkpt lat="46.64405" lon="6.28084">
        <ele>1073.8</ele>
        <time>2024-06-16T06:44:55Z</time>
      </trkpt>
      <trkpt lat="46.64406" lon="6.28082">
        <ele>1074.3</ele>
        <time>2024-06-16T06:44:56Z</time>
      </trkpt>
      <trkpt lat="46.64407" lon="6.28081">
        <ele>1074.7</ele>
        <time>2024-06-16T06:44:57Z</time>
      </trkpt>
      <trkpt lat="46.64407" lon="6.28078">
        <ele>1074.8</ele>
        <time>2024-06-16T06:44:58Z</time>
      </trkpt>
      <trkpt lat="46.64408" lon="6.28076">
        <ele>1075.1</ele>
        <time>2024-06-16T06:44:59Z</time>
      </trkpt>
      <trkpt lat="46.64409" lon="6.28074">
        <ele>1075.4</ele>
        <time>2024-06-16T06:45:00Z</time>
      </trkpt>
      <trkpt lat="46.64409" lon="6.28071">
        <ele>1075.8</ele>
        <time>2024-06-16T06:45:01Z</time>
      </trkpt>
      <trkpt lat="46.6441" lon="6.28069">
        <ele>1076.2</ele>
        <time>2024-06-16T06:45:02Z</time>
      </trkpt>
      <trkpt lat="46.64411" lon="6.28067">
        <ele>1076.4</ele>
        <time>2024-06-16T06:45:03Z</time>
      </trkpt>
      <trkpt lat="46.64411" lon="6.28064">
        <ele>1076.3</ele>
        <time>2024-06-16T06:45:04Z</time>
      </trkpt>
      <trkpt lat="46.64412" lon="6.28062">
        <ele>1076.4</ele>
        <time>2024-06-16T06:45:05Z</time>
      </trkpt>
      <trkpt lat="46.64412" lon="6.2806">
        <ele>1076.5</ele>
        <time>2024-06-16T06:45:06Z</time>
      </trkpt>
      <trkpt lat="46.64412" lon="6.28058">
        <ele>1076.5</ele>
        <time>2024-06-16T06:45:07Z</time>
      </trkpt>
      <trkpt lat="46.64412" lon="6.28056">
        <ele>1076.5</ele>
        <time>2024-06-16T06:45:08Z</time>
      </trkpt>
      <trkpt lat="46.64412" lon="6.28054">
        <ele>1076.3</ele>
        <time>2024-06-16T06:45:09Z</time>
      </trkpt>
      <trkpt lat="46.64412" lon="6.28052">
        <ele>1076.1</ele>
        <time>2024-06-16T06:45:10Z</time>
      </trkpt>
      <trkpt lat="46.64411" lon="6.28049">
        <ele>1075.8</ele>
        <time>2024-06-16T06:45:11Z</time>
      </trkpt>
      <trkpt lat="46.64411" lon="6.28047">
        <ele>1075.4</ele>
        <time>2024-06-16T06:45:12Z</time>
      </trkpt>
      <trkpt lat="46.6441" lon="6.28045">
        <ele>1075.2</ele>
        <time>2024-06-16T06:45:13Z</time>
      </trkpt>
      <trkpt lat="46.6441" lon="6.28043">
        <ele>1074.8</ele>
        <time>2024-06-16T06:45:14Z</time>
      </trkpt>
      <trkpt lat="46.64409" lon="6.2804">
        <ele>1074.4</ele>
        <time>2024-06-16T06:45:15Z</time>
      </trkpt>
      <trkpt lat="46.64408" lon="6.28038">
        <ele>1074.1</ele>
        <time>2024-06-16T06:45:16Z</time>
      </trkpt>
      <trkpt lat="46.64407" lon="6.28036">
        <ele>1073.9</ele>
        <time>2024-06-16T06:45:17Z</time>
      </trkpt>
      <trkpt lat="46.64406" lon="6.28034">
        <ele>1073.7</ele>
        <time>2024-06-16T06:45:18Z</time>
      </trkpt>
      <trkpt lat="46.64405" lon="6.28032">
        <ele>1073.6</ele>
        <time>2024-06-16T06:45:19Z</time>
      </trkpt>
      <trkpt lat="46.64404" lon="6.2803">
        <ele>1073.4</ele>
        <time>2024-06-16T06:45:20Z</time>
      </trkpt>
      <trkpt lat="46.64403" lon="6.28028">
        <ele>1073.3</ele>
        <time>2024-06-16T06:45:21Z</time>
      </trkpt>
      <trkpt lat="46.64402" lon="6.28026">
        <ele>1073.3</ele>
        <time>2024-06-16T06:45:22Z</time>
      </trkpt>
      <trkpt lat="46.644" lon="6.28024">
        <ele>1073.4</ele>
        <time>2024-06-16T06:45:23Z</time>
      </trkpt>
      <trkpt lat="46.64399" lon="6.28022">
        <ele>1073.5</ele>
        <time>2024-06-16T06:45:24Z</time>
      </trkpt>
      <trkpt lat="46.64398" lon="6.28021">
        <ele>1073.6</ele>
        <time>2024-06-16T06:45:25Z</time>
      </trkpt>
      <trkpt lat="46.64397" lon="6.28019">
        <ele>1073.7</ele>
        <time>2024-06-16T06:45:26Z</time>
      </trkpt>
      <trkpt lat="46.64396" lon="6.28018">
        <ele>1073.8</ele>
        <time>2024-06-16T06:45:27Z</time>
      </trkpt>
      <trkpt lat="46.64395" lon="6.28016">
        <ele>1074</ele>
        <time>2024-06-16T06:45:28Z</time>
      </trkpt>
      <trkpt lat="46.64394" lon="6.28015">
        <ele>1074.3</ele>
        <time>2024-06-16T06:45:29Z</time>
      </trkpt>
      <trkpt lat="46.64393" lon="6.28013">
        <ele>1074.5</ele>
        <time>2024-06-16T06:45:30Z</time>
      </trkpt>
      <trkpt lat="46.64392" lon="6.28011">
        <ele>1074.8</ele>
        <time>2024-06-16T06:45:31Z</time>
      </trkpt>
      <trkpt lat="46.64391" lon="6.2801">
        <ele>1075</ele>
        <time>2024-06-16T06:45:32Z</time>
      </trkpt>
      <trkpt lat="46.64389" lon="6.28008">
        <ele>1075.3</ele>
        <time>2024-06-16T06:45:33Z</time>
      </trkpt>
      <trkpt lat="46.64388" lon="6.28007">
        <ele>1075.5</ele>
        <time>2024-06-16T06:45:34Z</time>
      </trkpt>
      <trkpt lat="46.64387" lon="6.28006">
        <ele>1075.9</ele>
        <time>2024-06-16T06:45:35Z</time>
      </trkpt>
      <trkpt lat="46.64387" lon="6.28004">
        <ele>1076.2</ele>
        <time>2024-06-16T06:45:36Z</time>
      </trkpt>
      <trkpt lat="46.64385" lon="6.28003">
        <ele>1076.5</ele>
        <time>2024-06-16T06:45:37Z</time>
      </trkpt>
      <trkpt lat="46.64385" lon="6.28002">
        <ele>1076.7</ele>
        <time>2024-06-16T06:45:38Z</time>
      </trkpt>
      <trkpt lat="46.64384" lon="6.28001">
        <ele>1076.9</ele>
        <time>2024-06-16T06:45:39Z</time>
      </trkpt>
      <trkpt lat="46.64382" lon="6.27999">
        <ele>1077.1</ele>
        <time>2024-06-16T06:45:40Z</time>
      </trkpt>
      <trkpt lat="46.64381" lon="6.27999">
        <ele>1077.3</ele>
        <time>2024-06-16T06:45:41Z</time>
      </trkpt>
      <trkpt lat="46.6438" lon="6.27997">
        <ele>1077.7</ele>
        <time>2024-06-16T06:45:42Z</time>
      </trkpt>
      <trkpt lat="46.64379" lon="6.27996">
        <ele>1078</ele>
        <time>2024-06-16T06:45:43Z</time>
      </trkpt>
      <trkpt lat="46.64378" lon="6.27995">
        <ele>1078.3</ele>
        <time>2024-06-16T06:45:44Z</time>
      </trkpt>
      <trkpt lat="46.64377" lon="6.27994">
        <ele>1078.6</ele>
        <time>2024-06-16T06:45:45Z</time>
      </trkpt>
      <trkpt lat="46.64375" lon="6.27993">
        <ele>1078.9</ele>
        <time>2024-06-16T06:45:46Z</time>
      </trkpt>
      <trkpt lat="46.64374" lon="6.27992">
        <ele>1079.3</ele>
        <time>2024-06-16T06:45:47Z</time>
      </trkpt>
      <trkpt lat="46.64373" lon="6.27991">
        <ele>1079.6</ele>
        <time>2024-06-16T06:45:48Z</time>
      </trkpt>
      <trkpt lat="46.64372" lon="6.2799">
        <ele>1079.9</ele>
        <time>2024-06-16T06:45:49Z</time>
      </trkpt>
      <trkpt lat="46.64371" lon="6.27989">
        <ele>1080</ele>
        <time>2024-06-16T06:45:50Z</time>
      </trkpt>
      <trkpt lat="46.6437" lon="6.27988">
        <ele>1080.3</ele>
        <time>2024-06-16T06:45:51Z</time>
      </trkpt>
      <trkpt lat="46.64369" lon="6.27987">
        <ele>1080.5</ele>
        <time>2024-06-16T06:45:52Z</time>
      </trkpt>
      <trkpt lat="46.64368" lon="6.27987">
        <ele>1080.7</ele>
        <time>2024-06-16T06:45:53Z</time>
      </trkpt>
      <trkpt lat="46.64367" lon="6.27986">
        <ele>1081.1</ele>
        <time>2024-06-16T06:45:54Z</time>
      </trkpt>
      <trkpt lat="46.64366" lon="6.27985">
        <ele>1081.5</ele>
        <time>2024-06-16T06:45:55Z</time>
      </trkpt>
      <trkpt lat="46.64366" lon="6.27985">
        <ele>1082</ele>
        <time>2024-06-16T06:45:56Z</time>
      </trkpt>
      <trkpt lat="46.64365" lon="6.27984">
        <ele>1082.5</ele>
        <time>2024-06-16T06:45:57Z</time>
      </trkpt>
      <trkpt lat="46.64364" lon="6.27984">
        <ele>1083</ele>
        <time>2024-06-16T06:45:58Z</time>
      </trkpt>
      <trkpt lat="46.64363" lon="6.27984">
        <ele>1083.3</ele>
        <time>2024-06-16T06:45:59Z</time>
      </trkpt>
      <trkpt lat="46.64362" lon="6.27983">
        <ele>1083.6</ele>
        <time>2024-06-16T06:46:00Z</time>
      </trkpt>
      <trkpt lat="46.64361" lon="6.27983">
        <ele>1083.9</ele>
        <time>2024-06-16T06:46:01Z</time>
      </trkpt>
      <trkpt lat="46.64359" lon="6.27983">
        <ele>1084.2</ele>
        <time>2024-06-16T06:46:02Z</time>
      </trkpt>
      <trkpt lat="46.64358" lon="6.27982">
        <ele>1084.4</ele>
        <time>2024-06-16T06:46:03Z</time>
      </trkpt>
      <trkpt lat="46.64357" lon="6.27982">
        <ele>1084.5</ele>
        <time>2024-06-16T06:46:04Z</time>
      </trkpt>
      <trkpt lat="46.64356" lon="6.27982">
        <ele>1084.8</ele>
        <time>2024-06-16T06:46:05Z</time>
      </trkpt>
      <trkpt lat="46.64354" lon="6.27981">
        <ele>1085.1</ele>
        <time>2024-06-16T06:46:06Z</time>
      </trkpt>
      <trkpt lat="46.64353" lon="6.27981">
        <ele>1085.3</ele>
        <time>2024-06-16T06:46:07Z</time>
      </trkpt>
      <trkpt lat="46.64352" lon="6.2798">
        <ele>1085.6</ele>
        <time>2024-06-16T06:46:08Z</time>
      </trkpt>
      <trkpt lat="46.64351" lon="6.2798">
        <ele>1085.8</ele>
        <time>2024-06-16T06:46:09Z</time>
      </trkpt>
      <trkpt lat="46.6435" lon="6.2798">
        <ele>1085.9</ele>
        <time>2024-06-16T06:46:10Z</time>
      </trkpt>
      <trkpt lat="46.64349" lon="6.27979">
        <ele>1086</ele>
        <time>2024-06-16T06:46:11Z</time>
      </trkpt>
      <trkpt lat="46.64348" lon="6.27979">
        <ele>1086.3</ele>
        <time>2024-06-16T06:46:12Z</time>
      </trkpt>
      <trkpt lat="46.64346" lon="6.27979">
        <ele>1086.6</ele>
        <time>2024-06-16T06:46:13Z</time>
      </trkpt>
      <trkpt lat="46.64345" lon="6.27979">
        <ele>1087.1</ele>
        <time>2024-06-16T06:46:14Z</time>
      </trkpt>
      <trkpt lat="46.64344" lon="6.27979">
        <ele>1087.5</ele>
        <time>2024-06-16T06:46:15Z</time>
      </trkpt>
      <trkpt lat="46.64343" lon="6.27979">
        <ele>1087.9</ele>
        <time>2024-06-16T06:46:16Z</time>
      </trkpt>
      <trkpt lat="46.64342" lon="6.27978">
        <ele>1088.3</ele>
        <time>2024-06-16T06:46:17Z</time>
      </trkpt>
      <trkpt lat="46.64341" lon="6.27978">
        <ele>1088.6</ele>
        <time>2024-06-16T06:46:18Z</time>
      </trkpt>
      <trkpt lat="46.6434" lon="6.27977">
        <ele>1088.9</ele>
        <time>2024-06-16T06:46:19Z</time>
      </trkpt>
      <trkpt lat="46.64338" lon="6.27976">
        <ele>1089.2</ele>
        <time>2024-06-16T06:46:20Z</time>
      </trkpt>
      <trkpt lat="46.64337" lon="6.27975">
        <ele>1089.6</ele>
        <time>2024-06-16T06:46:21Z</time>
      </trkpt>
      <trkpt lat="46.64336" lon="6.27974">
        <ele>1089.9</ele>
        <time>2024-06-16T06:46:22Z</time>
      </trkpt>
      <trkpt lat="46.64335" lon="6.27973">
        <ele>1090.1</ele>
        <time>2024-06-16T06:46:23Z</time>
      </trkpt>
      <trkpt lat="46.64334" lon="6.27971">
        <ele>1090.4</ele>
        <time>2024-06-16T06:46:24Z</time>
      </trkpt>
      <trkpt lat="46.64333" lon="6.2797">
        <ele>1090.6</ele>
        <time>2024-06-16T06:46:25Z</time>
      </trkpt>
      <trkpt lat="46.64332" lon="6.27968">
        <ele>1090.9</ele>
        <time>2024-06-16T06:46:26Z</time>
      </trkpt>
      <trkpt lat="46.6433" lon="6.27966">
        <ele>1091.2</ele>
        <time>2024-06-16T06:46:27Z</time>
      </trkpt>
      <trkpt lat="46.64329" lon="6.27965">
        <ele>1091.4</ele>
        <time>2024-06-16T06:46:28Z</time>
      </trkpt>
      <trkpt lat="46.64328" lon="6.27963">
        <ele>1091.5</ele>
        <time>2024-06-16T06:46:29Z</time>
      </trkpt>
      <trkpt lat="46.64327" lon="6.27961">
        <ele>1091.6</ele>
        <time>2024-06-16T06:46:30Z</time>
      </trkpt>
      <trkpt lat="46.64326" lon="6.27958">
        <ele>1091.7</ele>
        <time>2024-06-16T06:46:31Z</time>
      </trkpt>
      <trkpt lat="46.64325" lon="6.27956">
        <ele>1091.7</ele>
        <time>2024-06-16T06:46:32Z</time>
      </trkpt>
      <trkpt lat="46.64324" lon="6.27953">
        <ele>1091.6</ele>
        <time>2024-06-16T06:46:33Z</time>
      </trkpt>
      <trkpt lat="46.64323" lon="6.2795">
        <ele>1091.5</ele>
        <time>2024-06-16T06:46:34Z</time>
      </trkpt>
      <trkpt lat="46.64322" lon="6.27948">
        <ele>1091.4</ele>
        <time>2024-06-16T06:46:35Z</time>
      </trkpt>
      <trkpt lat="46.6432" lon="6.27945">
        <ele>1091.3</ele>
        <time>2024-06-16T06:46:36Z</time>
      </trkpt>
      <trkpt lat="46.64319" lon="6.27942">
        <ele>1091.2</ele>
        <time>2024-06-16T06:46:37Z</time>
      </trkpt>
      <trkpt lat="46.64317" lon="6.27939">
        <ele>1091</ele>
        <time>2024-06-16T06:46:38Z</time>
      </trkpt>
      <trkpt lat="46.64316" lon="6.27936">
        <ele>1091</ele>
        <time>2024-06-16T06:46:39Z</time>
      </trkpt>
      <trkpt lat="46.64315" lon="6.27932">
        <ele>1091</ele>
        <time>2024-06-16T06:46:40Z</time>
      </trkpt>
      <trkpt lat="46.64313" lon="6.27929">
        <ele>1091</ele>
        <time>2024-06-16T06:46:41Z</time>
      </trkpt>
      <trkpt lat="46.64311" lon="6.27927">
        <ele>1091.1</ele>
        <time>2024-06-16T06:46:43Z</time>
      </trkpt>
      <trkpt lat="46.64309" lon="6.27925">
        <ele>1091.2</ele>
        <time>2024-06-16T06:46:44Z</time>
      </trkpt>
      <trkpt lat="46.64307" lon="6.27922">
        <ele>1091.1</ele>
        <time>2024-06-16T06:46:45Z</time>
      </trkpt>
      <trkpt lat="46.64304" lon="6.27919">
        <ele>1090.8</ele>
        <time>2024-06-16T06:46:46Z</time>
      </trkpt>
      <trkpt lat="46.64303" lon="6.27916">
        <ele>1090.5</ele>
        <time>2024-06-16T06:46:47Z</time>
      </trkpt>
      <trkpt lat="46.643" lon="6.27914">
        <ele>1089.9</ele>
        <time>2024-06-16T06:46:48Z</time>
      </trkpt>
      <trkpt lat="46.64298" lon="6.27911">
        <ele>1089.3</ele>
        <time>2024-06-16T06:46:49Z</time>
      </trkpt>
      <trkpt lat="46.64296" lon="6.27908">
        <ele>1088.8</ele>
        <time>2024-06-16T06:46:50Z</time>
      </trkpt>
      <trkpt lat="46.64294" lon="6.27905">
        <ele>1088.4</ele>
        <time>2024-06-16T06:46:51Z</time>
      </trkpt>
      <trkpt lat="46.64291" lon="6.27902">
        <ele>1087.9</ele>
        <time>2024-06-16T06:46:52Z</time>
      </trkpt>
      <trkpt lat="46.64289" lon="6.27899">
        <ele>1087.3</ele>
        <time>2024-06-16T06:46:53Z</time>
      </trkpt>
      <trkpt lat="46.64287" lon="6.27895">
        <ele>1086.6</ele>
        <time>2024-06-16T06:46:54Z</time>
      </trkpt>
      <trkpt lat="46.64285" lon="6.27892">
        <ele>1086</ele>
        <time>2024-06-16T06:46:55Z</time>
      </trkpt>
      <trkpt lat="46.64283" lon="6.27889">
        <ele>1085.5</ele>
        <time>2024-06-16T06:46:56Z</time>
      </trkpt>
      <trkpt lat="46.64281" lon="6.27886">
        <ele>1085.1</ele>
        <time>2024-06-16T06:46:57Z</time>
      </trkpt>
      <trkpt lat="46.64279" lon="6.27884">
        <ele>1084.8</ele>
        <time>2024-06-16T06:46:58Z</time>
      </trkpt>
      <trkpt lat="46.64278" lon="6.27881">
        <ele>1084.5</ele>
        <time>2024-06-16T06:46:59Z</time>
      </trkpt>
      <trkpt lat="46.64276" lon="6.27878">
        <ele>1084.2</ele>
        <time>2024-06-16T06:47:00Z</time>
      </trkpt>
      <trkpt lat="46.64274" lon="6.27875">
        <ele>1084.1</ele>
        <time>2024-06-16T06:47:00Z</time>
      </trkpt>
      <trkpt lat="46.64272" lon="6.27872">
        <ele>1084</ele>
        <time>2024-06-16T06:47:01Z</time>
      </trkpt>
      <trkpt lat="46.64271" lon="6.2787">
        <ele>1083.9</ele>
        <time>2024-06-16T06:47:02Z</time>
      </trkpt>
      <trkpt lat="46.64269" lon="6.27867">
        <ele>1083.8</ele>
        <time>2024-06-16T06:47:03Z</time>
      </trkpt>
      <trkpt lat="46.64267" lon="6.27864">
        <ele>1083.9</ele>
        <time>2024-06-16T06:47:04Z</time>
      </trkpt>
      <trkpt lat="46.64265" lon="6.27862">
        <ele>1084.2</ele>
        <time>2024-06-16T06:47:05Z</time>
      </trkpt>
      <trkpt lat="46.64262" lon="6.27861">
        <ele>1084.5</ele>
        <time>2024-06-16T06:47:06Z</time>
      </trkpt>
      <trkpt lat="46.6426" lon="6.27859">
        <ele>1084.7</ele>
        <time>2024-06-16T06:47:07Z</time>
      </trkpt>
      <trkpt lat="46.64258" lon="6.27856">
        <ele>1084.9</ele>
        <time>2024-06-16T06:47:08Z</time>
      </trkpt>
      <trkpt lat="46.64256" lon="6.27854">
        <ele>1085.1</ele>
        <time>2024-06-16T06:47:09Z</time>
      </trkpt>
      <trkpt lat="46.64254" lon="6.27851">
        <ele>1085.2</ele>
        <time>2024-06-16T06:47:10Z</time>
      </trkpt>
      <trkpt lat="46.64253" lon="6.27848">
        <ele>1085.2</ele>
        <time>2024-06-16T06:47:11Z</time>
      </trkpt>
      <trkpt lat="46.64251" lon="6.27846">
        <ele>1085.2</ele>
        <time>2024-06-16T06:47:12Z</time>
      </trkpt>
      <trkpt lat="46.64249" lon="6.27843">
        <ele>1085</ele>
        <time>2024-06-16T06:47:13Z</time>
      </trkpt>
      <trkpt lat="46.64247" lon="6.2784">
        <ele>1084.8</ele>
        <time>2024-06-16T06:47:14Z</time>
      </trkpt>
      <trkpt lat="46.64245" lon="6.27837">
        <ele>1084.8</ele>
        <time>2024-06-16T06:47:15Z</time>
      </trkpt>
      <trkpt lat="46.64244" lon="6.27834">
        <ele>1084.7</ele>
        <time>2024-06-16T06:47:16Z</time>
      </trkpt>
      <trkpt lat="46.64243" lon="6.27832">
        <ele>1084.8</ele>
        <time>2024-06-16T06:47:17Z</time>
      </trkpt>
      <trkpt lat="46.64242" lon="6.27829">
        <ele>1085</ele>
        <time>2024-06-16T06:47:18Z</time>
      </trkpt>
      <trkpt lat="46.64241" lon="6.27826">
        <ele>1085</ele>
        <time>2024-06-16T06:47:19Z</time>
      </trkpt>
      <trkpt lat="46.6424" lon="6.27823">
        <ele>1085.1</ele>
        <time>2024-06-16T06:47:20Z</time>
      </trkpt>
      <trkpt lat="46.64238" lon="6.27821">
        <ele>1085.1</ele>
        <time>2024-06-16T06:47:21Z</time>
      </trkpt>
      <trkpt lat="46.64237" lon="6.27818">
        <ele>1085.2</ele>
        <time>2024-06-16T06:47:22Z</time>
      </trkpt>
      <trkpt lat="46.64235" lon="6.27816">
        <ele>1085.2</ele>
        <time>2024-06-16T06:47:23Z</time>
      </trkpt>
      <trkpt lat="46.64234" lon="6.27814">
        <ele>1085.1</ele>
        <time>2024-06-16T06:47:24Z</time>
      </trkpt>
      <trkpt lat="46.64232" lon="6.27811">
        <ele>1085.1</ele>
        <time>2024-06-16T06:47:25Z</time>
      </trkpt>
      <trkpt lat="46.64231" lon="6.27809">
        <ele>1085.3</ele>
        <time>2024-06-16T06:47:26Z</time>
      </trkpt>
      <trkpt lat="46.64229" lon="6.27806">
        <ele>1085.3</ele>
        <time>2024-06-16T06:47:27Z</time>
      </trkpt>
      <trkpt lat="46.64228" lon="6.27803">
        <ele>1085.2</ele>
        <time>2024-06-16T06:47:28Z</time>
      </trkpt>
      <trkpt lat="46.64226" lon="6.278">
        <ele>1085</ele>
        <time>2024-06-16T06:47:29Z</time>
      </trkpt>
      <trkpt lat="46.64224" lon="6.27797">
        <ele>1084.8</ele>
        <time>2024-06-16T06:47:30Z</time>
      </trkpt>
      <trkpt lat="46.64223" lon="6.27794">
        <ele>1084.8</ele>
        <time>2024-06-16T06:47:31Z</time>
      </trkpt>
      <trkpt lat="46.64221" lon="6.27791">
        <ele>1084.9</ele>
        <time>2024-06-16T06:47:32Z</time>
      </trkpt>
      <trkpt lat="46.64219" lon="6.27788">
        <ele>1084.8</ele>
        <time>2024-06-16T06:47:33Z</time>
      </trkpt>
      <trkpt lat="46.64218" lon="6.27786">
        <ele>1084.9</ele>
        <time>2024-06-16T06:47:34Z</time>
      </trkpt>
      <trkpt lat="46.64216" lon="6.27784">
        <ele>1084.9</ele>
        <time>2024-06-16T06:47:35Z</time>
      </trkpt>
      <trkpt lat="46.64215" lon="6.27781">
        <ele>1084.8</ele>
        <time>2024-06-16T06:47:36Z</time>
      </trkpt>
      <trkpt lat="46.64214" lon="6.27779">
        <ele>1084.6</ele>
        <time>2024-06-16T06:47:37Z</time>
      </trkpt>
      <trkpt lat="46.64212" lon="6.27776">
        <ele>1084.5</ele>
        <time>2024-06-16T06:47:38Z</time>
      </trkpt>
      <trkpt lat="46.6421" lon="6.27774">
        <ele>1084.1</ele>
        <time>2024-06-16T06:47:39Z</time>
      </trkpt>
      <trkpt lat="46.64208" lon="6.27771">
        <ele>1083.6</ele>
        <time>2024-06-16T06:47:40Z</time>
      </trkpt>
      <trkpt lat="46.64207" lon="6.27769">
        <ele>1083.2</ele>
        <time>2024-06-16T06:47:41Z</time>
      </trkpt>
      <trkpt lat="46.64205" lon="6.27767">
        <ele>1082.9</ele>
        <time>2024-06-16T06:47:42Z</time>
      </trkpt>
      <trkpt lat="46.64203" lon="6.27764">
        <ele>1082.6</ele>
        <time>2024-06-16T06:47:43Z</time>
      </trkpt>
      <trkpt lat="46.64201" lon="6.27762">
        <ele>1082.2</ele>
        <time>2024-06-16T06:47:44Z</time>
      </trkpt>
      <trkpt lat="46.64199" lon="6.2776">
        <ele>1082</ele>
        <time>2024-06-16T06:47:45Z</time>
      </trkpt>
      <trkpt lat="46.64197" lon="6.27758">
        <ele>1081.9</ele>
        <time>2024-06-16T06:47:46Z</time>
      </trkpt>
      <trkpt lat="46.64195" lon="6.27756">
        <ele>1082</ele>
        <time>2024-06-16T06:47:47Z</time>
      </trkpt>
      <trkpt lat="46.64194" lon="6.27754">
        <ele>1082</ele>
        <time>2024-06-16T06:47:48Z</time>
      </trkpt>
      <trkpt lat="46.64192" lon="6.27752">
        <ele>1082</ele>
        <time>2024-06-16T06:47:49Z</time>
      </trkpt>
      <trkpt lat="46.64191" lon="6.27751">
        <ele>1081.9</ele>
        <time>2024-06-16T06:47:50Z</time>
      </trkpt>
      <trkpt lat="46.6419" lon="6.27749">
        <ele>1081.8</ele>
        <time>2024-06-16T06:47:51Z</time>
      </trkpt>
      <trkpt lat="46.64188" lon="6.27747">
        <ele>1081.6</ele>
        <time>2024-06-16T06:47:52Z</time>
      </trkpt>
      <trkpt lat="46.64187" lon="6.27745">
        <ele>1081.5</ele>
        <time>2024-06-16T06:47:53Z</time>
      </trkpt>
      <trkpt lat="46.64186" lon="6.27742">
        <ele>1081.5</ele>
        <time>2024-06-16T06:47:54Z</time>
      </trkpt>
      <trkpt lat="46.64185" lon="6.2774">
        <ele>1081.5</ele>
        <time>2024-06-16T06:47:55Z</time>
      </trkpt>
      <trkpt lat="46.64183" lon="6.27739">
        <ele>1081.3</ele>
        <time>2024-06-16T06:47:56Z</time>
      </trkpt>
      <trkpt lat="46.64181" lon="6.27737">
        <ele>1081.2</ele>
        <time>2024-06-16T06:47:57Z</time>
      </trkpt>
      <trkpt lat="46.64179" lon="6.27736">
        <ele>1081</ele>
        <time>2024-06-16T06:47:58Z</time>
      </trkpt>
      <trkpt lat="46.64178" lon="6.27734">
        <ele>1080.7</ele>
        <time>2024-06-16T06:47:59Z</time>
      </trkpt>
      <trkpt lat="46.64176" lon="6.27733">
        <ele>1080.6</ele>
        <time>2024-06-16T06:48:00Z</time>
      </trkpt>
      <trkpt lat="46.64174" lon="6.27731">
        <ele>1080.4</ele>
        <time>2024-06-16T06:48:01Z</time>
      </trkpt>
      <trkpt lat="46.64173" lon="6.27729">
        <ele>1080.2</ele>
        <time>2024-06-16T06:48:02Z</time>
      </trkpt>
      <trkpt lat="46.64172" lon="6.27727">
        <ele>1080</ele>
        <time>2024-06-16T06:48:03Z</time>
      </trkpt>
      <trkpt lat="46.6417" lon="6.27726">
        <ele>1079.7</ele>
        <time>2024-06-16T06:48:04Z</time>
      </trkpt>
      <trkpt lat="46.64169" lon="6.27724">
        <ele>1079.4</ele>
        <time>2024-06-16T06:48:05Z</time>
      </trkpt>
      <trkpt lat="46.64167" lon="6.27721">
        <ele>1079.2</ele>
        <time>2024-06-16T06:48:06Z</time>
      </trkpt>
      <trkpt lat="46.64166" lon="6.27719">
        <ele>1079.1</ele>
        <time>2024-06-16T06:48:07Z</time>
      </trkpt>
      <trkpt lat="46.64165" lon="6.27717">
        <ele>1078.8</ele>
        <time>2024-06-16T06:48:08Z</time>
      </trkpt>
      <trkpt lat="46.64163" lon="6.27714">
        <ele>1078.7</ele>
        <time>2024-06-16T06:48:09Z</time>
      </trkpt>
      <trkpt lat="46.64162" lon="6.27711">
        <ele>1078.6</ele>
        <time>2024-06-16T06:48:10Z</time>
      </trkpt>
      <trkpt lat="46.6416" lon="6.27708">
        <ele>1078.6</ele>
        <time>2024-06-16T06:48:11Z</time>
      </trkpt>
      <trkpt lat="46.64159" lon="6.27704">
        <ele>1078.6</ele>
        <time>2024-06-16T06:48:12Z</time>
      </trkpt>
      <trkpt lat="46.64158" lon="6.27701">
        <ele>1078.6</ele>
        <time>2024-06-16T06:48:13Z</time>
      </trkpt>
      <trkpt lat="46.64156" lon="6.27697">
        <ele>1078.8</ele>
        <time>2024-06-16T06:48:14Z</time>
      </trkpt>
      <trkpt lat="46.64155" lon="6.27694">
        <ele>1079</ele>
        <time>2024-06-16T06:48:15Z</time>
      </trkpt>
      <trkpt lat="46.64153" lon="6.2769">
        <ele>1079.1</ele>
        <time>2024-06-16T06:48:16Z</time>
      </trkpt>
      <trkpt lat="46.64152" lon="6.27686">
        <ele>1079.1</ele>
        <time>2024-06-16T06:48:17Z</time>
      </trkpt>
      <trkpt lat="46.64149" lon="6.27683">
        <ele>1079.1</ele>
        <time>2024-06-16T06:48:18Z</time>
      </trkpt>
      <trkpt lat="46.64147" lon="6.2768">
        <ele>1079.2</ele>
        <time>2024-06-16T06:48:19Z</time>
      </trkpt>
      <trkpt lat="46.64146" lon="6.27677">
        <ele>1079.4</ele>
        <time>2024-06-16T06:48:20Z</time>
      </trkpt>
      <trkpt lat="46.64144" lon="6.27673">
        <ele>1079.5</ele>
        <time>2024-06-16T06:48:21Z</time>
      </trkpt>
      <trkpt lat="46.64142" lon="6.2767">
        <ele>1079.7</ele>
        <time>2024-06-16T06:48:22Z</time>
      </trkpt>
      <trkpt lat="46.6414" lon="6.27666">
        <ele>1079.9</ele>
        <time>2024-06-16T06:48:23Z</time>
      </trkpt>
      <trkpt lat="46.64138" lon="6.27662">
        <ele>1080</ele>
        <time>2024-06-16T06:48:24Z</time>
      </trkpt>
      <trkpt lat="46.64136" lon="6.27657">
        <ele>1079.9</ele>
        <time>2024-06-16T06:48:25Z</time>
      </trkpt>
      <trkpt lat="46.64133" lon="6.27653">
        <ele>1079.9</ele>
        <time>2024-06-16T06:48:26Z</time>
      </trkpt>
      <trkpt lat="46.6413" lon="6.27648">
        <ele>1079.4</ele>
        <time>2024-06-16T06:48:27Z</time>
      </trkpt>
      <trkpt lat="46.64126" lon="6.27643">
        <ele>1078.9</ele>
        <time>2024-06-16T06:48:28Z</time>
      </trkpt>
      <trkpt lat="46.64122" lon="6.27637">
        <ele>1078.6</ele>
        <time>2024-06-16T06:48:29Z</time>
      </trkpt>
      <trkpt lat="46.64117" lon="6.27631">
        <ele>1078.3</ele>
        <time>2024-06-16T06:48:30Z</time>
      </trkpt>
      <trkpt lat="46.64113" lon="6.27625">
        <ele>1077.9</ele>
        <time>2024-06-16T06:48:31Z</time>
      </trkpt>
      <trkpt lat="46.64109" lon="6.27619">
        <ele>1077.6</ele>
        <time>2024-06-16T06:48:32Z</time>
      </trkpt>
      <trkpt lat="46.64105" lon="6.27614">
        <ele>1077.3</ele>
        <time>2024-06-16T06:48:33Z</time>
      </trkpt>
      <trkpt lat="46.64101" lon="6.2761">
        <ele>1076.9</ele>
        <time>2024-06-16T06:48:34Z</time>
      </trkpt>
      <trkpt lat="46.64097" lon="6.27605">
        <ele>1076.5</ele>
        <time>2024-06-16T06:48:35Z</time>
      </trkpt>
      <trkpt lat="46.64093" lon="6.27601">
        <ele>1076.3</ele>
        <time>2024-06-16T06:48:36Z</time>
      </trkpt>
      <trkpt lat="46.64089" lon="6.27596">
        <ele>1075.9</ele>
        <time>2024-06-16T06:48:37Z</time>
      </trkpt>
      <trkpt lat="46.64085" lon="6.27591">
        <ele>1075.3</ele>
        <time>2024-06-16T06:48:38Z</time>
      </trkpt>
      <trkpt lat="46.64082" lon="6.27586">
        <ele>1074.8</ele>
        <time>2024-06-16T06:48:39Z</time>
      </trkpt>
      <trkpt lat="46.64079" lon="6.2758">
        <ele>1074.3</ele>
        <time>2024-06-16T06:48:40Z</time>
      </trkpt>
      <trkpt lat="46.64075" lon="6.27574">
        <ele>1073.8</ele>
        <time>2024-06-16T06:48:41Z</time>
      </trkpt>
      <trkpt lat="46.64072" lon="6.27569">
        <ele>1073.3</ele>
        <time>2024-06-16T06:48:42Z</time>
      </trkpt>
      <trkpt lat="46.64069" lon="6.27564">
        <ele>1072.8</ele>
        <time>2024-06-16T06:48:43Z</time>
      </trkpt>
      <trkpt lat="46.64065" lon="6.2756">
        <ele>1072.4</ele>
        <time>2024-06-16T06:48:44Z</time>
      </trkpt>
      <trkpt lat="46.64061" lon="6.27555">
        <ele>1071.9</ele>
        <time>2024-06-16T06:48:45Z</time>
      </trkpt>
      <trkpt lat="46.64058" lon="6.2755">
        <ele>1071.4</ele>
        <time>2024-06-16T06:48:46Z</time>
      </trkpt>
      <trkpt lat="46.64054" lon="6.27544">
        <ele>1071</ele>
        <time>2024-06-16T06:48:47Z</time>
      </trkpt>
      <trkpt lat="46.6405" lon="6.27539">
        <ele>1070.7</ele>
        <time>2024-06-16T06:48:49Z</time>
      </trkpt>
      <trkpt lat="46.64047" lon="6.27533">
        <ele>1070.6</ele>
        <time>2024-06-16T06:48:50Z</time>
      </trkpt>
      <trkpt lat="46.64043" lon="6.27527">
        <ele>1070.5</ele>
        <time>2024-06-16T06:48:51Z</time>
      </trkpt>
      <trkpt lat="46.6404" lon="6.27521">
        <ele>1070.2</ele>
        <time>2024-06-16T06:48:52Z</time>
      </trkpt>
      <trkpt lat="46.64036" lon="6.27515">
        <ele>1070.1</ele>
        <time>2024-06-16T06:48:53Z</time>
      </trkpt>
      <trkpt lat="46.64033" lon="6.27509">
        <ele>1069.8</ele>
        <time>2024-06-16T06:48:54Z</time>
      </trkpt>
      <trkpt lat="46.6403" lon="6.27502">
        <ele>1069.8</ele>
        <time>2024-06-16T06:48:55Z</time>
      </trkpt>
      <trkpt lat="46.64028" lon="6.27495">
        <ele>1069.9</ele>
        <time>2024-06-16T06:48:56Z</time>
      </trkpt>
      <trkpt lat="46.64026" lon="6.27489">
        <ele>1070</ele>
        <time>2024-06-16T06:48:57Z</time>
      </trkpt>
      <trkpt lat="46.64024" lon="6.27483">
        <ele>1070.5</ele>
        <time>2024-06-16T06:48:58Z</time>
      </trkpt>
      <trkpt lat="46.64023" lon="6.27478">
        <ele>1070.9</ele>
        <time>2024-06-16T06:48:59Z</time>
      </trkpt>
      <trkpt lat="46.64022" lon="6.27474">
        <ele>1071.4</ele>
        <time>2024-06-16T06:49:00Z</time>
      </trkpt>
      <trkpt lat="46.64022" lon="6.2747">
        <ele>1071.7</ele>
        <time>2024-06-16T06:49:01Z</time>
      </trkpt>
      <trkpt lat="46.64021" lon="6.27467">
        <ele>1072.2</ele>
        <time>2024-06-16T06:49:02Z</time>
      </trkpt>
      <trkpt lat="46.6402" lon="6.27465">
        <ele>1072.7</ele>
        <time>2024-06-16T06:49:03Z</time>
      </trkpt>
      <trkpt lat="46.64018" lon="6.27462">
        <ele>1073.2</ele>
        <time>2024-06-16T06:49:04Z</time>
      </trkpt>
      <trkpt lat="46.64017" lon="6.27459">
        <ele>1073.7</ele>
        <time>2024-06-16T06:49:05Z</time>
      </trkpt>
      <trkpt lat="46.64015" lon="6.27456">
        <ele>1074.1</ele>
        <time>2024-06-16T06:49:05Z</time>
      </trkpt>
      <trkpt lat="46.64013" lon="6.27453">
        <ele>1074.4</ele>
        <time>2024-06-16T06:49:06Z</time>
      </trkpt>
      <trkpt lat="46.64011" lon="6.2745">
        <ele>1074.4</ele>
        <time>2024-06-16T06:49:07Z</time>
      </trkpt>
      <trkpt lat="46.64009" lon="6.27446">
        <ele>1074.3</ele>
        <time>2024-06-16T06:49:08Z</time>
      </trkpt>
      <trkpt lat="46.64007" lon="6.27443">
        <ele>1074.3</ele>
        <time>2024-06-16T06:49:09Z</time>
      </trkpt>
      <trkpt lat="46.64005" lon="6.27438">
        <ele>1074.2</ele>
        <time>2024-06-16T06:49:10Z</time>
      </trkpt>
      <trkpt lat="46.64002" lon="6.27433">
        <ele>1074.4</ele>
        <time>2024-06-16T06:49:11Z</time>
      </trkpt>
      <trkpt lat="46.64" lon="6.27428">
        <ele>1074.8</ele>
        <time>2024-06-16T06:49:12Z</time>
      </trkpt>
      <trkpt lat="46.63997" lon="6.27422">
        <ele>1075.1</ele>
        <time>2024-06-16T06:49:13Z</time>
      </trkpt>
      <trkpt lat="46.63994" lon="6.27416">
        <ele>1075.2</ele>
        <time>2024-06-16T06:49:14Z</time>
      </trkpt>
      <trkpt lat="46.63991" lon="6.2741">
        <ele>1075.6</ele>
        <time>2024-06-16T06:49:15Z</time>
      </trkpt>
      <trkpt lat="46.63988" lon="6.27404">
        <ele>1075.6</ele>
        <time>2024-06-16T06:49:16Z</time>
      </trkpt>
      <trkpt lat="46.63984" lon="6.27397">
        <ele>1075.4</ele>
        <time>2024-06-16T06:49:17Z</time>
      </trkpt>
      <trkpt lat="46.63981" lon="6.27389">
        <ele>1075.3</ele>
        <time>2024-06-16T06:49:18Z</time>
      </trkpt>
      <trkpt lat="46.63978" lon="6.27381">
        <ele>1074.9</ele>
        <time>2024-06-16T06:49:19Z</time>
      </trkpt>
      <trkpt lat="46.63976" lon="6.27372">
        <ele>1074.2</ele>
        <time>2024-06-16T06:49:20Z</time>
      </trkpt>
      <trkpt lat="46.63975" lon="6.27364">
        <ele>1073</ele>
        <time>2024-06-16T06:49:21Z</time>
      </trkpt>
      <trkpt lat="46.63973" lon="6.27356">
        <ele>1071.7</ele>
        <time>2024-06-16T06:49:22Z</time>
      </trkpt>
      <trkpt lat="46.63972" lon="6.27348">
        <ele>1070.2</ele>
        <time>2024-06-16T06:49:23Z</time>
      </trkpt>
      <trkpt lat="46.6397" lon="6.2734">
        <ele>1068.7</ele>
        <time>2024-06-16T06:49:24Z</time>
      </trkpt>
      <trkpt lat="46.63969" lon="6.27332">
        <ele>1067.2</ele>
        <time>2024-06-16T06:49:25Z</time>
      </trkpt>
      <trkpt lat="46.63969" lon="6.27324">
        <ele>1066</ele>
        <time>2024-06-16T06:49:26Z</time>
      </trkpt>
      <trkpt lat="46.63967" lon="6.27316">
        <ele>1064.7</ele>
        <time>2024-06-16T06:49:27Z</time>
      </trkpt>
      <trkpt lat="46.63964" lon="6.27309">
        <ele>1063.4</ele>
        <time>2024-06-16T06:49:28Z</time>
      </trkpt>
      <trkpt lat="46.63962" lon="6.27302">
        <ele>1062</ele>
        <time>2024-06-16T06:49:29Z</time>
      </trkpt>
      <trkpt lat="46.63961" lon="6.27294">
        <ele>1060.5</ele>
        <time>2024-06-16T06:49:30Z</time>
      </trkpt>
      <trkpt lat="46.6396" lon="6.27285">
        <ele>1059.7</ele>
        <time>2024-06-16T06:49:31Z</time>
      </trkpt>
      <trkpt lat="46.63959" lon="6.27277">
        <ele>1059.1</ele>
        <time>2024-06-16T06:49:32Z</time>
      </trkpt>
      <trkpt lat="46.63956" lon="6.27268">
        <ele>1058.6</ele>
        <time>2024-06-16T06:49:33Z</time>
      </trkpt>
      <trkpt lat="46.63954" lon="6.2726">
        <ele>1058</ele>
        <time>2024-06-16T06:49:34Z</time>
      </trkpt>
      <trkpt lat="46.63951" lon="6.27253">
        <ele>1057.8</ele>
        <time>2024-06-16T06:49:35Z</time>
      </trkpt>
      <trkpt lat="46.63948" lon="6.27246">
        <ele>1057.9</ele>
        <time>2024-06-16T06:49:36Z</time>
      </trkpt>
      <trkpt lat="46.63945" lon="6.27238">
        <ele>1057.9</ele>
        <time>2024-06-16T06:49:37Z</time>
      </trkpt>
      <trkpt lat="46.63942" lon="6.27231">
        <ele>1057.9</ele>
        <time>2024-06-16T06:49:38Z</time>
      </trkpt>
      <trkpt lat="46.63939" lon="6.27224">
        <ele>1057.9</ele>
        <time>2024-06-16T06:49:39Z</time>
      </trkpt>
      <trkpt lat="46.63936" lon="6.27217">
        <ele>1058</ele>
        <time>2024-06-16T06:49:40Z</time>
      </trkpt>
      <trkpt lat="46.63933" lon="6.2721">
        <ele>1057.9</ele>
        <time>2024-06-16T06:49:41Z</time>
      </trkpt>
      <trkpt lat="46.63931" lon="6.27203">
        <ele>1057.5</ele>
        <time>2024-06-16T06:49:42Z</time>
      </trkpt>
      <trkpt lat="46.63928" lon="6.27196">
        <ele>1057.2</ele>
        <time>2024-06-16T06:49:43Z</time>
      </trkpt>
      <trkpt lat="46.63926" lon="6.27189">
        <ele>1056.9</ele>
        <time>2024-06-16T06:49:44Z</time>
      </trkpt>
      <trkpt lat="46.63924" lon="6.27182">
        <ele>1056.6</ele>
        <time>2024-06-16T06:49:45Z</time>
      </trkpt>
      <trkpt lat="46.63923" lon="6.27177">
        <ele>1056.3</ele>
        <time>2024-06-16T06:49:46Z</time>
      </trkpt>
      <trkpt lat="46.63921" lon="6.27171">
        <ele>1056.1</ele>
        <time>2024-06-16T06:49:47Z</time>
      </trkpt>
      <trkpt lat="46.6392" lon="6.27162">
        <ele>1056.2</ele>
        <time>2024-06-16T06:49:48Z</time>
      </trkpt>
      <trkpt lat="46.63919" lon="6.27154">
        <ele>1056.5</ele>
        <time>2024-06-16T06:49:49Z</time>
      </trkpt>
      <trkpt lat="46.63917" lon="6.27148">
        <ele>1056.9</ele>
        <time>2024-06-16T06:49:50Z</time>
      </trkpt>
      <trkpt lat="46.63916" lon="6.27143">
        <ele>1057.3</ele>
        <time>2024-06-16T06:49:51Z</time>
      </trkpt>
      <trkpt lat="46.63915" lon="6.2714">
        <ele>1057.8</ele>
        <time>2024-06-16T06:49:52Z</time>
      </trkpt>
      <trkpt lat="46.63914" lon="6.27137">
        <ele>1058.1</ele>
        <time>2024-06-16T06:49:53Z</time>
      </trkpt>
      <trkpt lat="46.63913" lon="6.27136">
        <ele>1058.2</ele>
        <time>2024-06-16T06:49:54Z</time>
      </trkpt>
      <trkpt lat="46.63912" lon="6.27136">
        <ele>1058.3</ele>
        <time>2024-06-16T06:49:55Z</time>
      </trkpt>
      <trkpt lat="46.63911" lon="6.27136">
        <ele>1058.4</ele>
        <time>2024-06-16T06:49:56Z</time>
      </trkpt>
      <trkpt lat="46.63911" lon="6.27135">
        <ele>1058.5</ele>
        <time>2024-06-16T06:49:57Z</time>
      </trkpt>
      <trkpt lat="46.63911" lon="6.27135">
        <ele>1058.4</ele>
        <time>2024-06-16T06:49:58Z</time>
      </trkpt>
      <trkpt lat="46.63912" lon="6.27134">
        <ele>1058.4</ele>
        <time>2024-06-16T06:49:59Z</time>
      </trkpt>
      <trkpt lat="46.63913" lon="6.27133">
        <ele>1058.4</ele>
        <time>2024-06-16T06:50:00Z</time>
      </trkpt>
      <trkpt lat="46.63914" lon="6.27133">
        <ele>1058.5</ele>
        <time>2024-06-16T06:50:01Z</time>
      </trkpt>
      <trkpt lat="46.63916" lon="6.27132">
        <ele>1058.4</ele>
        <time>2024-06-16T06:50:02Z</time>
      </trkpt>
      <trkpt lat="46.63918" lon="6.27132">
        <ele>1058.5</ele>
        <time>2024-06-16T06:50:03Z</time>
      </trkpt>
      <trkpt lat="46.63921" lon="6.27132">
        <ele>1058.6</ele>
        <time>2024-06-16T06:50:04Z</time>
      </trkpt>
      <trkpt lat="46.63923" lon="6.27133">
        <ele>1058.6</ele>
        <time>2024-06-16T06:50:05Z</time>
      </trkpt>
      <trkpt lat="46.63926" lon="6.27134">
        <ele>1058.5</ele>
        <time>2024-06-16T06:50:06Z</time>
      </trkpt>
      <trkpt lat="46.63929" lon="6.27135">
        <ele>1058.3</ele>
        <time>2024-06-16T06:50:07Z</time>
      </trkpt>
      <trkpt lat="46.63931" lon="6.27135">
        <ele>1058.2</ele>
        <time>2024-06-16T06:50:08Z</time>
      </trkpt>
      <trkpt lat="46.63933" lon="6.27134">
        <ele>1058.1</ele>
        <time>2024-06-16T06:50:09Z</time>
      </trkpt>
      <trkpt lat="46.63935" lon="6.27133">
        <ele>1058.1</ele>
        <time>2024-06-16T06:50:10Z</time>
      </trkpt>
      <trkpt lat="46.63936" lon="6.27131">
        <ele>1058.3</ele>
        <time>2024-06-16T06:50:11Z</time>
      </trkpt>
      <trkpt lat="46.63937" lon="6.27129">
        <ele>1058.6</ele>
        <time>2024-06-16T06:50:12Z</time>
      </trkpt>
      <trkpt lat="46.63937" lon="6.27127">
        <ele>1058.8</ele>
        <time>2024-06-16T06:50:13Z</time>
      </trkpt>
      <trkpt lat="46.63936" lon="6.27125">
        <ele>1059</ele>
        <time>2024-06-16T06:50:14Z</time>
      </trkpt>
      <trkpt lat="46.63936" lon="6.27123">
        <ele>1059.4</ele>
        <time>2024-06-16T06:50:15Z</time>
      </trkpt>
      <trkpt lat="46.63934" lon="6.27122">
        <ele>1059.7</ele>
        <time>2024-06-16T06:50:16Z</time>
      </trkpt>
      <trkpt lat="46.63933" lon="6.2712">
        <ele>1059.9</ele>
        <time>2024-06-16T06:50:17Z</time>
      </trkpt>
      <trkpt lat="46.63932" lon="6.27119">
        <ele>1060.2</ele>
        <time>2024-06-16T06:50:18Z</time>
      </trkpt>
      <trkpt lat="46.6393" lon="6.27118">
        <ele>1060.5</ele>
        <time>2024-06-16T06:50:19Z</time>
      </trkpt>
      <trkpt lat="46.63929" lon="6.27118">
        <ele>1060.8</ele>
        <time>2024-06-16T06:50:20Z</time>
      </trkpt>
      <trkpt lat="46.63928" lon="6.27118">
        <ele>1061</ele>
        <time>2024-06-16T06:50:21Z</time>
      </trkpt>
      <trkpt lat="46.63927" lon="6.27118">
        <ele>1061</ele>
        <time>2024-06-16T06:50:22Z</time>
      </trkpt>
      <trkpt lat="46.63926" lon="6.27118">
        <ele>1061</ele>
        <time>2024-06-16T06:50:23Z</time>
      </trkpt>
      <trkpt lat="46.63925" lon="6.27118">
        <ele>1061.1</ele>
        <time>2024-06-16T06:50:24Z</time>
      </trkpt>
      <trkpt lat="46.63924" lon="6.27119">
        <ele>1061.2</ele>
        <time>2024-06-16T06:50:25Z</time>
      </trkpt>
      <trkpt lat="46.63923" lon="6.27119">
        <ele>1061.4</ele>
        <time>2024-06-16T06:50:26Z</time>
      </trkpt>
      <trkpt lat="46.63922" lon="6.27118">
        <ele>1061.6</ele>
        <time>2024-06-16T06:50:27Z</time>
      </trkpt>
      <trkpt lat="46.63922" lon="6.27118">
        <ele>1061.9</ele>
        <time>2024-06-16T06:50:28Z</time>
      </trkpt>
      <trkpt lat="46.63921" lon="6.27117">
        <ele>1061.9</ele>
        <time>2024-06-16T06:50:29Z</time>
      </trkpt>
      <trkpt lat="46.63921" lon="6.27117">
        <ele>1062</ele>
        <time>2024-06-16T06:50:30Z</time>
      </trkpt>
      <trkpt lat="46.6392" lon="6.27117">
        <ele>1062.2</ele>
        <time>2024-06-16T06:50:31Z</time>
      </trkpt>
      <trkpt lat="46.6392" lon="6.27116">
        <ele>1062.2</ele>
        <time>2024-06-16T06:50:32Z</time>
      </trkpt>
      <trkpt lat="46.6392" lon="6.27116">
        <ele>1062.1</ele>
        <time>2024-06-16T06:50:33Z</time>
      </trkpt>
      <trkpt lat="46.63919" lon="6.27116">
        <ele>1061.9</ele>
        <time>2024-06-16T06:50:34Z</time>
      </trkpt>
      <trkpt lat="46.63919" lon="6.27116">
        <ele>1061.7</ele>
        <time>2024-06-16T06:50:35Z</time>
      </trkpt>
      <trkpt lat="46.63919" lon="6.27116">
        <ele>1061.4</ele>
        <time>2024-06-16T06:50:36Z</time>
      </trkpt>
      <trkpt lat="46.63919" lon="6.27116">
        <ele>1061.2</ele>
        <time>2024-06-16T06:50:37Z</time>
      </trkpt>
      <trkpt lat="46.63919" lon="6.27115">
        <ele>1061.1</ele>
        <time>2024-06-16T06:50:38Z</time>
      </trkpt>
      <trkpt lat="46.63919" lon="6.27114">
        <ele>1061.1</ele>
        <time>2024-06-16T06:50:39Z</time>
      </trkpt>
      <trkpt lat="46.63919" lon="6.27112">
        <ele>1061.1</ele>
        <time>2024-06-16T06:50:40Z</time>
      </trkpt>
      <trkpt lat="46.63918" lon="6.27111">
        <ele>1061.2</ele>
        <time>2024-06-16T06:50:41Z</time>
      </trkpt>
      <trkpt lat="46.63918" lon="6.27109">
        <ele>1061.3</ele>
        <time>2024-06-16T06:50:42Z</time>
      </trkpt>
      <trkpt lat="46.63917" lon="6.27107">
        <ele>1061.4</ele>
        <time>2024-06-16T06:50:43Z</time>
      </trkpt>
      <trkpt lat="46.63916" lon="6.27105">
        <ele>1061.5</ele>
        <time>2024-06-16T06:50:44Z</time>
      </trkpt>
      <trkpt lat="46.63914" lon="6.27103">
        <ele>1061.7</ele>
        <time>2024-06-16T06:50:45Z</time>
      </trkpt>
      <trkpt lat="46.63913" lon="6.27102">
        <ele>1062.1</ele>
        <time>2024-06-16T06:50:46Z</time>
      </trkpt>
      <trkpt lat="46.63911" lon="6.27101">
        <ele>1062.5</ele>
        <time>2024-06-16T06:50:47Z</time>
      </trkpt>
      <trkpt lat="46.6391" lon="6.271">
        <ele>1062.9</ele>
        <time>2024-06-16T06:50:48Z</time>
      </trkpt>
      <trkpt lat="46.63908" lon="6.27099">
        <ele>1063.2</ele>
        <time>2024-06-16T06:50:49Z</time>
      </trkpt>
      <trkpt lat="46.63907" lon="6.27099">
        <ele>1063.5</ele>
        <time>2024-06-16T06:50:50Z</time>
      </trkpt>
      <trkpt lat="46.63906" lon="6.27098">
        <ele>1063.8</ele>
        <time>2024-06-16T06:50:51Z</time>
      </trkpt>
      <trkpt lat="46.63904" lon="6.27096">
        <ele>1064.1</ele>
        <time>2024-06-16T06:50:52Z</time>
      </trkpt>
      <trkpt lat="46.63903" lon="6.27095">
        <ele>1064.4</ele>
        <time>2024-06-16T06:50:53Z</time>
      </trkpt>
      <trkpt lat="46.63901" lon="6.27094">
        <ele>1064.7</ele>
        <time>2024-06-16T06:50:54Z</time>
      </trkpt>
      <trkpt lat="46.639" lon="6.27092">
        <ele>1064.9</ele>
        <time>2024-06-16T06:50:55Z</time>
      </trkpt>
      <trkpt lat="46.63898" lon="6.27091">
        <ele>1065.2</ele>
        <time>2024-06-16T06:50:56Z</time>
      </trkpt>
      <trkpt lat="46.63897" lon="6.27089">
        <ele>1065.4</ele>
        <time>2024-06-16T06:50:57Z</time>
      </trkpt>
      <trkpt lat="46.63896" lon="6.27087">
        <ele>1065.5</ele>
        <time>2024-06-16T06:50:58Z</time>
      </trkpt>
      <trkpt lat="46.63895" lon="6.27085">
        <ele>1065.7</ele>
        <time>2024-06-16T06:50:59Z</time>
      </trkpt>
      <trkpt lat="46.63894" lon="6.27082">
        <ele>1065.9</ele>
        <time>2024-06-16T06:51:00Z</time>
      </trkpt>
      <trkpt lat="46.63893" lon="6.2708">
        <ele>1066.2</ele>
        <time>2024-06-16T06:51:01Z</time>
      </trkpt>
      <trkpt lat="46.63892" lon="6.27077">
        <ele>1066.4</ele>
        <time>2024-06-16T06:51:02Z</time>
      </trkpt>
      <trkpt lat="46.6389" lon="6.27075">
        <ele>1066.6</ele>
        <time>2024-06-16T06:51:03Z</time>
      </trkpt>
      <trkpt lat="46.63889" lon="6.27072">
        <ele>1066.7</ele>
        <time>2024-06-16T06:51:04Z</time>
      </trkpt>
      <trkpt lat="46.63888" lon="6.27069">
        <ele>1066.8</ele>
        <time>2024-06-16T06:51:05Z</time>
      </trkpt>
      <trkpt lat="46.63887" lon="6.27066">
        <ele>1067</ele>
        <time>2024-06-16T06:51:06Z</time>
      </trkpt>
      <trkpt lat="46.63885" lon="6.27063">
        <ele>1067.2</ele>
        <time>2024-06-16T06:51:07Z</time>
      </trkpt>
      <trkpt lat="46.63884" lon="6.27061">
        <ele>1067.5</ele>
        <time>2024-06-16T06:51:08Z</time>
      </trkpt>
      <trkpt lat="46.63882" lon="6.27058">
        <ele>1067.9</ele>
        <time>2024-06-16T06:51:09Z</time>
      </trkpt>
      <trkpt lat="46.63881" lon="6.27056">
        <ele>1068.2</ele>
        <time>2024-06-16T06:51:10Z</time>
      </trkpt>
      <trkpt lat="46.63879" lon="6.27054">
        <ele>1068.5</ele>
        <time>2024-06-16T06:51:11Z</time>
      </trkpt>
      <trkpt lat="46.63877" lon="6.27052">
        <ele>1068.7</ele>
        <time>2024-06-16T06:51:12Z</time>
      </trkpt>
      <trkpt lat="46.63876" lon="6.2705">
        <ele>1068.8</ele>
        <time>2024-06-16T06:51:13Z</time>
      </trkpt>
      <trkpt lat="46.63875" lon="6.27048">
        <ele>1069</ele>
        <time>2024-06-16T06:51:14Z</time>
      </trkpt>
      <trkpt lat="46.63874" lon="6.27046">
        <ele>1069.1</ele>
        <time>2024-06-16T06:51:15Z</time>
      </trkpt>
      <trkpt lat="46.63872" lon="6.27044">
        <ele>1069.5</ele>
        <time>2024-06-16T06:51:16Z</time>
      </trkpt>
      <trkpt lat="46.63871" lon="6.27043">
        <ele>1069.7</ele>
        <time>2024-06-16T06:51:17Z</time>
      </trkpt>
      <trkpt lat="46.63869" lon="6.27042">
        <ele>1069.9</ele>
        <time>2024-06-16T06:51:18Z</time>
      </trkpt>
      <trkpt lat="46.63868" lon="6.27041">
        <ele>1070.2</ele>
        <time>2024-06-16T06:51:19Z</time>
      </trkpt>
      <trkpt lat="46.63866" lon="6.2704">
        <ele>1070.6</ele>
        <time>2024-06-16T06:51:20Z</time>
      </trkpt>
      <trkpt lat="46.63865" lon="6.27039">
        <ele>1070.6</ele>
        <time>2024-06-16T06:51:21Z</time>
      </trkpt>
      <trkpt lat="46.63863" lon="6.27038">
        <ele>1070.6</ele>
        <time>2024-06-16T06:51:22Z</time>
      </trkpt>
      <trkpt lat="46.63862" lon="6.27036">
        <ele>1070.6</ele>
        <time>2024-06-16T06:51:23Z</time>
      </trkpt>
      <trkpt lat="46.6386" lon="6.27036">
        <ele>1070.7</ele>
        <time>2024-06-16T06:51:24Z</time>
      </trkpt>
      <trkpt lat="46.63859" lon="6.27035">
        <ele>1070.6</ele>
        <time>2024-06-16T06:51:25Z</time>
      </trkpt>
      <trkpt lat="46.63857" lon="6.27034">
        <ele>1070.7</ele>
        <time>2024-06-16T06:51:26Z</time>
      </trkpt>
      <trkpt lat="46.63855" lon="6.27033">
        <ele>1070.5</ele>
        <time>2024-06-16T06:51:27Z</time>
      </trkpt>
      <trkpt lat="46.63853" lon="6.27033">
        <ele>1070.1</ele>
        <time>2024-06-16T06:51:28Z</time>
      </trkpt>
      <trkpt lat="46.63851" lon="6.27032">
        <ele>1069.8</ele>
        <time>2024-06-16T06:51:29Z</time>
      </trkpt>
      <trkpt lat="46.63848" lon="6.27031">
        <ele>1069.6</ele>
        <time>2024-06-16T06:51:30Z</time>
      </trkpt>
      <trkpt lat="46.63846" lon="6.2703">
        <ele>1069.8</ele>
        <time>2024-06-16T06:51:31Z</time>
      </trkpt>
      <trkpt lat="46.63843" lon="6.27028">
        <ele>1070</ele>
        <time>2024-06-16T06:51:32Z</time>
      </trkpt>
      <trkpt lat="46.6384" lon="6.27026">
        <ele>1070.2</ele>
        <time>2024-06-16T06:51:33Z</time>
      </trkpt>
      <trkpt lat="46.63838" lon="6.27023">
        <ele>1070.6</ele>
        <time>2024-06-16T06:51:34Z</time>
      </trkpt>
      <trkpt lat="46.63835" lon="6.27021">
        <ele>1071.2</ele>
        <time>2024-06-16T06:51:35Z</time>
      </trkpt>
      <trkpt lat="46.63833" lon="6.27019">
        <ele>1071.7</ele>
        <time>2024-06-16T06:51:36Z</time>
      </trkpt>
      <trkpt lat="46.63831" lon="6.27016">
        <ele>1072.1</ele>
        <time>2024-06-16T06:51:37Z</time>
      </trkpt>
      <trkpt lat="46.63829" lon="6.27014">
        <ele>1072.4</ele>
        <time>2024-06-16T06:51:38Z</time>
      </trkpt>
      <trkpt lat="46.63827" lon="6.27012">
        <ele>1072.5</ele>
        <time>2024-06-16T06:51:39Z</time>
      </trkpt>
      <trkpt lat="46.63825" lon="6.2701">
        <ele>1072.6</ele>
        <time>2024-06-16T06:51:40Z</time>
      </trkpt>
      <trkpt lat="46.63823" lon="6.27009">
        <ele>1072.7</ele>
        <time>2024-06-16T06:51:41Z</time>
      </trkpt>
      <trkpt lat="46.6382" lon="6.27008">
        <ele>1072.9</ele>
        <time>2024-06-16T06:51:42Z</time>
      </trkpt>
      <trkpt lat="46.63818" lon="6.27008">
        <ele>1073.1</ele>
        <time>2024-06-16T06:51:43Z</time>
      </trkpt>
      <trkpt lat="46.63817" lon="6.27007">
        <ele>1073.3</ele>
        <time>2024-06-16T06:51:44Z</time>
      </trkpt>
      <trkpt lat="46.63815" lon="6.27007">
        <ele>1073.3</ele>
        <time>2024-06-16T06:51:45Z</time>
      </trkpt>
      <trkpt lat="46.63813" lon="6.27005">
        <ele>1073.2</ele>
        <time>2024-06-16T06:51:46Z</time>
      </trkpt>
      <trkpt lat="46.63812" lon="6.27004">
        <ele>1073.1</ele>
        <time>2024-06-16T06:51:47Z</time>
      </trkpt>
      <trkpt lat="46.63811" lon="6.27003">
        <ele>1072.9</ele>
        <time>2024-06-16T06:51:48Z</time>
      </trkpt>
      <trkpt lat="46.63809" lon="6.27001">
        <ele>1072.7</ele>
        <time>2024-06-16T06:51:49Z</time>
      </trkpt>
      <trkpt lat="46.63807" lon="6.27">
        <ele>1072.5</ele>
        <time>2024-06-16T06:51:50Z</time>
      </trkpt>
      <trkpt lat="46.63806" lon="6.26999">
        <ele>1072.5</ele>
        <time>2024-06-16T06:51:51Z</time>
      </trkpt>
      <trkpt lat="46.63804" lon="6.26997">
        <ele>1072.5</ele>
        <time>2024-06-16T06:51:52Z</time>
      </trkpt>
      <trkpt lat="46.63802" lon="6.26995">
        <ele>1072.4</ele>
        <time>2024-06-16T06:51:53Z</time>
      </trkpt>
      <trkpt lat="46.63801" lon="6.26994">
        <ele>1072.3</ele>
        <time>2024-06-16T06:51:54Z</time>
      </trkpt>
      <trkpt lat="46.63799" lon="6.26991">
        <ele>1072.2</ele>
        <time>2024-06-16T06:51:55Z</time>
      </trkpt>
      <trkpt lat="46.63797" lon="6.26989">
        <ele>1072.2</ele>
        <time>2024-06-16T06:51:56Z</time>
      </trkpt>
      <trkpt lat="46.63795" lon="6.26987">
        <ele>1072.2</ele>
        <time>2024-06-16T06:51:57Z</time>
      </trkpt>
      <trkpt lat="46.63793" lon="6.26985">
        <ele>1072.1</ele>
        <time>2024-06-16T06:51:58Z</time>
      </trkpt>
      <trkpt lat="46.63792" lon="6.26982">
        <ele>1072</ele>
        <time>2024-06-16T06:51:59Z</time>
      </trkpt>
      <trkpt lat="46.6379" lon="6.26979">
        <ele>1071.9</ele>
        <time>2024-06-16T06:52:00Z</time>
      </trkpt>
      <trkpt lat="46.63789" lon="6.26976">
        <ele>1071.7</ele>
        <time>2024-06-16T06:52:01Z</time>
      </trkpt>
      <trkpt lat="46.63788" lon="6.26972">
        <ele>1071.6</ele>
        <time>2024-06-16T06:52:02Z</time>
      </trkpt>
      <trkpt lat="46.63786" lon="6.26969">
        <ele>1071.4</ele>
        <time>2024-06-16T06:52:03Z</time>
      </trkpt>
      <trkpt lat="46.63784" lon="6.26966">
        <ele>1071.2</ele>
        <time>2024-06-16T06:52:04Z</time>
      </trkpt>
      <trkpt lat="46.63781" lon="6.26962">
        <ele>1071</ele>
        <time>2024-06-16T06:52:05Z</time>
      </trkpt>
      <trkpt lat="46.63779" lon="6.26958">
        <ele>1070.9</ele>
        <time>2024-06-16T06:52:06Z</time>
      </trkpt>
      <trkpt lat="46.63778" lon="6.26954">
        <ele>1070.7</ele>
        <time>2024-06-16T06:52:07Z</time>
      </trkpt>
      <trkpt lat="46.63776" lon="6.26951">
        <ele>1070.5</ele>
        <time>2024-06-16T06:52:08Z</time>
      </trkpt>
      <trkpt lat="46.63774" lon="6.26948">
        <ele>1070.3</ele>
        <time>2024-06-16T06:52:09Z</time>
      </trkpt>
      <trkpt lat="46.63773" lon="6.26945">
        <ele>1070.3</ele>
        <time>2024-06-16T06:52:10Z</time>
      </trkpt>
      <trkpt lat="46.63771" lon="6.26942">
        <ele>1070.5</ele>
        <time>2024-06-16T06:52:11Z</time>
      </trkpt>
      <trkpt lat="46.6377" lon="6.26939">
        <ele>1070.5</ele>
        <time>2024-06-16T06:52:12Z</time>
      </trkpt>
      <trkpt lat="46.63769" lon="6.26936">
        <ele>1070.6</ele>
        <time>2024-06-16T06:52:13Z</time>
      </trkpt>
      <trkpt lat="46.63768" lon="6.26933">
        <ele>1070.6</ele>
        <time>2024-06-16T06:52:14Z</time>
      </trkpt>
      <trkpt lat="46.63768" lon="6.26929">
        <ele>1070.5</ele>
        <time>2024-06-16T06:52:15Z</time>
      </trkpt>
      <trkpt lat="46.63767" lon="6.26926">
        <ele>1070.3</ele>
        <time>2024-06-16T06:52:16Z</time>
      </trkpt>
      <trkpt lat="46.63767" lon="6.26923">
        <ele>1070</ele>
        <time>2024-06-16T06:52:17Z</time>
      </trkpt>
      <trkpt lat="46.63766" lon="6.2692">
        <ele>1069.6</ele>
        <time>2024-06-16T06:52:18Z</time>
      </trkpt>
      <trkpt lat="46.63765" lon="6.26917">
        <ele>1069.2</ele>
        <time>2024-06-16T06:52:19Z</time>
      </trkpt>
      <trkpt lat="46.63763" lon="6.26915">
        <ele>1069.3</ele>
        <time>2024-06-16T06:52:20Z</time>
      </trkpt>
      <trkpt lat="46.63762" lon="6.26913">
        <ele>1069.2</ele>
        <time>2024-06-16T06:52:21Z</time>
      </trkpt>
      <trkpt lat="46.63761" lon="6.2691">
        <ele>1068.9</ele>
        <time>2024-06-16T06:52:22Z</time>
      </trkpt>
      <trkpt lat="46.63759" lon="6.26907">
        <ele>1068.7</ele>
        <time>2024-06-16T06:52:23Z</time>
      </trkpt>
      <trkpt lat="46.63758" lon="6.26905">
        <ele>1068.4</ele>
        <time>2024-06-16T06:52:24Z</time>
      </trkpt>
      <trkpt lat="46.63757" lon="6.26901">
        <ele>1068.1</ele>
        <time>2024-06-16T06:52:25Z</time>
      </trkpt>
      <trkpt lat="46.63756" lon="6.26898">
        <ele>1067.7</ele>
        <time>2024-06-16T06:52:26Z</time>
      </trkpt>
      <trkpt lat="46.63755" lon="6.26895">
        <ele>1067.6</ele>
        <time>2024-06-16T06:52:27Z</time>
      </trkpt>
      <trkpt lat="46.63754" lon="6.26893">
        <ele>1067.5</ele>
        <time>2024-06-16T06:52:28Z</time>
      </trkpt>
      <trkpt lat="46.63753" lon="6.2689">
        <ele>1067.4</ele>
        <time>2024-06-16T06:52:29Z</time>
      </trkpt>
      <trkpt lat="46.63752" lon="6.26888">
        <ele>1067.4</ele>
        <time>2024-06-16T06:52:30Z</time>
      </trkpt>
      <trkpt lat="46.63751" lon="6.26886">
        <ele>1067.3</ele>
        <time>2024-06-16T06:52:31Z</time>
      </trkpt>
      <trkpt lat="46.6375" lon="6.26884">
        <ele>1067.1</ele>
        <time>2024-06-16T06:52:32Z</time>
      </trkpt>
      <trkpt lat="46.63749" lon="6.26882">
        <ele>1067.2</ele>
        <time>2024-06-16T06:52:33Z</time>
      </trkpt>
      <trkpt lat="46.63747" lon="6.2688">
        <ele>1067.3</ele>
        <time>2024-06-16T06:52:34Z</time>
      </trkpt>
      <trkpt lat="46.63745" lon="6.26878">
        <ele>1067.1</ele>
        <time>2024-06-16T06:52:35Z</time>
      </trkpt>
      <trkpt lat="46.63742" lon="6.26876">
        <ele>1066.9</ele>
        <time>2024-06-16T06:52:36Z</time>
      </trkpt>
      <trkpt lat="46.6374" lon="6.26874">
        <ele>1066.7</ele>
        <time>2024-06-16T06:52:37Z</time>
      </trkpt>
      <trkpt lat="46.63738" lon="6.26871">
        <ele>1066.5</ele>
        <time>2024-06-16T06:52:38Z</time>
      </trkpt>
      <trkpt lat="46.63735" lon="6.26869">
        <ele>1066.6</ele>
        <time>2024-06-16T06:52:39Z</time>
      </trkpt>
      <trkpt lat="46.63733" lon="6.26866">
        <ele>1066.7</ele>
        <time>2024-06-16T06:52:40Z</time>
      </trkpt>
      <trkpt lat="46.6373" lon="6.26863">
        <ele>1066.7</ele>
        <time>2024-06-16T06:52:41Z</time>
      </trkpt>
      <trkpt lat="46.63727" lon="6.2686">
        <ele>1066.6</ele>
        <time>2024-06-16T06:52:42Z</time>
      </trkpt>
      <trkpt lat="46.63725" lon="6.26857">
        <ele>1066.5</ele>
        <time>2024-06-16T06:52:43Z</time>
      </trkpt>
      <trkpt lat="46.63723" lon="6.26854">
        <ele>1066.2</ele>
        <time>2024-06-16T06:52:44Z</time>
      </trkpt>
      <trkpt lat="46.63722" lon="6.26851">
        <ele>1065.9</ele>
        <time>2024-06-16T06:52:45Z</time>
      </trkpt>
      <trkpt lat="46.6372" lon="6.26848">
        <ele>1065.8</ele>
        <time>2024-06-16T06:52:46Z</time>
      </trkpt>
      <trkpt lat="46.63718" lon="6.26846">
        <ele>1065.6</ele>
        <time>2024-06-16T06:52:47Z</time>
      </trkpt>
      <trkpt lat="46.63716" lon="6.26844">
        <ele>1065.4</ele>
        <time>2024-06-16T06:52:48Z</time>
      </trkpt>
      <trkpt lat="46.63714" lon="6.26841">
        <ele>1065.2</ele>
        <time>2024-06-16T06:52:49Z</time>
      </trkpt>
      <trkpt lat="46.63713" lon="6.26838">
        <ele>1065</ele>
        <time>2024-06-16T06:52:50Z</time>
      </trkpt>
      <trkpt lat="46.63711" lon="6.26836">
        <ele>1065</ele>
        <time>2024-06-16T06:52:51Z</time>
      </trkpt>
      <trkpt lat="46.63709" lon="6.26833">
        <ele>1064.9</ele>
        <time>2024-06-16T06:52:52Z</time>
      </trkpt>
      <trkpt lat="46.63708" lon="6.2683">
        <ele>1064.8</ele>
        <time>2024-06-16T06:52:53Z</time>
      </trkpt>
      <trkpt lat="46.63706" lon="6.26828">
        <ele>1064.8</ele>
        <time>2024-06-16T06:52:54Z</time>
      </trkpt>
      <trkpt lat="46.63704" lon="6.26825">
        <ele>1064.8</ele>
        <time>2024-06-16T06:52:55Z</time>
      </trkpt>
      <trkpt lat="46.63703" lon="6.26822">
        <ele>1064.9</ele>
        <time>2024-06-16T06:52:56Z</time>
      </trkpt>
      <trkpt lat="46.63701" lon="6.2682">
        <ele>1065</ele>
        <time>2024-06-16T06:52:57Z</time>
      </trkpt>
      <trkpt lat="46.637" lon="6.26816">
        <ele>1065</ele>
        <time>2024-06-16T06:52:58Z</time>
      </trkpt>
      <trkpt lat="46.63698" lon="6.26813">
        <ele>1065.1</ele>
        <time>2024-06-16T06:52:59Z</time>
      </trkpt>
      <trkpt lat="46.63697" lon="6.2681">
        <ele>1065</ele>
        <time>2024-06-16T06:53:00Z</time>
      </trkpt>
      <trkpt lat="46.63696" lon="6.26806">
        <ele>1064.9</ele>
        <time>2024-06-16T06:53:01Z</time>
      </trkpt>
      <trkpt lat="46.63694" lon="6.26802">
        <ele>1065</ele>
        <time>2024-06-16T06:53:02Z</time>
      </trkpt>
      <trkpt lat="46.63693" lon="6.26798">
        <ele>1064.8</ele>
        <time>2024-06-16T06:53:03Z</time>
      </trkpt>
      <trkpt lat="46.63692" lon="6.26794">
        <ele>1064.7</ele>
        <time>2024-06-16T06:53:04Z</time>
      </trkpt>
      <trkpt lat="46.63691" lon="6.2679">
        <ele>1064.7</ele>
        <time>2024-06-16T06:53:05Z</time>
      </trkpt>
      <trkpt lat="46.6369" lon="6.26786">
        <ele>1064.9</ele>
        <time>2024-06-16T06:53:06Z</time>
      </trkpt>
      <trkpt lat="46.63689" lon="6.26783">
        <ele>1065.1</ele>
        <time>2024-06-16T06:53:07Z</time>
      </trkpt>
      <trkpt lat="46.63688" lon="6.2678">
        <ele>1065.3</ele>
        <time>2024-06-16T06:53:08Z</time>
      </trkpt>
      <trkpt lat="46.63687" lon="6.26777">
        <ele>1065.6</ele>
        <time>2024-06-16T06:53:09Z</time>
      </trkpt>
      <trkpt lat="46.63686" lon="6.26774">
        <ele>1065.8</ele>
        <time>2024-06-16T06:53:11Z</time>
      </trkpt>
      <trkpt lat="46.63685" lon="6.26772">
        <ele>1066.1</ele>
        <time>2024-06-16T06:53:11Z</time>
      </trkpt>
      <trkpt lat="46.63684" lon="6.2677">
        <ele>1066.4</ele>
        <time>2024-06-16T06:53:13Z</time>
      </trkpt>
      <trkpt lat="46.63683" lon="6.26767">
        <ele>1066.8</ele>
        <time>2024-06-16T06:53:14Z</time>
      </trkpt>
      <trkpt lat="46.63682" lon="6.26765">
        <ele>1067.2</ele>
        <time>2024-06-16T06:53:14Z</time>
      </trkpt>
      <trkpt lat="46.63681" lon="6.26762">
        <ele>1067.6</ele>
        <time>2024-06-16T06:53:15Z</time>
      </trkpt>
      <trkpt lat="46.63681" lon="6.2676">
        <ele>1067.9</ele>
        <time>2024-06-16T06:53:16Z</time>
      </trkpt>
      <trkpt lat="46.6368" lon="6.26757">
        <ele>1068.2</ele>
        <time>2024-06-16T06:53:17Z</time>
      </trkpt>
      <trkpt lat="46.63679" lon="6.26755">
        <ele>1068.6</ele>
        <time>2024-06-16T06:53:18Z</time>
      </trkpt>
      <trkpt lat="46.63678" lon="6.26752">
        <ele>1068.9</ele>
        <time>2024-06-16T06:53:19Z</time>
      </trkpt>
      <trkpt lat="46.63677" lon="6.2675">
        <ele>1069.1</ele>
        <time>2024-06-16T06:53:20Z</time>
      </trkpt>
      <trkpt lat="46.63676" lon="6.26747">
        <ele>1069.1</ele>
        <time>2024-06-16T06:53:21Z</time>
      </trkpt>
      <trkpt lat="46.63675" lon="6.26745">
        <ele>1069.2</ele>
        <time>2024-06-16T06:53:22Z</time>
      </trkpt>
      <trkpt lat="46.63674" lon="6.26742">
        <ele>1069.5</ele>
        <time>2024-06-16T06:53:23Z</time>
      </trkpt>
      <trkpt lat="46.63673" lon="6.26739">
        <ele>1069.4</ele>
        <time>2024-06-16T06:53:24Z</time>
      </trkpt>
      <trkpt lat="46.63672" lon="6.26736">
        <ele>1069.5</ele>
        <time>2024-06-16T06:53:25Z</time>
      </trkpt>
      <trkpt lat="46.6367" lon="6.26732">
        <ele>1069.4</ele>
        <time>2024-06-16T06:53:26Z</time>
      </trkpt>
      <trkpt lat="46.63669" lon="6.26729">
        <ele>1069.3</ele>
        <time>2024-06-16T06:53:27Z</time>
      </trkpt>
      <trkpt lat="46.63668" lon="6.26725">
        <ele>1069.1</ele>
        <time>2024-06-16T06:53:28Z</time>
      </trkpt>
      <trkpt lat="46.63667" lon="6.26722">
        <ele>1068.9</ele>
        <time>2024-06-16T06:53:29Z</time>
      </trkpt>
      <trkpt lat="46.63666" lon="6.26718">
        <ele>1068.8</ele>
        <time>2024-06-16T06:53:30Z</time>
      </trkpt>
      <trkpt lat="46.63666" lon="6.26715">
        <ele>1068.6</ele>
        <time>2024-06-16T06:53:31Z</time>
      </trkpt>
      <trkpt lat="46.63665" lon="6.26711">
        <ele>1068.7</ele>
        <time>2024-06-16T06:53:32Z</time>
      </trkpt>
      <trkpt lat="46.63665" lon="6.26708">
        <ele>1068.6</ele>
        <time>2024-06-16T06:53:33Z</time>
      </trkpt>
      <trkpt lat="46.63664" lon="6.26705">
        <ele>1068.5</ele>
        <time>2024-06-16T06:53:34Z</time>
      </trkpt>
      <trkpt lat="46.63663" lon="6.26702">
        <ele>1068.4</ele>
        <time>2024-06-16T06:53:35Z</time>
      </trkpt>
      <trkpt lat="46.63662" lon="6.26699">
        <ele>1068.5</ele>
        <time>2024-06-16T06:53:36Z</time>
      </trkpt>
      <trkpt lat="46.63661" lon="6.26697">
        <ele>1068.6</ele>
        <time>2024-06-16T06:53:37Z</time>
      </trkpt>
      <trkpt lat="46.63661" lon="6.26694">
        <ele>1068.6</ele>
        <time>2024-06-16T06:53:38Z</time>
      </trkpt>
      <trkpt lat="46.6366" lon="6.26692">
        <ele>1068.8</ele>
        <time>2024-06-16T06:53:39Z</time>
      </trkpt>
      <trkpt lat="46.63659" lon="6.2669">
        <ele>1068.8</ele>
        <time>2024-06-16T06:53:40Z</time>
      </trkpt>
      <trkpt lat="46.63659" lon="6.26688">
        <ele>1068.7</ele>
        <time>2024-06-16T06:53:41Z</time>
      </trkpt>
      <trkpt lat="46.63659" lon="6.26685">
        <ele>1068.6</ele>
        <time>2024-06-16T06:53:42Z</time>
      </trkpt>
      <trkpt lat="46.63659" lon="6.26683">
        <ele>1068.7</ele>
        <time>2024-06-16T06:53:43Z</time>
      </trkpt>
      <trkpt lat="46.63659" lon="6.2668">
        <ele>1069</ele>
        <time>2024-06-16T06:53:44Z</time>
      </trkpt>
      <trkpt lat="46.63659" lon="6.26679">
        <ele>1069.2</ele>
        <time>2024-06-16T06:53:45Z</time>
      </trkpt>
      <trkpt lat="46.63659" lon="6.26677">
        <ele>1069.4</ele>
        <time>2024-06-16T06:53:46Z</time>
      </trkpt>
      <trkpt lat="46.63659" lon="6.26675">
        <ele>1069.5</ele>
        <time>2024-06-16T06:53:47Z</time>
      </trkpt>
      <trkpt lat="46.6366" lon="6.26674">
        <ele>1069.8</ele>
        <time>2024-06-16T06:53:48Z</time>
      </trkpt>
      <trkpt lat="46.6366" lon="6.26673">
        <ele>1070</ele>
        <time>2024-06-16T06:53:49Z</time>
      </trkpt>
      <trkpt lat="46.6366" lon="6.26672">
        <ele>1070.1</ele>
        <time>2024-06-16T06:53:50Z</time>
      </trkpt>
      <trkpt lat="46.6366" lon="6.26672">
        <ele>1070.2</ele>
        <time>2024-06-16T06:53:51Z</time>
      </trkpt>
      <trkpt lat="46.6366" lon="6.2667">
        <ele>1070.5</ele>
        <time>2024-06-16T06:53:52Z</time>
      </trkpt>
      <trkpt lat="46.6366" lon="6.26669">
        <ele>1070.8</ele>
        <time>2024-06-16T06:53:53Z</time>
      </trkpt>
      <trkpt lat="46.6366" lon="6.26668">
        <ele>1071.1</ele>
        <time>2024-06-16T06:53:54Z</time>
      </trkpt>
      <trkpt lat="46.63661" lon="6.26666">
        <ele>1071.3</ele>
        <time>2024-06-16T06:53:55Z</time>
      </trkpt>
      <trkpt lat="46.63661" lon="6.26664">
        <ele>1071.6</ele>
        <time>2024-06-16T06:53:56Z</time>
      </trkpt>
      <trkpt lat="46.63661" lon="6.26663">
        <ele>1071.8</ele>
        <time>2024-06-16T06:53:57Z</time>
      </trkpt>
      <trkpt lat="46.63662" lon="6.26661">
        <ele>1072.1</ele>
        <time>2024-06-16T06:53:58Z</time>
      </trkpt>
      <trkpt lat="46.63662" lon="6.26659">
        <ele>1072.6</ele>
        <time>2024-06-16T06:53:59Z</time>
      </trkpt>
      <trkpt lat="46.63661" lon="6.26657">
        <ele>1073</ele>
        <time>2024-06-16T06:54:00Z</time>
      </trkpt>
      <trkpt lat="46.63661" lon="6.26655">
        <ele>1073.3</ele>
        <time>2024-06-16T06:54:01Z</time>
      </trkpt>
      <trkpt lat="46.63661" lon="6.26653">
        <ele>1073.5</ele>
        <time>2024-06-16T06:54:02Z</time>
      </trkpt>
      <trkpt lat="46.63661" lon="6.26651">
        <ele>1073.8</ele>
        <time>2024-06-16T06:54:03Z</time>
      </trkpt>
      <trkpt lat="46.63661" lon="6.26649">
        <ele>1074</ele>
        <time>2024-06-16T06:54:04Z</time>
      </trkpt>
      <trkpt lat="46.63661" lon="6.26647">
        <ele>1074.2</ele>
        <time>2024-06-16T06:54:05Z</time>
      </trkpt>
      <trkpt lat="46.63661" lon="6.26645">
        <ele>1074.2</ele>
        <time>2024-06-16T06:54:06Z</time>
      </trkpt>
      <trkpt lat="46.6366" lon="6.26643">
        <ele>1074.2</ele>
        <time>2024-06-16T06:54:07Z</time>
      </trkpt>
      <trkpt lat="46.6366" lon="6.26641">
        <ele>1074.3</ele>
        <time>2024-06-16T06:54:08Z</time>
      </trkpt>
      <trkpt lat="46.63659" lon="6.2664">
        <ele>1074.5</ele>
        <time>2024-06-16T06:54:09Z</time>
      </trkpt>
      <trkpt lat="46.63659" lon="6.26637">
        <ele>1074.5</ele>
        <time>2024-06-16T06:54:10Z</time>
      </trkpt>
      <trkpt lat="46.63658" lon="6.26635">
        <ele>1074.6</ele>
        <time>2024-06-16T06:54:11Z</time>
      </trkpt>
      <trkpt lat="46.63658" lon="6.26632">
        <ele>1074.7</ele>
        <time>2024-06-16T06:54:12Z</time>
      </trkpt>
      <trkpt lat="46.63657" lon="6.26629">
        <ele>1075</ele>
        <time>2024-06-16T06:54:13Z</time>
      </trkpt>
      <trkpt lat="46.63657" lon="6.26626">
        <ele>1075.5</ele>
        <time>2024-06-16T06:54:14Z</time>
      </trkpt>
      <trkpt lat="46.63656" lon="6.26624">
        <ele>1075.8</ele>
        <time>2024-06-16T06:54:15Z</time>
      </trkpt>
      <trkpt lat="46.63655" lon="6.26621">
        <ele>1076</ele>
        <time>2024-06-16T06:54:16Z</time>
      </trkpt>
      <trkpt lat="46.63655" lon="6.26619">
        <ele>1076.4</ele>
        <time>2024-06-16T06:54:17Z</time>
      </trkpt>
      <trkpt lat="46.63654" lon="6.26617">
        <ele>1076.8</ele>
        <time>2024-06-16T06:54:18Z</time>
      </trkpt>
      <trkpt lat="46.63652" lon="6.26616">
        <ele>1077.2</ele>
        <time>2024-06-16T06:54:19Z</time>
      </trkpt>
      <trkpt lat="46.63651" lon="6.26615">
        <ele>1077.5</ele>
        <time>2024-06-16T06:54:20Z</time>
      </trkpt>
      <trkpt lat="46.6365" lon="6.26613">
        <ele>1077.6</ele>
        <time>2024-06-16T06:54:21Z</time>
      </trkpt>
      <trkpt lat="46.63648" lon="6.26611">
        <ele>1077.7</ele>
        <time>2024-06-16T06:54:22Z</time>
      </trkpt>
      <trkpt lat="46.63646" lon="6.2661">
        <ele>1077.8</ele>
        <time>2024-06-16T06:54:23Z</time>
      </trkpt>
      <trkpt lat="46.63645" lon="6.26608">
        <ele>1077.8</ele>
        <time>2024-06-16T06:54:24Z</time>
      </trkpt>
      <trkpt lat="46.63643" lon="6.26606">
        <ele>1077.8</ele>
        <time>2024-06-16T06:54:25Z</time>
      </trkpt>
      <trkpt lat="46.63642" lon="6.26604">
        <ele>1077.9</ele>
        <time>2024-06-16T06:54:26Z</time>
      </trkpt>
      <trkpt lat="46.6364" lon="6.26602">
        <ele>1078.2</ele>
        <time>2024-06-16T06:54:27Z</time>
      </trkpt>
      <trkpt lat="46.63638" lon="6.266">
        <ele>1078.5</ele>
        <time>2024-06-16T06:54:28Z</time>
      </trkpt>
      <trkpt lat="46.63637" lon="6.26598">
        <ele>1078.6</ele>
        <time>2024-06-16T06:54:29Z</time>
      </trkpt>
      <trkpt lat="46.63635" lon="6.26596">
        <ele>1078.7</ele>
        <time>2024-06-16T06:54:30Z</time>
      </trkpt>
      <trkpt lat="46.63634" lon="6.26595">
        <ele>1079</ele>
        <time>2024-06-16T06:54:31Z</time>
      </trkpt>
      <trkpt lat="46.63632" lon="6.26592">
        <ele>1079.1</ele>
        <time>2024-06-16T06:54:32Z</time>
      </trkpt>
      <trkpt lat="46.6363" lon="6.2659">
        <ele>1079.2</ele>
        <time>2024-06-16T06:54:33Z</time>
      </trkpt>
      <trkpt lat="46.63629" lon="6.26588">
        <ele>1079.3</ele>
        <time>2024-06-16T06:54:34Z</time>
      </trkpt>
      <trkpt lat="46.63627" lon="6.26586">
        <ele>1079.5</ele>
        <time>2024-06-16T06:54:35Z</time>
      </trkpt>
      <trkpt lat="46.63625" lon="6.26583">
        <ele>1079.7</ele>
        <time>2024-06-16T06:54:36Z</time>
      </trkpt>
      <trkpt lat="46.63624" lon="6.26581">
        <ele>1079.9</ele>
        <time>2024-06-16T06:54:37Z</time>
      </trkpt>
      <trkpt lat="46.63622" lon="6.26579">
        <ele>1080</ele>
        <time>2024-06-16T06:54:38Z</time>
      </trkpt>
      <trkpt lat="46.63621" lon="6.26576">
        <ele>1080.1</ele>
        <time>2024-06-16T06:54:39Z</time>
      </trkpt>
      <trkpt lat="46.63619" lon="6.26573">
        <ele>1080.3</ele>
        <time>2024-06-16T06:54:40Z</time>
      </trkpt>
      <trkpt lat="46.63618" lon="6.26571">
        <ele>1080.3</ele>
        <time>2024-06-16T06:54:41Z</time>
      </trkpt>
      <trkpt lat="46.63617" lon="6.26568">
        <ele>1080.4</ele>
        <time>2024-06-16T06:54:42Z</time>
      </trkpt>
      <trkpt lat="46.63615" lon="6.26564">
        <ele>1080.3</ele>
        <time>2024-06-16T06:54:43Z</time>
      </trkpt>
      <trkpt lat="46.63614" lon="6.26562">
        <ele>1080.2</ele>
        <time>2024-06-16T06:54:44Z</time>
      </trkpt>
      <trkpt lat="46.63613" lon="6.26559">
        <ele>1080.2</ele>
        <time>2024-06-16T06:54:45Z</time>
      </trkpt>
      <trkpt lat="46.63611" lon="6.26556">
        <ele>1080.2</ele>
        <time>2024-06-16T06:54:46Z</time>
      </trkpt>
      <trkpt lat="46.6361" lon="6.26553">
        <ele>1080.1</ele>
        <time>2024-06-16T06:54:47Z</time>
      </trkpt>
      <trkpt lat="46.63609" lon="6.26551">
        <ele>1080.4</ele>
        <time>2024-06-16T06:54:48Z</time>
      </trkpt>
      <trkpt lat="46.63608" lon="6.26549">
        <ele>1080.9</ele>
        <time>2024-06-16T06:54:49Z</time>
      </trkpt>
      <trkpt lat="46.63606" lon="6.26546">
        <ele>1081.3</ele>
        <time>2024-06-16T06:54:50Z</time>
      </trkpt>
      <trkpt lat="46.63605" lon="6.26544">
        <ele>1081.6</ele>
        <time>2024-06-16T06:54:51Z</time>
      </trkpt>
      <trkpt lat="46.63604" lon="6.26541">
        <ele>1081.9</ele>
        <time>2024-06-16T06:54:52Z</time>
      </trkpt>
      <trkpt lat="46.63603" lon="6.26539">
        <ele>1082.3</ele>
        <time>2024-06-16T06:54:53Z</time>
      </trkpt>
      <trkpt lat="46.63602" lon="6.26536">
        <ele>1082.6</ele>
        <time>2024-06-16T06:54:54Z</time>
      </trkpt>
      <trkpt lat="46.63601" lon="6.26534">
        <ele>1082.7</ele>
        <time>2024-06-16T06:54:55Z</time>
      </trkpt>
      <trkpt lat="46.636" lon="6.26531">
        <ele>1082.8</ele>
        <time>2024-06-16T06:54:56Z</time>
      </trkpt>
      <trkpt lat="46.63599" lon="6.26528">
        <ele>1082.9</ele>
        <time>2024-06-16T06:54:57Z</time>
      </trkpt>
      <trkpt lat="46.63597" lon="6.26526">
        <ele>1083.1</ele>
        <time>2024-06-16T06:54:58Z</time>
      </trkpt>
      <trkpt lat="46.63596" lon="6.26523">
        <ele>1083.2</ele>
        <time>2024-06-16T06:54:59Z</time>
      </trkpt>
      <trkpt lat="46.63594" lon="6.26521">
        <ele>1083.4</ele>
        <time>2024-06-16T06:55:00Z</time>
      </trkpt>
      <trkpt lat="46.63593" lon="6.26518">
        <ele>1083.5</ele>
        <time>2024-06-16T06:55:01Z</time>
      </trkpt>
      <trkpt lat="46.63592" lon="6.26516">
        <ele>1083.7</ele>
        <time>2024-06-16T06:55:02Z</time>
      </trkpt>
      <trkpt lat="46.63591" lon="6.26513">
        <ele>1083.9</ele>
        <time>2024-06-16T06:55:03Z</time>
      </trkpt>
      <trkpt lat="46.6359" lon="6.26511">
        <ele>1084.1</ele>
        <time>2024-06-16T06:55:04Z</time>
      </trkpt>
      <trkpt lat="46.63589" lon="6.26508">
        <ele>1084.4</ele>
        <time>2024-06-16T06:55:05Z</time>
      </trkpt>
      <trkpt lat="46.63588" lon="6.26506">
        <ele>1084.5</ele>
        <time>2024-06-16T06:55:07Z</time>
      </trkpt>
      <trkpt lat="46.63587" lon="6.26503">
        <ele>1084.6</ele>
        <time>2024-06-16T06:55:08Z</time>
      </trkpt>
      <trkpt lat="46.63586" lon="6.265">
        <ele>1084.8</ele>
        <time>2024-06-16T06:55:09Z</time>
      </trkpt>
      <trkpt lat="46.63585" lon="6.26497">
        <ele>1084.9</ele>
        <time>2024-06-16T06:55:10Z</time>
      </trkpt>
      <trkpt lat="46.63584" lon="6.26494">
        <ele>1085</ele>
        <time>2024-06-16T06:55:11Z</time>
      </trkpt>
      <trkpt lat="46.63583" lon="6.26492">
        <ele>1085</ele>
        <time>2024-06-16T06:55:12Z</time>
      </trkpt>
      <trkpt lat="46.63582" lon="6.26489">
        <ele>1085</ele>
        <time>2024-06-16T06:55:13Z</time>
      </trkpt>
      <trkpt lat="46.63581" lon="6.26486">
        <ele>1085</ele>
        <time>2024-06-16T06:55:14Z</time>
      </trkpt>
      <trkpt lat="46.6358" lon="6.26483">
        <ele>1085</ele>
        <time>2024-06-16T06:55:15Z</time>
      </trkpt>
      <trkpt lat="46.63579" lon="6.2648">
        <ele>1085</ele>
        <time>2024-06-16T06:55:16Z</time>
      </trkpt>
      <trkpt lat="46.63578" lon="6.26477">
        <ele>1085.2</ele>
        <time>2024-06-16T06:55:17Z</time>
      </trkpt>
      <trkpt lat="46.63577" lon="6.26475">
        <ele>1085.3</ele>
        <time>2024-06-16T06:55:18Z</time>
      </trkpt>
      <trkpt lat="46.63575" lon="6.26472">
        <ele>1085.2</ele>
        <time>2024-06-16T06:55:19Z</time>
      </trkpt>
      <trkpt lat="46.63574" lon="6.26469">
        <ele>1085.1</ele>
        <time>2024-06-16T06:55:20Z</time>
      </trkpt>
      <trkpt lat="46.63573" lon="6.26466">
        <ele>1085</ele>
        <time>2024-06-16T06:55:21Z</time>
      </trkpt>
      <trkpt lat="46.63571" lon="6.26462">
        <ele>1084.8</ele>
        <time>2024-06-16T06:55:22Z</time>
      </trkpt>
      <trkpt lat="46.6357" lon="6.26459">
        <ele>1084.6</ele>
        <time>2024-06-16T06:55:22Z</time>
      </trkpt>
      <trkpt lat="46.63569" lon="6.26456">
        <ele>1084.5</ele>
        <time>2024-06-16T06:55:23Z</time>
      </trkpt>
      <trkpt lat="46.63567" lon="6.26453">
        <ele>1084.3</ele>
        <time>2024-06-16T06:55:24Z</time>
      </trkpt>
      <trkpt lat="46.63566" lon="6.2645">
        <ele>1084.1</ele>
        <time>2024-06-16T06:55:25Z</time>
      </trkpt>
      <trkpt lat="46.63564" lon="6.26446">
        <ele>1084</ele>
        <time>2024-06-16T06:55:26Z</time>
      </trkpt>
      <trkpt lat="46.63563" lon="6.26443">
        <ele>1083.9</ele>
        <time>2024-06-16T06:55:27Z</time>
      </trkpt>
      <trkpt lat="46.63561" lon="6.2644">
        <ele>1083.6</ele>
        <time>2024-06-16T06:55:28Z</time>
      </trkpt>
      <trkpt lat="46.63559" lon="6.26436">
        <ele>1083.3</ele>
        <time>2024-06-16T06:55:29Z</time>
      </trkpt>
      <trkpt lat="46.63558" lon="6.26432">
        <ele>1083.2</ele>
        <time>2024-06-16T06:55:30Z</time>
      </trkpt>
      <trkpt lat="46.63556" lon="6.26429">
        <ele>1083.1</ele>
        <time>2024-06-16T06:55:31Z</time>
      </trkpt>
      <trkpt lat="46.63555" lon="6.26425">
        <ele>1083.1</ele>
        <time>2024-06-16T06:55:32Z</time>
      </trkpt>
      <trkpt lat="46.63553" lon="6.26421">
        <ele>1083.1</ele>
        <time>2024-06-16T06:55:33Z</time>
      </trkpt>
      <trkpt lat="46.63551" lon="6.26418">
        <ele>1083.1</ele>
        <time>2024-06-16T06:55:34Z</time>
      </trkpt>
      <trkpt lat="46.6355" lon="6.26414">
        <ele>1083</ele>
        <time>2024-06-16T06:55:35Z</time>
      </trkpt>
      <trkpt lat="46.63548" lon="6.26411">
        <ele>1082.9</ele>
        <time>2024-06-16T06:55:36Z</time>
      </trkpt>
      <trkpt lat="46.63547" lon="6.26407">
        <ele>1083</ele>
        <time>2024-06-16T06:55:37Z</time>
      </trkpt>
      <trkpt lat="46.63545" lon="6.26404">
        <ele>1083</ele>
        <time>2024-06-16T06:55:38Z</time>
      </trkpt>
      <trkpt lat="46.63544" lon="6.26401">
        <ele>1083.1</ele>
        <time>2024-06-16T06:55:39Z</time>
      </trkpt>
      <trkpt lat="46.63542" lon="6.26397">
        <ele>1083.1</ele>
        <time>2024-06-16T06:55:40Z</time>
      </trkpt>
      <trkpt lat="46.63541" lon="6.26394">
        <ele>1083.3</ele>
        <time>2024-06-16T06:55:41Z</time>
      </trkpt>
      <trkpt lat="46.63539" lon="6.26391">
        <ele>1083.5</ele>
        <time>2024-06-16T06:55:42Z</time>
      </trkpt>
      <trkpt lat="46.63538" lon="6.26388">
        <ele>1083.6</ele>
        <time>2024-06-16T06:55:43Z</time>
      </trkpt>
      <trkpt lat="46.63536" lon="6.26384">
        <ele>1083.6</ele>
        <time>2024-06-16T06:55:44Z</time>
      </trkpt>
      <trkpt lat="46.63535" lon="6.26381">
        <ele>1083.7</ele>
        <time>2024-06-16T06:55:45Z</time>
      </trkpt>
      <trkpt lat="46.63533" lon="6.26377">
        <ele>1083.6</ele>
        <time>2024-06-16T06:55:46Z</time>
      </trkpt>
      <trkpt lat="46.63531" lon="6.26374">
        <ele>1083.6</ele>
        <time>2024-06-16T06:55:47Z</time>
      </trkpt>
      <trkpt lat="46.6353" lon="6.2637">
        <ele>1083.6</ele>
        <time>2024-06-16T06:55:48Z</time>
      </trkpt>
      <trkpt lat="46.63528" lon="6.26366">
        <ele>1083.7</ele>
        <time>2024-06-16T06:55:49Z</time>
      </trkpt>
      <trkpt lat="46.63526" lon="6.26363">
        <ele>1083.7</ele>
        <time>2024-06-16T06:55:50Z</time>
      </trkpt>
      <trkpt lat="46.63524" lon="6.26359">
        <ele>1083.7</ele>
        <time>2024-06-16T06:55:51Z</time>
      </trkpt>
      <trkpt lat="46.63523" lon="6.26355">
        <ele>1083.8</ele>
        <time>2024-06-16T06:55:52Z</time>
      </trkpt>
      <trkpt lat="46.63521" lon="6.26351">
        <ele>1083.8</ele>
        <time>2024-06-16T06:55:53Z</time>
      </trkpt>
      <trkpt lat="46.63519" lon="6.26347">
        <ele>1083.8</ele>
        <time>2024-06-16T06:55:54Z</time>
      </trkpt>
      <trkpt lat="46.63518" lon="6.26343">
        <ele>1083.8</ele>
        <time>2024-06-16T06:55:55Z</time>
      </trkpt>
      <trkpt lat="46.63516" lon="6.26339">
        <ele>1083.9</ele>
        <time>2024-06-16T06:55:56Z</time>
      </trkpt>
      <trkpt lat="46.63514" lon="6.26335">
        <ele>1084.1</ele>
        <time>2024-06-16T06:55:57Z</time>
      </trkpt>
      <trkpt lat="46.63513" lon="6.26331">
        <ele>1084.4</ele>
        <time>2024-06-16T06:55:58Z</time>
      </trkpt>
      <trkpt lat="46.63511" lon="6.26327">
        <ele>1084.7</ele>
        <time>2024-06-16T06:55:59Z</time>
      </trkpt>
      <trkpt lat="46.63509" lon="6.26323">
        <ele>1085</ele>
        <time>2024-06-16T06:56:00Z</time>
      </trkpt>
      <trkpt lat="46.63508" lon="6.26319">
        <ele>1085.3</ele>
        <time>2024-06-16T06:56:01Z</time>
      </trkpt>
      <trkpt lat="46.63506" lon="6.26316">
        <ele>1085.8</ele>
        <time>2024-06-16T06:56:02Z</time>
      </trkpt>
      <trkpt lat="46.63505" lon="6.26312">
        <ele>1086.2</ele>
        <time>2024-06-16T06:56:03Z</time>
      </trkpt>
      <trkpt lat="46.63503" lon="6.26309">
        <ele>1086.5</ele>
        <time>2024-06-16T06:56:04Z</time>
      </trkpt>
      <trkpt lat="46.63502" lon="6.26306">
        <ele>1086.6</ele>
        <time>2024-06-16T06:56:05Z</time>
      </trkpt>
      <trkpt lat="46.63501" lon="6.26303">
        <ele>1086.7</ele>
        <time>2024-06-16T06:56:06Z</time>
      </trkpt>
      <trkpt lat="46.63499" lon="6.263">
        <ele>1087</ele>
        <time>2024-06-16T06:56:07Z</time>
      </trkpt>
      <trkpt lat="46.63498" lon="6.26296">
        <ele>1087.2</ele>
        <time>2024-06-16T06:56:08Z</time>
      </trkpt>
      <trkpt lat="46.63497" lon="6.26294">
        <ele>1087.6</ele>
        <time>2024-06-16T06:56:09Z</time>
      </trkpt>
      <trkpt lat="46.63495" lon="6.26291">
        <ele>1088</ele>
        <time>2024-06-16T06:56:10Z</time>
      </trkpt>
      <trkpt lat="46.63494" lon="6.26288">
        <ele>1088.2</ele>
        <time>2024-06-16T06:56:11Z</time>
      </trkpt>
      <trkpt lat="46.63493" lon="6.26285">
        <ele>1088.6</ele>
        <time>2024-06-16T06:56:12Z</time>
      </trkpt>
      <trkpt lat="46.63491" lon="6.26282">
        <ele>1088.9</ele>
        <time>2024-06-16T06:56:13Z</time>
      </trkpt>
      <trkpt lat="46.6349" lon="6.26278">
        <ele>1089.2</ele>
        <time>2024-06-16T06:56:14Z</time>
      </trkpt>
      <trkpt lat="46.63489" lon="6.26275">
        <ele>1089.4</ele>
        <time>2024-06-16T06:56:15Z</time>
      </trkpt>
      <trkpt lat="46.63487" lon="6.26272">
        <ele>1089.7</ele>
        <time>2024-06-16T06:56:16Z</time>
      </trkpt>
      <trkpt lat="46.63486" lon="6.26269">
        <ele>1089.7</ele>
        <time>2024-06-16T06:56:17Z</time>
      </trkpt>
      <trkpt lat="46.63485" lon="6.26266">
        <ele>1089.8</ele>
        <time>2024-06-16T06:56:18Z</time>
      </trkpt>
      <trkpt lat="46.63483" lon="6.26263">
        <ele>1089.9</ele>
        <time>2024-06-16T06:56:19Z</time>
      </trkpt>
      <trkpt lat="46.63482" lon="6.26259">
        <ele>1089.8</ele>
        <time>2024-06-16T06:56:20Z</time>
      </trkpt>
      <trkpt lat="46.6348" lon="6.26256">
        <ele>1089.8</ele>
        <time>2024-06-16T06:56:21Z</time>
      </trkpt>
      <trkpt lat="46.63479" lon="6.26252">
        <ele>1089.8</ele>
        <time>2024-06-16T06:56:22Z</time>
      </trkpt>
      <trkpt lat="46.63477" lon="6.26248">
        <ele>1089.8</ele>
        <time>2024-06-16T06:56:23Z</time>
      </trkpt>
      <trkpt lat="46.63475" lon="6.26245">
        <ele>1090</ele>
        <time>2024-06-16T06:56:24Z</time>
      </trkpt>
      <trkpt lat="46.63473" lon="6.2624">
        <ele>1090</ele>
        <time>2024-06-16T06:56:25Z</time>
      </trkpt>
      <trkpt lat="46.63471" lon="6.26236">
        <ele>1089.9</ele>
        <time>2024-06-16T06:56:26Z</time>
      </trkpt>
      <trkpt lat="46.63469" lon="6.26231">
        <ele>1089.7</ele>
        <time>2024-06-16T06:56:27Z</time>
      </trkpt>
      <trkpt lat="46.63467" lon="6.26227">
        <ele>1089.5</ele>
        <time>2024-06-16T06:56:28Z</time>
      </trkpt>
      <trkpt lat="46.63464" lon="6.26222">
        <ele>1089.3</ele>
        <time>2024-06-16T06:56:29Z</time>
      </trkpt>
      <trkpt lat="46.63461" lon="6.26216">
        <ele>1088.9</ele>
        <time>2024-06-16T06:56:30Z</time>
      </trkpt>
      <trkpt lat="46.63458" lon="6.26211">
        <ele>1088.3</ele>
        <time>2024-06-16T06:56:31Z</time>
      </trkpt>
      <trkpt lat="46.63455" lon="6.26206">
        <ele>1087.9</ele>
        <time>2024-06-16T06:56:32Z</time>
      </trkpt>
      <trkpt lat="46.63451" lon="6.262">
        <ele>1087.4</ele>
        <time>2024-06-16T06:56:33Z</time>
      </trkpt>
      <trkpt lat="46.63447" lon="6.26194">
        <ele>1087</ele>
        <time>2024-06-16T06:56:34Z</time>
      </trkpt>
      <trkpt lat="46.63443" lon="6.26187">
        <ele>1086.5</ele>
        <time>2024-06-16T06:56:35Z</time>
      </trkpt>
      <trkpt lat="46.63439" lon="6.2618">
        <ele>1086.1</ele>
        <time>2024-06-16T06:56:36Z</time>
      </trkpt>
      <trkpt lat="46.63435" lon="6.26173">
        <ele>1085.8</ele>
        <time>2024-06-16T06:56:37Z</time>
      </trkpt>
      <trkpt lat="46.63432" lon="6.26165">
        <ele>1085.5</ele>
        <time>2024-06-16T06:56:38Z</time>
      </trkpt>
      <trkpt lat="46.63428" lon="6.26157">
        <ele>1085.1</ele>
        <time>2024-06-16T06:56:39Z</time>
      </trkpt>
      <trkpt lat="46.63424" lon="6.2615">
        <ele>1084.7</ele>
        <time>2024-06-16T06:56:40Z</time>
      </trkpt>
      <trkpt lat="46.63421" lon="6.26142">
        <ele>1084.1</ele>
        <time>2024-06-16T06:56:41Z</time>
      </trkpt>
      <trkpt lat="46.63417" lon="6.26134">
        <ele>1083.6</ele>
        <time>2024-06-16T06:56:42Z</time>
      </trkpt>
      <trkpt lat="46.63413" lon="6.26127">
        <ele>1083.1</ele>
        <time>2024-06-16T06:56:43Z</time>
      </trkpt>
      <trkpt lat="46.63409" lon="6.2612">
        <ele>1082.7</ele>
        <time>2024-06-16T06:56:44Z</time>
      </trkpt>
      <trkpt lat="46.63405" lon="6.26112">
        <ele>1082.3</ele>
        <time>2024-06-16T06:56:45Z</time>
      </trkpt>
      <trkpt lat="46.63401" lon="6.26105">
        <ele>1081.9</ele>
        <time>2024-06-16T06:56:46Z</time>
      </trkpt>
      <trkpt lat="46.63397" lon="6.26098">
        <ele>1081.6</ele>
        <time>2024-06-16T06:56:47Z</time>
      </trkpt>
      <trkpt lat="46.63393" lon="6.2609">
        <ele>1081.5</ele>
        <time>2024-06-16T06:56:48Z</time>
      </trkpt>
      <trkpt lat="46.63389" lon="6.26083">
        <ele>1081.2</ele>
        <time>2024-06-16T06:56:49Z</time>
      </trkpt>
      <trkpt lat="46.63384" lon="6.26075">
        <ele>1081</ele>
        <time>2024-06-16T06:56:50Z</time>
      </trkpt>
      <trkpt lat="46.63379" lon="6.26068">
        <ele>1080.6</ele>
        <time>2024-06-16T06:56:51Z</time>
      </trkpt>
      <trkpt lat="46.63375" lon="6.2606">
        <ele>1080.2</ele>
        <time>2024-06-16T06:56:52Z</time>
      </trkpt>
      <trkpt lat="46.6337" lon="6.26052">
        <ele>1079.6</ele>
        <time>2024-06-16T06:56:53Z</time>
      </trkpt>
      <trkpt lat="46.63365" lon="6.26044">
        <ele>1079.1</ele>
        <time>2024-06-16T06:56:54Z</time>
      </trkpt>
      <trkpt lat="46.6336" lon="6.26036">
        <ele>1078.8</ele>
        <time>2024-06-16T06:56:55Z</time>
      </trkpt>
      <trkpt lat="46.63355" lon="6.26028">
        <ele>1078.5</ele>
        <time>2024-06-16T06:56:56Z</time>
      </trkpt>
      <trkpt lat="46.6335" lon="6.26021">
        <ele>1078.2</ele>
        <time>2024-06-16T06:56:57Z</time>
      </trkpt>
      <trkpt lat="46.63345" lon="6.26013">
        <ele>1077.7</ele>
        <time>2024-06-16T06:56:58Z</time>
      </trkpt>
      <trkpt lat="46.6334" lon="6.26005">
        <ele>1077.4</ele>
        <time>2024-06-16T06:56:59Z</time>
      </trkpt>
      <trkpt lat="46.63335" lon="6.25998">
        <ele>1076.9</ele>
        <time>2024-06-16T06:57:00Z</time>
      </trkpt>
      <trkpt lat="46.6333" lon="6.25991">
        <ele>1076.7</ele>
        <time>2024-06-16T06:57:01Z</time>
      </trkpt>
      <trkpt lat="46.63326" lon="6.25983">
        <ele>1076.4</ele>
        <time>2024-06-16T06:57:02Z</time>
      </trkpt>
      <trkpt lat="46.63322" lon="6.25976">
        <ele>1076.2</ele>
        <time>2024-06-16T06:57:03Z</time>
      </trkpt>
      <trkpt lat="46.63318" lon="6.25969">
        <ele>1075.9</ele>
        <time>2024-06-16T06:57:04Z</time>
      </trkpt>
      <trkpt lat="46.63313" lon="6.25963">
        <ele>1075.7</ele>
        <time>2024-06-16T06:57:05Z</time>
      </trkpt>
      <trkpt lat="46.63309" lon="6.25956">
        <ele>1075.6</ele>
        <time>2024-06-16T06:57:06Z</time>
      </trkpt>
      <trkpt lat="46.63305" lon="6.25949">
        <ele>1075.6</ele>
        <time>2024-06-16T06:57:07Z</time>
      </trkpt>
      <trkpt lat="46.63302" lon="6.25943">
        <ele>1075.7</ele>
        <time>2024-06-16T06:57:08Z</time>
      </trkpt>
      <trkpt lat="46.63298" lon="6.25937">
        <ele>1076</ele>
        <time>2024-06-16T06:57:09Z</time>
      </trkpt>
      <trkpt lat="46.63295" lon="6.25932">
        <ele>1076.2</ele>
        <time>2024-06-16T06:57:10Z</time>
      </trkpt>
      <trkpt lat="46.63292" lon="6.25926">
        <ele>1076.6</ele>
        <time>2024-06-16T06:57:11Z</time>
      </trkpt>
      <trkpt lat="46.63288" lon="6.25921">
        <ele>1077</ele>
        <time>2024-06-16T06:57:12Z</time>
      </trkpt>
      <trkpt lat="46.63286" lon="6.25917">
        <ele>1077.4</ele>
        <time>2024-06-16T06:57:13Z</time>
      </trkpt>
      <trkpt lat="46.63283" lon="6.25912">
        <ele>1077.7</ele>
        <time>2024-06-16T06:57:14Z</time>
      </trkpt>
      <trkpt lat="46.63281" lon="6.25908">
        <ele>1077.8</ele>
        <time>2024-06-16T06:57:15Z</time>
      </trkpt>
      <trkpt lat="46.63279" lon="6.25904">
        <ele>1078</ele>
        <time>2024-06-16T06:57:16Z</time>
      </trkpt>
      <trkpt lat="46.63277" lon="6.259">
        <ele>1078.1</ele>
        <time>2024-06-16T06:57:17Z</time>
      </trkpt>
      <trkpt lat="46.63275" lon="6.25896">
        <ele>1078.2</ele>
        <time>2024-06-16T06:57:18Z</time>
      </trkpt>
      <trkpt lat="46.63274" lon="6.25893">
        <ele>1078.2</ele>
        <time>2024-06-16T06:57:19Z</time>
      </trkpt>
      <trkpt lat="46.63273" lon="6.25891">
        <ele>1078</ele>
        <time>2024-06-16T06:57:20Z</time>
      </trkpt>
      <trkpt lat="46.63273" lon="6.25889">
        <ele>1077.9</ele>
        <time>2024-06-16T06:57:21Z</time>
      </trkpt>
      <trkpt lat="46.63273" lon="6.25889">
        <ele>1077.9</ele>
        <time>2024-06-16T06:57:22Z</time>
      </trkpt>
      <trkpt lat="46.63273" lon="6.25889">
        <ele>1077.9</ele>
        <time>2024-06-16T06:57:23Z</time>
      </trkpt>
      <trkpt lat="46.63273" lon="6.25889">
        <ele>1077.9</ele>
        <time>2024-06-16T06:57:24Z</time>
      </trkpt>
      <trkpt lat="46.63273" lon="6.25889">
        <ele>1078</ele>
        <time>2024-06-16T06:57:25Z</time>
      </trkpt>
      <trkpt lat="46.63274" lon="6.2589">
        <ele>1078</ele>
        <time>2024-06-16T06:57:26Z</time>
      </trkpt>
      <trkpt lat="46.63274" lon="6.2589">
        <ele>1078.1</ele>
        <time>2024-06-16T06:57:27Z</time>
      </trkpt>
      <trkpt lat="46.63275" lon="6.25891">
        <ele>1078.2</ele>
        <time>2024-06-16T06:57:28Z</time>
      </trkpt>
      <trkpt lat="46.63275" lon="6.25891">
        <ele>1078.2</ele>
        <time>2024-06-16T06:57:29Z</time>
      </trkpt>
      <trkpt lat="46.63275" lon="6.25892">
        <ele>1078.3</ele>
        <time>2024-06-16T06:57:30Z</time>
      </trkpt>
      <trkpt lat="46.63276" lon="6.25892">
        <ele>1078.2</ele>
        <time>2024-06-16T06:57:31Z</time>
      </trkpt>
      <trkpt lat="46.63276" lon="6.25892">
        <ele>1078.1</ele>
        <time>2024-06-16T06:57:32Z</time>
      </trkpt>
      <trkpt lat="46.63276" lon="6.25893">
        <ele>1078.1</ele>
        <time>2024-06-16T06:57:33Z</time>
      </trkpt>
      <trkpt lat="46.63276" lon="6.25893">
        <ele>1078</ele>
        <time>2024-06-16T06:57:34Z</time>
      </trkpt>
      <trkpt lat="46.63277" lon="6.25893">
        <ele>1078</ele>
        <time>2024-06-16T06:57:35Z</time>
      </trkpt>
      <trkpt lat="46.63277" lon="6.25894">
        <ele>1077.7</ele>
        <time>2024-06-16T06:57:36Z</time>
      </trkpt>
      <trkpt lat="46.63277" lon="6.25894">
        <ele>1077.5</ele>
        <time>2024-06-16T06:57:37Z</time>
      </trkpt>
      <trkpt lat="46.63277" lon="6.25893">
        <ele>1077.4</ele>
        <time>2024-06-16T06:57:38Z</time>
      </trkpt>
      <trkpt lat="46.63277" lon="6.25893">
        <ele>1077.4</ele>
        <time>2024-06-16T06:57:39Z</time>
      </trkpt>
      <trkpt lat="46.63276" lon="6.25892">
        <ele>1077.2</ele>
        <time>2024-06-16T06:57:40Z</time>
      </trkpt>
      <trkpt lat="46.63276" lon="6.25892">
        <ele>1077.1</ele>
        <time>2024-06-16T06:57:41Z</time>
      </trkpt>
      <trkpt lat="46.63276" lon="6.25892">
        <ele>1076.9</ele>
        <time>2024-06-16T06:57:42Z</time>
      </trkpt>
      <trkpt lat="46.63276" lon="6.25891">
        <ele>1076.7</ele>
        <time>2024-06-16T06:57:43Z</time>
      </trkpt>
      <trkpt lat="46.63275" lon="6.25889">
        <ele>1076.4</ele>
        <time>2024-06-16T06:57:44Z</time>
      </trkpt>
      <trkpt lat="46.63274" lon="6.25887">
        <ele>1076</ele>
        <time>2024-06-16T06:57:45Z</time>
      </trkpt>
      <trkpt lat="46.63273" lon="6.25884">
        <ele>1075.8</ele>
        <time>2024-06-16T06:57:46Z</time>
      </trkpt>
      <trkpt lat="46.63271" lon="6.2588">
        <ele>1075.8</ele>
        <time>2024-06-16T06:57:47Z</time>
      </trkpt>
      <trkpt lat="46.63269" lon="6.25876">
        <ele>1075.8</ele>
        <time>2024-06-16T06:57:48Z</time>
      </trkpt>
      <trkpt lat="46.63267" lon="6.25872">
        <ele>1075.8</ele>
        <time>2024-06-16T06:57:49Z</time>
      </trkpt>
      <trkpt lat="46.63265" lon="6.25867">
        <ele>1075.7</ele>
        <time>2024-06-16T06:57:50Z</time>
      </trkpt>
      <trkpt lat="46.63263" lon="6.25861">
        <ele>1075.6</ele>
        <time>2024-06-16T06:57:51Z</time>
      </trkpt>
      <trkpt lat="46.6326" lon="6.25855">
        <ele>1075.4</ele>
        <time>2024-06-16T06:57:52Z</time>
      </trkpt>
      <trkpt lat="46.63258" lon="6.25849">
        <ele>1075.1</ele>
        <time>2024-06-16T06:57:53Z</time>
      </trkpt>
      <trkpt lat="46.63255" lon="6.25842">
        <ele>1074.9</ele>
        <time>2024-06-16T06:57:54Z</time>
      </trkpt>
      <trkpt lat="46.63252" lon="6.25835">
        <ele>1074.6</ele>
        <time>2024-06-16T06:57:55Z</time>
      </trkpt>
      <trkpt lat="46.63249" lon="6.25827">
        <ele>1074.3</ele>
        <time>2024-06-16T06:57:56Z</time>
      </trkpt>
      <trkpt lat="46.63246" lon="6.25819">
        <ele>1073.8</ele>
        <time>2024-06-16T06:57:57Z</time>
      </trkpt>
      <trkpt lat="46.63244" lon="6.2581">
        <ele>1073.3</ele>
        <time>2024-06-16T06:57:58Z</time>
      </trkpt>
      <trkpt lat="46.63241" lon="6.258">
        <ele>1072.8</ele>
        <time>2024-06-16T06:57:59Z</time>
      </trkpt>
      <trkpt lat="46.63239" lon="6.2579">
        <ele>1072.2</ele>
        <time>2024-06-16T06:58:00Z</time>
      </trkpt>
      <trkpt lat="46.63237" lon="6.25779">
        <ele>1071.6</ele>
        <time>2024-06-16T06:58:01Z</time>
      </trkpt>
      <trkpt lat="46.63234" lon="6.25767">
        <ele>1070.9</ele>
        <time>2024-06-16T06:58:02Z</time>
      </trkpt>
      <trkpt lat="46.63232" lon="6.25756">
        <ele>1070.1</ele>
        <time>2024-06-16T06:58:03Z</time>
      </trkpt>
      <trkpt lat="46.6323" lon="6.25744">
        <ele>1069.2</ele>
        <time>2024-06-16T06:58:04Z</time>
      </trkpt>
      <trkpt lat="46.63228" lon="6.25731">
        <ele>1068.4</ele>
        <time>2024-06-16T06:58:05Z</time>
      </trkpt>
      <trkpt lat="46.63226" lon="6.2572">
        <ele>1067.7</ele>
        <time>2024-06-16T06:58:06Z</time>
      </trkpt>
      <trkpt lat="46.63225" lon="6.25708">
        <ele>1066.9</ele>
        <time>2024-06-16T06:58:07Z</time>
      </trkpt>
      <trkpt lat="46.63224" lon="6.25697">
        <ele>1066.1</ele>
        <time>2024-06-16T06:58:08Z</time>
      </trkpt>
      <trkpt lat="46.63223" lon="6.25685">
        <ele>1065.4</ele>
        <time>2024-06-16T06:58:09Z</time>
      </trkpt>
      <trkpt lat="46.63223" lon="6.25673">
        <ele>1064.7</ele>
        <time>2024-06-16T06:58:10Z</time>
      </trkpt>
      <trkpt lat="46.63224" lon="6.25662">
        <ele>1064.1</ele>
        <time>2024-06-16T06:58:11Z</time>
      </trkpt>
      <trkpt lat="46.63226" lon="6.25651">
        <ele>1063.5</ele>
        <time>2024-06-16T06:58:12Z</time>
      </trkpt>
      <trkpt lat="46.63229" lon="6.2564">
        <ele>1062.9</ele>
        <time>2024-06-16T06:58:13Z</time>
      </trkpt>
      <trkpt lat="46.63232" lon="6.2563">
        <ele>1062.1</ele>
        <time>2024-06-16T06:58:14Z</time>
      </trkpt>
      <trkpt lat="46.63235" lon="6.2562">
        <ele>1061.4</ele>
        <time>2024-06-16T06:58:15Z</time>
      </trkpt>
      <trkpt lat="46.63238" lon="6.25609">
        <ele>1060.8</ele>
        <time>2024-06-16T06:58:16Z</time>
      </trkpt>
      <trkpt lat="46.6324" lon="6.25599">
        <ele>1060.4</ele>
        <time>2024-06-16T06:58:17Z</time>
      </trkpt>
      <trkpt lat="46.63242" lon="6.25589">
        <ele>1060.2</ele>
        <time>2024-06-16T06:58:18Z</time>
      </trkpt>
      <trkpt lat="46.63242" lon="6.25579">
        <ele>1059.9</ele>
        <time>2024-06-16T06:58:19Z</time>
      </trkpt>
      <trkpt lat="46.63242" lon="6.2557">
        <ele>1059.7</ele>
        <time>2024-06-16T06:58:20Z</time>
      </trkpt>
      <trkpt lat="46.63241" lon="6.25561">
        <ele>1059.5</ele>
        <time>2024-06-16T06:58:21Z</time>
      </trkpt>
      <trkpt lat="46.63239" lon="6.25552">
        <ele>1059.4</ele>
        <time>2024-06-16T06:58:22Z</time>
      </trkpt>
      <trkpt lat="46.63237" lon="6.25544">
        <ele>1059.4</ele>
        <time>2024-06-16T06:58:23Z</time>
      </trkpt>
      <trkpt lat="46.63234" lon="6.25535">
        <ele>1059.3</ele>
        <time>2024-06-16T06:58:24Z</time>
      </trkpt>
      <trkpt lat="46.6323" lon="6.25528">
        <ele>1059.4</ele>
        <time>2024-06-16T06:58:25Z</time>
      </trkpt>
      <trkpt lat="46.63227" lon="6.2552">
        <ele>1059.3</ele>
        <time>2024-06-16T06:58:26Z</time>
      </trkpt>
      <trkpt lat="46.63223" lon="6.25513">
        <ele>1059.2</ele>
        <time>2024-06-16T06:58:27Z</time>
      </trkpt>
      <trkpt lat="46.63219" lon="6.25506">
        <ele>1059.1</ele>
        <time>2024-06-16T06:58:28Z</time>
      </trkpt>
      <trkpt lat="46.63214" lon="6.25499">
        <ele>1059</ele>
        <time>2024-06-16T06:58:29Z</time>
      </trkpt>
      <trkpt lat="46.6321" lon="6.25492">
        <ele>1058.9</ele>
        <time>2024-06-16T06:58:30Z</time>
      </trkpt>
      <trkpt lat="46.63206" lon="6.25485">
        <ele>1058.7</ele>
        <time>2024-06-16T06:58:31Z</time>
      </trkpt>
      <trkpt lat="46.63201" lon="6.25478">
        <ele>1058.5</ele>
        <time>2024-06-16T06:58:32Z</time>
      </trkpt>
      <trkpt lat="46.63197" lon="6.25471">
        <ele>1058.2</ele>
        <time>2024-06-16T06:58:33Z</time>
      </trkpt>
      <trkpt lat="46.63192" lon="6.25464">
        <ele>1057.9</ele>
        <time>2024-06-16T06:58:34Z</time>
      </trkpt>
      <trkpt lat="46.63188" lon="6.25457">
        <ele>1057.6</ele>
        <time>2024-06-16T06:58:35Z</time>
      </trkpt>
      <trkpt lat="46.63184" lon="6.2545">
        <ele>1057.4</ele>
        <time>2024-06-16T06:58:36Z</time>
      </trkpt>
      <trkpt lat="46.63179" lon="6.25443">
        <ele>1057.3</ele>
        <time>2024-06-16T06:58:37Z</time>
      </trkpt>
      <trkpt lat="46.63175" lon="6.25436">
        <ele>1057.1</ele>
        <time>2024-06-16T06:58:38Z</time>
      </trkpt>
      <trkpt lat="46.63171" lon="6.25429">
        <ele>1057</ele>
        <time>2024-06-16T06:58:39Z</time>
      </trkpt>
      <trkpt lat="46.63168" lon="6.25421">
        <ele>1056.8</ele>
        <time>2024-06-16T06:58:40Z</time>
      </trkpt>
      <trkpt lat="46.63164" lon="6.25414">
        <ele>1056.7</ele>
        <time>2024-06-16T06:58:41Z</time>
      </trkpt>
      <trkpt lat="46.6316" lon="6.25407">
        <ele>1056.6</ele>
        <time>2024-06-16T06:58:42Z</time>
      </trkpt>
      <trkpt lat="46.63156" lon="6.254">
        <ele>1056.4</ele>
        <time>2024-06-16T06:58:43Z</time>
      </trkpt>
      <trkpt lat="46.63152" lon="6.25393">
        <ele>1056.2</ele>
        <time>2024-06-16T06:58:44Z</time>
      </trkpt>
      <trkpt lat="46.63148" lon="6.25386">
        <ele>1056.2</ele>
        <time>2024-06-16T06:58:45Z</time>
      </trkpt>
      <trkpt lat="46.63144" lon="6.2538">
        <ele>1056.1</ele>
        <time>2024-06-16T06:58:46Z</time>
      </trkpt>
      <trkpt lat="46.6314" lon="6.25373">
        <ele>1056.2</ele>
        <time>2024-06-16T06:58:47Z</time>
      </trkpt>
      <trkpt lat="46.63137" lon="6.25367">
        <ele>1056.3</ele>
        <time>2024-06-16T06:58:48Z</time>
      </trkpt>
      <trkpt lat="46.63133" lon="6.25361">
        <ele>1056.4</ele>
        <time>2024-06-16T06:58:49Z</time>
      </trkpt>
      <trkpt lat="46.63129" lon="6.25354">
        <ele>1056.5</ele>
        <time>2024-06-16T06:58:50Z</time>
      </trkpt>
      <trkpt lat="46.63126" lon="6.25348">
        <ele>1056.6</ele>
        <time>2024-06-16T06:58:51Z</time>
      </trkpt>
      <trkpt lat="46.63123" lon="6.25342">
        <ele>1056.7</ele>
        <time>2024-06-16T06:58:52Z</time>
      </trkpt>
      <trkpt lat="46.63119" lon="6.25335">
        <ele>1056.9</ele>
        <time>2024-06-16T06:58:53Z</time>
      </trkpt>
      <trkpt lat="46.63116" lon="6.25329">
        <ele>1056.9</ele>
        <time>2024-06-16T06:58:54Z</time>
      </trkpt>
      <trkpt lat="46.63113" lon="6.25323">
        <ele>1057</ele>
        <time>2024-06-16T06:58:55Z</time>
      </trkpt>
      <trkpt lat="46.63109" lon="6.25318">
        <ele>1057.1</ele>
        <time>2024-06-16T06:58:56Z</time>
      </trkpt>
      <trkpt lat="46.63106" lon="6.25312">
        <ele>1057.2</ele>
        <time>2024-06-16T06:58:57Z</time>
      </trkpt>
      <trkpt lat="46.63103" lon="6.25307">
        <ele>1057.4</ele>
        <time>2024-06-16T06:58:58Z</time>
      </trkpt>
      <trkpt lat="46.631" lon="6.25302">
        <ele>1057.5</ele>
        <time>2024-06-16T06:58:59Z</time>
      </trkpt>
      <trkpt lat="46.63097" lon="6.25297">
        <ele>1057.7</ele>
        <time>2024-06-16T06:59:00Z</time>
      </trkpt>
      <trkpt lat="46.63095" lon="6.25292">
        <ele>1057.8</ele>
        <time>2024-06-16T06:59:01Z</time>
      </trkpt>
      <trkpt lat="46.63092" lon="6.25287">
        <ele>1058</ele>
        <time>2024-06-16T06:59:02Z</time>
      </trkpt>
      <trkpt lat="46.6309" lon="6.25283">
        <ele>1058.2</ele>
        <time>2024-06-16T06:59:03Z</time>
      </trkpt>
      <trkpt lat="46.63087" lon="6.25279">
        <ele>1058.4</ele>
        <time>2024-06-16T06:59:04Z</time>
      </trkpt>
      <trkpt lat="46.63085" lon="6.25276">
        <ele>1058.8</ele>
        <time>2024-06-16T06:59:05Z</time>
      </trkpt>
      <trkpt lat="46.63082" lon="6.25273">
        <ele>1059.1</ele>
        <time>2024-06-16T06:59:06Z</time>
      </trkpt>
      <trkpt lat="46.6308" lon="6.25271">
        <ele>1059.4</ele>
        <time>2024-06-16T06:59:07Z</time>
      </trkpt>
      <trkpt lat="46.63078" lon="6.25268">
        <ele>1059.8</ele>
        <time>2024-06-16T06:59:08Z</time>
      </trkpt>
      <trkpt lat="46.63075" lon="6.25266">
        <ele>1060.3</ele>
        <time>2024-06-16T06:59:09Z</time>
      </trkpt>
      <trkpt lat="46.63073" lon="6.25265">
        <ele>1060.7</ele>
        <time>2024-06-16T06:59:10Z</time>
      </trkpt>
      <trkpt lat="46.63071" lon="6.25263">
        <ele>1061.2</ele>
        <time>2024-06-16T06:59:11Z</time>
      </trkpt>
      <trkpt lat="46.63069" lon="6.25261">
        <ele>1061.5</ele>
        <time>2024-06-16T06:59:12Z</time>
      </trkpt>
      <trkpt lat="46.63066" lon="6.2526">
        <ele>1061.7</ele>
        <time>2024-06-16T06:59:13Z</time>
      </trkpt>
      <trkpt lat="46.63064" lon="6.25258">
        <ele>1061.9</ele>
        <time>2024-06-16T06:59:14Z</time>
      </trkpt>
      <trkpt lat="46.63062" lon="6.25257">
        <ele>1062.1</ele>
        <time>2024-06-16T06:59:15Z</time>
      </trkpt>
      <trkpt lat="46.6306" lon="6.25256">
        <ele>1062.3</ele>
        <time>2024-06-16T06:59:16Z</time>
      </trkpt>
      <trkpt lat="46.63058" lon="6.25255">
        <ele>1062.4</ele>
        <time>2024-06-16T06:59:17Z</time>
      </trkpt>
      <trkpt lat="46.63056" lon="6.25253">
        <ele>1062.4</ele>
        <time>2024-06-16T06:59:18Z</time>
      </trkpt>
      <trkpt lat="46.63054" lon="6.25252">
        <ele>1062.4</ele>
        <time>2024-06-16T06:59:19Z</time>
      </trkpt>
      <trkpt lat="46.63051" lon="6.25251">
        <ele>1062.5</ele>
        <time>2024-06-16T06:59:20Z</time>
      </trkpt>
      <trkpt lat="46.63049" lon="6.2525">
        <ele>1062.6</ele>
        <time>2024-06-16T06:59:21Z</time>
      </trkpt>
      <trkpt lat="46.63046" lon="6.25249">
        <ele>1062.5</ele>
        <time>2024-06-16T06:59:22Z</time>
      </trkpt>
      <trkpt lat="46.63044" lon="6.25247">
        <ele>1062.5</ele>
        <time>2024-06-16T06:59:23Z</time>
      </trkpt>
      <trkpt lat="46.63042" lon="6.25246">
        <ele>1062.6</ele>
        <time>2024-06-16T06:59:24Z</time>
      </trkpt>
      <trkpt lat="46.63039" lon="6.25244">
        <ele>1062.5</ele>
        <time>2024-06-16T06:59:25Z</time>
      </trkpt>
      <trkpt lat="46.63036" lon="6.25242">
        <ele>1062.5</ele>
        <time>2024-06-16T06:59:26Z</time>
      </trkpt>
      <trkpt lat="46.63034" lon="6.2524">
        <ele>1062.4</ele>
        <time>2024-06-16T06:59:27Z</time>
      </trkpt>
      <trkpt lat="46.63031" lon="6.25238">
        <ele>1062.3</ele>
        <time>2024-06-16T06:59:28Z</time>
      </trkpt>
      <trkpt lat="46.63028" lon="6.25236">
        <ele>1062.2</ele>
        <time>2024-06-16T06:59:29Z</time>
      </trkpt>
      <trkpt lat="46.63025" lon="6.25234">
        <ele>1062</ele>
        <time>2024-06-16T06:59:30Z</time>
      </trkpt>
      <trkpt lat="46.63022" lon="6.25231">
        <ele>1062</ele>
        <time>2024-06-16T06:59:31Z</time>
      </trkpt>
      <trkpt lat="46.63019" lon="6.25229">
        <ele>1062</ele>
        <time>2024-06-16T06:59:32Z</time>
      </trkpt>
      <trkpt lat="46.63016" lon="6.25226">
        <ele>1062</ele>
        <time>2024-06-16T06:59:33Z</time>
      </trkpt>
      <trkpt lat="46.63013" lon="6.25223">
        <ele>1062.1</ele>
        <time>2024-06-16T06:59:34Z</time>
      </trkpt>
      <trkpt lat="46.6301" lon="6.2522">
        <ele>1062.2</ele>
        <time>2024-06-16T06:59:35Z</time>
      </trkpt>
      <trkpt lat="46.63007" lon="6.25217">
        <ele>1062.2</ele>
        <time>2024-06-16T06:59:36Z</time>
      </trkpt>
      <trkpt lat="46.63004" lon="6.25214">
        <ele>1062.3</ele>
        <time>2024-06-16T06:59:37Z</time>
      </trkpt>
      <trkpt lat="46.63001" lon="6.25211">
        <ele>1062.4</ele>
        <time>2024-06-16T06:59:38Z</time>
      </trkpt>
      <trkpt lat="46.62999" lon="6.25208">
        <ele>1062.5</ele>
        <time>2024-06-16T06:59:39Z</time>
      </trkpt>
      <trkpt lat="46.62996" lon="6.25205">
        <ele>1062.6</ele>
        <time>2024-06-16T06:59:40Z</time>
      </trkpt>
      <trkpt lat="46.62993" lon="6.25201">
        <ele>1062.6</ele>
        <time>2024-06-16T06:59:41Z</time>
      </trkpt>
      <trkpt lat="46.6299" lon="6.25198">
        <ele>1062.4</ele>
        <time>2024-06-16T06:59:42Z</time>
      </trkpt>
      <trkpt lat="46.62987" lon="6.25194">
        <ele>1062.2</ele>
        <time>2024-06-16T06:59:43Z</time>
      </trkpt>
      <trkpt lat="46.62984" lon="6.2519">
        <ele>1062.1</ele>
        <time>2024-06-16T06:59:44Z</time>
      </trkpt>
      <trkpt lat="46.62981" lon="6.25187">
        <ele>1062.1</ele>
        <time>2024-06-16T06:59:45Z</time>
      </trkpt>
      <trkpt lat="46.62978" lon="6.25183">
        <ele>1061.9</ele>
        <time>2024-06-16T06:59:46Z</time>
      </trkpt>
      <trkpt lat="46.62975" lon="6.25179">
        <ele>1061.9</ele>
        <time>2024-06-16T06:59:47Z</time>
      </trkpt>
      <trkpt lat="46.62972" lon="6.25174">
        <ele>1061.8</ele>
        <time>2024-06-16T06:59:48Z</time>
      </trkpt>
      <trkpt lat="46.62969" lon="6.2517">
        <ele>1061.9</ele>
        <time>2024-06-16T06:59:49Z</time>
      </trkpt>
      <trkpt lat="46.62966" lon="6.25166">
        <ele>1061.9</ele>
        <time>2024-06-16T06:59:50Z</time>
      </trkpt>
      <trkpt lat="46.62963" lon="6.25161">
        <ele>1062</ele>
        <time>2024-06-16T06:59:51Z</time>
      </trkpt>
      <trkpt lat="46.6296" lon="6.25157">
        <ele>1062.1</ele>
        <time>2024-06-16T06:59:52Z</time>
      </trkpt>
      <trkpt lat="46.62957" lon="6.25152">
        <ele>1062.1</ele>
        <time>2024-06-16T06:59:53Z</time>
      </trkpt>
      <trkpt lat="46.62954" lon="6.25148">
        <ele>1062.1</ele>
        <time>2024-06-16T06:59:54Z</time>
      </trkpt>
      <trkpt lat="46.62951" lon="6.25143">
        <ele>1062.2</ele>
        <time>2024-06-16T06:59:55Z</time>
      </trkpt>
      <trkpt lat="46.62948" lon="6.25138">
        <ele>1062.2</ele>
        <time>2024-06-16T06:59:56Z</time>
      </trkpt>
      <trkpt lat="46.62945" lon="6.25133">
        <ele>1062</ele>
        <time>2024-06-16T06:59:57Z</time>
      </trkpt>
      <trkpt lat="46.62942" lon="6.25127">
        <ele>1061.7</ele>
        <time>2024-06-16T06:59:58Z</time>
      </trkpt>
      <trkpt lat="46.62939" lon="6.25121">
        <ele>1061.4</ele>
        <time>2024-06-16T06:59:59Z</time>
      </trkpt>
      <trkpt lat="46.62936" lon="6.25115">
        <ele>1061</ele>
        <time>2024-06-16T07:00:00Z</time>
      </trkpt>
      <trkpt lat="46.62932" lon="6.25109">
        <ele>1060.6</ele>
        <time>2024-06-16T07:00:01Z</time>
      </trkpt>
      <trkpt lat="46.62929" lon="6.25103">
        <ele>1060.2</ele>
        <time>2024-06-16T07:00:02Z</time>
      </trkpt>
      <trkpt lat="46.62925" lon="6.25098">
        <ele>1059.8</ele>
        <time>2024-06-16T07:00:03Z</time>
      </trkpt>
      <trkpt lat="46.62922" lon="6.25092">
        <ele>1059.5</ele>
        <time>2024-06-16T07:00:04Z</time>
      </trkpt>
      <trkpt lat="46.62918" lon="6.25086">
        <ele>1059.2</ele>
        <time>2024-06-16T07:00:05Z</time>
      </trkpt>
      <trkpt lat="46.62914" lon="6.2508">
        <ele>1058.9</ele>
        <time>2024-06-16T07:00:06Z</time>
      </trkpt>
      <trkpt lat="46.6291" lon="6.25075">
        <ele>1058.7</ele>
        <time>2024-06-16T07:00:07Z</time>
      </trkpt>
      <trkpt lat="46.62906" lon="6.25069">
        <ele>1058.3</ele>
        <time>2024-06-16T07:00:08Z</time>
      </trkpt>
      <trkpt lat="46.62902" lon="6.25064">
        <ele>1057.9</ele>
        <time>2024-06-16T07:00:09Z</time>
      </trkpt>
      <trkpt lat="46.62898" lon="6.25059">
        <ele>1057.5</ele>
        <time>2024-06-16T07:00:10Z</time>
      </trkpt>
      <trkpt lat="46.62894" lon="6.25053">
        <ele>1057.2</ele>
        <time>2024-06-16T07:00:11Z</time>
      </trkpt>
      <trkpt lat="46.6289" lon="6.25047">
        <ele>1056.9</ele>
        <time>2024-06-16T07:00:12Z</time>
      </trkpt>
      <trkpt lat="46.62886" lon="6.25041">
        <ele>1056.6</ele>
        <time>2024-06-16T07:00:13Z</time>
      </trkpt>
      <trkpt lat="46.62882" lon="6.25036">
        <ele>1056.3</ele>
        <time>2024-06-16T07:00:14Z</time>
      </trkpt>
      <trkpt lat="46.62877" lon="6.2503">
        <ele>1056</ele>
        <time>2024-06-16T07:00:15Z</time>
      </trkpt>
      <trkpt lat="46.62873" lon="6.25024">
        <ele>1055.7</ele>
        <time>2024-06-16T07:00:16Z</time>
      </trkpt>
      <trkpt lat="46.62869" lon="6.25018">
        <ele>1055.5</ele>
        <time>2024-06-16T07:00:17Z</time>
      </trkpt>
      <trkpt lat="46.62865" lon="6.25012">
        <ele>1055.3</ele>
        <time>2024-06-16T07:00:18Z</time>
      </trkpt>
      <trkpt lat="46.62861" lon="6.25007">
        <ele>1055.2</ele>
        <time>2024-06-16T07:00:19Z</time>
      </trkpt>
      <trkpt lat="46.62857" lon="6.25001">
        <ele>1054.9</ele>
        <time>2024-06-16T07:00:20Z</time>
      </trkpt>
      <trkpt lat="46.62853" lon="6.24996">
        <ele>1054.8</ele>
        <time>2024-06-16T07:00:21Z</time>
      </trkpt>
      <trkpt lat="46.62849" lon="6.2499">
        <ele>1054.6</ele>
        <time>2024-06-16T07:00:22Z</time>
      </trkpt>
      <trkpt lat="46.62845" lon="6.24985">
        <ele>1054.5</ele>
        <time>2024-06-16T07:00:23Z</time>
      </trkpt>
      <trkpt lat="46.62841" lon="6.2498">
        <ele>1054.6</ele>
        <time>2024-06-16T07:00:24Z</time>
      </trkpt>
      <trkpt lat="46.62837" lon="6.24976">
        <ele>1054.8</ele>
        <time>2024-06-16T07:00:25Z</time>
      </trkpt>
      <trkpt lat="46.62834" lon="6.24972">
        <ele>1054.9</ele>
        <time>2024-06-16T07:00:26Z</time>
      </trkpt>
      <trkpt lat="46.6283" lon="6.24968">
        <ele>1055.1</ele>
        <time>2024-06-16T07:00:27Z</time>
      </trkpt>
      <trkpt lat="46.62826" lon="6.24964">
        <ele>1055.4</ele>
        <time>2024-06-16T07:00:28Z</time>
      </trkpt>
      <trkpt lat="46.62823" lon="6.2496">
        <ele>1055.8</ele>
        <time>2024-06-16T07:00:29Z</time>
      </trkpt>
      <trkpt lat="46.62819" lon="6.24957">
        <ele>1056.3</ele>
        <time>2024-06-16T07:00:30Z</time>
      </trkpt>
      <trkpt lat="46.62816" lon="6.24954">
        <ele>1056.8</ele>
        <time>2024-06-16T07:00:31Z</time>
      </trkpt>
      <trkpt lat="46.62813" lon="6.2495">
        <ele>1057.3</ele>
        <time>2024-06-16T07:00:32Z</time>
      </trkpt>
      <trkpt lat="46.6281" lon="6.24946">
        <ele>1057.7</ele>
        <time>2024-06-16T07:00:33Z</time>
      </trkpt>
      <trkpt lat="46.62807" lon="6.24942">
        <ele>1058</ele>
        <time>2024-06-16T07:00:34Z</time>
      </trkpt>
      <trkpt lat="46.62804" lon="6.24939">
        <ele>1058.3</ele>
        <time>2024-06-16T07:00:35Z</time>
      </trkpt>
      <trkpt lat="46.62801" lon="6.24935">
        <ele>1058.5</ele>
        <time>2024-06-16T07:00:36Z</time>
      </trkpt>
      <trkpt lat="46.62798" lon="6.24932">
        <ele>1058.6</ele>
        <time>2024-06-16T07:00:37Z</time>
      </trkpt>
      <trkpt lat="46.62795" lon="6.24928">
        <ele>1058.6</ele>
        <time>2024-06-16T07:00:38Z</time>
      </trkpt>
      <trkpt lat="46.62792" lon="6.24924">
        <ele>1058.7</ele>
        <time>2024-06-16T07:00:39Z</time>
      </trkpt>
      <trkpt lat="46.62789" lon="6.2492">
        <ele>1058.6</ele>
        <time>2024-06-16T07:00:40Z</time>
      </trkpt>
      <trkpt lat="46.62786" lon="6.24916">
        <ele>1058.6</ele>
        <time>2024-06-16T07:00:41Z</time>
      </trkpt>
      <trkpt lat="46.62784" lon="6.24912">
        <ele>1058.6</ele>
        <time>2024-06-16T07:00:42Z</time>
      </trkpt>
      <trkpt lat="46.62781" lon="6.24908">
        <ele>1058.6</ele>
        <time>2024-06-16T07:00:43Z</time>
      </trkpt>
      <trkpt lat="46.62778" lon="6.24904">
        <ele>1058.6</ele>
        <time>2024-06-16T07:00:44Z</time>
      </trkpt>
      <trkpt lat="46.62775" lon="6.249">
        <ele>1058.6</ele>
        <time>2024-06-16T07:00:45Z</time>
      </trkpt>
      <trkpt lat="46.62772" lon="6.24896">
        <ele>1058.7</ele>
        <time>2024-06-16T07:00:46Z</time>
      </trkpt>
      <trkpt lat="46.62769" lon="6.24892">
        <ele>1058.7</ele>
        <time>2024-06-16T07:00:47Z</time>
      </trkpt>
      <trkpt lat="46.62766" lon="6.24889">
        <ele>1058.9</ele>
        <time>2024-06-16T07:00:48Z</time>
      </trkpt>
      <trkpt lat="46.62763" lon="6.24886">
        <ele>1059.1</ele>
        <time>2024-06-16T07:00:49Z</time>
      </trkpt>
      <trkpt lat="46.6276" lon="6.24883">
        <ele>1059.3</ele>
        <time>2024-06-16T07:00:50Z</time>
      </trkpt>
      <trkpt lat="46.62757" lon="6.2488">
        <ele>1059.5</ele>
        <time>2024-06-16T07:00:51Z</time>
      </trkpt>
      <trkpt lat="46.62754" lon="6.24878">
        <ele>1059.9</ele>
        <time>2024-06-16T07:00:52Z</time>
      </trkpt>
      <trkpt lat="46.62751" lon="6.24875">
        <ele>1060.1</ele>
        <time>2024-06-16T07:00:53Z</time>
      </trkpt>
      <trkpt lat="46.62748" lon="6.24873">
        <ele>1060.4</ele>
        <time>2024-06-16T07:00:54Z</time>
      </trkpt>
      <trkpt lat="46.62746" lon="6.24871">
        <ele>1060.6</ele>
        <time>2024-06-16T07:00:55Z</time>
      </trkpt>
      <trkpt lat="46.62743" lon="6.2487">
        <ele>1060.9</ele>
        <time>2024-06-16T07:00:56Z</time>
      </trkpt>
      <trkpt lat="46.6274" lon="6.24868">
        <ele>1061.2</ele>
        <time>2024-06-16T07:00:57Z</time>
      </trkpt>
      <trkpt lat="46.62737" lon="6.24866">
        <ele>1061.5</ele>
        <time>2024-06-16T07:00:58Z</time>
      </trkpt>
      <trkpt lat="46.62734" lon="6.24865">
        <ele>1061.8</ele>
        <time>2024-06-16T07:00:59Z</time>
      </trkpt>
      <trkpt lat="46.62731" lon="6.24863">
        <ele>1062.2</ele>
        <time>2024-06-16T07:01:00Z</time>
      </trkpt>
      <trkpt lat="46.62728" lon="6.24861">
        <ele>1062.4</ele>
        <time>2024-06-16T07:01:01Z</time>
      </trkpt>
      <trkpt lat="46.62725" lon="6.24859">
        <ele>1062.5</ele>
        <time>2024-06-16T07:01:02Z</time>
      </trkpt>
      <trkpt lat="46.62722" lon="6.24857">
        <ele>1062.5</ele>
        <time>2024-06-16T07:01:03Z</time>
      </trkpt>
      <trkpt lat="46.62719" lon="6.24855">
        <ele>1062.6</ele>
        <time>2024-06-16T07:01:04Z</time>
      </trkpt>
      <trkpt lat="46.62716" lon="6.24854">
        <ele>1062.6</ele>
        <time>2024-06-16T07:01:05Z</time>
      </trkpt>
      <trkpt lat="46.62713" lon="6.24852">
        <ele>1062.6</ele>
        <time>2024-06-16T07:01:06Z</time>
      </trkpt>
      <trkpt lat="46.6271" lon="6.2485">
        <ele>1062.6</ele>
        <time>2024-06-16T07:01:07Z</time>
      </trkpt>
      <trkpt lat="46.62707" lon="6.24848">
        <ele>1062.5</ele>
        <time>2024-06-16T07:01:08Z</time>
      </trkpt>
      <trkpt lat="46.62704" lon="6.24846">
        <ele>1062.6</ele>
        <time>2024-06-16T07:01:09Z</time>
      </trkpt>
      <trkpt lat="46.627" lon="6.24844">
        <ele>1062.7</ele>
        <time>2024-06-16T07:01:10Z</time>
      </trkpt>
      <trkpt lat="46.62697" lon="6.24843">
        <ele>1062.8</ele>
        <time>2024-06-16T07:01:11Z</time>
      </trkpt>
      <trkpt lat="46.62693" lon="6.24841">
        <ele>1062.8</ele>
        <time>2024-06-16T07:01:12Z</time>
      </trkpt>
      <trkpt lat="46.6269" lon="6.2484">
        <ele>1062.8</ele>
        <time>2024-06-16T07:01:13Z</time>
      </trkpt>
      <trkpt lat="46.62686" lon="6.24838">
        <ele>1063</ele>
        <time>2024-06-16T07:01:14Z</time>
      </trkpt>
      <trkpt lat="46.62683" lon="6.24837">
        <ele>1063</ele>
        <time>2024-06-16T07:01:15Z</time>
      </trkpt>
      <trkpt lat="46.62679" lon="6.24837">
        <ele>1063.2</ele>
        <time>2024-06-16T07:01:16Z</time>
      </trkpt>
      <trkpt lat="46.62676" lon="6.24836">
        <ele>1063.3</ele>
        <time>2024-06-16T07:01:17Z</time>
      </trkpt>
      <trkpt lat="46.62672" lon="6.24836">
        <ele>1063.4</ele>
        <time>2024-06-16T07:01:18Z</time>
      </trkpt>
      <trkpt lat="46.62669" lon="6.24835">
        <ele>1063.5</ele>
        <time>2024-06-16T07:01:19Z</time>
      </trkpt>
      <trkpt lat="46.62665" lon="6.24835">
        <ele>1063.5</ele>
        <time>2024-06-16T07:01:20Z</time>
      </trkpt>
      <trkpt lat="46.62662" lon="6.24834">
        <ele>1063.6</ele>
        <time>2024-06-16T07:01:21Z</time>
      </trkpt>
      <trkpt lat="46.62658" lon="6.24834">
        <ele>1063.6</ele>
        <time>2024-06-16T07:01:22Z</time>
      </trkpt>
      <trkpt lat="46.62655" lon="6.24834">
        <ele>1063.7</ele>
        <time>2024-06-16T07:01:23Z</time>
      </trkpt>
      <trkpt lat="46.62652" lon="6.24833">
        <ele>1063.8</ele>
        <time>2024-06-16T07:01:24Z</time>
      </trkpt>
      <trkpt lat="46.62648" lon="6.24833">
        <ele>1063.9</ele>
        <time>2024-06-16T07:01:25Z</time>
      </trkpt>
      <trkpt lat="46.62645" lon="6.24832">
        <ele>1063.8</ele>
        <time>2024-06-16T07:01:26Z</time>
      </trkpt>
      <trkpt lat="46.62642" lon="6.24832">
        <ele>1063.9</ele>
        <time>2024-06-16T07:01:27Z</time>
      </trkpt>
      <trkpt lat="46.62639" lon="6.24831">
        <ele>1064</ele>
        <time>2024-06-16T07:01:28Z</time>
      </trkpt>
      <trkpt lat="46.62636" lon="6.2483">
        <ele>1064</ele>
        <time>2024-06-16T07:01:29Z</time>
      </trkpt>
      <trkpt lat="46.62633" lon="6.24829">
        <ele>1064.1</ele>
        <time>2024-06-16T07:01:30Z</time>
      </trkpt>
      <trkpt lat="46.62631" lon="6.24828">
        <ele>1064.3</ele>
        <time>2024-06-16T07:01:31Z</time>
      </trkpt>
      <trkpt lat="46.62628" lon="6.24827">
        <ele>1064.5</ele>
        <time>2024-06-16T07:01:32Z</time>
      </trkpt>
      <trkpt lat="46.62626" lon="6.24826">
        <ele>1064.6</ele>
        <time>2024-06-16T07:01:33Z</time>
      </trkpt>
      <trkpt lat="46.62624" lon="6.24824">
        <ele>1064.8</ele>
        <time>2024-06-16T07:01:34Z</time>
      </trkpt>
      <trkpt lat="46.62622" lon="6.24823">
        <ele>1065</ele>
        <time>2024-06-16T07:01:35Z</time>
      </trkpt>
      <trkpt lat="46.62619" lon="6.24821">
        <ele>1065.2</ele>
        <time>2024-06-16T07:01:36Z</time>
      </trkpt>
      <trkpt lat="46.62617" lon="6.2482">
        <ele>1065.3</ele>
        <time>2024-06-16T07:01:37Z</time>
      </trkpt>
      <trkpt lat="46.62615" lon="6.24818">
        <ele>1065.6</ele>
        <time>2024-06-16T07:01:38Z</time>
      </trkpt>
      <trkpt lat="46.62613" lon="6.24816">
        <ele>1065.7</ele>
        <time>2024-06-16T07:01:39Z</time>
      </trkpt>
      <trkpt lat="46.62611" lon="6.24814">
        <ele>1065.8</ele>
        <time>2024-06-16T07:01:40Z</time>
      </trkpt>
      <trkpt lat="46.6261" lon="6.24812">
        <ele>1065.9</ele>
        <time>2024-06-16T07:01:41Z</time>
      </trkpt>
      <trkpt lat="46.62608" lon="6.2481">
        <ele>1065.8</ele>
        <time>2024-06-16T07:01:42Z</time>
      </trkpt>
      <trkpt lat="46.62606" lon="6.24807">
        <ele>1065.8</ele>
        <time>2024-06-16T07:01:43Z</time>
      </trkpt>
      <trkpt lat="46.62604" lon="6.24805">
        <ele>1065.9</ele>
        <time>2024-06-16T07:01:44Z</time>
      </trkpt>
      <trkpt lat="46.62602" lon="6.24803">
        <ele>1066</ele>
        <time>2024-06-16T07:01:45Z</time>
      </trkpt>
      <trkpt lat="46.62601" lon="6.248">
        <ele>1066.3</ele>
        <time>2024-06-16T07:01:46Z</time>
      </trkpt>
      <trkpt lat="46.62599" lon="6.24798">
        <ele>1066.5</ele>
        <time>2024-06-16T07:01:47Z</time>
      </trkpt>
      <trkpt lat="46.62597" lon="6.24795">
        <ele>1066.7</ele>
        <time>2024-06-16T07:01:48Z</time>
      </trkpt>
      <trkpt lat="46.62595" lon="6.24793">
        <ele>1066.9</ele>
        <time>2024-06-16T07:01:49Z</time>
      </trkpt>
      <trkpt lat="46.62594" lon="6.2479">
        <ele>1067.1</ele>
        <time>2024-06-16T07:01:50Z</time>
      </trkpt>
      <trkpt lat="46.62592" lon="6.24788">
        <ele>1067.2</ele>
        <time>2024-06-16T07:01:51Z</time>
      </trkpt>
      <trkpt lat="46.62591" lon="6.24785">
        <ele>1067.3</ele>
        <time>2024-06-16T07:01:52Z</time>
      </trkpt>
      <trkpt lat="46.62589" lon="6.24783">
        <ele>1067.5</ele>
        <time>2024-06-16T07:01:53Z</time>
      </trkpt>
      <trkpt lat="46.62588" lon="6.2478">
        <ele>1067.8</ele>
        <time>2024-06-16T07:01:54Z</time>
      </trkpt>
      <trkpt lat="46.62586" lon="6.24778">
        <ele>1068.1</ele>
        <time>2024-06-16T07:01:55Z</time>
      </trkpt>
      <trkpt lat="46.62585" lon="6.24775">
        <ele>1068.4</ele>
        <time>2024-06-16T07:01:56Z</time>
      </trkpt>
      <trkpt lat="46.62584" lon="6.24773">
        <ele>1068.6</ele>
        <time>2024-06-16T07:01:57Z</time>
      </trkpt>
      <trkpt lat="46.62582" lon="6.2477">
        <ele>1068.8</ele>
        <time>2024-06-16T07:01:58Z</time>
      </trkpt>
      <trkpt lat="46.62581" lon="6.24767">
        <ele>1069</ele>
        <time>2024-06-16T07:01:59Z</time>
      </trkpt>
      <trkpt lat="46.6258" lon="6.24764">
        <ele>1069.3</ele>
        <time>2024-06-16T07:02:00Z</time>
      </trkpt>
      <trkpt lat="46.62578" lon="6.24761">
        <ele>1069.6</ele>
        <time>2024-06-16T07:02:01Z</time>
      </trkpt>
      <trkpt lat="46.62577" lon="6.24759">
        <ele>1069.9</ele>
        <time>2024-06-16T07:02:02Z</time>
      </trkpt>
      <trkpt lat="46.62576" lon="6.24756">
        <ele>1070.2</ele>
        <time>2024-06-16T07:02:03Z</time>
      </trkpt>
      <trkpt lat="46.62574" lon="6.24753">
        <ele>1070.4</ele>
        <time>2024-06-16T07:02:04Z</time>
      </trkpt>
      <trkpt lat="46.62572" lon="6.2475">
        <ele>1070.5</ele>
        <time>2024-06-16T07:02:05Z</time>
      </trkpt>
      <trkpt lat="46.62571" lon="6.24747">
        <ele>1070.7</ele>
        <time>2024-06-16T07:02:06Z</time>
      </trkpt>
      <trkpt lat="46.62569" lon="6.24745">
        <ele>1070.8</ele>
        <time>2024-06-16T07:02:07Z</time>
      </trkpt>
      <trkpt lat="46.62567" lon="6.24742">
        <ele>1071</ele>
        <time>2024-06-16T07:02:08Z</time>
      </trkpt>
      <trkpt lat="46.62565" lon="6.24739">
        <ele>1070.9</ele>
        <time>2024-06-16T07:02:09Z</time>
      </trkpt>
      <trkpt lat="46.62564" lon="6.24736">
        <ele>1071</ele>
        <time>2024-06-16T07:02:10Z</time>
      </trkpt>
      <trkpt lat="46.62562" lon="6.24733">
        <ele>1071</ele>
        <time>2024-06-16T07:02:11Z</time>
      </trkpt>
      <trkpt lat="46.6256" lon="6.2473">
        <ele>1071</ele>
        <time>2024-06-16T07:02:12Z</time>
      </trkpt>
      <trkpt lat="46.62557" lon="6.24727">
        <ele>1071</ele>
        <time>2024-06-16T07:02:13Z</time>
      </trkpt>
      <trkpt lat="46.62555" lon="6.24724">
        <ele>1071</ele>
        <time>2024-06-16T07:02:14Z</time>
      </trkpt>
      <trkpt lat="46.62553" lon="6.24721">
        <ele>1071</ele>
        <time>2024-06-16T07:02:15Z</time>
      </trkpt>
      <trkpt lat="46.62551" lon="6.24718">
        <ele>1071.1</ele>
        <time>2024-06-16T07:02:16Z</time>
      </trkpt>
      <trkpt lat="46.62549" lon="6.24715">
        <ele>1071.2</ele>
        <time>2024-06-16T07:02:17Z</time>
      </trkpt>
      <trkpt lat="46.62547" lon="6.24712">
        <ele>1071.2</ele>
        <time>2024-06-16T07:02:18Z</time>
      </trkpt>
      <trkpt lat="46.62544" lon="6.24709">
        <ele>1071.2</ele>
        <time>2024-06-16T07:02:19Z</time>
      </trkpt>
      <trkpt lat="46.62542" lon="6.24706">
        <ele>1071.2</ele>
        <time>2024-06-16T07:02:20Z</time>
      </trkpt>
      <trkpt lat="46.6254" lon="6.24702">
        <ele>1071.2</ele>
        <time>2024-06-16T07:02:21Z</time>
      </trkpt>
      <trkpt lat="46.62538" lon="6.24699">
        <ele>1071.2</ele>
        <time>2024-06-16T07:02:22Z</time>
      </trkpt>
      <trkpt lat="46.62535" lon="6.24696">
        <ele>1071.2</ele>
        <time>2024-06-16T07:02:23Z</time>
      </trkpt>
      <trkpt lat="46.62533" lon="6.24693">
        <ele>1071.2</ele>
        <time>2024-06-16T07:02:24Z</time>
      </trkpt>
      <trkpt lat="46.62531" lon="6.2469">
        <ele>1071.3</ele>
        <time>2024-06-16T07:02:25Z</time>
      </trkpt>
      <trkpt lat="46.62529" lon="6.24687">
        <ele>1071.4</ele>
        <time>2024-06-16T07:02:26Z</time>
      </trkpt>
      <trkpt lat="46.62527" lon="6.24683">
        <ele>1071.4</ele>
        <time>2024-06-16T07:02:27Z</time>
      </trkpt>
      <trkpt lat="46.62524" lon="6.2468">
        <ele>1071.5</ele>
        <time>2024-06-16T07:02:28Z</time>
      </trkpt>
      <trkpt lat="46.62522" lon="6.24677">
        <ele>1071.5</ele>
        <time>2024-06-16T07:02:29Z</time>
      </trkpt>
      <trkpt lat="46.6252" lon="6.24674">
        <ele>1071.5</ele>
        <time>2024-06-16T07:02:30Z</time>
      </trkpt>
      <trkpt lat="46.62518" lon="6.2467">
        <ele>1071.5</ele>
        <time>2024-06-16T07:02:31Z</time>
      </trkpt>
      <trkpt lat="46.62516" lon="6.24667">
        <ele>1071.7</ele>
        <time>2024-06-16T07:02:32Z</time>
      </trkpt>
      <trkpt lat="46.62514" lon="6.24664">
        <ele>1071.9</ele>
        <time>2024-06-16T07:02:33Z</time>
      </trkpt>
      <trkpt lat="46.62511" lon="6.24661">
        <ele>1072.1</ele>
        <time>2024-06-16T07:02:34Z</time>
      </trkpt>
      <trkpt lat="46.62509" lon="6.24657">
        <ele>1072.4</ele>
        <time>2024-06-16T07:02:35Z</time>
      </trkpt>
      <trkpt lat="46.62507" lon="6.24654">
        <ele>1072.8</ele>
        <time>2024-06-16T07:02:36Z</time>
      </trkpt>
      <trkpt lat="46.62505" lon="6.24651">
        <ele>1073</ele>
        <time>2024-06-16T07:02:37Z</time>
      </trkpt>
      <trkpt lat="46.62502" lon="6.24647">
        <ele>1073.2</ele>
        <time>2024-06-16T07:02:38Z</time>
      </trkpt>
      <trkpt lat="46.625" lon="6.24643">
        <ele>1073.3</ele>
        <time>2024-06-16T07:02:39Z</time>
      </trkpt>
      <trkpt lat="46.62497" lon="6.24639">
        <ele>1073.3</ele>
        <time>2024-06-16T07:02:40Z</time>
      </trkpt>
      <trkpt lat="46.62495" lon="6.24635">
        <ele>1073.2</ele>
        <time>2024-06-16T07:02:41Z</time>
      </trkpt>
      <trkpt lat="46.62492" lon="6.24631">
        <ele>1073.1</ele>
        <time>2024-06-16T07:02:42Z</time>
      </trkpt>
      <trkpt lat="46.6249" lon="6.24627">
        <ele>1073</ele>
        <time>2024-06-16T07:02:43Z</time>
      </trkpt>
      <trkpt lat="46.62488" lon="6.24622">
        <ele>1072.8</ele>
        <time>2024-06-16T07:02:44Z</time>
      </trkpt>
      <trkpt lat="46.62485" lon="6.24617">
        <ele>1072.6</ele>
        <time>2024-06-16T07:02:45Z</time>
      </trkpt>
      <trkpt lat="46.62483" lon="6.24613">
        <ele>1072.4</ele>
        <time>2024-06-16T07:02:46Z</time>
      </trkpt>
      <trkpt lat="46.62481" lon="6.24608">
        <ele>1072.2</ele>
        <time>2024-06-16T07:02:47Z</time>
      </trkpt>
      <trkpt lat="46.62478" lon="6.24603">
        <ele>1072</ele>
        <time>2024-06-16T07:02:48Z</time>
      </trkpt>
      <trkpt lat="46.62476" lon="6.24598">
        <ele>1071.8</ele>
        <time>2024-06-16T07:02:49Z</time>
      </trkpt>
      <trkpt lat="46.62474" lon="6.24593">
        <ele>1071.8</ele>
        <time>2024-06-16T07:02:50Z</time>
      </trkpt>
      <trkpt lat="46.62471" lon="6.24588">
        <ele>1071.7</ele>
        <time>2024-06-16T07:02:51Z</time>
      </trkpt>
      <trkpt lat="46.62469" lon="6.24583">
        <ele>1071.7</ele>
        <time>2024-06-16T07:02:52Z</time>
      </trkpt>
      <trkpt lat="46.62467" lon="6.24578">
        <ele>1071.7</ele>
        <time>2024-06-16T07:02:53Z</time>
      </trkpt>
      <trkpt lat="46.62465" lon="6.24574">
        <ele>1071.6</ele>
        <time>2024-06-16T07:02:54Z</time>
      </trkpt>
      <trkpt lat="46.62463" lon="6.24569">
        <ele>1071.6</ele>
        <time>2024-06-16T07:02:55Z</time>
      </trkpt>
      <trkpt lat="46.62461" lon="6.24564">
        <ele>1071.6</ele>
        <time>2024-06-16T07:02:56Z</time>
      </trkpt>
      <trkpt lat="46.62459" lon="6.2456">
        <ele>1071.7</ele>
        <time>2024-06-16T07:02:57Z</time>
      </trkpt>
      <trkpt lat="46.62457" lon="6.24556">
        <ele>1071.8</ele>
        <time>2024-06-16T07:02:58Z</time>
      </trkpt>
      <trkpt lat="46.62455" lon="6.24551">
        <ele>1071.8</ele>
        <time>2024-06-16T07:02:59Z</time>
      </trkpt>
      <trkpt lat="46.62453" lon="6.24547">
        <ele>1071.8</ele>
        <time>2024-06-16T07:03:00Z</time>
      </trkpt>
      <trkpt lat="46.62451" lon="6.24544">
        <ele>1071.7</ele>
        <time>2024-06-16T07:03:01Z</time>
      </trkpt>
      <trkpt lat="46.62449" lon="6.24542">
        <ele>1071.6</ele>
        <time>2024-06-16T07:03:02Z</time>
      </trkpt>
      <trkpt lat="46.62447" lon="6.24542">
        <ele>1071.3</ele>
        <time>2024-06-16T07:03:03Z</time>
      </trkpt>
      <trkpt lat="46.62445" lon="6.24544">
        <ele>1070.9</ele>
        <time>2024-06-16T07:03:04Z</time>
      </trkpt>
      <trkpt lat="46.62443" lon="6.24547">
        <ele>1070.4</ele>
        <time>2024-06-16T07:03:05Z</time>
      </trkpt>
      <trkpt lat="46.62441" lon="6.24552">
        <ele>1070.1</ele>
        <time>2024-06-16T07:03:06Z</time>
      </trkpt>
      <trkpt lat="46.62438" lon="6.24558">
        <ele>1069.8</ele>
        <time>2024-06-16T07:03:07Z</time>
      </trkpt>
      <trkpt lat="46.62436" lon="6.24564">
        <ele>1069.7</ele>
        <time>2024-06-16T07:03:08Z</time>
      </trkpt>
      <trkpt lat="46.62434" lon="6.24571">
        <ele>1069.4</ele>
        <time>2024-06-16T07:03:09Z</time>
      </trkpt>
      <trkpt lat="46.62432" lon="6.24577">
        <ele>1069.2</ele>
        <time>2024-06-16T07:03:10Z</time>
      </trkpt>
      <trkpt lat="46.6243" lon="6.24583">
        <ele>1069.1</ele>
        <time>2024-06-16T07:03:11Z</time>
      </trkpt>
      <trkpt lat="46.62428" lon="6.24589">
        <ele>1069</ele>
        <time>2024-06-16T07:03:12Z</time>
      </trkpt>
      <trkpt lat="46.62427" lon="6.24595">
        <ele>1069.1</ele>
        <time>2024-06-16T07:03:13Z</time>
      </trkpt>
      <trkpt lat="46.62425" lon="6.246">
        <ele>1069.1</ele>
        <time>2024-06-16T07:03:14Z</time>
      </trkpt>
      <trkpt lat="46.62423" lon="6.24605">
        <ele>1069.3</ele>
        <time>2024-06-16T07:03:15Z</time>
      </trkpt>
      <trkpt lat="46.62422" lon="6.24609">
        <ele>1069.4</ele>
        <time>2024-06-16T07:03:16Z</time>
      </trkpt>
      <trkpt lat="46.6242" lon="6.24613">
        <ele>1069.6</ele>
        <time>2024-06-16T07:03:17Z</time>
      </trkpt>
      <trkpt lat="46.62419" lon="6.24617">
        <ele>1069.8</ele>
        <time>2024-06-16T07:03:18Z</time>
      </trkpt>
      <trkpt lat="46.62418" lon="6.2462">
        <ele>1070</ele>
        <time>2024-06-16T07:03:19Z</time>
      </trkpt>
      <trkpt lat="46.62417" lon="6.24623">
        <ele>1070.2</ele>
        <time>2024-06-16T07:03:20Z</time>
      </trkpt>
      <trkpt lat="46.62416" lon="6.24626">
        <ele>1070.3</ele>
        <time>2024-06-16T07:03:21Z</time>
      </trkpt>
      <trkpt lat="46.62415" lon="6.24628">
        <ele>1070.5</ele>
        <time>2024-06-16T07:03:22Z</time>
      </trkpt>
      <trkpt lat="46.62414" lon="6.24631">
        <ele>1070.7</ele>
        <time>2024-06-16T07:03:23Z</time>
      </trkpt>
      <trkpt lat="46.62414" lon="6.24634">
        <ele>1071</ele>
        <time>2024-06-16T07:03:24Z</time>
      </trkpt>
      <trkpt lat="46.62413" lon="6.24636">
        <ele>1071.4</ele>
        <time>2024-06-16T07:03:25Z</time>
      </trkpt>
      <trkpt lat="46.62413" lon="6.24639">
        <ele>1071.8</ele>
        <time>2024-06-16T07:03:26Z</time>
      </trkpt>
      <trkpt lat="46.62413" lon="6.24641">
        <ele>1072.2</ele>
        <time>2024-06-16T07:03:27Z</time>
      </trkpt>
      <trkpt lat="46.62414" lon="6.24643">
        <ele>1072.7</ele>
        <time>2024-06-16T07:03:28Z</time>
      </trkpt>
      <trkpt lat="46.62414" lon="6.24645">
        <ele>1073.2</ele>
        <time>2024-06-16T07:03:29Z</time>
      </trkpt>
      <trkpt lat="46.62415" lon="6.24647">
        <ele>1073.7</ele>
        <time>2024-06-16T07:03:31Z</time>
      </trkpt>
      <trkpt lat="46.62416" lon="6.24648">
        <ele>1074.2</ele>
        <time>2024-06-16T07:03:32Z</time>
      </trkpt>
      <trkpt lat="46.62416" lon="6.2465">
        <ele>1074.7</ele>
        <time>2024-06-16T07:03:33Z</time>
      </trkpt>
      <trkpt lat="46.62417" lon="6.24652">
        <ele>1075.2</ele>
        <time>2024-06-16T07:03:34Z</time>
      </trkpt>
      <trkpt lat="46.62417" lon="6.24654">
        <ele>1075.7</ele>
        <time>2024-06-16T07:03:35Z</time>
      </trkpt>
      <trkpt lat="46.62417" lon="6.24655">
        <ele>1076.2</ele>
        <time>2024-06-16T07:03:36Z</time>
      </trkpt>
      <trkpt lat="46.62418" lon="6.24657">
        <ele>1076.6</ele>
        <time>2024-06-16T07:03:37Z</time>
      </trkpt>
      <trkpt lat="46.62418" lon="6.24659">
        <ele>1077.2</ele>
        <time>2024-06-16T07:03:38Z</time>
      </trkpt>
      <trkpt lat="46.62418" lon="6.24661">
        <ele>1077.7</ele>
        <time>2024-06-16T07:03:39Z</time>
      </trkpt>
      <trkpt lat="46.62418" lon="6.24663">
        <ele>1078.2</ele>
        <time>2024-06-16T07:03:40Z</time>
      </trkpt>
      <trkpt lat="46.62418" lon="6.24665">
        <ele>1078.6</ele>
        <time>2024-06-16T07:03:41Z</time>
      </trkpt>
      <trkpt lat="46.62418" lon="6.24667">
        <ele>1078.9</ele>
        <time>2024-06-16T07:03:42Z</time>
      </trkpt>
      <trkpt lat="46.62418" lon="6.2467">
        <ele>1079.2</ele>
        <time>2024-06-16T07:03:43Z</time>
      </trkpt>
      <trkpt lat="46.62418" lon="6.24672">
        <ele>1079.3</ele>
        <time>2024-06-16T07:03:44Z</time>
      </trkpt>
      <trkpt lat="46.62417" lon="6.24674">
        <ele>1079.4</ele>
        <time>2024-06-16T07:03:45Z</time>
      </trkpt>
      <trkpt lat="46.62416" lon="6.24676">
        <ele>1079.4</ele>
        <time>2024-06-16T07:03:46Z</time>
      </trkpt>
      <trkpt lat="46.62415" lon="6.24678">
        <ele>1079.4</ele>
        <time>2024-06-16T07:03:47Z</time>
      </trkpt>
      <trkpt lat="46.62414" lon="6.24679">
        <ele>1079.3</ele>
        <time>2024-06-16T07:03:48Z</time>
      </trkpt>
      <trkpt lat="46.62413" lon="6.24679">
        <ele>1079.1</ele>
        <time>2024-06-16T07:03:48Z</time>
      </trkpt>
      <trkpt lat="46.62412" lon="6.2468">
        <ele>1079.1</ele>
        <time>2024-06-16T07:03:49Z</time>
      </trkpt>
      <trkpt lat="46.62411" lon="6.2468">
        <ele>1079</ele>
        <time>2024-06-16T07:03:50Z</time>
      </trkpt>
      <trkpt lat="46.6241" lon="6.24679">
        <ele>1079.1</ele>
        <time>2024-06-16T07:03:51Z</time>
      </trkpt>
      <trkpt lat="46.62409" lon="6.24678">
        <ele>1079.1</ele>
        <time>2024-06-16T07:03:52Z</time>
      </trkpt>
      <trkpt lat="46.62408" lon="6.24678">
        <ele>1079.4</ele>
        <time>2024-06-16T07:03:53Z</time>
      </trkpt>
      <trkpt lat="46.62407" lon="6.24677">
        <ele>1079.7</ele>
        <time>2024-06-16T07:03:54Z</time>
      </trkpt>
      <trkpt lat="46.62406" lon="6.24675">
        <ele>1080.1</ele>
        <time>2024-06-16T07:03:55Z</time>
      </trkpt>
      <trkpt lat="46.62406" lon="6.24675">
        <ele>1080.5</ele>
        <time>2024-06-16T07:03:56Z</time>
      </trkpt>
      <trkpt lat="46.62405" lon="6.24674">
        <ele>1080.8</ele>
        <time>2024-06-16T07:03:57Z</time>
      </trkpt>
      <trkpt lat="46.62404" lon="6.24673">
        <ele>1081.2</ele>
        <time>2024-06-16T07:03:58Z</time>
      </trkpt>
      <trkpt lat="46.62403" lon="6.24672">
        <ele>1081.5</ele>
        <time>2024-06-16T07:03:59Z</time>
      </trkpt>
      <trkpt lat="46.62402" lon="6.2467">
        <ele>1082</ele>
        <time>2024-06-16T07:04:00Z</time>
      </trkpt>
      <trkpt lat="46.62401" lon="6.24669">
        <ele>1082.5</ele>
        <time>2024-06-16T07:04:01Z</time>
      </trkpt>
      <trkpt lat="46.62401" lon="6.24668">
        <ele>1082.8</ele>
        <time>2024-06-16T07:04:02Z</time>
      </trkpt>
      <trkpt lat="46.624" lon="6.24667">
        <ele>1083.1</ele>
        <time>2024-06-16T07:04:03Z</time>
      </trkpt>
      <trkpt lat="46.62399" lon="6.24665">
        <ele>1083.4</ele>
        <time>2024-06-16T07:04:04Z</time>
      </trkpt>
      <trkpt lat="46.62398" lon="6.24664">
        <ele>1083.6</ele>
        <time>2024-06-16T07:04:05Z</time>
      </trkpt>
      <trkpt lat="46.62397" lon="6.24663">
        <ele>1083.8</ele>
        <time>2024-06-16T07:04:06Z</time>
      </trkpt>
      <trkpt lat="46.62396" lon="6.24661">
        <ele>1084</ele>
        <time>2024-06-16T07:04:07Z</time>
      </trkpt>
      <trkpt lat="46.62395" lon="6.24659">
        <ele>1084.2</ele>
        <time>2024-06-16T07:04:08Z</time>
      </trkpt>
      <trkpt lat="46.62394" lon="6.24658">
        <ele>1084.5</ele>
        <time>2024-06-16T07:04:09Z</time>
      </trkpt>
      <trkpt lat="46.62393" lon="6.24656">
        <ele>1084.8</ele>
        <time>2024-06-16T07:04:10Z</time>
      </trkpt>
      <trkpt lat="46.62391" lon="6.24654">
        <ele>1085</ele>
        <time>2024-06-16T07:04:11Z</time>
      </trkpt>
      <trkpt lat="46.6239" lon="6.24653">
        <ele>1085.3</ele>
        <time>2024-06-16T07:04:12Z</time>
      </trkpt>
      <trkpt lat="46.62389" lon="6.24652">
        <ele>1085.5</ele>
        <time>2024-06-16T07:04:13Z</time>
      </trkpt>
      <trkpt lat="46.62388" lon="6.2465">
        <ele>1085.7</ele>
        <time>2024-06-16T07:04:14Z</time>
      </trkpt>
      <trkpt lat="46.62387" lon="6.24649">
        <ele>1086</ele>
        <time>2024-06-16T07:04:15Z</time>
      </trkpt>
      <trkpt lat="46.62386" lon="6.24647">
        <ele>1086.2</ele>
        <time>2024-06-16T07:04:16Z</time>
      </trkpt>
      <trkpt lat="46.62385" lon="6.24646">
        <ele>1086.6</ele>
        <time>2024-06-16T07:04:17Z</time>
      </trkpt>
      <trkpt lat="46.62385" lon="6.24644">
        <ele>1086.9</ele>
        <time>2024-06-16T07:04:18Z</time>
      </trkpt>
      <trkpt lat="46.62384" lon="6.24642">
        <ele>1087.2</ele>
        <time>2024-06-16T07:04:19Z</time>
      </trkpt>
      <trkpt lat="46.62383" lon="6.24641">
        <ele>1087.4</ele>
        <time>2024-06-16T07:04:20Z</time>
      </trkpt>
      <trkpt lat="46.62383" lon="6.24639">
        <ele>1087.6</ele>
        <time>2024-06-16T07:04:21Z</time>
      </trkpt>
      <trkpt lat="46.62382" lon="6.24637">
        <ele>1087.8</ele>
        <time>2024-06-16T07:04:22Z</time>
      </trkpt>
      <trkpt lat="46.62381" lon="6.24635">
        <ele>1087.9</ele>
        <time>2024-06-16T07:04:23Z</time>
      </trkpt>
      <trkpt lat="46.62379" lon="6.24634">
        <ele>1087.9</ele>
        <time>2024-06-16T07:04:24Z</time>
      </trkpt>
      <trkpt lat="46.62378" lon="6.24632">
        <ele>1088</ele>
        <time>2024-06-16T07:04:25Z</time>
      </trkpt>
      <trkpt lat="46.62377" lon="6.24631">
        <ele>1088.2</ele>
        <time>2024-06-16T07:04:26Z</time>
      </trkpt>
      <trkpt lat="46.62375" lon="6.24629">
        <ele>1088.2</ele>
        <time>2024-06-16T07:04:27Z</time>
      </trkpt>
      <trkpt lat="46.62374" lon="6.24628">
        <ele>1088.3</ele>
        <time>2024-06-16T07:04:28Z</time>
      </trkpt>
      <trkpt lat="46.62372" lon="6.24626">
        <ele>1088.4</ele>
        <time>2024-06-16T07:04:29Z</time>
      </trkpt>
      <trkpt lat="46.62371" lon="6.24625">
        <ele>1088.5</ele>
        <time>2024-06-16T07:04:30Z</time>
      </trkpt>
      <trkpt lat="46.62369" lon="6.24623">
        <ele>1088.7</ele>
        <time>2024-06-16T07:04:31Z</time>
      </trkpt>
      <trkpt lat="46.62368" lon="6.24622">
        <ele>1088.7</ele>
        <time>2024-06-16T07:04:32Z</time>
      </trkpt>
      <trkpt lat="46.62367" lon="6.2462">
        <ele>1088.9</ele>
        <time>2024-06-16T07:04:33Z</time>
      </trkpt>
      <trkpt lat="46.62366" lon="6.24619">
        <ele>1088.9</ele>
        <time>2024-06-16T07:04:34Z</time>
      </trkpt>
      <trkpt lat="46.62364" lon="6.24618">
        <ele>1089</ele>
        <time>2024-06-16T07:04:35Z</time>
      </trkpt>
      <trkpt lat="46.62363" lon="6.24616">
        <ele>1089.3</ele>
        <time>2024-06-16T07:04:36Z</time>
      </trkpt>
      <trkpt lat="46.62362" lon="6.24615">
        <ele>1089.6</ele>
        <time>2024-06-16T07:04:37Z</time>
      </trkpt>
      <trkpt lat="46.6236" lon="6.24614">
        <ele>1089.7</ele>
        <time>2024-06-16T07:04:38Z</time>
      </trkpt>
      <trkpt lat="46.62358" lon="6.24612">
        <ele>1089.9</ele>
        <time>2024-06-16T07:04:39Z</time>
      </trkpt>
      <trkpt lat="46.62356" lon="6.24611">
        <ele>1090</ele>
        <time>2024-06-16T07:04:40Z</time>
      </trkpt>
      <trkpt lat="46.62354" lon="6.2461">
        <ele>1089.9</ele>
        <time>2024-06-16T07:04:41Z</time>
      </trkpt>
      <trkpt lat="46.62353" lon="6.24609">
        <ele>1089.9</ele>
        <time>2024-06-16T07:04:42Z</time>
      </trkpt>
      <trkpt lat="46.62351" lon="6.24607">
        <ele>1090.2</ele>
        <time>2024-06-16T07:04:43Z</time>
      </trkpt>
      <trkpt lat="46.6235" lon="6.24605">
        <ele>1090.4</ele>
        <time>2024-06-16T07:04:44Z</time>
      </trkpt>
      <trkpt lat="46.6235" lon="6.24604">
        <ele>1090.6</ele>
        <time>2024-06-16T07:04:45Z</time>
      </trkpt>
      <trkpt lat="46.62348" lon="6.24602">
        <ele>1090.6</ele>
        <time>2024-06-16T07:04:46Z</time>
      </trkpt>
      <trkpt lat="46.62346" lon="6.246">
        <ele>1090.4</ele>
        <time>2024-06-16T07:04:47Z</time>
      </trkpt>
      <trkpt lat="46.62344" lon="6.24598">
        <ele>1090.3</ele>
        <time>2024-06-16T07:04:48Z</time>
      </trkpt>
      <trkpt lat="46.62342" lon="6.24596">
        <ele>1090.1</ele>
        <time>2024-06-16T07:04:49Z</time>
      </trkpt>
      <trkpt lat="46.6234" lon="6.24594">
        <ele>1090</ele>
        <time>2024-06-16T07:04:50Z</time>
      </trkpt>
      <trkpt lat="46.62339" lon="6.24592">
        <ele>1089.8</ele>
        <time>2024-06-16T07:04:51Z</time>
      </trkpt>
      <trkpt lat="46.62337" lon="6.2459">
        <ele>1089.7</ele>
        <time>2024-06-16T07:04:52Z</time>
      </trkpt>
      <trkpt lat="46.62336" lon="6.24589">
        <ele>1089.5</ele>
        <time>2024-06-16T07:04:53Z</time>
      </trkpt>
      <trkpt lat="46.62334" lon="6.24586">
        <ele>1089.3</ele>
        <time>2024-06-16T07:04:54Z</time>
      </trkpt>
      <trkpt lat="46.62332" lon="6.24584">
        <ele>1089</ele>
        <time>2024-06-16T07:04:55Z</time>
      </trkpt>
      <trkpt lat="46.6233" lon="6.24582">
        <ele>1088.8</ele>
        <time>2024-06-16T07:04:56Z</time>
      </trkpt>
      <trkpt lat="46.62329" lon="6.2458">
        <ele>1088.7</ele>
        <time>2024-06-16T07:04:57Z</time>
      </trkpt>
      <trkpt lat="46.62327" lon="6.24578">
        <ele>1088.8</ele>
        <time>2024-06-16T07:04:58Z</time>
      </trkpt>
      <trkpt lat="46.62325" lon="6.24576">
        <ele>1088.8</ele>
        <time>2024-06-16T07:04:59Z</time>
      </trkpt>
      <trkpt lat="46.62324" lon="6.24573">
        <ele>1088.9</ele>
        <time>2024-06-16T07:05:00Z</time>
      </trkpt>
      <trkpt lat="46.62322" lon="6.24572">
        <ele>1088.9</ele>
        <time>2024-06-16T07:05:01Z</time>
      </trkpt>
      <trkpt lat="46.6232" lon="6.2457">
        <ele>1089.2</ele>
        <time>2024-06-16T07:05:02Z</time>
      </trkpt>
      <trkpt lat="46.62318" lon="6.24568">
        <ele>1089.4</ele>
        <time>2024-06-16T07:05:03Z</time>
      </trkpt>
      <trkpt lat="46.62316" lon="6.24565">
        <ele>1089.9</ele>
        <time>2024-06-16T07:05:04Z</time>
      </trkpt>
      <trkpt lat="46.62314" lon="6.24563">
        <ele>1090.2</ele>
        <time>2024-06-16T07:05:05Z</time>
      </trkpt>
      <trkpt lat="46.62313" lon="6.2456">
        <ele>1090.4</ele>
        <time>2024-06-16T07:05:06Z</time>
      </trkpt>
      <trkpt lat="46.62311" lon="6.24557">
        <ele>1090.7</ele>
        <time>2024-06-16T07:05:07Z</time>
      </trkpt>
      <trkpt lat="46.62309" lon="6.24554">
        <ele>1090.9</ele>
        <time>2024-06-16T07:05:08Z</time>
      </trkpt>
      <trkpt lat="46.62307" lon="6.24551">
        <ele>1091</ele>
        <time>2024-06-16T07:05:09Z</time>
      </trkpt>
      <trkpt lat="46.62305" lon="6.24549">
        <ele>1091</ele>
        <time>2024-06-16T07:05:10Z</time>
      </trkpt>
      <trkpt lat="46.62303" lon="6.24547">
        <ele>1090.9</ele>
        <time>2024-06-16T07:05:11Z</time>
      </trkpt>
      <trkpt lat="46.623" lon="6.24545">
        <ele>1090.5</ele>
        <time>2024-06-16T07:05:12Z</time>
      </trkpt>
      <trkpt lat="46.62298" lon="6.24541">
        <ele>1090</ele>
        <time>2024-06-16T07:05:13Z</time>
      </trkpt>
      <trkpt lat="46.62296" lon="6.24538">
        <ele>1089.7</ele>
        <time>2024-06-16T07:05:14Z</time>
      </trkpt>
      <trkpt lat="46.62294" lon="6.24535">
        <ele>1089.4</ele>
        <time>2024-06-16T07:05:15Z</time>
      </trkpt>
      <trkpt lat="46.62291" lon="6.24532">
        <ele>1089.2</ele>
        <time>2024-06-16T07:05:16Z</time>
      </trkpt>
      <trkpt lat="46.62289" lon="6.24529">
        <ele>1089.1</ele>
        <time>2024-06-16T07:05:17Z</time>
      </trkpt>
      <trkpt lat="46.62288" lon="6.24526">
        <ele>1089.1</ele>
        <time>2024-06-16T07:05:18Z</time>
      </trkpt>
      <trkpt lat="46.62285" lon="6.24523">
        <ele>1088.9</ele>
        <time>2024-06-16T07:05:19Z</time>
      </trkpt>
      <trkpt lat="46.62283" lon="6.2452">
        <ele>1088.7</ele>
        <time>2024-06-16T07:05:20Z</time>
      </trkpt>
      <trkpt lat="46.62281" lon="6.24517">
        <ele>1088.9</ele>
        <time>2024-06-16T07:05:21Z</time>
      </trkpt>
      <trkpt lat="46.62279" lon="6.24513">
        <ele>1089.1</ele>
        <time>2024-06-16T07:05:22Z</time>
      </trkpt>
      <trkpt lat="46.62276" lon="6.2451">
        <ele>1089</ele>
        <time>2024-06-16T07:05:23Z</time>
      </trkpt>
      <trkpt lat="46.62274" lon="6.24507">
        <ele>1089</ele>
        <time>2024-06-16T07:05:24Z</time>
      </trkpt>
      <trkpt lat="46.62272" lon="6.24503">
        <ele>1089</ele>
        <time>2024-06-16T07:05:25Z</time>
      </trkpt>
      <trkpt lat="46.62269" lon="6.245">
        <ele>1088.9</ele>
        <time>2024-06-16T07:05:26Z</time>
      </trkpt>
      <trkpt lat="46.62266" lon="6.24497">
        <ele>1088.7</ele>
        <time>2024-06-16T07:05:27Z</time>
      </trkpt>
      <trkpt lat="46.62264" lon="6.24493">
        <ele>1088.4</ele>
        <time>2024-06-16T07:05:28Z</time>
      </trkpt>
      <trkpt lat="46.62261" lon="6.2449">
        <ele>1088.2</ele>
        <time>2024-06-16T07:05:29Z</time>
      </trkpt>
      <trkpt lat="46.62258" lon="6.24486">
        <ele>1088.2</ele>
        <time>2024-06-16T07:05:30Z</time>
      </trkpt>
      <trkpt lat="46.62256" lon="6.24481">
        <ele>1087.8</ele>
        <time>2024-06-16T07:05:31Z</time>
      </trkpt>
      <trkpt lat="46.62252" lon="6.24476">
        <ele>1087.4</ele>
        <time>2024-06-16T07:05:32Z</time>
      </trkpt>
      <trkpt lat="46.62249" lon="6.24472">
        <ele>1086.8</ele>
        <time>2024-06-16T07:05:33Z</time>
      </trkpt>
      <trkpt lat="46.62247" lon="6.24468">
        <ele>1086.4</ele>
        <time>2024-06-16T07:05:34Z</time>
      </trkpt>
      <trkpt lat="46.62244" lon="6.24463">
        <ele>1086.4</ele>
        <time>2024-06-16T07:05:35Z</time>
      </trkpt>
      <trkpt lat="46.62241" lon="6.24459">
        <ele>1086.5</ele>
        <time>2024-06-16T07:05:37Z</time>
      </trkpt>
      <trkpt lat="46.62238" lon="6.24454">
        <ele>1086.6</ele>
        <time>2024-06-16T07:05:38Z</time>
      </trkpt>
      <trkpt lat="46.62235" lon="6.2445">
        <ele>1086.3</ele>
        <time>2024-06-16T07:05:39Z</time>
      </trkpt>
      <trkpt lat="46.62233" lon="6.24444">
        <ele>1086.1</ele>
        <time>2024-06-16T07:05:40Z</time>
      </trkpt>
      <trkpt lat="46.6223" lon="6.24439">
        <ele>1086</ele>
        <time>2024-06-16T07:05:41Z</time>
      </trkpt>
      <trkpt lat="46.62227" lon="6.24433">
        <ele>1085.9</ele>
        <time>2024-06-16T07:05:42Z</time>
      </trkpt>
      <trkpt lat="46.62223" lon="6.24429">
        <ele>1085.7</ele>
        <time>2024-06-16T07:05:43Z</time>
      </trkpt>
      <trkpt lat="46.6222" lon="6.24423">
        <ele>1085.8</ele>
        <time>2024-06-16T07:05:44Z</time>
      </trkpt>
      <trkpt lat="46.62217" lon="6.24417">
        <ele>1085.7</ele>
        <time>2024-06-16T07:05:45Z</time>
      </trkpt>
      <trkpt lat="46.62214" lon="6.24411">
        <ele>1085.7</ele>
        <time>2024-06-16T07:05:46Z</time>
      </trkpt>
      <trkpt lat="46.62211" lon="6.24405">
        <ele>1085.9</ele>
        <time>2024-06-16T07:05:47Z</time>
      </trkpt>
      <trkpt lat="46.62208" lon="6.24399">
        <ele>1085.7</ele>
        <time>2024-06-16T07:05:48Z</time>
      </trkpt>
      <trkpt lat="46.62206" lon="6.24395">
        <ele>1085.8</ele>
        <time>2024-06-16T07:05:49Z</time>
      </trkpt>
      <trkpt lat="46.62203" lon="6.2439">
        <ele>1085.9</ele>
        <time>2024-06-16T07:05:50Z</time>
      </trkpt>
      <trkpt lat="46.62201" lon="6.24387">
        <ele>1086</ele>
        <time>2024-06-16T07:05:51Z</time>
      </trkpt>
      <trkpt lat="46.62198" lon="6.24383">
        <ele>1085.9</ele>
        <time>2024-06-16T07:05:52Z</time>
      </trkpt>
      <trkpt lat="46.62196" lon="6.24379">
        <ele>1085.8</ele>
        <time>2024-06-16T07:05:53Z</time>
      </trkpt>
      <trkpt lat="46.62194" lon="6.24376">
        <ele>1085.8</ele>
        <time>2024-06-16T07:05:54Z</time>
      </trkpt>
      <trkpt lat="46.62191" lon="6.24373">
        <ele>1085.6</ele>
        <time>2024-06-16T07:05:55Z</time>
      </trkpt>
      <trkpt lat="46.62188" lon="6.2437">
        <ele>1085.5</ele>
        <time>2024-06-16T07:05:55Z</time>
      </trkpt>
      <trkpt lat="46.62185" lon="6.24367">
        <ele>1085.2</ele>
        <time>2024-06-16T07:05:56Z</time>
      </trkpt>
      <trkpt lat="46.62183" lon="6.24364">
        <ele>1084.9</ele>
        <time>2024-06-16T07:05:57Z</time>
      </trkpt>
      <trkpt lat="46.6218" lon="6.24361">
        <ele>1084.6</ele>
        <time>2024-06-16T07:05:58Z</time>
      </trkpt>
      <trkpt lat="46.62177" lon="6.24357">
        <ele>1084.3</ele>
        <time>2024-06-16T07:05:59Z</time>
      </trkpt>
      <trkpt lat="46.62174" lon="6.24354">
        <ele>1083.9</ele>
        <time>2024-06-16T07:06:00Z</time>
      </trkpt>
      <trkpt lat="46.62171" lon="6.2435">
        <ele>1083.6</ele>
        <time>2024-06-16T07:06:01Z</time>
      </trkpt>
      <trkpt lat="46.62168" lon="6.24347">
        <ele>1083.5</ele>
        <time>2024-06-16T07:06:02Z</time>
      </trkpt>
      <trkpt lat="46.62165" lon="6.24344">
        <ele>1083.3</ele>
        <time>2024-06-16T07:06:03Z</time>
      </trkpt>
      <trkpt lat="46.62162" lon="6.24339">
        <ele>1083</ele>
        <time>2024-06-16T07:06:04Z</time>
      </trkpt>
      <trkpt lat="46.6216" lon="6.24335">
        <ele>1082.8</ele>
        <time>2024-06-16T07:06:05Z</time>
      </trkpt>
      <trkpt lat="46.62157" lon="6.2433">
        <ele>1082.6</ele>
        <time>2024-06-16T07:06:06Z</time>
      </trkpt>
      <trkpt lat="46.62154" lon="6.24325">
        <ele>1082.7</ele>
        <time>2024-06-16T07:06:07Z</time>
      </trkpt>
      <trkpt lat="46.62151" lon="6.24319">
        <ele>1082.9</ele>
        <time>2024-06-16T07:06:08Z</time>
      </trkpt>
      <trkpt lat="46.62148" lon="6.24314">
        <ele>1083.1</ele>
        <time>2024-06-16T07:06:09Z</time>
      </trkpt>
      <trkpt lat="46.62145" lon="6.24309">
        <ele>1083.3</ele>
        <time>2024-06-16T07:06:10Z</time>
      </trkpt>
      <trkpt lat="46.62142" lon="6.24305">
        <ele>1083.4</ele>
        <time>2024-06-16T07:06:11Z</time>
      </trkpt>
      <trkpt lat="46.6214" lon="6.24302">
        <ele>1083.5</ele>
        <time>2024-06-16T07:06:12Z</time>
      </trkpt>
      <trkpt lat="46.62138" lon="6.24298">
        <ele>1083.8</ele>
        <time>2024-06-16T07:06:13Z</time>
      </trkpt>
      <trkpt lat="46.62136" lon="6.24295">
        <ele>1084.3</ele>
        <time>2024-06-16T07:06:14Z</time>
      </trkpt>
      <trkpt lat="46.62134" lon="6.24292">
        <ele>1084.7</ele>
        <time>2024-06-16T07:06:15Z</time>
      </trkpt>
      <trkpt lat="46.62132" lon="6.24288">
        <ele>1084.9</ele>
        <time>2024-06-16T07:06:16Z</time>
      </trkpt>
      <trkpt lat="46.6213" lon="6.24285">
        <ele>1085.2</ele>
        <time>2024-06-16T07:06:17Z</time>
      </trkpt>
      <trkpt lat="46.62128" lon="6.24281">
        <ele>1085.4</ele>
        <time>2024-06-16T07:06:18Z</time>
      </trkpt>
      <trkpt lat="46.62126" lon="6.24278">
        <ele>1085.5</ele>
        <time>2024-06-16T07:06:19Z</time>
      </trkpt>
      <trkpt lat="46.62123" lon="6.24275">
        <ele>1085.8</ele>
        <time>2024-06-16T07:06:20Z</time>
      </trkpt>
      <trkpt lat="46.6212" lon="6.24271">
        <ele>1085.9</ele>
        <time>2024-06-16T07:06:21Z</time>
      </trkpt>
      <trkpt lat="46.62117" lon="6.24266">
        <ele>1085.7</ele>
        <time>2024-06-16T07:06:22Z</time>
      </trkpt>
      <trkpt lat="46.62114" lon="6.24261">
        <ele>1085.5</ele>
        <time>2024-06-16T07:06:23Z</time>
      </trkpt>
      <trkpt lat="46.6211" lon="6.24257">
        <ele>1085.7</ele>
        <time>2024-06-16T07:06:24Z</time>
      </trkpt>
      <trkpt lat="46.62105" lon="6.24253">
        <ele>1085.6</ele>
        <time>2024-06-16T07:06:25Z</time>
      </trkpt>
      <trkpt lat="46.62101" lon="6.24249">
        <ele>1085.6</ele>
        <time>2024-06-16T07:06:26Z</time>
      </trkpt>
      <trkpt lat="46.62096" lon="6.24245">
        <ele>1085.6</ele>
        <time>2024-06-16T07:06:27Z</time>
      </trkpt>
      <trkpt lat="46.62091" lon="6.24241">
        <ele>1085.1</ele>
        <time>2024-06-16T07:06:28Z</time>
      </trkpt>
      <trkpt lat="46.62087" lon="6.24236">
        <ele>1084.8</ele>
        <time>2024-06-16T07:06:29Z</time>
      </trkpt>
      <trkpt lat="46.62082" lon="6.24231">
        <ele>1084.3</ele>
        <time>2024-06-16T07:06:30Z</time>
      </trkpt>
      <trkpt lat="46.62078" lon="6.24225">
        <ele>1083.8</ele>
        <time>2024-06-16T07:06:31Z</time>
      </trkpt>
      <trkpt lat="46.62073" lon="6.24219">
        <ele>1083.3</ele>
        <time>2024-06-16T07:06:32Z</time>
      </trkpt>
      <trkpt lat="46.6207" lon="6.24213">
        <ele>1083</ele>
        <time>2024-06-16T07:06:33Z</time>
      </trkpt>
      <trkpt lat="46.62067" lon="6.24208">
        <ele>1082.9</ele>
        <time>2024-06-16T07:06:34Z</time>
      </trkpt>
      <trkpt lat="46.62065" lon="6.24203">
        <ele>1083</ele>
        <time>2024-06-16T07:06:35Z</time>
      </trkpt>
      <trkpt lat="46.62063" lon="6.24199">
        <ele>1083.2</ele>
        <time>2024-06-16T07:06:36Z</time>
      </trkpt>
      <trkpt lat="46.62062" lon="6.24195">
        <ele>1083.5</ele>
        <time>2024-06-16T07:06:37Z</time>
      </trkpt>
      <trkpt lat="46.6206" lon="6.2419">
        <ele>1083.9</ele>
        <time>2024-06-16T07:06:38Z</time>
      </trkpt>
      <trkpt lat="46.62057" lon="6.24185">
        <ele>1084.1</ele>
        <time>2024-06-16T07:06:39Z</time>
      </trkpt>
      <trkpt lat="46.62055" lon="6.24181">
        <ele>1084.3</ele>
        <time>2024-06-16T07:06:40Z</time>
      </trkpt>
      <trkpt lat="46.62052" lon="6.24178">
        <ele>1084.2</ele>
        <time>2024-06-16T07:06:41Z</time>
      </trkpt>
      <trkpt lat="46.6205" lon="6.24174">
        <ele>1084.4</ele>
        <time>2024-06-16T07:06:42Z</time>
      </trkpt>
      <trkpt lat="46.62047" lon="6.24171">
        <ele>1084.7</ele>
        <time>2024-06-16T07:06:43Z</time>
      </trkpt>
      <trkpt lat="46.62045" lon="6.24168">
        <ele>1085</ele>
        <time>2024-06-16T07:06:44Z</time>
      </trkpt>
      <trkpt lat="46.62043" lon="6.24164">
        <ele>1085.6</ele>
        <time>2024-06-16T07:06:45Z</time>
      </trkpt>
      <trkpt lat="46.62039" lon="6.2416">
        <ele>1085.9</ele>
        <time>2024-06-16T07:06:46Z</time>
      </trkpt>
      <trkpt lat="46.62036" lon="6.24156">
        <ele>1085.9</ele>
        <time>2024-06-16T07:06:47Z</time>
      </trkpt>
      <trkpt lat="46.62032" lon="6.24153">
        <ele>1085.7</ele>
        <time>2024-06-16T07:06:48Z</time>
      </trkpt>
      <trkpt lat="46.6203" lon="6.2415">
        <ele>1085.2</ele>
        <time>2024-06-16T07:06:49Z</time>
      </trkpt>
      <trkpt lat="46.62027" lon="6.24148">
        <ele>1084.6</ele>
        <time>2024-06-16T07:06:50Z</time>
      </trkpt>
      <trkpt lat="46.62024" lon="6.24145">
        <ele>1084.1</ele>
        <time>2024-06-16T07:06:51Z</time>
      </trkpt>
      <trkpt lat="46.62021" lon="6.24142">
        <ele>1083.7</ele>
        <time>2024-06-16T07:06:52Z</time>
      </trkpt>
      <trkpt lat="46.62018" lon="6.24138">
        <ele>1083.2</ele>
        <time>2024-06-16T07:06:53Z</time>
      </trkpt>
      <trkpt lat="46.62013" lon="6.24134">
        <ele>1082.4</ele>
        <time>2024-06-16T07:06:54Z</time>
      </trkpt>
      <trkpt lat="46.62009" lon="6.2413">
        <ele>1081.5</ele>
        <time>2024-06-16T07:06:55Z</time>
      </trkpt>
      <trkpt lat="46.62004" lon="6.24128">
        <ele>1080.8</ele>
        <time>2024-06-16T07:06:56Z</time>
      </trkpt>
      <trkpt lat="46.62" lon="6.24126">
        <ele>1080.2</ele>
        <time>2024-06-16T07:06:57Z</time>
      </trkpt>
      <trkpt lat="46.61996" lon="6.24124">
        <ele>1079.6</ele>
        <time>2024-06-16T07:06:58Z</time>
      </trkpt>
      <trkpt lat="46.61992" lon="6.24122">
        <ele>1078.9</ele>
        <time>2024-06-16T07:06:59Z</time>
      </trkpt>
      <trkpt lat="46.61988" lon="6.24121">
        <ele>1078.1</ele>
        <time>2024-06-16T07:07:00Z</time>
      </trkpt>
      <trkpt lat="46.61984" lon="6.24119">
        <ele>1077.5</ele>
        <time>2024-06-16T07:07:01Z</time>
      </trkpt>
      <trkpt lat="46.6198" lon="6.24116">
        <ele>1076.6</ele>
        <time>2024-06-16T07:07:02Z</time>
      </trkpt>
      <trkpt lat="46.61975" lon="6.24114">
        <ele>1075.9</ele>
        <time>2024-06-16T07:07:03Z</time>
      </trkpt>
      <trkpt lat="46.6197" lon="6.24111">
        <ele>1075.2</ele>
        <time>2024-06-16T07:07:04Z</time>
      </trkpt>
      <trkpt lat="46.61965" lon="6.24108">
        <ele>1074.6</ele>
        <time>2024-06-16T07:07:05Z</time>
      </trkpt>
      <trkpt lat="46.61959" lon="6.24106">
        <ele>1074.1</ele>
        <time>2024-06-16T07:07:06Z</time>
      </trkpt>
      <trkpt lat="46.61955" lon="6.24103">
        <ele>1073.8</ele>
        <time>2024-06-16T07:07:07Z</time>
      </trkpt>
      <trkpt lat="46.61951" lon="6.24101">
        <ele>1073.7</ele>
        <time>2024-06-16T07:07:08Z</time>
      </trkpt>
      <trkpt lat="46.61946" lon="6.24099">
        <ele>1074</ele>
        <time>2024-06-16T07:07:09Z</time>
      </trkpt>
      <trkpt lat="46.61942" lon="6.24096">
        <ele>1074.1</ele>
        <time>2024-06-16T07:07:10Z</time>
      </trkpt>
      <trkpt lat="46.61938" lon="6.24093">
        <ele>1074</ele>
        <time>2024-06-16T07:07:11Z</time>
      </trkpt>
      <trkpt lat="46.61935" lon="6.2409">
        <ele>1073.8</ele>
        <time>2024-06-16T07:07:12Z</time>
      </trkpt>
      <trkpt lat="46.61931" lon="6.24087">
        <ele>1073.6</ele>
        <time>2024-06-16T07:07:13Z</time>
      </trkpt>
      <trkpt lat="46.61927" lon="6.24084">
        <ele>1073.4</ele>
        <time>2024-06-16T07:07:14Z</time>
      </trkpt>
      <trkpt lat="46.61923" lon="6.24082">
        <ele>1073.3</ele>
        <time>2024-06-16T07:07:15Z</time>
      </trkpt>
      <trkpt lat="46.6192" lon="6.2408">
        <ele>1073.3</ele>
        <time>2024-06-16T07:07:16Z</time>
      </trkpt>
      <trkpt lat="46.61917" lon="6.24078">
        <ele>1073</ele>
        <time>2024-06-16T07:07:17Z</time>
      </trkpt>
      <trkpt lat="46.61914" lon="6.24077">
        <ele>1073</ele>
        <time>2024-06-16T07:07:18Z</time>
      </trkpt>
      <trkpt lat="46.61911" lon="6.24076">
        <ele>1073</ele>
        <time>2024-06-16T07:07:19Z</time>
      </trkpt>
      <trkpt lat="46.61908" lon="6.24076">
        <ele>1072.9</ele>
        <time>2024-06-16T07:07:20Z</time>
      </trkpt>
      <trkpt lat="46.61904" lon="6.24075">
        <ele>1072.6</ele>
        <time>2024-06-16T07:07:21Z</time>
      </trkpt>
      <trkpt lat="46.61901" lon="6.24075">
        <ele>1072.4</ele>
        <time>2024-06-16T07:07:22Z</time>
      </trkpt>
      <trkpt lat="46.61897" lon="6.24074">
        <ele>1072.7</ele>
        <time>2024-06-16T07:07:23Z</time>
      </trkpt>
      <trkpt lat="46.61893" lon="6.24073">
        <ele>1073.1</ele>
        <time>2024-06-16T07:07:24Z</time>
      </trkpt>
      <trkpt lat="46.6189" lon="6.24072">
        <ele>1073.4</ele>
        <time>2024-06-16T07:07:25Z</time>
      </trkpt>
      <trkpt lat="46.61888" lon="6.24071">
        <ele>1073.7</ele>
        <time>2024-06-16T07:07:26Z</time>
      </trkpt>
      <trkpt lat="46.61885" lon="6.2407">
        <ele>1074.2</ele>
        <time>2024-06-16T07:07:27Z</time>
      </trkpt>
      <trkpt lat="46.61882" lon="6.24069">
        <ele>1074.8</ele>
        <time>2024-06-16T07:07:28Z</time>
      </trkpt>
      <trkpt lat="46.6188" lon="6.24068">
        <ele>1075.3</ele>
        <time>2024-06-16T07:07:29Z</time>
      </trkpt>
      <trkpt lat="46.61878" lon="6.24067">
        <ele>1075.8</ele>
        <time>2024-06-16T07:07:30Z</time>
      </trkpt>
      <trkpt lat="46.61876" lon="6.24066">
        <ele>1076.3</ele>
        <time>2024-06-16T07:07:31Z</time>
      </trkpt>
      <trkpt lat="46.61874" lon="6.24066">
        <ele>1076.7</ele>
        <time>2024-06-16T07:07:32Z</time>
      </trkpt>
      <trkpt lat="46.61872" lon="6.24065">
        <ele>1076.8</ele>
        <time>2024-06-16T07:07:33Z</time>
      </trkpt>
      <trkpt lat="46.6187" lon="6.24064">
        <ele>1077</ele>
        <time>2024-06-16T07:07:34Z</time>
      </trkpt>
      <trkpt lat="46.61868" lon="6.24063">
        <ele>1077.1</ele>
        <time>2024-06-16T07:07:35Z</time>
      </trkpt>
      <trkpt lat="46.61866" lon="6.24062">
        <ele>1077</ele>
        <time>2024-06-16T07:07:36Z</time>
      </trkpt>
      <trkpt lat="46.61864" lon="6.24061">
        <ele>1076.8</ele>
        <time>2024-06-16T07:07:37Z</time>
      </trkpt>
      <trkpt lat="46.61861" lon="6.2406">
        <ele>1076.6</ele>
        <time>2024-06-16T07:07:38Z</time>
      </trkpt>
      <trkpt lat="46.61859" lon="6.24059">
        <ele>1075.8</ele>
        <time>2024-06-16T07:07:39Z</time>
      </trkpt>
      <trkpt lat="46.61856" lon="6.24058">
        <ele>1075.1</ele>
        <time>2024-06-16T07:07:40Z</time>
      </trkpt>
      <trkpt lat="46.61853" lon="6.24057">
        <ele>1074.5</ele>
        <time>2024-06-16T07:07:41Z</time>
      </trkpt>
      <trkpt lat="46.6185" lon="6.24056">
        <ele>1073.9</ele>
        <time>2024-06-16T07:07:43Z</time>
      </trkpt>
      <trkpt lat="46.61848" lon="6.24055">
        <ele>1073.2</ele>
        <time>2024-06-16T07:07:44Z</time>
      </trkpt>
      <trkpt lat="46.61845" lon="6.24054">
        <ele>1072.8</ele>
        <time>2024-06-16T07:07:45Z</time>
      </trkpt>
      <trkpt lat="46.61842" lon="6.24052">
        <ele>1072.5</ele>
        <time>2024-06-16T07:07:46Z</time>
      </trkpt>
      <trkpt lat="46.61839" lon="6.2405">
        <ele>1071.9</ele>
        <time>2024-06-16T07:07:47Z</time>
      </trkpt>
      <trkpt lat="46.61836" lon="6.24047">
        <ele>1071.4</ele>
        <time>2024-06-16T07:07:48Z</time>
      </trkpt>
      <trkpt lat="46.61833" lon="6.24044">
        <ele>1071</ele>
        <time>2024-06-16T07:07:49Z</time>
      </trkpt>
      <trkpt lat="46.6183" lon="6.2404">
        <ele>1070.6</ele>
        <time>2024-06-16T07:07:50Z</time>
      </trkpt>
      <trkpt lat="46.61827" lon="6.24036">
        <ele>1069.5</ele>
        <time>2024-06-16T07:07:51Z</time>
      </trkpt>
      <trkpt lat="46.61822" lon="6.24031">
        <ele>1068.4</ele>
        <time>2024-06-16T07:07:52Z</time>
      </trkpt>
      <trkpt lat="46.61815" lon="6.24027">
        <ele>1067.4</ele>
        <time>2024-06-16T07:07:53Z</time>
      </trkpt>
      <trkpt lat="46.61809" lon="6.24021">
        <ele>1066.3</ele>
        <time>2024-06-16T07:07:54Z</time>
      </trkpt>
      <trkpt lat="46.61802" lon="6.24014">
        <ele>1065.1</ele>
        <time>2024-06-16T07:07:55Z</time>
      </trkpt>
      <trkpt lat="46.61796" lon="6.24008">
        <ele>1064</ele>
        <time>2024-06-16T07:07:56Z</time>
      </trkpt>
      <trkpt lat="46.6179" lon="6.24002">
        <ele>1063.1</ele>
        <time>2024-06-16T07:07:57Z</time>
      </trkpt>
      <trkpt lat="46.61784" lon="6.23995">
        <ele>1062.5</ele>
        <time>2024-06-16T07:07:58Z</time>
      </trkpt>
      <trkpt lat="46.61779" lon="6.2399">
        <ele>1062.1</ele>
        <time>2024-06-16T07:07:59Z</time>
      </trkpt>
      <trkpt lat="46.61774" lon="6.23984">
        <ele>1062</ele>
        <time>2024-06-16T07:08:00Z</time>
      </trkpt>
      <trkpt lat="46.6177" lon="6.23979">
        <ele>1062.2</ele>
        <time>2024-06-16T07:08:00Z</time>
      </trkpt>
      <trkpt lat="46.61765" lon="6.23974">
        <ele>1062.1</ele>
        <time>2024-06-16T07:08:01Z</time>
      </trkpt>
      <trkpt lat="46.61762" lon="6.2397">
        <ele>1062.1</ele>
        <time>2024-06-16T07:08:02Z</time>
      </trkpt>
      <trkpt lat="46.61758" lon="6.23967">
        <ele>1062.1</ele>
        <time>2024-06-16T07:08:03Z</time>
      </trkpt>
      <trkpt lat="46.61755" lon="6.23964">
        <ele>1062</ele>
        <time>2024-06-16T07:08:04Z</time>
      </trkpt>
      <trkpt lat="46.61752" lon="6.23962">
        <ele>1062.1</ele>
        <time>2024-06-16T07:08:05Z</time>
      </trkpt>
      <trkpt lat="46.61749" lon="6.23959">
        <ele>1062.3</ele>
        <time>2024-06-16T07:08:06Z</time>
      </trkpt>
      <trkpt lat="46.61747" lon="6.23957">
        <ele>1062.9</ele>
        <time>2024-06-16T07:08:07Z</time>
      </trkpt>
      <trkpt lat="46.61745" lon="6.23955">
        <ele>1063.2</ele>
        <time>2024-06-16T07:08:08Z</time>
      </trkpt>
      <trkpt lat="46.61743" lon="6.23953">
        <ele>1063.4</ele>
        <time>2024-06-16T07:08:09Z</time>
      </trkpt>
      <trkpt lat="46.61739" lon="6.23952">
        <ele>1063.4</ele>
        <time>2024-06-16T07:08:10Z</time>
      </trkpt>
      <trkpt lat="46.61734" lon="6.23951">
        <ele>1063.3</ele>
        <time>2024-06-16T07:08:11Z</time>
      </trkpt>
      <trkpt lat="46.6173" lon="6.23948">
        <ele>1063.2</ele>
        <time>2024-06-16T07:08:12Z</time>
      </trkpt>
      <trkpt lat="46.61725" lon="6.23945">
        <ele>1062.9</ele>
        <time>2024-06-16T07:08:13Z</time>
      </trkpt>
      <trkpt lat="46.6172" lon="6.23942">
        <ele>1062.4</ele>
        <time>2024-06-16T07:08:14Z</time>
      </trkpt>
      <trkpt lat="46.61714" lon="6.23939">
        <ele>1061.3</ele>
        <time>2024-06-16T07:08:15Z</time>
      </trkpt>
      <trkpt lat="46.61708" lon="6.23936">
        <ele>1060.3</ele>
        <time>2024-06-16T07:08:16Z</time>
      </trkpt>
      <trkpt lat="46.61702" lon="6.23933">
        <ele>1059.4</ele>
        <time>2024-06-16T07:08:17Z</time>
      </trkpt>
      <trkpt lat="46.61695" lon="6.23929">
        <ele>1058.4</ele>
        <time>2024-06-16T07:08:18Z</time>
      </trkpt>
      <trkpt lat="46.61688" lon="6.23926">
        <ele>1057.5</ele>
        <time>2024-06-16T07:08:19Z</time>
      </trkpt>
      <trkpt lat="46.61681" lon="6.23922">
        <ele>1057.1</ele>
        <time>2024-06-16T07:08:20Z</time>
      </trkpt>
      <trkpt lat="46.61675" lon="6.23919">
        <ele>1056.9</ele>
        <time>2024-06-16T07:08:21Z</time>
      </trkpt>
      <trkpt lat="46.61668" lon="6.23916">
        <ele>1056.5</ele>
        <time>2024-06-16T07:08:22Z</time>
      </trkpt>
      <trkpt lat="46.61662" lon="6.23914">
        <ele>1055.8</ele>
        <time>2024-06-16T07:08:23Z</time>
      </trkpt>
      <trkpt lat="46.61656" lon="6.23912">
        <ele>1054.9</ele>
        <time>2024-06-16T07:08:24Z</time>
      </trkpt>
      <trkpt lat="46.61651" lon="6.2391">
        <ele>1053.9</ele>
        <time>2024-06-16T07:08:25Z</time>
      </trkpt>
      <trkpt lat="46.61645" lon="6.23908">
        <ele>1053</ele>
        <time>2024-06-16T07:08:26Z</time>
      </trkpt>
      <trkpt lat="46.61641" lon="6.23906">
        <ele>1052.2</ele>
        <time>2024-06-16T07:08:27Z</time>
      </trkpt>
      <trkpt lat="46.61635" lon="6.23904">
        <ele>1051.4</ele>
        <time>2024-06-16T07:08:28Z</time>
      </trkpt>
      <trkpt lat="46.6163" lon="6.23901">
        <ele>1050.8</ele>
        <time>2024-06-16T07:08:29Z</time>
      </trkpt>
      <trkpt lat="46.61626" lon="6.23898">
        <ele>1049.8</ele>
        <time>2024-06-16T07:08:30Z</time>
      </trkpt>
      <trkpt lat="46.6162" lon="6.23895">
        <ele>1049</ele>
        <time>2024-06-16T07:08:31Z</time>
      </trkpt>
      <trkpt lat="46.61614" lon="6.2389">
        <ele>1048.4</ele>
        <time>2024-06-16T07:08:32Z</time>
      </trkpt>
      <trkpt lat="46.61608" lon="6.23885">
        <ele>1047.7</ele>
        <time>2024-06-16T07:08:33Z</time>
      </trkpt>
      <trkpt lat="46.61601" lon="6.23881">
        <ele>1047</ele>
        <time>2024-06-16T07:08:34Z</time>
      </trkpt>
      <trkpt lat="46.61595" lon="6.23878">
        <ele>1046.1</ele>
        <time>2024-06-16T07:08:35Z</time>
      </trkpt>
      <trkpt lat="46.6159" lon="6.23876">
        <ele>1045.3</ele>
        <time>2024-06-16T07:08:36Z</time>
      </trkpt>
      <trkpt lat="46.61585" lon="6.23874">
        <ele>1044.6</ele>
        <time>2024-06-16T07:08:37Z</time>
      </trkpt>
      <trkpt lat="46.6158" lon="6.23872">
        <ele>1044.2</ele>
        <time>2024-06-16T07:08:38Z</time>
      </trkpt>
      <trkpt lat="46.61576" lon="6.23871">
        <ele>1043.8</ele>
        <time>2024-06-16T07:08:39Z</time>
      </trkpt>
      <trkpt lat="46.61572" lon="6.23871">
        <ele>1043.4</ele>
        <time>2024-06-16T07:08:40Z</time>
      </trkpt>
      <trkpt lat="46.61569" lon="6.23871">
        <ele>1042.9</ele>
        <time>2024-06-16T07:08:41Z</time>
      </trkpt>
      <trkpt lat="46.61565" lon="6.23871">
        <ele>1042.4</ele>
        <time>2024-06-16T07:08:42Z</time>
      </trkpt>
      <trkpt lat="46.61561" lon="6.23871">
        <ele>1041.8</ele>
        <time>2024-06-16T07:08:43Z</time>
      </trkpt>
      <trkpt lat="46.61558" lon="6.23871">
        <ele>1041.1</ele>
        <time>2024-06-16T07:08:44Z</time>
      </trkpt>
      <trkpt lat="46.61554" lon="6.23872">
        <ele>1040.4</ele>
        <time>2024-06-16T07:08:45Z</time>
      </trkpt>
      <trkpt lat="46.61551" lon="6.23873">
        <ele>1039.7</ele>
        <time>2024-06-16T07:08:46Z</time>
      </trkpt>
      <trkpt lat="46.61548" lon="6.23873">
        <ele>1038.9</ele>
        <time>2024-06-16T07:08:47Z</time>
      </trkpt>
      <trkpt lat="46.61545" lon="6.23873">
        <ele>1037.9</ele>
        <time>2024-06-16T07:08:48Z</time>
      </trkpt>
      <trkpt lat="46.61541" lon="6.23872">
        <ele>1036.6</ele>
        <time>2024-06-16T07:08:49Z</time>
      </trkpt>
      <trkpt lat="46.61537" lon="6.23872">
        <ele>1035.4</ele>
        <time>2024-06-16T07:08:50Z</time>
      </trkpt>
      <trkpt lat="46.61533" lon="6.23871">
        <ele>1034.2</ele>
        <time>2024-06-16T07:08:51Z</time>
      </trkpt>
      <trkpt lat="46.61528" lon="6.23871">
        <ele>1033</ele>
        <time>2024-06-16T07:08:52Z</time>
      </trkpt>
      <trkpt lat="46.61524" lon="6.23871">
        <ele>1031.6</ele>
        <time>2024-06-16T07:08:53Z</time>
      </trkpt>
      <trkpt lat="46.6152" lon="6.2387">
        <ele>1030.3</ele>
        <time>2024-06-16T07:08:54Z</time>
      </trkpt>
      <trkpt lat="46.61516" lon="6.2387">
        <ele>1029.4</ele>
        <time>2024-06-16T07:08:55Z</time>
      </trkpt>
      <trkpt lat="46.61511" lon="6.2387">
        <ele>1028.5</ele>
        <time>2024-06-16T07:08:56Z</time>
      </trkpt>
      <trkpt lat="46.61508" lon="6.23869">
        <ele>1027.5</ele>
        <time>2024-06-16T07:08:57Z</time>
      </trkpt>
      <trkpt lat="46.61504" lon="6.23867">
        <ele>1026.6</ele>
        <time>2024-06-16T07:08:58Z</time>
      </trkpt>
      <trkpt lat="46.61501" lon="6.23864">
        <ele>1026</ele>
        <time>2024-06-16T07:08:59Z</time>
      </trkpt>
      <trkpt lat="46.61497" lon="6.23861">
        <ele>1025.4</ele>
        <time>2024-06-16T07:09:00Z</time>
      </trkpt>
      <trkpt lat="46.61493" lon="6.23858">
        <ele>1024.7</ele>
        <time>2024-06-16T07:09:01Z</time>
      </trkpt>
      <trkpt lat="46.6149" lon="6.23855">
        <ele>1024.6</ele>
        <time>2024-06-16T07:09:02Z</time>
      </trkpt>
      <trkpt lat="46.61486" lon="6.23852">
        <ele>1024.3</ele>
        <time>2024-06-16T07:09:03Z</time>
      </trkpt>
      <trkpt lat="46.61483" lon="6.23849">
        <ele>1024.2</ele>
        <time>2024-06-16T07:09:04Z</time>
      </trkpt>
      <trkpt lat="46.6148" lon="6.23847">
        <ele>1024.3</ele>
        <time>2024-06-16T07:09:05Z</time>
      </trkpt>
      <trkpt lat="46.61478" lon="6.23844">
        <ele>1024.4</ele>
        <time>2024-06-16T07:09:06Z</time>
      </trkpt>
      <trkpt lat="46.61476" lon="6.23841">
        <ele>1024.5</ele>
        <time>2024-06-16T07:09:07Z</time>
      </trkpt>
      <trkpt lat="46.61474" lon="6.23837">
        <ele>1024.7</ele>
        <time>2024-06-16T07:09:08Z</time>
      </trkpt>
      <trkpt lat="46.61472" lon="6.23834">
        <ele>1024.9</ele>
        <time>2024-06-16T07:09:09Z</time>
      </trkpt>
      <trkpt lat="46.6147" lon="6.23831">
        <ele>1024.9</ele>
        <time>2024-06-16T07:09:10Z</time>
      </trkpt>
      <trkpt lat="46.61468" lon="6.23827">
        <ele>1024.8</ele>
        <time>2024-06-16T07:09:11Z</time>
      </trkpt>
      <trkpt lat="46.61466" lon="6.23824">
        <ele>1024.2</ele>
        <time>2024-06-16T07:09:12Z</time>
      </trkpt>
      <trkpt lat="46.61464" lon="6.2382">
        <ele>1023.4</ele>
        <time>2024-06-16T07:09:13Z</time>
      </trkpt>
      <trkpt lat="46.61461" lon="6.23818">
        <ele>1022.6</ele>
        <time>2024-06-16T07:09:14Z</time>
      </trkpt>
      <trkpt lat="46.61459" lon="6.23816">
        <ele>1021.8</ele>
        <time>2024-06-16T07:09:15Z</time>
      </trkpt>
      <trkpt lat="46.61456" lon="6.23815">
        <ele>1021.3</ele>
        <time>2024-06-16T07:09:16Z</time>
      </trkpt>
      <trkpt lat="46.61454" lon="6.23813">
        <ele>1020.6</ele>
        <time>2024-06-16T07:09:17Z</time>
      </trkpt>
      <trkpt lat="46.61452" lon="6.23812">
        <ele>1020.1</ele>
        <time>2024-06-16T07:09:18Z</time>
      </trkpt>
      <trkpt lat="46.6145" lon="6.23812">
        <ele>1019.7</ele>
        <time>2024-06-16T07:09:19Z</time>
      </trkpt>
      <trkpt lat="46.61448" lon="6.23813">
        <ele>1019.3</ele>
        <time>2024-06-16T07:09:20Z</time>
      </trkpt>
      <trkpt lat="46.61447" lon="6.23814">
        <ele>1019.1</ele>
        <time>2024-06-16T07:09:21Z</time>
      </trkpt>
      <trkpt lat="46.61446" lon="6.23816">
        <ele>1018.7</ele>
        <time>2024-06-16T07:09:22Z</time>
      </trkpt>
      <trkpt lat="46.61445" lon="6.23819">
        <ele>1018.6</ele>
        <time>2024-06-16T07:09:23Z</time>
      </trkpt>
      <trkpt lat="46.61444" lon="6.23821">
        <ele>1018.8</ele>
        <time>2024-06-16T07:09:24Z</time>
      </trkpt>
      <trkpt lat="46.61443" lon="6.23823">
        <ele>1018.9</ele>
        <time>2024-06-16T07:09:25Z</time>
      </trkpt>
      <trkpt lat="46.61443" lon="6.23825">
        <ele>1019</ele>
        <time>2024-06-16T07:09:26Z</time>
      </trkpt>
      <trkpt lat="46.61443" lon="6.23826">
        <ele>1019</ele>
        <time>2024-06-16T07:09:27Z</time>
      </trkpt>
      <trkpt lat="46.61443" lon="6.23826">
        <ele>1018.9</ele>
        <time>2024-06-16T07:09:28Z</time>
      </trkpt>
      <trkpt lat="46.61444" lon="6.23826">
        <ele>1018.9</ele>
        <time>2024-06-16T07:09:29Z</time>
      </trkpt>
      <trkpt lat="46.61444" lon="6.23827">
        <ele>1018.8</ele>
        <time>2024-06-16T07:09:30Z</time>
      </trkpt>
      <trkpt lat="46.61444" lon="6.23827">
        <ele>1018.6</ele>
        <time>2024-06-16T07:09:31Z</time>
      </trkpt>
      <trkpt lat="46.61445" lon="6.23827">
        <ele>1018.5</ele>
        <time>2024-06-16T07:09:32Z</time>
      </trkpt>
      <trkpt lat="46.61445" lon="6.23827">
        <ele>1018.4</ele>
        <time>2024-06-16T07:09:33Z</time>
      </trkpt>
      <trkpt lat="46.61445" lon="6.23827">
        <ele>1018.4</ele>
        <time>2024-06-16T07:09:34Z</time>
      </trkpt>
      <trkpt lat="46.61445" lon="6.23827">
        <ele>1018.4</ele>
        <time>2024-06-16T07:09:35Z</time>
      </trkpt>
      <trkpt lat="46.61445" lon="6.23827">
        <ele>1018.4</ele>
        <time>2024-06-16T07:09:36Z</time>
      </trkpt>
      <trkpt lat="46.61446" lon="6.23827">
        <ele>1018.4</ele>
        <time>2024-06-16T07:09:37Z</time>
      </trkpt>
      <trkpt lat="46.61446" lon="6.23827">
        <ele>1018.4</ele>
        <time>2024-06-16T07:09:38Z</time>
      </trkpt>
      <trkpt lat="46.61446" lon="6.23828">
        <ele>1018.3</ele>
        <time>2024-06-16T07:09:39Z</time>
      </trkpt>
      <trkpt lat="46.61445" lon="6.23828">
        <ele>1018.3</ele>
        <time>2024-06-16T07:09:40Z</time>
      </trkpt>
      <trkpt lat="46.61445" lon="6.23828">
        <ele>1018.3</ele>
        <time>2024-06-16T07:09:41Z</time>
      </trkpt>
      <trkpt lat="46.61445" lon="6.23827">
        <ele>1018.3</ele>
        <time>2024-06-16T07:09:42Z</time>
      </trkpt>
      <trkpt lat="46.61445" lon="6.23827">
        <ele>1018.2</ele>
        <time>2024-06-16T07:09:43Z</time>
      </trkpt>
      <trkpt lat="46.61445" lon="6.23827">
        <ele>1018.2</ele>
        <time>2024-06-16T07:09:44Z</time>
      </trkpt>
      <trkpt lat="46.61445" lon="6.23827">
        <ele>1018.1</ele>
        <time>2024-06-16T07:09:45Z</time>
      </trkpt>
      <trkpt lat="46.61444" lon="6.23828">
        <ele>1018</ele>
        <time>2024-06-16T07:09:46Z</time>
      </trkpt>
      <trkpt lat="46.61444" lon="6.23829">
        <ele>1018</ele>
        <time>2024-06-16T07:09:47Z</time>
      </trkpt>
      <trkpt lat="46.61443" lon="6.2383">
        <ele>1018.1</ele>
        <time>2024-06-16T07:09:48Z</time>
      </trkpt>
      <trkpt lat="46.61442" lon="6.23833">
        <ele>1018.1</ele>
        <time>2024-06-16T07:09:49Z</time>
      </trkpt>
      <trkpt lat="46.61442" lon="6.23835">
        <ele>1018.5</ele>
        <time>2024-06-16T07:09:50Z</time>
      </trkpt>
      <trkpt lat="46.61441" lon="6.23839">
        <ele>1018.8</ele>
        <time>2024-06-16T07:09:51Z</time>
      </trkpt>
      <trkpt lat="46.61442" lon="6.23843">
        <ele>1019</ele>
        <time>2024-06-16T07:09:52Z</time>
      </trkpt>
      <trkpt lat="46.61443" lon="6.23847">
        <ele>1019.2</ele>
        <time>2024-06-16T07:09:53Z</time>
      </trkpt>
      <trkpt lat="46.61444" lon="6.23852">
        <ele>1019.2</ele>
        <time>2024-06-16T07:09:54Z</time>
      </trkpt>
      <trkpt lat="46.61446" lon="6.23857">
        <ele>1019.3</ele>
        <time>2024-06-16T07:09:55Z</time>
      </trkpt>
      <trkpt lat="46.61448" lon="6.23862">
        <ele>1019.3</ele>
        <time>2024-06-16T07:09:56Z</time>
      </trkpt>
      <trkpt lat="46.61451" lon="6.23867">
        <ele>1019.2</ele>
        <time>2024-06-16T07:09:57Z</time>
      </trkpt>
      <trkpt lat="46.61454" lon="6.23873">
        <ele>1019.1</ele>
        <time>2024-06-16T07:09:58Z</time>
      </trkpt>
      <trkpt lat="46.61456" lon="6.23879">
        <ele>1018.9</ele>
        <time>2024-06-16T07:09:59Z</time>
      </trkpt>
      <trkpt lat="46.6146" lon="6.23885">
        <ele>1018.7</ele>
        <time>2024-06-16T07:10:00Z</time>
      </trkpt>
      <trkpt lat="46.61463" lon="6.23891">
        <ele>1018.3</ele>
        <time>2024-06-16T07:10:01Z</time>
      </trkpt>
      <trkpt lat="46.61466" lon="6.23897">
        <ele>1018</ele>
        <time>2024-06-16T07:10:02Z</time>
      </trkpt>
      <trkpt lat="46.6147" lon="6.23903">
        <ele>1017.7</ele>
        <time>2024-06-16T07:10:03Z</time>
      </trkpt>
      <trkpt lat="46.61473" lon="6.23909">
        <ele>1017.3</ele>
        <time>2024-06-16T07:10:04Z</time>
      </trkpt>
      <trkpt lat="46.61477" lon="6.23915">
        <ele>1017</ele>
        <time>2024-06-16T07:10:05Z</time>
      </trkpt>
      <trkpt lat="46.6148" lon="6.2392">
        <ele>1016.6</ele>
        <time>2024-06-16T07:10:06Z</time>
      </trkpt>
      <trkpt lat="46.61484" lon="6.23926">
        <ele>1016.2</ele>
        <time>2024-06-16T07:10:07Z</time>
      </trkpt>
      <trkpt lat="46.61488" lon="6.23931">
        <ele>1015.8</ele>
        <time>2024-06-16T07:10:08Z</time>
      </trkpt>
      <trkpt lat="46.61492" lon="6.23937">
        <ele>1015.4</ele>
        <time>2024-06-16T07:10:09Z</time>
      </trkpt>
      <trkpt lat="46.61497" lon="6.23943">
        <ele>1014.9</ele>
        <time>2024-06-16T07:10:10Z</time>
      </trkpt>
      <trkpt lat="46.61501" lon="6.23949">
        <ele>1014.5</ele>
        <time>2024-06-16T07:10:11Z</time>
      </trkpt>
      <trkpt lat="46.61506" lon="6.23955">
        <ele>1014.1</ele>
        <time>2024-06-16T07:10:12Z</time>
      </trkpt>
      <trkpt lat="46.61511" lon="6.23961">
        <ele>1013.6</ele>
        <time>2024-06-16T07:10:13Z</time>
      </trkpt>
      <trkpt lat="46.61516" lon="6.23967">
        <ele>1013.1</ele>
        <time>2024-06-16T07:10:14Z</time>
      </trkpt>
      <trkpt lat="46.61521" lon="6.23973">
        <ele>1012.6</ele>
        <time>2024-06-16T07:10:15Z</time>
      </trkpt>
      <trkpt lat="46.61526" lon="6.2398">
        <ele>1012.3</ele>
        <time>2024-06-16T07:10:16Z</time>
      </trkpt>
      <trkpt lat="46.61531" lon="6.23986">
        <ele>1012.1</ele>
        <time>2024-06-16T07:10:17Z</time>
      </trkpt>
      <trkpt lat="46.61536" lon="6.23992">
        <ele>1012.1</ele>
        <time>2024-06-16T07:10:18Z</time>
      </trkpt>
      <trkpt lat="46.61541" lon="6.23997">
        <ele>1011.9</ele>
        <time>2024-06-16T07:10:19Z</time>
      </trkpt>
      <trkpt lat="46.61546" lon="6.24003">
        <ele>1011.8</ele>
        <time>2024-06-16T07:10:20Z</time>
      </trkpt>
      <trkpt lat="46.61551" lon="6.24008">
        <ele>1011.7</ele>
        <time>2024-06-16T07:10:21Z</time>
      </trkpt>
      <trkpt lat="46.61557" lon="6.24013">
        <ele>1011.5</ele>
        <time>2024-06-16T07:10:22Z</time>
      </trkpt>
      <trkpt lat="46.61562" lon="6.24018">
        <ele>1011.3</ele>
        <time>2024-06-16T07:10:23Z</time>
      </trkpt>
      <trkpt lat="46.61567" lon="6.24022">
        <ele>1011</ele>
        <time>2024-06-16T07:10:24Z</time>
      </trkpt>
      <trkpt lat="46.61573" lon="6.24027">
        <ele>1010.9</ele>
        <time>2024-06-16T07:10:25Z</time>
      </trkpt>
      <trkpt lat="46.61578" lon="6.24031">
        <ele>1010.7</ele>
        <time>2024-06-16T07:10:26Z</time>
      </trkpt>
      <trkpt lat="46.61584" lon="6.24035">
        <ele>1010.6</ele>
        <time>2024-06-16T07:10:27Z</time>
      </trkpt>
      <trkpt lat="46.61589" lon="6.24039">
        <ele>1010.4</ele>
        <time>2024-06-16T07:10:28Z</time>
      </trkpt>
      <trkpt lat="46.61595" lon="6.24043">
        <ele>1010.2</ele>
        <time>2024-06-16T07:10:29Z</time>
      </trkpt>
      <trkpt lat="46.61601" lon="6.24046">
        <ele>1010.1</ele>
        <time>2024-06-16T07:10:30Z</time>
      </trkpt>
      <trkpt lat="46.61607" lon="6.24049">
        <ele>1009.9</ele>
        <time>2024-06-16T07:10:31Z</time>
      </trkpt>
      <trkpt lat="46.61613" lon="6.24052">
        <ele>1009.9</ele>
        <time>2024-06-16T07:10:32Z</time>
      </trkpt>
      <trkpt lat="46.61619" lon="6.24055">
        <ele>1010</ele>
        <time>2024-06-16T07:10:33Z</time>
      </trkpt>
      <trkpt lat="46.61625" lon="6.24057">
        <ele>1010.1</ele>
        <time>2024-06-16T07:10:34Z</time>
      </trkpt>
      <trkpt lat="46.61631" lon="6.2406">
        <ele>1010.2</ele>
        <time>2024-06-16T07:10:35Z</time>
      </trkpt>
      <trkpt lat="46.61637" lon="6.24063">
        <ele>1010.4</ele>
        <time>2024-06-16T07:10:36Z</time>
      </trkpt>
      <trkpt lat="46.61643" lon="6.24066">
        <ele>1010.5</ele>
        <time>2024-06-16T07:10:37Z</time>
      </trkpt>
      <trkpt lat="46.61649" lon="6.24068">
        <ele>1010.5</ele>
        <time>2024-06-16T07:10:38Z</time>
      </trkpt>
      <trkpt lat="46.61655" lon="6.24071">
        <ele>1010.6</ele>
        <time>2024-06-16T07:10:39Z</time>
      </trkpt>
      <trkpt lat="46.61661" lon="6.24074">
        <ele>1010.8</ele>
        <time>2024-06-16T07:10:40Z</time>
      </trkpt>
      <trkpt lat="46.61666" lon="6.24078">
        <ele>1011</ele>
        <time>2024-06-16T07:10:41Z</time>
      </trkpt>
      <trkpt lat="46.61671" lon="6.24081">
        <ele>1011.2</ele>
        <time>2024-06-16T07:10:42Z</time>
      </trkpt>
      <trkpt lat="46.61677" lon="6.24085">
        <ele>1011.2</ele>
        <time>2024-06-16T07:10:43Z</time>
      </trkpt>
      <trkpt lat="46.61682" lon="6.24089">
        <ele>1011.2</ele>
        <time>2024-06-16T07:10:44Z</time>
      </trkpt>
      <trkpt lat="46.61687" lon="6.24093">
        <ele>1011</ele>
        <time>2024-06-16T07:10:45Z</time>
      </trkpt>
      <trkpt lat="46.61691" lon="6.24098">
        <ele>1010.8</ele>
        <time>2024-06-16T07:10:46Z</time>
      </trkpt>
      <trkpt lat="46.61696" lon="6.24102">
        <ele>1010.8</ele>
        <time>2024-06-16T07:10:47Z</time>
      </trkpt>
      <trkpt lat="46.617" lon="6.24107">
        <ele>1010.8</ele>
        <time>2024-06-16T07:10:48Z</time>
      </trkpt>
      <trkpt lat="46.61705" lon="6.24112">
        <ele>1010.7</ele>
        <time>2024-06-16T07:10:49Z</time>
      </trkpt>
      <trkpt lat="46.61709" lon="6.24117">
        <ele>1010.7</ele>
        <time>2024-06-16T07:10:50Z</time>
      </trkpt>
      <trkpt lat="46.61713" lon="6.24122">
        <ele>1010.6</ele>
        <time>2024-06-16T07:10:51Z</time>
      </trkpt>
      <trkpt lat="46.61717" lon="6.24127">
        <ele>1010.6</ele>
        <time>2024-06-16T07:10:52Z</time>
      </trkpt>
      <trkpt lat="46.61721" lon="6.24133">
        <ele>1010.5</ele>
        <time>2024-06-16T07:10:53Z</time>
      </trkpt>
      <trkpt lat="46.61725" lon="6.24138">
        <ele>1010.3</ele>
        <time>2024-06-16T07:10:54Z</time>
      </trkpt>
      <trkpt lat="46.61729" lon="6.24144">
        <ele>1010.2</ele>
        <time>2024-06-16T07:10:55Z</time>
      </trkpt>
      <trkpt lat="46.61733" lon="6.24149">
        <ele>1010.1</ele>
        <time>2024-06-16T07:10:56Z</time>
      </trkpt>
      <trkpt lat="46.61737" lon="6.24154">
        <ele>1009.8</ele>
        <time>2024-06-16T07:10:57Z</time>
      </trkpt>
      <trkpt lat="46.61741" lon="6.2416">
        <ele>1009.7</ele>
        <time>2024-06-16T07:10:58Z</time>
      </trkpt>
      <trkpt lat="46.61745" lon="6.24165">
        <ele>1009.8</ele>
        <time>2024-06-16T07:10:59Z</time>
      </trkpt>
      <trkpt lat="46.61749" lon="6.2417">
        <ele>1009.9</ele>
        <time>2024-06-16T07:11:00Z</time>
      </trkpt>
      <trkpt lat="46.61752" lon="6.24176">
        <ele>1009.9</ele>
        <time>2024-06-16T07:11:01Z</time>
      </trkpt>
      <trkpt lat="46.61756" lon="6.24181">
        <ele>1010</ele>
        <time>2024-06-16T07:11:02Z</time>
      </trkpt>
      <trkpt lat="46.6176" lon="6.24187">
        <ele>1010</ele>
        <time>2024-06-16T07:11:03Z</time>
      </trkpt>
      <trkpt lat="46.61763" lon="6.24193">
        <ele>1009.9</ele>
        <time>2024-06-16T07:11:04Z</time>
      </trkpt>
      <trkpt lat="46.61766" lon="6.24199">
        <ele>1009.9</ele>
        <time>2024-06-16T07:11:05Z</time>
      </trkpt>
      <trkpt lat="46.61769" lon="6.24206">
        <ele>1010.1</ele>
        <time>2024-06-16T07:11:06Z</time>
      </trkpt>
      <trkpt lat="46.61771" lon="6.24212">
        <ele>1010.3</ele>
        <time>2024-06-16T07:11:07Z</time>
      </trkpt>
      <trkpt lat="46.61774" lon="6.24218">
        <ele>1010.4</ele>
        <time>2024-06-16T07:11:08Z</time>
      </trkpt>
      <trkpt lat="46.61776" lon="6.24225">
        <ele>1010.5</ele>
        <time>2024-06-16T07:11:09Z</time>
      </trkpt>
      <trkpt lat="46.61779" lon="6.24231">
        <ele>1010.5</ele>
        <time>2024-06-16T07:11:10Z</time>
      </trkpt>
      <trkpt lat="46.61781" lon="6.24238">
        <ele>1010.6</ele>
        <time>2024-06-16T07:11:11Z</time>
      </trkpt>
      <trkpt lat="46.61783" lon="6.24244">
        <ele>1010.7</ele>
        <time>2024-06-16T07:11:12Z</time>
      </trkpt>
      <trkpt lat="46.61785" lon="6.24251">
        <ele>1010.9</ele>
        <time>2024-06-16T07:11:13Z</time>
      </trkpt>
      <trkpt lat="46.61787" lon="6.24257">
        <ele>1011</ele>
        <time>2024-06-16T07:11:14Z</time>
      </trkpt>
      <trkpt lat="46.61789" lon="6.24264">
        <ele>1011.2</ele>
        <time>2024-06-16T07:11:15Z</time>
      </trkpt>
      <trkpt lat="46.61791" lon="6.2427">
        <ele>1011.3</ele>
        <time>2024-06-16T07:11:16Z</time>
      </trkpt>
      <trkpt lat="46.61792" lon="6.24276">
        <ele>1011.3</ele>
        <time>2024-06-16T07:11:17Z</time>
      </trkpt>
      <trkpt lat="46.61794" lon="6.24282">
        <ele>1011.4</ele>
        <time>2024-06-16T07:11:18Z</time>
      </trkpt>
      <trkpt lat="46.61795" lon="6.24288">
        <ele>1011.5</ele>
        <time>2024-06-16T07:11:19Z</time>
      </trkpt>
      <trkpt lat="46.61797" lon="6.24294">
        <ele>1011.6</ele>
        <time>2024-06-16T07:11:20Z</time>
      </trkpt>
      <trkpt lat="46.61798" lon="6.243">
        <ele>1011.7</ele>
        <time>2024-06-16T07:11:21Z</time>
      </trkpt>
      <trkpt lat="46.618" lon="6.24306">
        <ele>1011.7</ele>
        <time>2024-06-16T07:11:22Z</time>
      </trkpt>
      <trkpt lat="46.61801" lon="6.24311">
        <ele>1011.9</ele>
        <time>2024-06-16T07:11:23Z</time>
      </trkpt>
      <trkpt lat="46.61803" lon="6.24317">
        <ele>1011.9</ele>
        <time>2024-06-16T07:11:24Z</time>
      </trkpt>
      <trkpt lat="46.61804" lon="6.24323">
        <ele>1012</ele>
        <time>2024-06-16T07:11:25Z</time>
      </trkpt>
      <trkpt lat="46.61806" lon="6.24328">
        <ele>1012</ele>
        <time>2024-06-16T07:11:26Z</time>
      </trkpt>
      <trkpt lat="46.61808" lon="6.24333">
        <ele>1012.1</ele>
        <time>2024-06-16T07:11:27Z</time>
      </trkpt>
      <trkpt lat="46.6181" lon="6.24339">
        <ele>1012.2</ele>
        <time>2024-06-16T07:11:28Z</time>
      </trkpt>
      <trkpt lat="46.61812" lon="6.24344">
        <ele>1012.3</ele>
        <time>2024-06-16T07:11:29Z</time>
      </trkpt>
      <trkpt lat="46.61814" lon="6.24349">
        <ele>1012.3</ele>
        <time>2024-06-16T07:11:30Z</time>
      </trkpt>
      <trkpt lat="46.61816" lon="6.24354">
        <ele>1012.3</ele>
        <time>2024-06-16T07:11:31Z</time>
      </trkpt>
      <trkpt lat="46.61818" lon="6.2436">
        <ele>1012.4</ele>
        <time>2024-06-16T07:11:32Z</time>
      </trkpt>
      <trkpt lat="46.61821" lon="6.24365">
        <ele>1012.5</ele>
        <time>2024-06-16T07:11:33Z</time>
      </trkpt>
      <trkpt lat="46.61823" lon="6.2437">
        <ele>1012.6</ele>
        <time>2024-06-16T07:11:34Z</time>
      </trkpt>
      <trkpt lat="46.61826" lon="6.24375">
        <ele>1012.7</ele>
        <time>2024-06-16T07:11:35Z</time>
      </trkpt>
      <trkpt lat="46.61828" lon="6.24379">
        <ele>1012.8</ele>
        <time>2024-06-16T07:11:36Z</time>
      </trkpt>
      <trkpt lat="46.61831" lon="6.24384">
        <ele>1013</ele>
        <time>2024-06-16T07:11:37Z</time>
      </trkpt>
      <trkpt lat="46.61833" lon="6.24389">
        <ele>1013.2</ele>
        <time>2024-06-16T07:11:38Z</time>
      </trkpt>
      <trkpt lat="46.61836" lon="6.24393">
        <ele>1013.4</ele>
        <time>2024-06-16T07:11:39Z</time>
      </trkpt>
      <trkpt lat="46.61839" lon="6.24398">
        <ele>1013.5</ele>
        <time>2024-06-16T07:11:40Z</time>
      </trkpt>
      <trkpt lat="46.61841" lon="6.24403">
        <ele>1013.6</ele>
        <time>2024-06-16T07:11:41Z</time>
      </trkpt>
      <trkpt lat="46.61844" lon="6.24407">
        <ele>1013.8</ele>
        <time>2024-06-16T07:11:42Z</time>
      </trkpt>
      <trkpt lat="46.61847" lon="6.24412">
        <ele>1014.1</ele>
        <time>2024-06-16T07:11:43Z</time>
      </trkpt>
      <trkpt lat="46.61849" lon="6.24417">
        <ele>1014.5</ele>
        <time>2024-06-16T07:11:44Z</time>
      </trkpt>
      <trkpt lat="46.61852" lon="6.24421">
        <ele>1014.9</ele>
        <time>2024-06-16T07:11:45Z</time>
      </trkpt>
      <trkpt lat="46.61855" lon="6.24426">
        <ele>1015.4</ele>
        <time>2024-06-16T07:11:46Z</time>
      </trkpt>
      <trkpt lat="46.61857" lon="6.2443">
        <ele>1015.9</ele>
        <time>2024-06-16T07:11:47Z</time>
      </trkpt>
      <trkpt lat="46.6186" lon="6.24435">
        <ele>1016.3</ele>
        <time>2024-06-16T07:11:48Z</time>
      </trkpt>
      <trkpt lat="46.61863" lon="6.24439">
        <ele>1016.7</ele>
        <time>2024-06-16T07:11:49Z</time>
      </trkpt>
      <trkpt lat="46.61866" lon="6.24444">
        <ele>1016.9</ele>
        <time>2024-06-16T07:11:50Z</time>
      </trkpt>
      <trkpt lat="46.61869" lon="6.24449">
        <ele>1017.1</ele>
        <time>2024-06-16T07:11:51Z</time>
      </trkpt>
      <trkpt lat="46.61871" lon="6.24453">
        <ele>1017.4</ele>
        <time>2024-06-16T07:11:52Z</time>
      </trkpt>
      <trkpt lat="46.61874" lon="6.24458">
        <ele>1017.5</ele>
        <time>2024-06-16T07:11:53Z</time>
      </trkpt>
      <trkpt lat="46.61877" lon="6.24463">
        <ele>1017.6</ele>
        <time>2024-06-16T07:11:54Z</time>
      </trkpt>
      <trkpt lat="46.6188" lon="6.24468">
        <ele>1017.7</ele>
        <time>2024-06-16T07:11:55Z</time>
      </trkpt>
      <trkpt lat="46.61883" lon="6.24473">
        <ele>1017.7</ele>
        <time>2024-06-16T07:11:56Z</time>
      </trkpt>
      <trkpt lat="46.61885" lon="6.24478">
        <ele>1017.7</ele>
        <time>2024-06-16T07:11:57Z</time>
      </trkpt>
      <trkpt lat="46.61888" lon="6.24482">
        <ele>1017.7</ele>
        <time>2024-06-16T07:11:58Z</time>
      </trkpt>
      <trkpt lat="46.61891" lon="6.24487">
        <ele>1017.8</ele>
        <time>2024-06-16T07:11:59Z</time>
      </trkpt>
      <trkpt lat="46.61894" lon="6.24492">
        <ele>1017.8</ele>
        <time>2024-06-16T07:12:00Z</time>
      </trkpt>
      <trkpt lat="46.61896" lon="6.24497">
        <ele>1017.8</ele>
        <time>2024-06-16T07:12:01Z</time>
      </trkpt>
      <trkpt lat="46.61899" lon="6.24502">
        <ele>1017.9</ele>
        <time>2024-06-16T07:12:02Z</time>
      </trkpt>
      <trkpt lat="46.61902" lon="6.24507">
        <ele>1017.9</ele>
        <time>2024-06-16T07:12:03Z</time>
      </trkpt>
      <trkpt lat="46.61904" lon="6.24512">
        <ele>1017.8</ele>
        <time>2024-06-16T07:12:04Z</time>
      </trkpt>
      <trkpt lat="46.61907" lon="6.24517">
        <ele>1017.7</ele>
        <time>2024-06-16T07:12:05Z</time>
      </trkpt>
      <trkpt lat="46.6191" lon="6.24523">
        <ele>1017.6</ele>
        <time>2024-06-16T07:12:06Z</time>
      </trkpt>
      <trkpt lat="46.61913" lon="6.24528">
        <ele>1017.5</ele>
        <time>2024-06-16T07:12:07Z</time>
      </trkpt>
      <trkpt lat="46.61916" lon="6.24534">
        <ele>1017.4</ele>
        <time>2024-06-16T07:12:08Z</time>
      </trkpt>
      <trkpt lat="46.6192" lon="6.24539">
        <ele>1017.3</ele>
        <time>2024-06-16T07:12:09Z</time>
      </trkpt>
      <trkpt lat="46.61923" lon="6.24544">
        <ele>1017</ele>
        <time>2024-06-16T07:12:10Z</time>
      </trkpt>
      <trkpt lat="46.61927" lon="6.2455">
        <ele>1016.9</ele>
        <time>2024-06-16T07:12:11Z</time>
      </trkpt>
      <trkpt lat="46.61931" lon="6.24555">
        <ele>1016.7</ele>
        <time>2024-06-16T07:12:12Z</time>
      </trkpt>
      <trkpt lat="46.61935" lon="6.24559">
        <ele>1016.6</ele>
        <time>2024-06-16T07:12:13Z</time>
      </trkpt>
      <trkpt lat="46.6194" lon="6.24564">
        <ele>1016.5</ele>
        <time>2024-06-16T07:12:14Z</time>
      </trkpt>
      <trkpt lat="46.61945" lon="6.24568">
        <ele>1016.3</ele>
        <time>2024-06-16T07:12:15Z</time>
      </trkpt>
      <trkpt lat="46.61951" lon="6.24572">
        <ele>1016.2</ele>
        <time>2024-06-16T07:12:16Z</time>
      </trkpt>
      <trkpt lat="46.61956" lon="6.24575">
        <ele>1016.1</ele>
        <time>2024-06-16T07:12:17Z</time>
      </trkpt>
      <trkpt lat="46.61962" lon="6.24578">
        <ele>1016</ele>
        <time>2024-06-16T07:12:18Z</time>
      </trkpt>
      <trkpt lat="46.61968" lon="6.24581">
        <ele>1015.9</ele>
        <time>2024-06-16T07:12:19Z</time>
      </trkpt>
      <trkpt lat="46.61974" lon="6.24584">
        <ele>1015.8</ele>
        <time>2024-06-16T07:12:20Z</time>
      </trkpt>
      <trkpt lat="46.6198" lon="6.24586">
        <ele>1015.7</ele>
        <time>2024-06-16T07:12:21Z</time>
      </trkpt>
      <trkpt lat="46.61986" lon="6.24589">
        <ele>1015.6</ele>
        <time>2024-06-16T07:12:22Z</time>
      </trkpt>
      <trkpt lat="46.61993" lon="6.24592">
        <ele>1015.4</ele>
        <time>2024-06-16T07:12:23Z</time>
      </trkpt>
      <trkpt lat="46.61999" lon="6.24594">
        <ele>1015.3</ele>
        <time>2024-06-16T07:12:24Z</time>
      </trkpt>
      <trkpt lat="46.62005" lon="6.24597">
        <ele>1015.1</ele>
        <time>2024-06-16T07:12:25Z</time>
      </trkpt>
      <trkpt lat="46.62012" lon="6.246">
        <ele>1014.9</ele>
        <time>2024-06-16T07:12:26Z</time>
      </trkpt>
      <trkpt lat="46.62018" lon="6.24603">
        <ele>1014.7</ele>
        <time>2024-06-16T07:12:27Z</time>
      </trkpt>
      <trkpt lat="46.62024" lon="6.24606">
        <ele>1014.5</ele>
        <time>2024-06-16T07:12:28Z</time>
      </trkpt>
      <trkpt lat="46.62031" lon="6.2461">
        <ele>1014.3</ele>
        <time>2024-06-16T07:12:29Z</time>
      </trkpt>
      <trkpt lat="46.62037" lon="6.24614">
        <ele>1014</ele>
        <time>2024-06-16T07:12:30Z</time>
      </trkpt>
      <trkpt lat="46.62043" lon="6.24618">
        <ele>1013.6</ele>
        <time>2024-06-16T07:12:31Z</time>
      </trkpt>
      <trkpt lat="46.62049" lon="6.24623">
        <ele>1013.4</ele>
        <time>2024-06-16T07:12:32Z</time>
      </trkpt>
      <trkpt lat="46.62055" lon="6.24627">
        <ele>1013.3</ele>
        <time>2024-06-16T07:12:33Z</time>
      </trkpt>
      <trkpt lat="46.62062" lon="6.24631">
        <ele>1013.1</ele>
        <time>2024-06-16T07:12:34Z</time>
      </trkpt>
      <trkpt lat="46.62068" lon="6.24635">
        <ele>1013.1</ele>
        <time>2024-06-16T07:12:35Z</time>
      </trkpt>
      <trkpt lat="46.62074" lon="6.2464">
        <ele>1012.9</ele>
        <time>2024-06-16T07:12:36Z</time>
      </trkpt>
      <trkpt lat="46.62081" lon="6.24645">
        <ele>1012.9</ele>
        <time>2024-06-16T07:12:37Z</time>
      </trkpt>
      <trkpt lat="46.62087" lon="6.24649">
        <ele>1012.9</ele>
        <time>2024-06-16T07:12:38Z</time>
      </trkpt>
      <trkpt lat="46.62093" lon="6.24654">
        <ele>1012.9</ele>
        <time>2024-06-16T07:12:39Z</time>
      </trkpt>
      <trkpt lat="46.621" lon="6.24659">
        <ele>1012.8</ele>
        <time>2024-06-16T07:12:40Z</time>
      </trkpt>
      <trkpt lat="46.62106" lon="6.24664">
        <ele>1012.6</ele>
        <time>2024-06-16T07:12:41Z</time>
      </trkpt>
      <trkpt lat="46.62113" lon="6.24669">
        <ele>1012.4</ele>
        <time>2024-06-16T07:12:42Z</time>
      </trkpt>
      <trkpt lat="46.62119" lon="6.24674">
        <ele>1012.2</ele>
        <time>2024-06-16T07:12:43Z</time>
      </trkpt>
      <trkpt lat="46.62125" lon="6.24679">
        <ele>1012.1</ele>
        <time>2024-06-16T07:12:44Z</time>
      </trkpt>
      <trkpt lat="46.62131" lon="6.24685">
        <ele>1012</ele>
        <time>2024-06-16T07:12:45Z</time>
      </trkpt>
      <trkpt lat="46.62137" lon="6.2469">
        <ele>1011.9</ele>
        <time>2024-06-16T07:12:46Z</time>
      </trkpt>
      <trkpt lat="46.62143" lon="6.24696">
        <ele>1011.8</ele>
        <time>2024-06-16T07:12:47Z</time>
      </trkpt>
      <trkpt lat="46.62149" lon="6.24702">
        <ele>1011.7</ele>
        <time>2024-06-16T07:12:48Z</time>
      </trkpt>
      <trkpt lat="46.62155" lon="6.24707">
        <ele>1011.6</ele>
        <time>2024-06-16T07:12:49Z</time>
      </trkpt>
      <trkpt lat="46.6216" lon="6.24713">
        <ele>1011.5</ele>
        <time>2024-06-16T07:12:50Z</time>
      </trkpt>
      <trkpt lat="46.62166" lon="6.24719">
        <ele>1011.4</ele>
        <time>2024-06-16T07:12:51Z</time>
      </trkpt>
      <trkpt lat="46.62172" lon="6.24725">
        <ele>1011.4</ele>
        <time>2024-06-16T07:12:52Z</time>
      </trkpt>
      <trkpt lat="46.62177" lon="6.24731">
        <ele>1011.4</ele>
        <time>2024-06-16T07:12:53Z</time>
      </trkpt>
      <trkpt lat="46.62182" lon="6.24736">
        <ele>1011.3</ele>
        <time>2024-06-16T07:12:54Z</time>
      </trkpt>
      <trkpt lat="46.62188" lon="6.24742">
        <ele>1011.2</ele>
        <time>2024-06-16T07:12:55Z</time>
      </trkpt>
      <trkpt lat="46.62193" lon="6.24748">
        <ele>1011.1</ele>
        <time>2024-06-16T07:12:56Z</time>
      </trkpt>
      <trkpt lat="46.62198" lon="6.24754">
        <ele>1011</ele>
        <time>2024-06-16T07:12:57Z</time>
      </trkpt>
      <trkpt lat="46.62203" lon="6.24759">
        <ele>1010.9</ele>
        <time>2024-06-16T07:12:58Z</time>
      </trkpt>
      <trkpt lat="46.62208" lon="6.24764">
        <ele>1010.9</ele>
        <time>2024-06-16T07:12:59Z</time>
      </trkpt>
      <trkpt lat="46.62213" lon="6.2477">
        <ele>1011</ele>
        <time>2024-06-16T07:13:00Z</time>
      </trkpt>
      <trkpt lat="46.62218" lon="6.24775">
        <ele>1011.1</ele>
        <time>2024-06-16T07:13:01Z</time>
      </trkpt>
      <trkpt lat="46.62223" lon="6.2478">
        <ele>1011.2</ele>
        <time>2024-06-16T07:13:02Z</time>
      </trkpt>
      <trkpt lat="46.62227" lon="6.24786">
        <ele>1011.2</ele>
        <time>2024-06-16T07:13:03Z</time>
      </trkpt>
      <trkpt lat="46.62231" lon="6.24792">
        <ele>1011.2</ele>
        <time>2024-06-16T07:13:04Z</time>
      </trkpt>
      <trkpt lat="46.62235" lon="6.24798">
        <ele>1011.2</ele>
        <time>2024-06-16T07:13:05Z</time>
      </trkpt>
      <trkpt lat="46.62239" lon="6.24805">
        <ele>1011.1</ele>
        <time>2024-06-16T07:13:06Z</time>
      </trkpt>
      <trkpt lat="46.62242" lon="6.24812">
        <ele>1011</ele>
        <time>2024-06-16T07:13:07Z</time>
      </trkpt>
      <trkpt lat="46.62244" lon="6.2482">
        <ele>1010.9</ele>
        <time>2024-06-16T07:13:08Z</time>
      </trkpt>
      <trkpt lat="46.62246" lon="6.24828">
        <ele>1010.7</ele>
        <time>2024-06-16T07:13:09Z</time>
      </trkpt>
      <trkpt lat="46.62248" lon="6.24836">
        <ele>1010.6</ele>
        <time>2024-06-16T07:13:10Z</time>
      </trkpt>
      <trkpt lat="46.62249" lon="6.24844">
        <ele>1010.6</ele>
        <time>2024-06-16T07:13:11Z</time>
      </trkpt>
      <trkpt lat="46.6225" lon="6.24852">
        <ele>1010.5</ele>
        <time>2024-06-16T07:13:12Z</time>
      </trkpt>
      <trkpt lat="46.62251" lon="6.24861">
        <ele>1010.4</ele>
        <time>2024-06-16T07:13:13Z</time>
      </trkpt>
      <trkpt lat="46.62251" lon="6.2487">
        <ele>1010.3</ele>
        <time>2024-06-16T07:13:14Z</time>
      </trkpt>
      <trkpt lat="46.62252" lon="6.24878">
        <ele>1010.2</ele>
        <time>2024-06-16T07:13:15Z</time>
      </trkpt>
      <trkpt lat="46.62252" lon="6.24887">
        <ele>1010.2</ele>
        <time>2024-06-16T07:13:16Z</time>
      </trkpt>
      <trkpt lat="46.62253" lon="6.24895">
        <ele>1010.2</ele>
        <time>2024-06-16T07:13:17Z</time>
      </trkpt>
      <trkpt lat="46.62253" lon="6.24903">
        <ele>1010.2</ele>
        <time>2024-06-16T07:13:18Z</time>
      </trkpt>
      <trkpt lat="46.62254" lon="6.24912">
        <ele>1010.2</ele>
        <time>2024-06-16T07:13:19Z</time>
      </trkpt>
      <trkpt lat="46.62254" lon="6.2492">
        <ele>1010.2</ele>
        <time>2024-06-16T07:13:20Z</time>
      </trkpt>
      <trkpt lat="46.62255" lon="6.24928">
        <ele>1010.1</ele>
        <time>2024-06-16T07:13:21Z</time>
      </trkpt>
      <trkpt lat="46.62255" lon="6.24935">
        <ele>1010.1</ele>
        <time>2024-06-16T07:13:22Z</time>
      </trkpt>
      <trkpt lat="46.62256" lon="6.24943">
        <ele>1010.2</ele>
        <time>2024-06-16T07:13:23Z</time>
      </trkpt>
      <trkpt lat="46.62257" lon="6.24951">
        <ele>1010.2</ele>
        <time>2024-06-16T07:13:24Z</time>
      </trkpt>
      <trkpt lat="46.62257" lon="6.24958">
        <ele>1010.2</ele>
        <time>2024-06-16T07:13:25Z</time>
      </trkpt>
      <trkpt lat="46.62258" lon="6.24966">
        <ele>1010.1</ele>
        <time>2024-06-16T07:13:26Z</time>
      </trkpt>
      <trkpt lat="46.62259" lon="6.24974">
        <ele>1010.1</ele>
        <time>2024-06-16T07:13:27Z</time>
      </trkpt>
      <trkpt lat="46.6226" lon="6.24981">
        <ele>1010</ele>
        <time>2024-06-16T07:13:28Z</time>
      </trkpt>
      <trkpt lat="46.62261" lon="6.24989">
        <ele>1010</ele>
        <time>2024-06-16T07:13:29Z</time>
      </trkpt>
      <trkpt lat="46.62262" lon="6.24996">
        <ele>1010</ele>
        <time>2024-06-16T07:13:30Z</time>
      </trkpt>
      <trkpt lat="46.62263" lon="6.25003">
        <ele>1009.9</ele>
        <time>2024-06-16T07:13:31Z</time>
      </trkpt>
      <trkpt lat="46.62264" lon="6.25011">
        <ele>1009.9</ele>
        <time>2024-06-16T07:13:32Z</time>
      </trkpt>
      <trkpt lat="46.62265" lon="6.25018">
        <ele>1009.9</ele>
        <time>2024-06-16T07:13:33Z</time>
      </trkpt>
      <trkpt lat="46.62266" lon="6.25025">
        <ele>1009.9</ele>
        <time>2024-06-16T07:13:34Z</time>
      </trkpt>
      <trkpt lat="46.62267" lon="6.25032">
        <ele>1010</ele>
        <time>2024-06-16T07:13:35Z</time>
      </trkpt>
      <trkpt lat="46.62269" lon="6.25039">
        <ele>1010.2</ele>
        <time>2024-06-16T07:13:36Z</time>
      </trkpt>
      <trkpt lat="46.62271" lon="6.25047">
        <ele>1010.4</ele>
        <time>2024-06-16T07:13:37Z</time>
      </trkpt>
      <trkpt lat="46.62273" lon="6.25054">
        <ele>1010.6</ele>
        <time>2024-06-16T07:13:38Z</time>
      </trkpt>
      <trkpt lat="46.62275" lon="6.25061">
        <ele>1010.7</ele>
        <time>2024-06-16T07:13:39Z</time>
      </trkpt>
      <trkpt lat="46.62277" lon="6.25068">
        <ele>1011</ele>
        <time>2024-06-16T07:13:40Z</time>
      </trkpt>
      <trkpt lat="46.62279" lon="6.25074">
        <ele>1011.2</ele>
        <time>2024-06-16T07:13:41Z</time>
      </trkpt>
      <trkpt lat="46.62282" lon="6.25081">
        <ele>1011.4</ele>
        <time>2024-06-16T07:13:42Z</time>
      </trkpt>
      <trkpt lat="46.62285" lon="6.25088">
        <ele>1011.7</ele>
        <time>2024-06-16T07:13:43Z</time>
      </trkpt>
      <trkpt lat="46.62288" lon="6.25094">
        <ele>1011.9</ele>
        <time>2024-06-16T07:13:44Z</time>
      </trkpt>
      <trkpt lat="46.62291" lon="6.251">
        <ele>1012.1</ele>
        <time>2024-06-16T07:13:45Z</time>
      </trkpt>
      <trkpt lat="46.62294" lon="6.25106">
        <ele>1012.3</ele>
        <time>2024-06-16T07:13:46Z</time>
      </trkpt>
      <trkpt lat="46.62298" lon="6.25112">
        <ele>1012.4</ele>
        <time>2024-06-16T07:13:47Z</time>
      </trkpt>
      <trkpt lat="46.62302" lon="6.25117">
        <ele>1012.7</ele>
        <time>2024-06-16T07:13:48Z</time>
      </trkpt>
      <trkpt lat="46.62305" lon="6.25123">
        <ele>1012.9</ele>
        <time>2024-06-16T07:13:49Z</time>
      </trkpt>
      <trkpt lat="46.62309" lon="6.25128">
        <ele>1013</ele>
        <time>2024-06-16T07:13:50Z</time>
      </trkpt>
      <trkpt lat="46.62313" lon="6.25133">
        <ele>1013</ele>
        <time>2024-06-16T07:13:51Z</time>
      </trkpt>
      <trkpt lat="46.62317" lon="6.25138">
        <ele>1013.1</ele>
        <time>2024-06-16T07:13:52Z</time>
      </trkpt>
      <trkpt lat="46.62321" lon="6.25142">
        <ele>1013</ele>
        <time>2024-06-16T07:13:53Z</time>
      </trkpt>
      <trkpt lat="46.62324" lon="6.25146">
        <ele>1013</ele>
        <time>2024-06-16T07:13:54Z</time>
      </trkpt>
      <trkpt lat="46.62328" lon="6.2515">
        <ele>1012.9</ele>
        <time>2024-06-16T07:13:55Z</time>
      </trkpt>
      <trkpt lat="46.62332" lon="6.25153">
        <ele>1012.8</ele>
        <time>2024-06-16T07:13:56Z</time>
      </trkpt>
      <trkpt lat="46.62336" lon="6.25156">
        <ele>1012.7</ele>
        <time>2024-06-16T07:13:57Z</time>
      </trkpt>
      <trkpt lat="46.6234" lon="6.25159">
        <ele>1012.5</ele>
        <time>2024-06-16T07:13:58Z</time>
      </trkpt>
      <trkpt lat="46.62344" lon="6.25162">
        <ele>1012.4</ele>
        <time>2024-06-16T07:13:59Z</time>
      </trkpt>
      <trkpt lat="46.62349" lon="6.25166">
        <ele>1012.2</ele>
        <time>2024-06-16T07:14:00Z</time>
      </trkpt>
      <trkpt lat="46.62353" lon="6.2517">
        <ele>1012</ele>
        <time>2024-06-16T07:14:01Z</time>
      </trkpt>
      <trkpt lat="46.62357" lon="6.25174">
        <ele>1011.9</ele>
        <time>2024-06-16T07:14:02Z</time>
      </trkpt>
      <trkpt lat="46.62361" lon="6.25179">
        <ele>1011.9</ele>
        <time>2024-06-16T07:14:03Z</time>
      </trkpt>
      <trkpt lat="46.62365" lon="6.25183">
        <ele>1011.8</ele>
        <time>2024-06-16T07:14:04Z</time>
      </trkpt>
      <trkpt lat="46.62369" lon="6.25188">
        <ele>1011.7</ele>
        <time>2024-06-16T07:14:05Z</time>
      </trkpt>
      <trkpt lat="46.62373" lon="6.25192">
        <ele>1011.5</ele>
        <time>2024-06-16T07:14:06Z</time>
      </trkpt>
      <trkpt lat="46.62378" lon="6.25197">
        <ele>1011.3</ele>
        <time>2024-06-16T07:14:07Z</time>
      </trkpt>
      <trkpt lat="46.62382" lon="6.25202">
        <ele>1011.1</ele>
        <time>2024-06-16T07:14:08Z</time>
      </trkpt>
      <trkpt lat="46.62386" lon="6.25206">
        <ele>1010.9</ele>
        <time>2024-06-16T07:14:09Z</time>
      </trkpt>
      <trkpt lat="46.62391" lon="6.25211">
        <ele>1010.9</ele>
        <time>2024-06-16T07:14:10Z</time>
      </trkpt>
      <trkpt lat="46.62396" lon="6.25215">
        <ele>1010.8</ele>
        <time>2024-06-16T07:14:11Z</time>
      </trkpt>
      <trkpt lat="46.624" lon="6.25219">
        <ele>1010.8</ele>
        <time>2024-06-16T07:14:12Z</time>
      </trkpt>
      <trkpt lat="46.62405" lon="6.25223">
        <ele>1010.8</ele>
        <time>2024-06-16T07:14:13Z</time>
      </trkpt>
      <trkpt lat="46.6241" lon="6.25227">
        <ele>1010.9</ele>
        <time>2024-06-16T07:14:14Z</time>
      </trkpt>
      <trkpt lat="46.62415" lon="6.2523">
        <ele>1011.1</ele>
        <time>2024-06-16T07:14:15Z</time>
      </trkpt>
      <trkpt lat="46.6242" lon="6.25234">
        <ele>1011.2</ele>
        <time>2024-06-16T07:14:16Z</time>
      </trkpt>
      <trkpt lat="46.62425" lon="6.25237">
        <ele>1011.3</ele>
        <time>2024-06-16T07:14:17Z</time>
      </trkpt>
      <trkpt lat="46.6243" lon="6.2524">
        <ele>1011.4</ele>
        <time>2024-06-16T07:14:18Z</time>
      </trkpt>
      <trkpt lat="46.62435" lon="6.25243">
        <ele>1011.4</ele>
        <time>2024-06-16T07:14:19Z</time>
      </trkpt>
      <trkpt lat="46.6244" lon="6.25246">
        <ele>1011.1</ele>
        <time>2024-06-16T07:14:20Z</time>
      </trkpt>
      <trkpt lat="46.62445" lon="6.25248">
        <ele>1011</ele>
        <time>2024-06-16T07:14:21Z</time>
      </trkpt>
      <trkpt lat="46.62451" lon="6.25251">
        <ele>1010.8</ele>
        <time>2024-06-16T07:14:22Z</time>
      </trkpt>
      <trkpt lat="46.62456" lon="6.25254">
        <ele>1010.8</ele>
        <time>2024-06-16T07:14:23Z</time>
      </trkpt>
      <trkpt lat="46.62461" lon="6.25256">
        <ele>1010.8</ele>
        <time>2024-06-16T07:14:24Z</time>
      </trkpt>
      <trkpt lat="46.62465" lon="6.25259">
        <ele>1010.8</ele>
        <time>2024-06-16T07:14:25Z</time>
      </trkpt>
      <trkpt lat="46.6247" lon="6.25262">
        <ele>1010.9</ele>
        <time>2024-06-16T07:14:26Z</time>
      </trkpt>
      <trkpt lat="46.62475" lon="6.25265">
        <ele>1011.3</ele>
        <time>2024-06-16T07:14:27Z</time>
      </trkpt>
      <trkpt lat="46.62479" lon="6.25268">
        <ele>1011.5</ele>
        <time>2024-06-16T07:14:28Z</time>
      </trkpt>
      <trkpt lat="46.62483" lon="6.25272">
        <ele>1011.7</ele>
        <time>2024-06-16T07:14:29Z</time>
      </trkpt>
      <trkpt lat="46.62487" lon="6.25275">
        <ele>1011.7</ele>
        <time>2024-06-16T07:14:30Z</time>
      </trkpt>
      <trkpt lat="46.62491" lon="6.25278">
        <ele>1011.7</ele>
        <time>2024-06-16T07:14:31Z</time>
      </trkpt>
      <trkpt lat="46.62495" lon="6.25279">
        <ele>1011.6</ele>
        <time>2024-06-16T07:14:32Z</time>
      </trkpt>
      <trkpt lat="46.62498" lon="6.25279">
        <ele>1011.5</ele>
        <time>2024-06-16T07:14:33Z</time>
      </trkpt>
      <trkpt lat="46.625" lon="6.25277">
        <ele>1011.3</ele>
        <time>2024-06-16T07:14:34Z</time>
      </trkpt>
      <trkpt lat="46.625" lon="6.25275">
        <ele>1011.1</ele>
        <time>2024-06-16T07:14:35Z</time>
      </trkpt>
      <trkpt lat="46.625" lon="6.25274">
        <ele>1011</ele>
        <time>2024-06-16T07:14:36Z</time>
      </trkpt>
      <trkpt lat="46.625" lon="6.25273">
        <ele>1010.8</ele>
        <time>2024-06-16T07:14:37Z</time>
      </trkpt>
      <trkpt lat="46.625" lon="6.25272">
        <ele>1010.4</ele>
        <time>2024-06-16T07:14:38Z</time>
      </trkpt>
      <trkpt lat="46.62499" lon="6.25271">
        <ele>1010.2</ele>
        <time>2024-06-16T07:14:39Z</time>
      </trkpt>
      <trkpt lat="46.62499" lon="6.2527">
        <ele>1010</ele>
        <time>2024-06-16T07:14:40Z</time>
      </trkpt>
      <trkpt lat="46.62498" lon="6.25269">
        <ele>1010</ele>
        <time>2024-06-16T07:14:41Z</time>
      </trkpt>
      <trkpt lat="46.62497" lon="6.25269">
        <ele>1010.1</ele>
        <time>2024-06-16T07:14:42Z</time>
      </trkpt>
      <trkpt lat="46.62496" lon="6.25268">
        <ele>1010.3</ele>
        <time>2024-06-16T07:14:43Z</time>
      </trkpt>
      <trkpt lat="46.62495" lon="6.25268">
        <ele>1010.3</ele>
        <time>2024-06-16T07:14:44Z</time>
      </trkpt>
      <trkpt lat="46.62495" lon="6.25268">
        <ele>1010.4</ele>
        <time>2024-06-16T07:14:45Z</time>
      </trkpt>
      <trkpt lat="46.62494" lon="6.25268">
        <ele>1010.4</ele>
        <time>2024-06-16T07:14:46Z</time>
      </trkpt>
      <trkpt lat="46.62494" lon="6.25267">
        <ele>1010.4</ele>
        <time>2024-06-16T07:14:47Z</time>
      </trkpt>
      <trkpt lat="46.62493" lon="6.25267">
        <ele>1010.5</ele>
        <time>2024-06-16T07:14:48Z</time>
      </trkpt>
      <trkpt lat="46.62493" lon="6.25267">
        <ele>1010.6</ele>
        <time>2024-06-16T07:14:49Z</time>
      </trkpt>
      <trkpt lat="46.62492" lon="6.25267">
        <ele>1010.8</ele>
        <time>2024-06-16T07:14:50Z</time>
      </trkpt>
      <trkpt lat="46.62492" lon="6.25267">
        <ele>1010.9</ele>
        <time>2024-06-16T07:14:51Z</time>
      </trkpt>
      <trkpt lat="46.62492" lon="6.25267">
        <ele>1011</ele>
        <time>2024-06-16T07:14:52Z</time>
      </trkpt>
    </trkseg>
  </trk>
</gpx>